# Wetter Temperatur Luftdruck Luftfeuchtigkeit Sichtweite Windgeschwindigkeit Windrichtung Zeit
1 Clouds 15 1011 75 10000 7.2 230 14:22 07.10.2022
2 Clouds 14 1011 71 10000 7.72 250 11:42 07.10.2022
3 Clouds 12 1010 80 10000 6.69 240 09:25 07.10.2022
4 Clouds 12 1010 81 10000 6.17 250 08:29 07.10.2022
5 Clouds 11 1008 82 10000 5.14 230 05:27 07.10.2022
6 Clear 11 1001 83 10000 5.14 230 00:23 07.10.2022
7 Clear 11 1000 86 10000 4.63 220 22:50 06.10.2022
8 Clouds 11 1006 84 10000 5.66 230 21:41 06.10.2022
9 Clear 11 1005 82 10000 6.17 220 20:45 06.10.2022
10 Clouds 11 1005 84 10000 5.14 230 19:33 06.10.2022
11 Clouds 12 1004 84 10000 5.14 230 18:32 06.10.2022
12 Clouds 13 1001 81 10000 6.17 250 15:47 06.10.2022
13 Clouds 14 999 89 10000 7.72 220 13:49 06.10.2022
14 Drizzle 12 992 91 2900 8.05 214 10:43 06.10.2022
15 Clouds 13 1001 88 10000 8.23 190 05:43 06.10.2022
16 Clouds 12 1004 91 5000 6.69 200 02:38 06.10.2022
17 Drizzle 12 1006 92 4000 5.14 180 22:29 05.10.2022
18 Mist 12 1006 92 3500 5.14 190 19:54 05.10.2022
19 Clouds 12 1006 89 3000 5.14 180 17:48 05.10.2022
20 Clouds 12 1006 89 3000 5.14 180 17:27 05.10.2022
21 Clouds 12 1007 90 10000 3.6 180 15:37 05.10.2022
22 Clouds 12 1007 90 10000 4.12 180 14:38 05.10.2022
23 Mist 11 1007 91 5000 3.6 170 13:39 05.10.2022
24 Drizzle 10 1007 91 10000 4.63 150 12:19 05.10.2022
25 Rain 6 1001 90 10000 2.57 100 08:31 05.10.2022
26 Rain 5 1001 92 10000 1.03 0 07:23 05.10.2022
27 Clear 4 1008 93 10000 0.45 323 05:35 05.10.2022
28 Clouds 4 1009 90 10000 1.34 306 02:40 05.10.2022
29 Clouds 5 1002 90 10000 2.57 280 00:41 05.10.2022
30 Clouds 5 1004 89 10000 2.68 279 00:23 05.10.2022
31 Clouds 7 1003 82 10000 2.57 10 21:38 04.10.2022
32 Clouds 9 1009 77 10000 5.14 340 20:20 04.10.2022
33 Clouds 9 1009 76 10000 5.14 350 18:56 04.10.2022
34 Clouds 9 1009 76 10000 5.14 350 18:34 04.10.2022
35 Clouds 9 1008 76 10000 4.63 340 16:58 04.10.2022
36 Clouds 9 1008 77 10000 5.14 340 16:20 04.10.2022
37 Clouds 8 1000 82 10000 5.14 350 11:25 04.10.2022
38 Clouds 7 1004 84 10000 5.14 340 08:28 04.10.2022
39 Clouds 6 1004 83 10000 6.17 340 06:22 04.10.2022
40 Clear 7 1005 82 10000 7.72 340 00:29 04.10.2022
41 Clouds 8 1000 85 10000 6.17 340 22:58 03.10.2022
42 Clouds 8 1007 84 10000 5.14 350 21:41 03.10.2022
43 Clouds 8 1002 84 10000 5.14 360 20:43 03.10.2022
44 Clouds 8 1008 83 10000 5.66 350 18:53 03.10.2022
45 Clouds 8 1009 84 10000 5.66 340 17:38 03.10.2022
46 Clouds 8 1011 86 10000 6.17 350 16:23 03.10.2022
47 Clouds 7 1010 87 10000 5.14 340 15:26 03.10.2022
48 Clouds 9 1012 85 10000 4.63 360 13:39 03.10.2022
49 Clouds 8 1011 87 10000 5.14 20 11:45 03.10.2022
50 Clouds 7 1011 89 10000 3.13 7 10:19 03.10.2022
51 Fog 6 1006 92 10000 3.09 30 08:56 03.10.2022
52 Clear 6 1011 90 10000 2.57 20 04:49 03.10.2022
53 Clear 7 1010 89 10000 2.24 339 01:30 03.10.2022
54 Clear 8 1005 89 10000 2.06 50 22:19 02.10.2022
55 Clear 8 1005 89 10000 2.06 50 22:19 02.10.2022
56 Clear 8 1003 89 10000 3.09 80 20:18 02.10.2022
57 Clear 10 1009 79 10000 2.24 106 17:58 02.10.2022
58 Clear 11 1009 79 10000 3.13 127 17:20 02.10.2022
59 Clear 11 1009 75 10000 3.09 110 16:33 02.10.2022
60 Clouds 12 1008 75 10000 3.6 110 15:39 02.10.2022
61 Clouds 12 1008 76 10000 4.63 130 13:46 02.10.2022
62 Clouds 12 1008 76 10000 4.63 120 12:43 02.10.2022
63 Clouds 12 1008 78 10000 4.63 120 12:23 02.10.2022
64 Clouds 12 1008 81 10000 5.36 128 11:34 02.10.2022
65 Clouds 11 1008 82 10000 3.58 111 10:29 02.10.2022
66 Clouds 9 1009 90 10000 2.06 60 08:31 02.10.2022
67 Clouds 8 1008 89 10000 2.06 50 05:23 02.10.2022
68 Fog 8 1008 89 10000 1.79 140 01:29 02.10.2022
69 Clouds 8 1008 91 10000 2.57 140 00:39 02.10.2022
70 Clouds 8 1008 91 10000 2.57 140 00:39 02.10.2022
71 Clouds 8 1008 91 10000 2.57 140 00:38 02.10.2022
72 Clouds 8 1009 90 10000 3.09 140 23:29 01.10.2022
73 Clouds 8 1009 88 10000 1.54 80 22:24 01.10.2022
74 Clouds 10 1008 85 10000 2.24 154 19:31 01.10.2022
75 Clouds 12 1009 79 10000 2.57 100 17:46 01.10.2022
76 Clouds 12 1010 77 10000 5.14 160 16:24 01.10.2022
77 Clouds 13 1010 77 10000 5.14 170 14:18 01.10.2022
78 Clouds 12 1011 77 10000 5.66 160 12:35 01.10.2022
79 Clouds 11 1011 85 10000 5.66 180 11:23 01.10.2022
80 Clouds 11 1011 82 10000 5.14 180 10:53 01.10.2022
81 Clouds 10 1006 85 10000 4.12 180 10:30 01.10.2022
82 Clouds 10 1006 85 10000 5.14 180 10:30 01.10.2022
83 Clouds 9 1006 86 10000 2.57 150 09:26 01.10.2022
84 Clouds 8 1005 86 10000 2.68 178 08:39 01.10.2022
85 Clouds 5 1005 93 10000 1.79 259 03:50 01.10.2022
86 Clear 5 1005 94 10000 0.89 226 03:22 01.10.2022
87 Clear 6 1011 90 10000 2.06 240 23:22 30.09.2022
88 Clear 6 1004 92 10000 1.54 230 22:19 30.09.2022
89 Clear 7 1005 89 10000 2.24 267 21:22 30.09.2022
90 Clouds 7 1005 89 10000 2.06 230 20:30 30.09.2022
91 Clouds 9 1009 86 10000 2.06 240 18:45 30.09.2022
92 Clouds 10 1009 81 10000 3.09 240 16:55 30.09.2022
93 Clouds 10 1009 81 10000 2.24 251 14:49 30.09.2022
94 Clouds 10 1008 86 10000 2.24 210 12:51 30.09.2022
95 Clouds 10 1008 87 10000 2.68 243 11:56 30.09.2022
96 Rain 8 1006 92 10000 1.54 70 09:25 30.09.2022
97 Clouds 7 1006 94 10000 1.54 40 08:19 30.09.2022
98 Clouds 7 1005 94 10000 1.54 20 04:21 30.09.2022
99 Clouds 7 1005 94 10000 1.54 350 02:21 30.09.2022
100 Clouds 8 1004 92 10000 2.68 209 21:53 29.09.2022
101 Clouds 8 1004 91 10000 2.68 194 21:24 29.09.2022
102 Clouds 8 1003 94 10000 3.6 50 19:58 29.09.2022
103 Clouds 8 1003 92 10000 4.92 164 18:30 29.09.2022
104 Rain 8 1002 94 10000 4.12 50 16:29 29.09.2022
105 Rain 8 1003 93 8000 4.63 40 15:37 29.09.2022
106 Rain 8 1003 94 10000 3.09 30 14:59 29.09.2022
107 Rain 7 1003 93 10000 4.12 30 12:45 29.09.2022
108 Rain 7 1004 92 10000 4.12 50 08:47 29.09.2022
109 Rain 7 998 93 10000 3.6 20 04:46 29.09.2022
110 Clouds 7 1001 91 10000 4.12 20 02:36 29.09.2022
111 Clouds 8 1002 92 10000 4.63 30 23:26 28.09.2022
112 Rain 8 1003 91 10000 4.63 30 21:40 28.09.2022
113 Rain 8 1003 91 10000 3.58 56 21:22 28.09.2022
114 Rain 8 1004 91 10000 4.12 30 19:56 28.09.2022
115 Clouds 10 1008 82 10000 4.63 60 16:46 28.09.2022
116 Clouds 12 1009 78 10000 4.12 80 14:19 28.09.2022
117 Clouds 11 1010 84 10000 6.71 68 11:45 28.09.2022
118 Clouds 9 1005 92 10000 5.66 60 09:37 28.09.2022
119 Clouds 8 1004 93 10000 4.63 50 07:52 28.09.2022
120 Clouds 8 1005 91 10000 4.12 40 05:48 28.09.2022
121 Clouds 8 1005 88 10000 4.12 50 01:44 28.09.2022
122 Clouds 7 1004 88 10000 4.12 40 00:36 28.09.2022
123 Clouds 8 1007 83 10000 3.6 50 22:49 27.09.2022
124 Clouds 9 1007 83 10000 3.6 60 21:20 27.09.2022
125 Clouds 9 1007 82 10000 3.09 60 20:34 27.09.2022
126 Clouds 9 1006 81 10000 3.09 60 19:40 27.09.2022
127 Clouds 12 1011 73 10000 8.05 95 17:47 27.09.2022
128 Clouds 12 1010 70 10000 6.17 90 16:56 27.09.2022
129 Clouds 13 1010 68 10000 6.26 70 15:18 27.09.2022
130 Clouds 13 1010 71 10000 5.36 90 13:53 27.09.2022
131 Clouds 13 1010 73 10000 6.26 67 12:37 27.09.2022
132 Clouds 12 1010 82 10000 7.6 104 10:35 27.09.2022
133 Clouds 10 1009 88 10000 4.92 114 07:55 27.09.2022
134 Clouds 9 1008 89 10000 3.13 103 04:52 27.09.2022
135 Clear 10 1009 85 10000 3.58 138 01:40 27.09.2022
136 Clouds 10 1009 84 10000 4.92 135 00:23 27.09.2022
137 Clouds 10 1004 86 10000 4.92 149 23:24 26.09.2022
138 Clouds 11 1008 83 10000 3.6 100 21:35 26.09.2022
139 Clouds 10 1004 85 10000 4.92 108 19:49 26.09.2022
140 Clear 11 1004 82 10000 4.12 80 18:55 26.09.2022
141 Clear 12 1008 74 10000 4.47 99 17:25 26.09.2022
142 Clear 12 1008 70 10000 5.36 114 15:25 26.09.2022
143 Clouds 11 1003 76 10000 5.36 166 12:31 26.09.2022
144 Clouds 11 1003 83 10000 4.92 180 10:44 26.09.2022
145 Clouds 11 1003 83 10000 4.92 176 10:23 26.09.2022
146 Clouds 10 1002 85 10000 5.81 207 09:59 26.09.2022
147 Clouds 10 1002 85 10000 5.81 207 09:40 26.09.2022
148 Clouds 10 1002 87 10000 4.92 203 09:20 26.09.2022
149 Clouds 7 1001 90 10000 2.57 50 05:30 26.09.2022
150 Clouds 7 1002 90 10000 2.68 79 02:29 26.09.2022
151 Clouds 7 1003 86 10000 1.54 50 23:24 25.09.2022
152 Clouds 7 1002 85 10000 1.34 350 21:44 25.09.2022
153 Clear 7 1003 82 10000 0.51 10 20:59 25.09.2022
154 Clear 7 1004 83 10000 0.51 0 20:34 25.09.2022
155 Clouds 10 1010 71 10000 2.06 10 18:49 25.09.2022
156 Clouds 10 1010 68 10000 2.57 20 18:24 25.09.2022
157 Clouds 11 1010 65 10000 3.6 330 17:22 25.09.2022
158 Clouds 12 1010 62 10000 4.63 10 15:50 25.09.2022
159 Clouds 12 1011 61 10000 5.66 330 14:35 25.09.2022
160 Clouds 12 1011 63 10000 6.17 350 13:58 25.09.2022
161 Clouds 10 1012 77 10000 3.6 360 10:38 25.09.2022
162 Clouds 9 1013 82 10000 3.09 330 09:37 25.09.2022
163 Clouds 6 1007 91 10000 3.09 330 06:53 25.09.2022
164 Clear 7 1009 92 10000 2.06 320 04:28 25.09.2022
165 Clear 9 1015 87 10000 2.57 340 23:36 24.09.2022
166 Clear 10 1015 90 10000 2.06 330 21:19 24.09.2022
167 Clouds 11 1016 85 10000 0.89 78 19:33 24.09.2022
168 Clouds 11 1016 86 10000 0.45 79 18:44 24.09.2022
169 Clouds 12 1016 77 10000 0.51 0 16:43 24.09.2022
170 Clouds 12 1016 74 10000 1.03 0 15:23 24.09.2022
171 Clouds 13 1016 74 10000 2.68 108 14:27 24.09.2022
172 Clouds 13 1012 71 10000 2.24 160 12:59 24.09.2022
173 Clouds 12 1012 70 10000 2.06 70 12:22 24.09.2022
174 Clear 11 1012 80 10000 2.06 60 09:58 24.09.2022
175 Clear 10 1009 88 10000 2.24 86 08:51 24.09.2022
176 Clouds 9 1016 90 10000 1.54 40 07:40 24.09.2022
177 Clouds 9 1017 90 10000 2.57 50 04:50 24.09.2022
178 Clouds 9 1017 91 10000 2.06 70 03:48 24.09.2022
179 Clear 9 1017 84 10000 1.79 139 22:54 23.09.2022
180 Clouds 10 1018 84 10000 1.34 129 21:33 23.09.2022
181 Clouds 10 1018 81 10000 2.06 120 20:57 23.09.2022
182 Clouds 11 1018 81 10000 2.06 120 20:26 23.09.2022
183 Clouds 11 1018 79 10000 3.09 160 19:19 23.09.2022
184 Clouds 13 1018 70 10000 2.68 217 15:29 23.09.2022
185 Clouds 13 1019 70 10000 3.13 179 11:47 23.09.2022
186 Clouds 11 1019 75 10000 1.03 0 09:36 23.09.2022
187 Clouds 7 1018 92 10000 1.79 331 06:39 23.09.2022
188 Clouds 7 1015 91 10000 1.03 30 00:42 23.09.2022
189 Clouds 7 1016 90 10000 1.03 50 23:23 22.09.2022
190 Clear 7 1016 90 10000 1.03 210 22:27 22.09.2022
191 Clouds 7 1016 88 10000 1.03 0 21:19 22.09.2022
192 Clouds 8 1016 84 10000 2.06 190 19:58 22.09.2022
193 Clouds 11 1021 72 10000 4.63 210 17:38 22.09.2022
194 Clouds 12 1024 66 10000 1.79 154 13:20 22.09.2022
195 Clouds 10 1019 66 10000 2.57 20 10:37 22.09.2022
196 Clouds 8 1019 78 10000 2.06 30 08:58 22.09.2022
197 Clouds 5 1019 90 10000 2.24 339 07:27 22.09.2022
198 Clouds 5 1019 90 10000 2.06 40 04:36 22.09.2022
199 Clouds 7 1024 82 10000 2.06 30 23:32 21.09.2022
200 Clouds 9 1025 81 10000 2.57 40 21:51 21.09.2022
201 Clouds 10 1025 77 10000 2.57 20 20:40 21.09.2022
202 Clouds 12 1023 68 10000 3.09 350 17:51 21.09.2022
203 Clouds 12 1023 65 10000 2.57 10 16:55 21.09.2022
204 Clouds 12 1023 64 10000 2.06 60 14:52 21.09.2022
205 Clouds 12 1023 67 10000 2.57 60 13:24 21.09.2022
206 Clouds 11 1023 78 10000 4.12 350 11:30 21.09.2022
207 Clouds 10 1023 80 10000 3.6 350 10:34 21.09.2022
208 Clouds 9 1017 85 10000 3.58 56 09:36 21.09.2022
209 Clouds 6 1015 89 10000 2.68 327 07:58 21.09.2022
210 Clouds 6 1015 91 10000 3.58 342 02:51 21.09.2022
211 Clouds 7 1012 92 10000 3.58 330 02:29 21.09.2022
212 Clouds 8 1013 89 10000 4.02 332 00:57 21.09.2022
213 Clouds 9 1012 87 10000 4.47 33 23:19 20.09.2022
214 Clouds 9 1017 85 10000 4.12 340 21:21 20.09.2022
215 Clouds 10 1011 87 10000 2.57 340 19:57 20.09.2022
216 Clouds 10 1008 86 10000 3.09 340 17:38 20.09.2022
217 Clouds 12 1012 72 10000 4.12 330 14:53 20.09.2022
218 Clouds 12 1006 72 10000 4.63 340 13:52 20.09.2022
219 Clouds 11 1002 78 10000 6.17 340 10:41 20.09.2022
220 Clouds 10 1001 85 10000 5.14 320 08:29 20.09.2022
221 Clouds 10 999 85 10000 4.63 320 07:27 20.09.2022
222 Clouds 10 1004 86 10000 5.66 320 04:29 20.09.2022
223 Clear 10 995 88 10000 5.14 330 23:49 19.09.2022
224 Clear 10 995 90 10000 4.12 330 22:28 19.09.2022
225 Clear 10 994 88 10000 4.12 320 20:58 19.09.2022
226 Clear 10 994 88 10000 4.12 310 20:39 19.09.2022
227 Clouds 12 994 76 10000 4.63 330 17:55 19.09.2022
228 Clouds 13 994 75 10000 5.66 350 15:56 19.09.2022
229 Clouds 13 994 80 10000 5.66 340 13:39 19.09.2022
230 Clouds 13 993 81 10000 5.81 35 11:30 19.09.2022
231 Clouds 11 993 88 10000 4.12 360 09:20 19.09.2022
232 Clouds 10 993 91 10000 3.6 350 08:19 19.09.2022
233 Clouds 10 999 92 10000 1.79 289 02:18 19.09.2022
234 Clouds 11 1000 90 10000 1.54 290 23:24 18.09.2022
235 Clouds 11 999 89 10000 1.03 0 21:45 18.09.2022
236 Clouds 11 1000 87 10000 2.68 283 20:34 18.09.2022
237 Clouds 13 999 80 10000 1.34 258 18:41 18.09.2022
238 Clouds 14 999 76 10000 2.68 216 17:43 18.09.2022
239 Clouds 14 994 76 10000 3.6 260 15:56 18.09.2022
240 Clouds 15 998 70 10000 4.12 230 14:30 18.09.2022
241 Clouds 14 993 78 10000 2.68 228 12:36 18.09.2022
242 Clouds 13 992 82 10000 3.58 268 11:39 18.09.2022
243 Clouds 9 988 91 10000 4.12 270 06:30 18.09.2022
244 Fog 9 987 93 10000 2.06 280 01:30 18.09.2022
245 Fog 9 987 92 10000 3.09 300 00:42 18.09.2022
246 Fog 9 987 93 10000 2.06 270 21:54 17.09.2022
247 Fog 10 986 91 10000 2.68 277 20:29 17.09.2022
248 Clouds 11 986 91 10000 2.06 290 19:19 17.09.2022
249 Clouds 13 990 83 10000 2.57 210 16:57 17.09.2022
250 Clouds 13 983 78 10000 2.06 10 13:59 17.09.2022
251 Clouds 13 984 86 10000 1.03 0 11:55 17.09.2022
252 Clouds 12 983 90 10000 1.34 341 10:28 17.09.2022
253 Clouds 9 981 92 10000 1.54 300 06:28 17.09.2022
254 Clear 9 982 93 10000 0.45 317 02:43 17.09.2022
255 Clouds 9 982 93 10000 2.24 288 22:58 16.09.2022
256 Clouds 10 982 92 10000 0.45 201 21:32 16.09.2022
257 Clouds 10 982 92 10000 1.54 220 20:31 16.09.2022
258 Clouds 13 987 87 10000 2.06 250 17:52 16.09.2022
259 Clouds 13 987 87 10000 2.06 250 17:52 16.09.2022
260 Clouds 13 982 89 10000 2.24 269 15:57 16.09.2022
261 Clouds 13 981 90 10000 1.54 70 14:32 16.09.2022
262 Rain 12 981 92 10000 3.13 211 11:56 16.09.2022
263 Clouds 11 981 89 10000 3.58 197 09:21 16.09.2022
264 Clouds 10 981 91 10000 2.24 221 07:20 16.09.2022
265 Clouds 10 980 92 10000 1.79 97 06:47 16.09.2022
266 Clouds 10 982 92 10000 1.03 0 02:59 16.09.2022
267 Clouds 11 983 92 10000 2.24 280 23:48 15.09.2022
268 Rain 12 984 89 10000 3.13 191 21:24 15.09.2022
269 Rain 12 984 88 10000 4.47 234 20:23 15.09.2022
270 Clouds 13 989 84 10000 3.09 150 18:30 15.09.2022
271 Clouds 14 989 83 10000 4.12 160 17:33 15.09.2022
272 Clouds 14 989 83 10000 4.12 130 16:52 15.09.2022
273 Clouds 14 990 82 10000 4.12 170 14:41 15.09.2022
274 Clouds 14 990 85 10000 3.6 160 12:30 15.09.2022
275 Rain 11 985 91 10000 2.68 181 10:21 15.09.2022
276 Rain 11 984 90 10000 7.6 186 07:51 15.09.2022
277 Rain 12 987 91 10000 5.81 221 03:58 15.09.2022
278 Fog 12 988 91 10000 4.47 200 01:27 15.09.2022
279 Clouds 12 990 92 10000 5.66 160 21:54 14.09.2022
280 Rain 12 994 92 10000 8.49 154 19:55 14.09.2022
281 Rain 13 995 90 10000 8.05 177 19:20 14.09.2022
282 Clouds 13 996 89 10000 7.6 167 16:57 14.09.2022
283 Clouds 13 992 88 10000 9.83 167 15:49 14.09.2022
284 Clouds 12 992 89 10000 10.73 162 14:33 14.09.2022
285 Clouds 12 997 92 9000 9.83 169 11:39 14.09.2022
286 Clouds 12 992 89 10000 7.6 130 09:48 14.09.2022
287 Rain 12 992 88 10000 6.69 130 07:38 14.09.2022
288 Rain 12 993 85 10000 6.69 130 06:46 14.09.2022
289 Clouds 12 996 85 10000 9.83 164 04:33 14.09.2022
290 Clouds 12 998 83 10000 8.94 188 01:47 14.09.2022
291 Clouds 12 998 83 10000 8.94 188 01:27 14.09.2022
292 Clouds 12 998 81 10000 8.94 169 00:48 14.09.2022
293 Clouds 12 999 81 10000 8.05 209 23:54 13.09.2022
294 Clouds 12 999 81 10000 7.6 185 23:36 13.09.2022
295 Clouds 12 999 81 10000 7.6 185 23:18 13.09.2022
296 Clouds 12 1000 81 10000 9.83 181 21:45 13.09.2022
297 Clouds 12 1001 80 10000 8.05 196 19:38 13.09.2022
298 Clouds 12 1002 79 10000 7.15 197 17:41 13.09.2022
299 Clouds 13 1003 73 10000 6.71 181 15:55 13.09.2022
300 Clouds 13 1009 72 10000 5.66 160 14:35 13.09.2022
301 Clouds 13 1005 74 10000 5.66 160 12:32 13.09.2022
302 Clouds 12 1011 80 10000 6.26 221 08:43 13.09.2022
303 Clouds 11 1012 80 10000 3.6 160 05:22 13.09.2022
304 Clouds 10 1005 86 10000 2.06 120 23:37 12.09.2022
305 Clouds 10 1007 84 10000 1.79 190 22:49 12.09.2022
306 Clouds 10 1007 83 10000 2.24 180 21:37 12.09.2022
307 Clear 10 1009 85 10000 1.34 124 20:25 12.09.2022
308 Clouds 12 1015 77 10000 2.57 120 18:44 12.09.2022
309 Clouds 15 1009 64 10000 5.14 140 16:32 12.09.2022
310 Clouds 15 1009 65 10000 5.14 140 16:32 12.09.2022
311 Clouds 15 1009 65 10000 5.14 140 16:32 12.09.2022
312 Clouds 16 1009 65 10000 3.6 150 13:57 12.09.2022
313 Clouds 16 1010 61 10000 3.09 80 11:29 12.09.2022
314 Clear 14 1010 72 10000 2.06 50 09:45 12.09.2022
315 Clear 6 1015 85 10000 3.13 337 04:50 12.09.2022
316 Clear 6 1015 85 10000 3.13 333 04:20 12.09.2022
317 Clear 8 1009 84 10000 2.24 352 23:23 11.09.2022
318 Clear 9 1016 78 10000 2.06 40 21:59 11.09.2022
319 Clear 10 1016 75 10000 1.54 80 20:47 11.09.2022
320 Clear 12 1016 68 10000 2.06 100 19:53 11.09.2022
321 Clear 13 1016 65 10000 2.06 100 19:22 11.09.2022
322 Clear 15 1016 60 10000 4.63 130 18:20 11.09.2022
323 Clouds 16 1017 56 10000 4.02 134 16:36 11.09.2022
324 Clouds 17 1016 54 10000 3.58 114 14:33 11.09.2022
325 Clouds 16 1017 54 10000 4.47 105 12:40 11.09.2022
326 Clear 12 1013 80 10000 1.54 50 08:48 11.09.2022
327 Clear 7 1009 94 10000 1.79 321 06:56 11.09.2022
328 Clear 8 1013 91 10000 2.68 336 00:50 11.09.2022
329 Clear 9 1014 85 10000 2.57 50 22:55 10.09.2022
330 Clear 10 1012 80 10000 2.06 60 20:59 10.09.2022
331 Clear 11 1015 73 10000 2.06 100 19:46 10.09.2022
332 Clear 12 1015 70 10000 2.06 100 19:28 10.09.2022
333 Clear 13 1019 57 10000 3.09 130 18:51 10.09.2022
334 Clear 16 1020 50 10000 3.09 180 15:49 10.09.2022
335 Clouds 16 1021 50 10000 3.09 0 14:42 10.09.2022
336 Clouds 15 1016 54 10000 4.63 140 12:52 10.09.2022
337 Clouds 15 1018 59 10000 5.14 130 10:46 10.09.2022
338 Clouds 13 1016 68 10000 3.6 140 09:28 10.09.2022
339 Clouds 10 1008 78 10000 2.06 50 08:27 10.09.2022
340 Clear 6 1009 93 10000 2.57 50 06:41 10.09.2022
341 Clear 9 1016 79 10000 2.24 177 00:19 10.09.2022
342 Clear 8 1014 85 10000 2.06 80 23:31 09.09.2022
343 Clear 8 1023 78 10000 2.57 60 21:38 09.09.2022
344 Clear 9 1024 76 10000 1.79 60 20:41 09.09.2022
345 Clouds 11 1024 66 10000 3.09 120 19:24 09.09.2022
346 Clouds 13 1023 56 10000 3.6 140 18:38 09.09.2022
347 Clouds 14 1025 51 10000 2.06 140 16:21 09.09.2022
348 Clouds 14 1026 53 10000 3.09 170 13:48 09.09.2022
349 Clouds 14 1020 59 10000 4.63 190 11:58 09.09.2022
350 Clouds 13 1026 65 10000 3.6 140 09:22 09.09.2022
351 Clouds 5 1025 84 10000 1.03 0 04:29 09.09.2022
352 Clear 6 1025 84 10000 0.51 0 00:46 09.09.2022
353 Clear 8 1025 75 10000 1.03 0 21:52 08.09.2022
354 Clear 9 1025 73 10000 2.06 160 20:51 08.09.2022
355 Clear 9 1025 72 10000 2.06 160 20:31 08.09.2022
356 Clear 11 1024 65 10000 3.09 160 19:44 08.09.2022
357 Clear 13 1025 58 10000 3.6 160 17:44 08.09.2022
358 Clear 13 1025 53 10000 2.24 142 16:19 08.09.2022
359 Clear 14 1026 51 10000 2.68 121 14:37 08.09.2022
360 Clouds 13 1026 52 10000 1.79 73 12:51 08.09.2022
361 Clouds 12 1026 50 10000 2.06 0 11:37 08.09.2022
362 Clear 11 1020 60 10000 3.6 40 10:23 08.09.2022
363 Clear 6 1025 85 10000 2.57 30 07:49 08.09.2022
364 Clear 3 1024 90 10000 2.06 360 05:51 08.09.2022
365 Clear 4 1024 87 10000 2.68 340 02:36 08.09.2022
366 Clear 4 1024 87 10000 2.68 340 02:36 08.09.2022
367 Clear 4 1024 86 10000 2.68 329 02:18 08.09.2022
368 Clear 6 1023 82 10000 2.57 20 00:22 08.09.2022
369 Clear 7 1022 76 10000 2.24 6 22:19 07.09.2022
370 Clear 8 1022 72 10000 2.57 360 21:39 07.09.2022
371 Clear 9 1022 69 10000 3.09 350 20:31 07.09.2022
372 Clouds 11 1021 59 10000 4.12 360 19:26 07.09.2022
373 Clouds 13 1020 51 10000 4.12 10 17:22 07.09.2022
374 Clouds 13 1019 53 10000 5.66 360 12:41 07.09.2022
375 Clouds 12 1019 65 10000 4.63 350 10:45 07.09.2022
376 Clouds 9 1011 83 10000 5.66 360 08:33 07.09.2022
377 Clear 8 1017 87 10000 3.13 339 06:50 07.09.2022
378 Clouds 10 1016 78 10000 2.57 340 00:53 07.09.2022
379 Clouds 12 1016 65 10000 3.09 340 22:35 06.09.2022
380 Clouds 13 1015 64 10000 4.12 350 21:38 06.09.2022
381 Clouds 15 1017 61 10000 3.6 290 19:57 06.09.2022
382 Clouds 16 1017 57 10000 3.09 290 18:42 06.09.2022
383 Clouds 16 1016 58 10000 3.6 300 17:51 06.09.2022
384 Clouds 17 1018 64 10000 5.66 270 16:53 06.09.2022
385 Clouds 16 1018 67 10000 6.17 270 16:25 06.09.2022
386 Clouds 16 1020 58 10000 5.14 250 14:49 06.09.2022
387 Clouds 16 1021 56 10000 6.17 250 13:44 06.09.2022
388 Clouds 16 1021 56 10000 5.66 240 13:19 06.09.2022
389 Clouds 13 1023 62 10000 4.12 250 10:56 06.09.2022
390 Clear 11 1017 69 10000 5.14 250 09:56 06.09.2022
391 Clouds 8 1015 78 10000 3.09 260 08:27 06.09.2022
392 Clear 5 1017 84 10000 2.68 261 06:22 06.09.2022
393 Clouds 6 1019 82 10000 1.03 260 01:22 06.09.2022
394 Clear 7 1019 78 10000 1.34 307 22:57 05.09.2022
395 Clouds 7 1020 76 10000 1.54 340 21:39 05.09.2022
396 Clouds 9 1019 72 10000 2.06 340 20:30 05.09.2022
397 Clouds 11 1019 62 10000 1.54 350 18:53 05.09.2022
398 Clouds 11 1019 62 10000 1.54 350 18:26 05.09.2022
399 Clouds 11 1019 59 10000 2.57 340 17:53 05.09.2022
400 Clouds 11 1020 57 10000 2.57 0 15:54 05.09.2022
401 Clouds 11 1020 58 10000 4.63 330 14:48 05.09.2022
402 Clouds 11 1021 57 10000 3.6 340 12:53 05.09.2022
403 Clouds 10 1023 60 10000 3.09 20 11:21 05.09.2022
404 Clouds 9 1024 71 10000 3.6 340 08:52 05.09.2022
405 Clouds 7 1022 79 10000 2.06 350 05:20 05.09.2022
406 Clouds 7 1022 76 10000 2.57 310 01:19 05.09.2022
407 Clouds 8 1020 73 10000 1.79 4 22:29 04.09.2022
408 Clouds 8 1020 73 10000 1.79 339 21:57 04.09.2022
409 Clouds 9 1019 68 10000 0.89 316 20:35 04.09.2022
410 Clear 12 1026 53 10000 3.6 360 18:39 04.09.2022
411 Clouds 12 1027 53 10000 5.14 10 17:43 04.09.2022
412 Clouds 12 1027 53 10000 6.69 350 16:24 04.09.2022
413 Clouds 13 1027 51 10000 5.14 330 14:25 04.09.2022
414 Clouds 13 1026 58 10000 4.63 350 12:40 04.09.2022
415 Clouds 12 1026 63 10000 6.17 340 11:28 04.09.2022
416 Clouds 10 1018 77 10000 4.63 330 09:38 04.09.2022
417 Clouds 6 1017 89 10000 3.6 310 06:35 04.09.2022
418 Clear 6 1017 88 10000 2.24 290 03:18 04.09.2022
419 Clouds 8 1015 79 10000 2.24 283 22:53 03.09.2022
420 Clouds 8 1014 78 10000 2.24 267 21:42 03.09.2022
421 Clear 8 1015 78 10000 2.24 265 21:22 03.09.2022
422 Clouds 12 1022 58 10000 4.12 320 18:49 03.09.2022
423 Clouds 12 1022 57 10000 5.66 330 17:22 03.09.2022
424 Clouds 13 1022 56 10000 5.66 340 15:54 03.09.2022
425 Clouds 12 1022 59 10000 4.63 300 14:42 03.09.2022
426 Clouds 12 1022 59 10000 6.17 310 13:50 03.09.2022
427 Clouds 11 1014 65 10000 4.63 310 11:33 03.09.2022
428 Clouds 9 1014 78 10000 4.12 280 09:36 03.09.2022
429 Clouds 6 1012 87 10000 2.24 275 07:54 03.09.2022
430 Clouds 6 1012 86 10000 1.79 291 04:55 03.09.2022
431 Clouds 6 1012 85 10000 1.79 284 02:49 03.09.2022
432 Clear 6 1014 82 10000 2.57 310 23:46 02.09.2022
433 Clear 7 1012 82 10000 3.09 300 22:27 02.09.2022
434 Clear 9 1012 72 10000 3.09 310 20:42 02.09.2022
435 Clear 9 1013 69 10000 2.57 320 20:22 02.09.2022
436 Clear 12 1020 55 10000 3.6 340 18:51 02.09.2022
437 Clear 12 1020 55 10000 3.6 340 18:26 02.09.2022
438 Clouds 13 1020 52 10000 4.02 328 17:28 02.09.2022
439 Clouds 13 1013 55 10000 4.63 360 16:32 02.09.2022
440 Clouds 13 1021 49 10000 5.14 330 13:50 02.09.2022
441 Clouds 12 1021 59 10000 6.17 340 11:36 02.09.2022
442 Clouds 10 1014 71 10000 4.47 53 09:46 02.09.2022
443 Clear 9 1014 79 10000 5.14 340 08:49 02.09.2022
444 Clear 6 1014 87 10000 4.02 317 06:49 02.09.2022
445 Clear 5 1014 88 10000 3.6 320 06:24 02.09.2022
446 Clear 7 1013 82 10000 3.6 330 01:41 02.09.2022
447 Clear 9 1013 72 10000 3.6 340 22:24 01.09.2022
448 Clear 9 1012 74 10000 3.09 330 21:39 01.09.2022
449 Clouds 10 1013 70 10000 2.57 330 21:20 01.09.2022
450 Clouds 11 1020 61 10000 4.12 10 20:26 01.09.2022
451 Clear 13 1019 50 10000 5.14 350 18:37 01.09.2022
452 Clear 14 1018 47 10000 7.2 340 16:55 01.09.2022
453 Clear 14 1019 47 10000 5.81 348 15:26 01.09.2022
454 Clear 14 1017 48 10000 6.17 360 13:33 01.09.2022
455 Clouds 14 1018 51 10000 6.69 350 12:55 01.09.2022
456 Clouds 13 1018 54 10000 7.72 340 11:51 01.09.2022
457 Clouds 13 1018 55 10000 7.72 350 11:22 01.09.2022
458 Clouds 11 1011 68 10000 7.72 340 09:32 01.09.2022
459 Clear 7 1012 85 10000 5.66 330 07:31 01.09.2022
460 Clear 7 1012 82 10000 4.63 330 03:59 01.09.2022
461 Clear 8 1011 79 10000 4.63 330 01:30 01.09.2022
462 Clear 8 1011 79 10000 4.63 330 01:30 01.09.2022
463 Clear 8 1011 79 10000 4.63 330 01:30 01.09.2022
464 Clear 8 1011 79 10000 4.63 330 01:30 01.09.2022
465 Clear 8 1011 79 10000 4.63 330 01:30 01.09.2022
466 Clear 8 1011 79 10000 4.63 330 01:30 01.09.2022
467 Clear 8 1011 79 10000 4.63 330 01:30 01.09.2022
468 Clear 8 1012 75 10000 3.13 331 22:50 31.08.2022
469 Clouds 9 1012 72 10000 3.6 340 20:44 31.08.2022
470 Clouds 11 1018 62 10000 4.63 340 18:46 31.08.2022
471 Clouds 12 1012 62 10000 6.17 340 16:47 31.08.2022
472 Clouds 13 1018 55 10000 6.69 340 15:25 31.08.2022
473 Clouds 13 1018 56 10000 6.17 330 13:28 31.08.2022
474 Clouds 12 1018 58 10000 7.2 340 11:54 31.08.2022
475 Clouds 11 1013 72 10000 7.72 340 09:36 31.08.2022
476 Clouds 10 1013 73 10000 7.72 340 09:36 31.08.2022
477 Clouds 9 1012 80 10000 5.66 330 07:39 31.08.2022
478 Clouds 11 1019 72 10000 4.63 340 02:58 31.08.2022
479 Clouds 13 1019 65 10000 2.24 341 22:24 30.08.2022
480 Clouds 14 1019 62 10000 3.58 7 21:28 30.08.2022
481 Clear 14 1019 62 10000 3.13 15 20:35 30.08.2022
482 Clear 18 1017 49 10000 6.26 356 16:58 30.08.2022
483 Clouds 18 1018 52 10000 7.72 10 13:51 30.08.2022
484 Clouds 18 1017 54 10000 8.75 40 11:58 30.08.2022
485 Clouds 18 1017 56 10000 7.72 30 11:20 30.08.2022
486 Clear 16 1017 68 10000 5.81 10 09:39 30.08.2022
487 Clear 11 1010 87 10000 4.63 360 06:48 30.08.2022
488 Clear 12 1017 82 10000 3.09 360 01:18 30.08.2022
489 Clear 14 1017 79 10000 3.6 340 22:38 29.08.2022
490 Clear 14 1016 83 10000 3.58 356 21:53 29.08.2022
491 Clear 15 1016 78 10000 1.54 20 20:47 29.08.2022
492 Clouds 16 1015 68 10000 5.66 20 18:59 29.08.2022
493 Clouds 15 1009 73 10000 5.36 7 17:33 29.08.2022
494 Clouds 15 1008 74 10000 5.36 7 16:58 29.08.2022
495 Clouds 15 1008 77 10000 8.05 359 15:20 29.08.2022
496 Clouds 15 1009 80 10000 6.17 20 13:54 29.08.2022
497 Clouds 15 1014 82 10000 7.2 10 12:24 29.08.2022
498 Clouds 16 1014 80 10000 5.66 10 10:43 29.08.2022
499 Clouds 16 1014 84 10000 5.14 10 09:18 29.08.2022
500 Clouds 15 1012 86 10000 6.17 30 07:20 29.08.2022
501 Clouds 17 1012 91 10000 4.12 360 02:31 29.08.2022
502 Rain 18 1012 90 10000 4.12 350 23:35 28.08.2022
503 Clouds 19 1012 90 10000 4.12 20 21:48 28.08.2022
504 Clouds 20 1013 91 10000 4.12 20 21:25 28.08.2022
505 Clouds 19 999 92 10000 3.6 30 20:18 28.08.2022
506 Clouds 19 1001 88 10000 5.14 30 18:22 28.08.2022
507 Clouds 17 980 99 10000 5.14 20 17:51 28.08.2022
508 Clouds 27 1012 60 10000 3.6 340 16:44 28.08.2022
509 Thunderstorm 27 1012 62 10000 2.57 250 15:33 28.08.2022
510 Clouds 26 1012 68 10000 2.06 330 13:19 28.08.2022
511 Clear 25 1005 68 10000 0.89 187 11:25 28.08.2022
512 Clear 24 1005 73 10000 1.03 0 10:20 28.08.2022
513 Clear 21 1005 87 10000 2.06 40 08:52 28.08.2022
514 Clear 19 1005 90 10000 2.57 50 07:56 28.08.2022
515 Clouds 18 1006 91 10000 2.06 50 07:26 28.08.2022
516 Fog 16 1009 94 800 1.03 50 00:37 28.08.2022
517 Fog 17 1009 93 1500 1.03 70 23:20 27.08.2022
518 Fog 17 1009 94 10000 1.03 140 22:27 27.08.2022
519 Clear 19 1015 91 10000 2.06 120 20:35 27.08.2022
520 Clear 21 1015 82 10000 4.12 140 19:26 27.08.2022
521 Clouds 23 1015 72 10000 3.58 121 16:29 27.08.2022
522 Clouds 23 1009 71 10000 4.12 170 15:31 27.08.2022
523 Clouds 23 1016 73 10000 4.12 140 13:22 27.08.2022
524 Clouds 23 1016 74 10000 5.36 135 11:59 27.08.2022
525 Clouds 22 1016 74 10000 4.02 121 10:30 27.08.2022
526 Clouds 20 1017 81 10000 3.13 83 09:33 27.08.2022
527 Clouds 16 1009 95 10000 2.57 40 06:52 27.08.2022
528 Clouds 15 1011 92 10000 2.06 50 00:53 27.08.2022
529 Clouds 15 1013 91 10000 2.57 50 23:46 26.08.2022
530 Clouds 16 1019 86 10000 2.24 78 21:46 26.08.2022
531 Clouds 17 1019 84 10000 3.09 40 20:20 26.08.2022
532 Clouds 18 1013 81 10000 3.6 80 17:59 26.08.2022
533 Clouds 18 1011 81 10000 3.58 115 16:32 26.08.2022
534 Clouds 19 1011 78 10000 3.58 78 15:24 26.08.2022
535 Clouds 18 1014 79 10000 3.6 40 13:18 26.08.2022
536 Clouds 18 1014 78 10000 3.6 30 11:48 26.08.2022
537 Clouds 17 1022 81 10000 3.09 40 11:21 26.08.2022
538 Clouds 16 1014 85 10000 3.13 16 08:55 26.08.2022
539 Clouds 14 1009 86 10000 1.54 20 03:59 26.08.2022
540 Clouds 16 1023 79 10000 3.09 70 00:39 26.08.2022
541 Clouds 17 1023 76 10000 2.57 30 22:39 25.08.2022
542 Clouds 18 1023 72 10000 3.09 40 20:54 25.08.2022
543 Clouds 18 1023 71 10000 3.13 12 19:35 25.08.2022
544 Clouds 18 1023 70 10000 3.09 30 18:29 25.08.2022
545 Clouds 19 1024 68 10000 2.68 12 17:32 25.08.2022
546 Clouds 19 1024 66 10000 3.09 360 16:45 25.08.2022
547 Clouds 17 1025 72 10000 3.6 340 15:30 25.08.2022
548 Clouds 16 1025 77 10000 4.12 340 13:58 25.08.2022
549 Clouds 17 1023 74 10000 3.09 350 11:21 25.08.2022
550 Clouds 17 1023 73 10000 3.6 350 10:42 25.08.2022
551 Clouds 16 1022 82 10000 4.47 304 07:35 25.08.2022
552 Clouds 16 1022 83 10000 4.63 320 02:51 25.08.2022
553 Clouds 17 1013 89 10000 5.14 310 23:36 24.08.2022
554 Clouds 18 1012 90 10000 4.63 310 22:55 24.08.2022
555 Clouds 18 1013 89 10000 4.12 300 21:53 24.08.2022
556 Clouds 18 1013 89 10000 4.12 300 21:28 24.08.2022
557 Clouds 20 1012 84 10000 4.12 290 19:52 24.08.2022
558 Rain 23 1012 79 10000 3.09 270 16:51 24.08.2022
559 Clouds 23 1019 74 10000 2.57 280 15:53 24.08.2022
560 Clouds 23 1013 75 10000 2.68 284 15:18 24.08.2022
561 Rain 24 1013 76 10000 4.63 240 12:48 24.08.2022
562 Clouds 24 1019 74 10000 1.54 0 11:18 24.08.2022
563 Clouds 20 1001 92 10000 2.06 80 08:45 24.08.2022
564 Clouds 18 1018 90 10000 2.57 80 05:26 24.08.2022
565 Clear 19 1020 84 10000 3.09 60 00:41 24.08.2022
566 Clear 18 1007 87 10000 2.06 40 22:35 23.08.2022
567 Clear 17 1002 91 10000 1.54 20 21:49 23.08.2022
568 Clear 20 1020 71 10000 2.06 90 20:43 23.08.2022
569 Clear 22 1020 72 10000 3.58 114 18:58 23.08.2022
570 Clear 23 1020 62 10000 3.09 120 17:56 23.08.2022
571 Clear 24 1021 56 10000 3.13 134 17:21 23.08.2022
572 Clear 24 1021 53 10000 3.09 110 15:54 23.08.2022
573 Clouds 23 1022 56 10000 4.12 110 13:54 23.08.2022
574 Clouds 23 1022 59 10000 6.17 130 12:46 23.08.2022
575 Clear 23 1022 57 10000 4.02 117 10:57 23.08.2022
576 Clear 21 1023 72 10000 3.6 130 10:33 23.08.2022
577 Clear 19 1021 77 10000 1.54 100 08:58 23.08.2022
578 Clear 18 1021 82 10000 1.03 40 08:38 23.08.2022
579 Clear 17 1022 85 10000 1.03 0 08:18 23.08.2022
580 Clear 15 1021 89 10000 1.79 327 07:25 23.08.2022
581 Clouds 14 1021 91 10000 0.89 330 06:22 23.08.2022
582 Fog 15 1020 87 10000 1.34 289 01:44 23.08.2022
583 Clear 16 1019 86 10000 1.34 281 00:26 23.08.2022
584 Clear 16 1019 85 10000 1.03 240 23:32 22.08.2022
585 Clear 17 1018 82 10000 2.06 220 22:19 22.08.2022
586 Clouds 20 1018 72 10000 3.09 190 20:29 22.08.2022
587 Clouds 21 1017 69 10000 3.6 180 19:41 22.08.2022
588 Clouds 22 1017 68 10000 4.12 180 18:36 22.08.2022
589 Clouds 22 1015 71 10000 3.09 230 15:46 22.08.2022
590 Clouds 22 1016 74 10000 3.13 214 15:18 22.08.2022
591 Clouds 18 1014 84 10000 2.06 280 11:39 22.08.2022
592 Clouds 15 1013 86 10000 4.12 330 09:24 22.08.2022
593 Clouds 20 1010 85 10000 3.6 160 05:44 22.08.2022
594 Clear 21 1011 78 10000 4.63 150 00:56 22.08.2022
595 Clear 21 1011 78 10000 5.14 160 00:36 22.08.2022
596 Clear 21 1012 75 10000 5.14 150 23:21 21.08.2022
597 Clear 21 1012 73 10000 5.66 140 21:55 21.08.2022
598 Clear 21 1012 73 10000 6.69 140 21:18 21.08.2022
599 Clouds 22 1012 75 10000 5.66 120 19:42 21.08.2022
600 Clear 22 1012 73 10000 5.14 110 18:35 21.08.2022
601 Clouds 22 1013 72 10000 7.2 110 16:34 21.08.2022
602 Clouds 23 1013 70 10000 7.2 110 15:51 21.08.2022
603 Clouds 23 1013 69 10000 6.26 104 14:41 21.08.2022
604 Clouds 23 1013 68 10000 6.69 120 13:44 21.08.2022
605 Clouds 23 1013 68 10000 6.26 126 12:53 21.08.2022
606 Clouds 22 1014 75 10000 5.14 130 09:57 21.08.2022
607 Clear 21 1014 79 10000 4.63 140 08:56 21.08.2022
608 Clear 20 1014 80 10000 4.63 140 08:38 21.08.2022
609 Clear 20 1014 82 10000 4.12 140 07:50 21.08.2022
610 Clear 19 1014 87 10000 4.63 120 05:39 21.08.2022
611 Clear 21 1015 78 10000 4.63 130 00:54 21.08.2022
612 Clear 22 1016 73 10000 5.14 120 23:20 20.08.2022
613 Clear 23 1016 67 10000 5.14 130 21:46 20.08.2022
614 Clear 23 1016 69 10000 4.12 120 20:48 20.08.2022
615 Clear 24 1016 66 10000 4.63 130 19:42 20.08.2022
616 Clear 24 1016 68 10000 4.63 130 18:45 20.08.2022
617 Clear 24 1016 66 10000 4.63 130 18:25 20.08.2022
618 Clouds 24 1016 68 10000 7.2 120 17:20 20.08.2022
619 Clouds 24 1016 64 10000 9.77 120 15:52 20.08.2022
620 Clouds 25 1017 58 10000 9.26 100 13:48 20.08.2022
621 Clouds 24 1018 62 10000 6.71 105 11:53 20.08.2022
622 Clouds 24 1018 63 10000 8.23 130 11:24 20.08.2022
623 Clear 23 1018 67 10000 6.69 140 09:20 20.08.2022
624 Clear 21 1019 76 10000 5.14 130 06:40 20.08.2022
625 Clear 21 1018 77 10000 4.12 130 04:40 20.08.2022
626 Clear 23 1018 67 10000 4.12 140 00:55 20.08.2022
627 Clear 23 1019 74 10000 6.17 150 23:25 19.08.2022
628 Clear 23 1019 75 10000 5.66 140 22:36 19.08.2022
629 Clear 22 1018 78 10000 2.06 110 20:41 19.08.2022
630 Clear 28 1018 54 10000 3.6 110 18:53 19.08.2022
631 Clear 28 1017 56 10000 5.66 130 15:55 19.08.2022
632 Clear 28 1017 56 10000 5.66 130 15:55 19.08.2022
633 Clouds 28 1017 57 10000 6.69 120 13:41 19.08.2022
634 Clear 26 1017 65 10000 6.69 130 11:40 19.08.2022
635 Clear 26 1017 65 10000 5.66 120 10:30 19.08.2022
636 Clear 22 1018 78 10000 3.09 110 07:25 19.08.2022
637 Clear 22 1015 82 10000 2.57 120 02:23 19.08.2022
638 Clear 21 1017 85 10000 1.54 80 00:32 19.08.2022
639 Clear 21 1017 82 10000 2.06 90 23:48 18.08.2022
640 Clear 21 1017 82 10000 2.06 90 23:48 18.08.2022
641 Clear 21 1017 79 10000 1.54 80 22:53 18.08.2022
642 Clear 22 1017 76 10000 2.57 80 22:18 18.08.2022
643 Clear 23 1017 73 10000 2.57 80 21:40 18.08.2022
644 Clear 24 1017 67 10000 2.06 90 20:32 18.08.2022
645 Clear 25 1016 65 10000 3.6 110 19:32 18.08.2022
646 Clear 26 1016 58 10000 4.12 130 18:19 18.08.2022
647 Clear 27 1016 54 10000 3.13 134 17:29 18.08.2022
648 Clear 28 1016 53 10000 4.12 120 15:27 18.08.2022
649 Clouds 27 1016 56 10000 3.6 140 14:20 18.08.2022
650 Clouds 27 1016 57 10000 3.09 160 13:36 18.08.2022
651 Clouds 26 1016 61 10000 3.09 150 12:27 18.08.2022
652 Clouds 24 1016 74 10000 1.03 0 10:25 18.08.2022
653 Clouds 23 1016 81 10000 1.54 80 09:42 18.08.2022
654 Clouds 21 1015 86 10000 1.34 120 07:24 18.08.2022
655 Clear 20 1015 91 10000 1.34 83 04:47 18.08.2022
656 Clear 20 1015 90 10000 1.03 0 23:49 17.08.2022
657 Clear 20 1015 87 10000 2.06 160 22:20 17.08.2022
658 Clear 22 1014 81 10000 3.09 190 20:20 17.08.2022
659 Clear 23 1014 74 10000 4.12 200 19:32 17.08.2022
660 Clouds 23 1015 76 10000 6.17 210 17:39 17.08.2022
661 Clouds 24 1013 73 10000 6.69 170 16:50 17.08.2022
662 Rain 24 1015 79 10000 4.63 200 15:30 17.08.2022
663 Clouds 27 1014 61 10000 7.2 170 13:52 17.08.2022
664 Clouds 26 1013 64 10000 5.66 140 11:42 17.08.2022
665 Clear 25 1006 72 10000 3.6 140 10:22 17.08.2022
666 Clear 23 1006 76 10000 3.58 123 08:24 17.08.2022
667 Clear 20 1014 84 10000 2.06 60 04:20 17.08.2022
668 Clear 20 1006 82 10000 2.06 90 00:40 17.08.2022
669 Clear 23 1015 72 10000 3.09 100 22:50 16.08.2022
670 Clear 23 1004 71 10000 4.92 93 20:59 16.08.2022
671 Clear 23 1000 68 10000 6.26 95 19:54 16.08.2022
672 Clear 25 1007 61 10000 5.36 108 19:19 16.08.2022
673 Clear 26 1009 58 10000 5.66 100 17:54 16.08.2022
674 Clear 27 1008 54 10000 7.2 130 16:18 16.08.2022
675 Clear 28 1009 53 10000 6.17 110 14:55 16.08.2022
676 Clear 28 1016 53 10000 6.17 110 14:37 16.08.2022
677 Clear 28 1016 54 10000 6.69 140 13:54 16.08.2022
678 Clouds 27 1016 60 10000 5.14 120 11:39 16.08.2022
679 Clear 25 1007 67 10000 3.09 100 09:52 16.08.2022
680 Clear 23 1007 74 10000 3.09 110 08:48 16.08.2022
681 Clear 22 1007 77 10000 3.6 100 08:19 16.08.2022
682 Clear 19 1016 88 10000 1.54 50 05:18 16.08.2022
683 Clear 22 1016 76 10000 2.06 110 22:56 15.08.2022
684 Clear 22 1015 71 10000 3.09 80 21:56 15.08.2022
685 Clear 22 1015 72 10000 4.47 102 21:36 15.08.2022
686 Clear 23 1015 68 10000 5.36 103 20:30 15.08.2022
687 Clear 24 1016 60 10000 5.36 116 18:56 15.08.2022
688 Clear 25 1010 58 10000 7.15 95 17:56 15.08.2022
689 Rain 25 1011 57 10000 5.81 84 16:23 15.08.2022
690 Clouds 25 1010 57 10000 6.17 130 14:40 15.08.2022
691 Clouds 25 1011 57 10000 6.26 106 13:18 15.08.2022
692 Clear 25 1012 64 10000 3.6 110 10:36 15.08.2022
693 Clear 22 1011 76 10000 4.02 121 08:53 15.08.2022
694 Clear 17 1017 85 10000 2.06 40 06:39 15.08.2022
695 Clear 15 1018 82 10000 3.09 60 03:34 15.08.2022
696 Clear 16 1012 77 10000 2.24 68 23:27 14.08.2022
697 Clouds 18 1011 69 10000 0.89 93 21:43 14.08.2022
698 Clear 19 1010 68 10000 1.79 120 20:41 14.08.2022
699 Clouds 20 1006 65 10000 0.45 91 19:45 14.08.2022
700 Clear 22 1018 55 10000 4.12 150 18:21 14.08.2022
701 Clear 23 1019 50 10000 5.36 114 17:37 14.08.2022
702 Clear 24 1013 49 10000 4.02 101 16:23 14.08.2022
703 Clear 23 1019 54 10000 4.92 108 15:34 14.08.2022
704 Clouds 23 1020 63 10000 4.63 130 13:51 14.08.2022
705 Clouds 23 1020 64 10000 4.63 130 13:31 14.08.2022
706 Clouds 23 1014 66 10000 4.92 108 12:42 14.08.2022
707 Clouds 22 1020 71 10000 3.09 90 11:23 14.08.2022
708 Clouds 19 1011 85 10000 3.6 140 08:57 14.08.2022
709 Clouds 17 1014 89 10000 2.68 127 06:53 14.08.2022
710 Fog 16 1020 92 6000 1.54 70 05:37 14.08.2022
711 Clear 16 1021 90 10000 1.57 101 01:36 14.08.2022
712 Clear 17 1020 88 10000 0.51 0 22:56 13.08.2022
713 Clear 18 1020 86 10000 2.24 128 22:27 13.08.2022
714 Clear 19 1020 82 10000 3.6 150 20:50 13.08.2022
715 Clear 20 1020 75 10000 3.09 170 19:49 13.08.2022
716 Clear 21 1020 70 10000 3.6 190 19:18 13.08.2022
717 Clouds 22 1015 65 10000 4.63 170 17:21 13.08.2022
718 Clouds 23 1015 62 10000 5.66 160 14:50 13.08.2022
719 Clear 23 1015 57 10000 2.57 0 13:50 13.08.2022
720 Clear 23 1015 57 10000 2.57 0 13:50 13.08.2022
721 Clear 24 1022 57 10000 2.57 0 13:28 13.08.2022
722 Clouds 23 1022 60 10000 1.79 171 11:29 13.08.2022
723 Clouds 22 1022 68 10000 2.06 40 09:23 13.08.2022
724 Clouds 18 1022 83 10000 2.24 4 06:54 13.08.2022
725 Clouds 17 1020 87 10000 3.13 330 01:51 13.08.2022
726 Clear 18 1020 83 10000 3.13 258 23:32 12.08.2022
727 Clear 20 1020 79 10000 3.6 220 21:39 12.08.2022
728 Clear 22 1019 69 10000 4.12 230 19:48 12.08.2022
729 Clear 23 1019 65 10000 5.66 230 19:23 12.08.2022
730 Clear 24 1011 61 10000 6.17 230 18:26 12.08.2022
731 Clear 25 1019 58 10000 7.72 210 16:27 12.08.2022
732 Clouds 25 1019 59 10000 6.17 210 15:21 12.08.2022
733 Clouds 25 1019 60 10000 5.66 190 13:47 12.08.2022
734 Clouds 24 1020 65 10000 5.66 170 12:38 12.08.2022
735 Clouds 20 1021 86 10000 4.63 190 08:57 12.08.2022
736 Mist 19 1021 88 3000 3.09 190 07:46 12.08.2022
737 Fog 16 1012 92 200 1.54 180 06:23 12.08.2022
738 Clouds 17 1010 89 10000 2.57 220 00:49 12.08.2022
739 Clear 17 1009 87 10000 3.09 250 23:59 11.08.2022
740 Clear 17 1019 89 10000 3.58 257 23:25 11.08.2022
741 Clear 18 1019 88 10000 3.6 230 21:53 11.08.2022
742 Clear 19 1019 87 10000 3.6 230 21:28 11.08.2022
743 Clouds 20 1010 81 10000 5.81 214 20:31 11.08.2022
744 Clouds 21 1009 79 10000 5.66 210 19:34 11.08.2022
745 Clouds 21 1019 76 10000 5.66 210 18:57 11.08.2022
746 Clouds 23 1011 69 10000 7.72 210 17:23 11.08.2022
747 Clouds 24 1009 65 10000 8.23 210 15:51 11.08.2022
748 Clouds 24 1010 64 10000 8.75 210 14:46 11.08.2022
749 Clouds 22 1010 71 10000 9.26 210 11:59 11.08.2022
750 Clouds 20 1012 80 10000 9.26 200 09:24 11.08.2022
751 Clouds 18 1013 87 10000 6.69 210 06:58 11.08.2022
752 Clouds 17 1014 87 10000 5.14 200 03:23 11.08.2022
753 Clear 17 1014 85 10000 4.12 210 00:19 11.08.2022
754 Clear 18 1014 82 10000 4.12 200 22:18 10.08.2022
755 Clear 19 1022 76 10000 4.12 210 21:20 10.08.2022
756 Clear 19 1022 71 10000 5.36 231 20:42 10.08.2022
757 Clear 21 1016 54 10000 7.2 210 18:53 10.08.2022
758 Clear 22 1015 50 10000 6.69 220 17:28 10.08.2022
759 Clouds 22 1015 55 10000 6.69 210 15:26 10.08.2022
760 Clouds 22 1015 56 10000 5.14 190 13:34 10.08.2022
761 Clouds 22 1017 53 10000 4.63 200 11:47 10.08.2022
762 Clear 19 1018 62 10000 2.57 220 08:44 10.08.2022
763 Clear 17 1019 68 10000 1.03 0 07:44 10.08.2022
764 Clear 12 1018 83 10000 1.54 290 05:53 10.08.2022
765 Clouds 13 1025 80 10000 1.34 308 02:44 10.08.2022
766 Clear 14 1025 76 10000 2.06 240 23:33 09.08.2022
767 Clear 15 1025 77 10000 1.03 220 22:48 09.08.2022
768 Clear 17 1025 67 10000 1.54 220 21:34 09.08.2022
769 Clear 20 1025 56 10000 4.12 210 19:33 09.08.2022
770 Clear 21 1018 52 10000 6.17 190 17:59 09.08.2022
771 Clear 21 1019 51 10000 6.17 190 17:26 09.08.2022
772 Clear 21 1017 49 10000 5.14 180 16:33 09.08.2022
773 Clear 22 1017 50 10000 5.66 190 15:31 09.08.2022
774 Clear 21 1020 52 10000 4.02 212 12:20 09.08.2022
775 Clear 18 1018 67 10000 0.51 0 08:55 09.08.2022
776 Clear 17 1015 73 10000 1.54 70 08:26 09.08.2022
777 Clear 14 1019 84 10000 0.89 342 07:18 09.08.2022
778 Fog 12 1017 93 10000 1.34 313 02:27 09.08.2022
779 Clear 14 1023 87 10000 2.06 290 23:26 08.08.2022
780 Clear 14 1023 87 10000 1.54 270 22:52 08.08.2022
781 Clear 15 1023 83 10000 2.57 230 21:48 08.08.2022
782 Clouds 17 1022 77 10000 1.54 250 20:51 08.08.2022
783 Clouds 17 1022 76 10000 2.06 230 19:50 08.08.2022
784 Clouds 18 1016 69 10000 3.6 230 18:19 08.08.2022
785 Clouds 19 1014 63 10000 2.68 223 15:57 08.08.2022
786 Clouds 19 1015 63 10000 2.06 230 15:38 08.08.2022
787 Clouds 18 1014 78 10000 4.12 190 12:39 08.08.2022
788 Clouds 17 1012 75 10000 2.06 130 11:32 08.08.2022
789 Clouds 15 1012 85 10000 2.06 340 08:26 08.08.2022
790 Clear 12 1019 91 10000 1.03 0 05:33 08.08.2022
791 Clear 13 1019 90 10000 2.06 250 01:47 08.08.2022
792 Clouds 15 1017 78 10000 3.58 225 21:49 07.08.2022
793 Clouds 16 1017 76 10000 3.13 258 21:30 07.08.2022
794 Clouds 17 1017 70 10000 1.79 233 20:25 07.08.2022
795 Clouds 17 1017 67 10000 4.63 330 19:53 07.08.2022
796 Clouds 18 1010 64 10000 3.6 340 19:24 07.08.2022
797 Clouds 20 1017 53 10000 6.26 214 17:58 07.08.2022
798 Clouds 20 1017 52 10000 4.92 228 16:53 07.08.2022
799 Clouds 20 1017 51 10000 3.6 290 15:45 07.08.2022
800 Clouds 20 1009 52 10000 5.14 310 14:32 07.08.2022
801 Clouds 20 1010 52 10000 6.69 250 12:50 07.08.2022
802 Clouds 19 1017 53 10000 5.14 270 10:54 07.08.2022
803 Clouds 18 1007 58 10000 5.14 280 10:21 07.08.2022
804 Clear 12 1008 81 10000 2.57 230 04:41 07.08.2022
805 Clear 12 1007 77 10000 3.6 230 02:35 07.08.2022
806 Clear 14 1014 67 10000 3.6 250 22:57 06.08.2022
807 Clouds 14 1013 67 10000 4.12 250 22:19 06.08.2022
808 Clouds 17 996 65 10000 8.23 270 20:19 06.08.2022
809 Clouds 18 1004 62 10000 6.69 250 19:37 06.08.2022
810 Clouds 19 1003 64 10000 9.26 230 17:52 06.08.2022
811 Clouds 20 1003 66 10000 7.2 220 16:30 06.08.2022
812 Clouds 20 1009 61 10000 8.75 230 13:52 06.08.2022
813 Clouds 19 1009 67 10000 8.23 230 12:46 06.08.2022
814 Rain 17 1009 90 10000 6.17 230 11:21 06.08.2022
815 Rain 19 1008 88 10000 5.66 210 09:49 06.08.2022
816 Clouds 21 1001 83 10000 5.14 200 07:35 06.08.2022
817 Clear 20 1004 77 10000 5.14 160 01:59 06.08.2022
818 Clear 21 1005 67 10000 2.24 147 22:37 05.08.2022
819 Clear 22 1004 65 10000 3.6 150 21:36 05.08.2022
820 Clear 25 1006 57 10000 4.12 170 19:22 05.08.2022
821 Clear 25 1012 57 10000 4.63 160 18:44 05.08.2022
822 Clear 27 1007 49 10000 6.17 170 16:55 05.08.2022
823 Clear 27 1007 49 10000 6.17 170 16:37 05.08.2022
824 Clear 28 1014 44 10000 7.2 170 15:19 05.08.2022
825 Clear 27 1015 46 10000 8.75 160 13:39 05.08.2022
826 Clear 27 1015 48 10000 8.23 170 13:20 05.08.2022
827 Clear 26 1015 52 10000 6.69 160 12:23 05.08.2022
828 Clear 24 1015 68 10000 5.66 170 10:25 05.08.2022
829 Clear 22 1007 76 10000 4.12 140 07:58 05.08.2022
830 Clear 18 1009 88 10000 1.54 90 05:25 05.08.2022
831 Clear 19 1009 82 10000 2.57 200 23:50 04.08.2022
832 Clear 19 1009 82 10000 2.57 200 23:50 04.08.2022
833 Clear 20 1017 76 10000 4.12 210 21:39 04.08.2022
834 Clear 21 1017 73 10000 4.12 220 21:21 04.08.2022
835 Clear 23 1008 67 10000 4.63 210 20:40 04.08.2022
836 Clear 24 1008 60 10000 8.23 210 19:21 04.08.2022
837 Clear 25 1009 56 10000 7.72 210 18:34 04.08.2022
838 Clear 25 1007 53 10000 8.23 210 17:28 04.08.2022
839 Clear 25 1009 59 10000 6.69 170 13:35 04.08.2022
840 Clear 24 1007 63 10000 7.2 180 11:46 04.08.2022
841 Clear 22 1009 67 10000 6.69 170 10:27 04.08.2022
842 Clear 20 1009 77 10000 5.66 180 07:50 04.08.2022
843 Clear 17 1009 81 10000 4.63 180 04:28 04.08.2022
844 Clear 18 1016 80 10000 5.14 190 01:58 04.08.2022
845 Clouds 18 1009 84 10000 3.6 180 23:42 03.08.2022
846 Clouds 18 1015 82 10000 3.6 180 21:39 03.08.2022
847 Clouds 20 1015 71 10000 5.14 200 20:22 03.08.2022
848 Clouds 20 1009 66 10000 6.17 190 19:28 03.08.2022
849 Clouds 21 1009 62 10000 6.69 190 17:41 03.08.2022
850 Clouds 21 1009 63 10000 6.17 190 16:24 03.08.2022
851 Clouds 22 1008 60 10000 5.66 180 14:25 03.08.2022
852 Clouds 21 1008 69 10000 6.17 180 11:47 03.08.2022
853 Clouds 17 1008 75 10000 3.09 150 07:55 03.08.2022
854 Clear 12 1014 85 10000 0.45 191 04:46 03.08.2022
855 Fog 11 1007 86 10000 0.45 219 03:27 03.08.2022
856 Clear 12 1007 82 10000 1.34 271 01:18 03.08.2022
857 Clear 15 998 78 10000 2.57 270 22:53 02.08.2022
858 Clouds 16 998 78 10000 2.57 250 21:53 02.08.2022
859 Clouds 19 1012 71 10000 2.68 210 20:37 02.08.2022
860 Clouds 21 1011 64 10000 5.66 250 18:42 02.08.2022
861 Clouds 22 1004 61 10000 7.2 220 15:36 02.08.2022
862 Clouds 21 1003 58 10000 5.66 230 11:45 02.08.2022
863 Clear 19 1000 68 10000 4.63 270 09:18 02.08.2022
864 Clouds 17 1002 79 10000 3.09 280 07:53 02.08.2022
865 Clouds 15 1003 83 10000 2.57 270 06:43 02.08.2022
866 Clouds 14 1003 86 10000 2.57 310 04:54 02.08.2022
867 Clouds 15 1003 84 10000 2.57 350 23:38 01.08.2022
868 Clouds 16 1003 81 10000 3.13 12 22:24 01.08.2022
869 Clouds 17 1004 74 10000 3.6 60 20:52 01.08.2022
870 Clouds 18 1004 72 10000 5.36 105 19:25 01.08.2022
871 Clouds 19 1004 69 10000 6.17 130 18:31 01.08.2022
872 Clouds 20 1011 61 10000 6.17 130 16:53 01.08.2022
873 Clouds 21 1011 57 10000 6.71 113 15:52 01.08.2022
874 Clouds 21 1005 63 10000 6.26 110 15:30 01.08.2022
875 Clouds 21 1005 63 10000 6.17 130 14:43 01.08.2022
876 Clouds 23 1006 58 10000 4.92 124 11:59 01.08.2022
877 Clear 21 1007 62 10000 3.13 129 09:43 01.08.2022
878 Clear 20 1006 63 10000 3.09 70 08:30 01.08.2022
879 Clouds 12 1006 93 10000 0.45 34 04:54 01.08.2022
880 Fog 12 1008 92 10000 1.54 40 03:49 01.08.2022
881 Fog 14 1007 88 10000 1.03 0 00:23 01.08.2022
882 Clear 15 1007 86 10000 1.03 260 22:39 31.07.2022
883 Clear 16 1006 84 10000 0.89 216 21:27 31.07.2022
884 Clouds 18 1007 76 10000 3.09 140 19:41 31.07.2022
885 Clouds 20 1008 72 10000 2.06 160 17:57 31.07.2022
886 Clouds 20 1005 69 10000 3.58 222 15:39 31.07.2022
887 Clouds 21 1015 67 10000 3.6 180 13:43 31.07.2022
888 Clouds 20 1015 74 10000 5.14 180 11:58 31.07.2022
889 Clouds 18 1015 73 10000 4.12 190 09:43 31.07.2022
890 Clouds 15 1016 81 10000 1.79 126 07:38 31.07.2022
891 Clouds 11 1006 90 10000 2.06 260 02:58 31.07.2022
892 Clouds 13 1005 87 10000 2.06 260 23:40 30.07.2022
893 Clouds 15 1015 78 10000 2.06 240 22:19 30.07.2022
894 Clouds 16 1015 77 10000 2.06 250 21:48 30.07.2022
895 Clouds 15 1015 78 10000 3.09 290 20:57 30.07.2022
896 Clouds 18 1015 68 10000 4.12 280 19:58 30.07.2022
897 Clouds 18 1015 66 10000 6.17 300 18:53 30.07.2022
898 Rain 19 1016 63 10000 4.12 260 17:44 30.07.2022
899 Clouds 19 1016 64 10000 5.14 310 15:50 30.07.2022
900 Clouds 19 1016 65 10000 4.63 300 15:22 30.07.2022
901 Clouds 19 1016 59 10000 4.12 290 12:59 30.07.2022
902 Clouds 18 1016 62 10000 5.14 300 11:55 30.07.2022
903 Clouds 17 1016 71 10000 5.66 320 10:31 30.07.2022
904 Clouds 17 1016 71 10000 5.66 320 10:31 30.07.2022
905 Clouds 16 1016 75 10000 6.17 320 09:54 30.07.2022
906 Clouds 14 1016 84 10000 5.14 280 07:55 30.07.2022
907 Clear 12 1001 92 10000 4.12 290 02:57 30.07.2022
908 Clear 13 1006 88 10000 4.63 290 02:24 30.07.2022
909 Clear 15 1008 81 10000 4.63 290 22:41 29.07.2022
910 Clouds 16 1010 76 10000 4.63 290 21:24 29.07.2022
911 Clear 16 1010 75 10000 4.12 290 20:35 29.07.2022
912 Clouds 19 1017 57 10000 6.69 300 17:59 29.07.2022
913 Clouds 20 1010 58 10000 5.66 290 15:27 29.07.2022
914 Clouds 18 1008 61 10000 5.66 330 13:18 29.07.2022
915 Clouds 17 1008 74 10000 6.17 310 10:42 29.07.2022
916 Clouds 15 1010 86 10000 5.14 300 08:50 29.07.2022
917 Clouds 14 1008 90 10000 4.63 310 07:54 29.07.2022
918 Clear 12 1015 85 10000 3.6 300 01:52 29.07.2022
919 Clear 14 1006 79 10000 3.09 280 22:49 28.07.2022
920 Clear 15 999 74 10000 4.12 300 21:20 28.07.2022
921 Clear 17 1004 67 10000 3.6 310 20:31 28.07.2022
922 Clear 17 1003 65 10000 5.66 310 19:43 28.07.2022
923 Clear 18 1013 57 10000 5.66 310 19:23 28.07.2022
924 Clouds 19 1012 54 10000 4.63 320 17:43 28.07.2022
925 Clouds 19 1012 58 10000 5.14 310 16:55 28.07.2022
926 Rain 18 1004 77 10000 4.63 310 15:32 28.07.2022
927 Rain 16 1012 86 10000 3.09 260 13:29 28.07.2022
928 Clouds 18 1002 76 10000 2.57 290 10:37 28.07.2022
929 Clouds 15 1003 88 10000 2.24 295 06:42 28.07.2022
930 Clouds 13 1008 91 10000 1.54 230 05:29 28.07.2022
931 Clouds 15 993 85 10000 3.09 230 00:49 28.07.2022
932 Clouds 15 1007 90 10000 3.6 210 22:40 27.07.2022
933 Clouds 16 997 86 10000 3.6 210 21:28 27.07.2022
934 Clouds 17 1006 79 10000 5.14 220 19:42 27.07.2022
935 Clouds 19 998 70 10000 7.72 200 17:49 27.07.2022
936 Clouds 20 998 64 10000 8.75 200 15:52 27.07.2022
937 Clouds 20 997 67 10000 8.75 200 14:57 27.07.2022
938 Clouds 20 997 69 10000 8.75 200 14:34 27.07.2022
939 Clouds 21 997 62 10000 8.75 190 12:49 27.07.2022
940 Clouds 18 993 85 10000 5.66 220 07:54 27.07.2022
941 Clouds 17 995 94 10000 4.63 190 06:21 27.07.2022
942 Clouds 17 995 92 10000 4.12 180 01:35 27.07.2022
943 Clouds 17 1002 93 10000 4.63 200 22:29 26.07.2022
944 Clouds 18 1003 91 10000 4.63 200 21:20 26.07.2022
945 Clouds 18 995 88 10000 5.66 210 20:28 26.07.2022
946 Clouds 19 1003 88 10000 6.69 190 18:43 26.07.2022
947 Clouds 19 1002 85 10000 5.66 190 17:59 26.07.2022
948 Rain 19 1002 85 10000 4.12 180 16:31 26.07.2022
949 Rain 20 1003 85 10000 5.66 180 15:30 26.07.2022
950 Rain 23 996 67 10000 7.72 170 13:38 26.07.2022
951 Clouds 23 997 64 10000 8.23 140 11:38 26.07.2022
952 Clouds 21 998 76 10000 6.17 160 08:57 26.07.2022
953 Clear 19 1007 85 10000 4.12 160 05:53 26.07.2022
954 Clear 19 1008 83 10000 4.12 160 00:44 26.07.2022
955 Clear 18 1002 81 10000 4.63 150 23:32 25.07.2022
956 Clear 19 1009 75 10000 3.6 200 22:25 25.07.2022
957 Clear 20 1009 72 10000 4.12 210 21:41 25.07.2022
958 Clear 20 1000 71 10000 3.6 210 20:41 25.07.2022
959 Clear 21 1001 64 10000 6.17 220 19:33 25.07.2022
960 Clear 22 1002 58 10000 6.17 230 18:19 25.07.2022
961 Clear 23 1000 55 10000 6.17 220 17:27 25.07.2022
962 Clear 24 1001 53 10000 5.14 220 14:59 25.07.2022
963 Clear 24 1002 46 10000 4.63 190 12:22 25.07.2022
964 Clouds 22 1000 65 10000 1.79 208 09:50 25.07.2022
965 Clear 14 1000 92 10000 2.57 290 04:25 25.07.2022
966 Clear 15 990 97 10000 2.57 320 23:54 24.07.2022
967 Clear 16 995 92 10000 2.57 290 23:18 24.07.2022
968 Clear 18 1009 89 10000 2.06 290 22:29 24.07.2022
969 Clouds 18 1009 86 10000 2.57 270 21:23 24.07.2022
970 Clouds 18 1009 85 10000 2.57 290 20:50 24.07.2022
971 Clouds 18 1009 84 10000 2.57 300 20:26 24.07.2022
972 Clouds 19 1001 83 10000 3.09 330 18:46 24.07.2022
973 Clouds 18 1002 86 10000 2.57 10 16:29 24.07.2022
974 Clouds 19 1000 82 10000 5.14 350 15:50 24.07.2022
975 Clouds 18 1001 84 10000 2.06 10 14:29 24.07.2022
976 Clouds 19 1000 79 10000 3.09 350 12:54 24.07.2022
977 Clouds 18 997 82 10000 2.24 137 11:40 24.07.2022
978 Clouds 18 1000 82 10000 1.34 154 11:18 24.07.2022
979 Clouds 17 1001 86 10000 1.34 335 08:33 24.07.2022
980 Clouds 17 1000 88 10000 1.54 250 07:52 24.07.2022
981 Clouds 16 1000 90 10000 1.03 0 05:49 24.07.2022
982 Clear 16 1000 90 10000 2.57 210 00:29 24.07.2022
983 Clear 18 1000 86 10000 3.09 230 21:37 23.07.2022
984 Clouds 19 999 81 10000 5.14 230 20:19 23.07.2022
985 Clouds 21 999 77 10000 6.17 210 18:50 23.07.2022
986 Clouds 22 1001 73 10000 6.17 210 17:28 23.07.2022
987 Clouds 22 1001 72 10000 6.17 210 16:35 23.07.2022
988 Clouds 22 1001 72 10000 6.17 220 15:22 23.07.2022
989 Clouds 22 1001 72 10000 6.17 220 14:59 23.07.2022
990 Clouds 23 997 69 10000 6.17 210 14:28 23.07.2022
991 Clouds 23 1000 70 10000 7.2 210 13:26 23.07.2022
992 Clouds 22 1000 80 10000 5.66 230 10:45 23.07.2022
993 Clouds 21 1001 85 10000 5.14 210 10:21 23.07.2022
994 Clouds 19 1003 89 10000 5.14 190 08:31 23.07.2022
995 Rain 19 1009 87 10000 2.06 300 03:39 23.07.2022
996 Clear 20 1011 82 10000 2.06 250 01:27 23.07.2022
997 Clear 20 994 79 10000 3.6 230 22:42 22.07.2022
998 Clear 23 1011 74 10000 3.6 210 20:52 22.07.2022
999 Clear 25 1012 67 10000 4.12 190 19:35 22.07.2022
1000 Clear 26 1012 63 10000 1.79 226 18:28 22.07.2022
1001 Clear 27 1011 61 10000 4.12 220 16:49 22.07.2022
1002 Clear 26 1012 60 10000 6.17 180 14:51 22.07.2022
1003 Clear 25 1012 60 10000 5.14 180 11:22 22.07.2022
1004 Clear 23 1003 68 10000 4.12 180 09:25 22.07.2022
1005 Clear 22 999 72 10000 4.12 180 08:29 22.07.2022
1006 Clear 17 1007 87 10000 2.06 130 05:19 22.07.2022
1007 Clear 17 1006 87 10000 2.06 180 00:48 22.07.2022
1008 Clear 19 1014 79 10000 2.57 170 22:25 21.07.2022
1009 Clear 20 1014 75 10000 3.6 180 21:29 21.07.2022
1010 Clear 23 1015 64 10000 4.63 190 19:26 21.07.2022
1011 Clear 24 1014 57 10000 4.12 180 17:39 21.07.2022
1012 Clear 25 1014 56 10000 4.12 180 17:19 21.07.2022
1013 Clear 25 1015 52 10000 3.6 180 14:55 21.07.2022
1014 Clear 25 1015 53 10000 3.09 180 14:31 21.07.2022
1015 Clear 25 1008 50 10000 3.09 180 12:28 21.07.2022
1016 Clear 25 1006 49 10000 2.06 170 10:56 21.07.2022
1017 Clear 24 1015 50 10000 2.06 130 09:27 21.07.2022
1018 Clear 24 1015 53 10000 1.79 133 08:49 21.07.2022
1019 Clear 21 1008 67 10000 0.89 55 07:32 21.07.2022
1020 Clouds 15 1006 81 10000 1.34 297 04:46 21.07.2022
1021 Clear 16 1006 72 10000 2.57 320 00:35 21.07.2022
1022 Clear 19 990 68 10000 3.09 320 22:21 20.07.2022
1023 Clear 21 989 62 10000 3.09 310 20:54 20.07.2022
1024 Clear 22 1001 48 10000 4.12 300 19:52 20.07.2022
1025 Clear 23 1009 45 10000 4.12 310 19:24 20.07.2022
1026 Clear 24 1005 42 10000 5.14 310 18:33 20.07.2022
1027 Clear 24 1007 41 10000 6.69 290 17:55 20.07.2022
1028 Clear 24 1008 42 10000 7.2 290 16:45 20.07.2022
1029 Clear 24 1007 42 10000 6.17 310 15:31 20.07.2022
1030 Clear 23 1006 44 10000 8.23 330 14:18 20.07.2022
1031 Clear 21 1008 49 10000 7.72 310 11:34 20.07.2022
1032 Clear 18 1001 65 10000 6.17 300 08:50 20.07.2022
1033 Clear 12 1005 86 10000 4.12 300 03:47 20.07.2022
1034 Clear 13 1006 75 10000 4.02 321 00:49 20.07.2022
1035 Clear 14 1003 76 10000 4.63 300 23:41 19.07.2022
1036 Clear 15 1013 66 10000 5.66 300 22:31 19.07.2022
1037 Clear 17 1013 63 10000 5.14 310 21:31 19.07.2022
1038 Clear 19 1012 52 10000 5.66 300 20:28 19.07.2022
1039 Clear 21 1012 47 10000 7.2 300 18:44 19.07.2022
1040 Clear 22 1012 53 10000 6.17 290 17:58 19.07.2022
1041 Clouds 21 1012 61 10000 6.17 260 16:37 19.07.2022
1042 Clouds 20 1005 68 10000 6.17 270 14:52 19.07.2022
1043 Clouds 20 998 64 10000 4.12 300 11:39 19.07.2022
1044 Clouds 21 1012 67 10000 3.6 280 10:47 19.07.2022
1045 Clouds 18 998 76 10000 2.06 280 09:22 19.07.2022
1046 Clouds 18 993 82 10000 2.06 280 08:32 19.07.2022
1047 Clouds 16 1003 87 10000 1.34 336 07:19 19.07.2022
1048 Clouds 15 1003 90 10000 1.54 270 05:27 19.07.2022
1049 Clouds 15 1013 89 10000 1.03 130 04:48 19.07.2022
1050 Clear 13 999 90 10000 2.57 190 00:38 19.07.2022
1051 Clear 14 996 86 10000 3.09 210 23:36 18.07.2022
1052 Clear 15 1000 84 10000 2.06 220 23:18 18.07.2022
1053 Clear 16 1012 78 10000 2.57 220 21:58 18.07.2022
1054 Clouds 17 1013 65 10000 2.57 220 20:51 18.07.2022
1055 Clouds 18 1005 67 10000 4.12 230 19:26 18.07.2022
1056 Clouds 18 1003 64 10000 6.17 230 17:31 18.07.2022
1057 Clear 17 1005 59 10000 4.47 199 15:52 18.07.2022
1058 Clear 19 1003 58 10000 3.09 190 14:34 18.07.2022
1059 Clear 18 1006 54 10000 2.57 0 12:58 18.07.2022
1060 Clouds 17 1003 59 10000 3.09 290 11:30 18.07.2022
1061 Clear 15 1007 72 10000 3.09 290 08:57 18.07.2022
1062 Clear 14 1007 78 10000 3.09 270 07:38 18.07.2022
1063 Clouds 13 1005 83 10000 3.6 260 01:24 18.07.2022
1064 Clear 13 1005 80 10000 3.09 260 22:43 17.07.2022
1065 Clear 13 1004 80 10000 3.09 260 21:57 17.07.2022
1066 Clouds 14 1004 77 10000 4.12 290 21:21 17.07.2022
1067 Clouds 13 1002 79 10000 5.14 290 20:44 17.07.2022
1068 Clouds 14 1003 76 10000 5.14 290 19:32 17.07.2022
1069 Clouds 15 1005 71 10000 6.69 290 18:30 17.07.2022
1070 Clouds 15 1005 70 10000 6.69 290 17:38 17.07.2022
1071 Clouds 16 1004 69 10000 7.72 300 16:51 17.07.2022
1072 Clouds 16 1004 69 10000 7.72 300 16:51 17.07.2022
1073 Clouds 16 1004 71 10000 7.72 300 16:26 17.07.2022
1074 Clouds 16 1004 76 10000 6.69 270 14:58 17.07.2022
1075 Clouds 16 1003 77 10000 4.63 270 13:31 17.07.2022
1076 Clouds 16 999 70 10000 6.69 300 11:41 17.07.2022
1077 Clouds 15 1001 84 10000 3.6 330 09:24 17.07.2022
1078 Drizzle 13 1001 92 10000 2.57 230 05:25 17.07.2022
1079 Clouds 13 999 91 10000 3.09 190 02:32 17.07.2022
1080 Clouds 12 999 85 10000 3.6 210 23:20 16.07.2022
1081 Clouds 13 997 84 10000 3.6 230 21:32 16.07.2022
1082 Clouds 15 1005 76 10000 5.14 230 19:40 16.07.2022
1083 Clouds 16 997 73 10000 6.17 240 18:32 16.07.2022
1084 Clouds 15 1005 79 10000 7.72 230 16:53 16.07.2022
1085 Clouds 16 1004 70 10000 7.2 220 13:56 16.07.2022
1086 Clouds 15 993 75 10000 3.13 244 10:55 16.07.2022
1087 Clouds 14 995 80 10000 5.14 250 09:33 16.07.2022
1088 Clouds 14 994 77 10000 5.66 230 08:47 16.07.2022
1089 Clouds 14 994 78 10000 5.66 230 08:29 16.07.2022
1090 Clear 12 995 83 10000 3.6 210 04:24 16.07.2022
1091 Clear 11 994 85 10000 2.57 210 03:22 16.07.2022
1092 Clouds 12 992 83 10000 3.6 230 23:34 15.07.2022
1093 Clouds 12 991 83 10000 3.09 230 22:41 15.07.2022
1094 Clouds 14 994 76 10000 3.6 240 21:29 15.07.2022
1095 Clouds 16 995 70 10000 4.63 250 20:30 15.07.2022
1096 Clouds 17 1000 67 10000 4.63 260 18:42 15.07.2022
1097 Clouds 18 994 63 10000 5.14 260 17:38 15.07.2022
1098 Clouds 17 994 72 10000 5.66 240 14:54 15.07.2022
1099 Clouds 16 1000 83 10000 1.34 300 12:58 15.07.2022
1100 Clouds 15 1000 78 10000 4.12 280 11:27 15.07.2022
1101 Clouds 16 992 80 10000 3.09 180 09:44 15.07.2022
1102 Rain 13 994 87 10000 3.6 170 06:24 15.07.2022
1103 Clear 13 1000 79 10000 2.57 210 00:53 15.07.2022
1104 Clouds 12 1000 81 10000 2.57 210 00:21 15.07.2022
1105 Clear 14 990 81 10000 3.09 230 22:50 14.07.2022
1106 Clear 15 990 76 10000 1.54 240 21:47 14.07.2022
1107 Clouds 16 993 74 10000 2.57 260 21:29 14.07.2022
1108 Clouds 16 992 73 10000 3.6 250 20:45 14.07.2022
1109 Clouds 16 992 72 10000 5.14 260 20:21 14.07.2022
1110 Clouds 17 993 71 10000 5.14 290 19:18 14.07.2022
1111 Clouds 19 994 64 10000 8.23 250 16:23 14.07.2022
1112 Clouds 19 993 64 10000 7.72 250 15:32 14.07.2022
1113 Clouds 21 991 55 10000 7.72 220 13:59 14.07.2022
1114 Clouds 21 999 57 10000 7.2 230 12:58 14.07.2022
1115 Clouds 20 991 65 10000 4.63 250 11:54 14.07.2022
1116 Clouds 19 991 71 10000 5.14 270 11:23 14.07.2022
1117 Thunderstorm 19 1000 81 10000 4.12 170 10:24 14.07.2022
1118 Clouds 17 1000 89 10000 4.63 170 07:50 14.07.2022
1119 Clouds 16 994 86 10000 3.6 190 01:26 14.07.2022
1120 Rain 16 995 86 10000 2.57 200 00:53 14.07.2022
1121 Clouds 17 994 80 10000 4.12 210 22:33 13.07.2022
1122 Clouds 18 993 80 10000 3.6 220 21:59 13.07.2022
1123 Clouds 18 994 77 10000 5.14 210 21:19 13.07.2022
1124 Clouds 19 1004 81 10000 3.6 190 19:58 13.07.2022
1125 Clouds 20 1005 78 10000 6.17 210 17:52 13.07.2022
1126 Clouds 20 1005 81 10000 5.14 190 16:46 13.07.2022
1127 Clouds 21 1005 77 10000 7.2 160 15:26 13.07.2022
1128 Clouds 21 1006 80 10000 5.14 170 13:24 13.07.2022
1129 Clouds 20 1006 88 10000 4.12 160 10:46 13.07.2022
1130 Clouds 20 1000 87 10000 4.12 160 10:25 13.07.2022
1131 Clouds 20 1006 85 10000 3.09 140 09:26 13.07.2022
1132 Clouds 20 1000 87 10000 1.79 153 07:52 13.07.2022
1133 Rain 18 982 92 10000 2.06 30 03:26 13.07.2022
1134 Rain 19 988 87 10000 3.09 10 00:18 13.07.2022
1135 Clouds 21 983 86 10000 5.66 360 22:18 12.07.2022
1136 Clouds 21 1010 79 10000 5.66 360 21:35 12.07.2022
1137 Clear 22 1009 75 10000 4.63 360 20:42 12.07.2022
1138 Clear 22 1009 73 10000 5.66 360 19:37 12.07.2022
1139 Clear 23 1008 71 10000 5.14 350 18:21 12.07.2022
1140 Clouds 24 1000 69 10000 6.17 350 16:20 12.07.2022
1141 Clouds 23 1010 71 10000 8.23 360 14:31 12.07.2022
1142 Clouds 22 1010 74 10000 6.17 350 13:21 12.07.2022
1143 Clouds 21 1011 77 10000 7.2 360 11:42 12.07.2022
1144 Clouds 20 1004 82 10000 5.36 355 10:18 12.07.2022
1145 Clouds 19 1004 86 10000 5.14 350 08:38 12.07.2022
1146 Clouds 18 1004 88 10000 4.12 350 07:38 12.07.2022
1147 Clear 17 1006 89 10000 4.12 350 05:44 12.07.2022
1148 Clear 16 1005 91 10000 4.12 340 03:50 12.07.2022
1149 Clear 16 1003 90 10000 3.13 342 23:43 11.07.2022
1150 Clear 17 1003 87 10000 3.09 330 22:37 11.07.2022
1151 Clouds 19 1003 78 10000 3.13 333 20:54 11.07.2022
1152 Clouds 19 1005 74 10000 3.09 330 20:29 11.07.2022
1153 Clouds 21 1007 67 10000 4.12 360 18:39 11.07.2022
1154 Clouds 21 1007 65 10000 4.02 17 17:57 11.07.2022
1155 Clouds 21 1006 65 10000 2.06 80 16:22 11.07.2022
1156 Clouds 21 1006 65 10000 6.69 60 14:52 11.07.2022
1157 Clouds 21 1001 64 10000 2.06 350 12:28 11.07.2022
1158 Clouds 21 1013 65 10000 1.54 10 10:54 11.07.2022
1159 Clouds 21 998 69 10000 2.06 50 09:54 11.07.2022
1160 Clouds 17 998 81 10000 1.03 0 08:36 11.07.2022
1161 Clear 18 1001 76 10000 1.54 20 07:32 11.07.2022
1162 Clear 14 1002 82 10000 2.24 313 00:54 11.07.2022
1163 Clear 15 1000 84 10000 2.24 307 23:53 10.07.2022
1164 Clear 15 997 85 10000 0.89 306 22:34 10.07.2022
1165 Clear 17 990 74 10000 1.03 0 20:55 10.07.2022
1166 Clear 19 1000 68 10000 1.03 0 20:00 10.07.2022
1167 Clouds 20 1003 59 10000 3.09 270 19:21 10.07.2022
1168 Clouds 20 1003 55 10000 1.54 20 17:51 10.07.2022
1169 Clouds 21 1003 56 10000 1.79 186 16:59 10.07.2022
1170 Clouds 21 1001 52 10000 4.12 310 16:20 10.07.2022
1171 Clouds 22 999 49 10000 3.09 160 14:43 10.07.2022
1172 Clouds 21 1001 52 10000 3.09 90 13:18 10.07.2022
1173 Clouds 20 1001 58 10000 3.13 156 11:36 10.07.2022
1174 Clouds 18 998 68 10000 2.06 220 09:44 10.07.2022
1175 Clouds 17 998 71 10000 1.03 0 08:43 10.07.2022
1176 Clouds 15 1000 86 10000 2.06 300 06:36 10.07.2022
1177 Thunderstorm 14 1000 86 10000 2.06 300 23:44 09.07.2022
1178 Clouds 16 1001 74 10000 7.72 300 22:26 09.07.2022
1179 Clouds 16 999 79 10000 2.57 290 21:41 09.07.2022
1180 Clouds 18 1007 74 10000 4.63 180 19:44 09.07.2022
1181 Clouds 19 1007 70 10000 5.66 200 18:26 09.07.2022
1182 Clouds 19 1001 69 10000 4.63 180 17:21 09.07.2022
1183 Clouds 20 1007 63 10000 5.14 170 16:25 09.07.2022
1184 Clouds 20 1008 60 10000 5.66 170 15:38 09.07.2022
1185 Clouds 20 1007 68 10000 4.63 160 14:22 09.07.2022
1186 Clouds 19 998 76 10000 5.14 160 13:47 09.07.2022
1187 Clouds 18 1003 76 10000 3.09 150 11:45 09.07.2022
1188 Clouds 18 1003 81 10000 2.57 110 10:26 09.07.2022
1189 Clouds 18 1004 82 10000 2.57 110 09:38 09.07.2022
1190 Clouds 16 1004 84 10000 1.03 0 07:44 09.07.2022
1191 Clouds 15 1004 85 10000 1.54 270 04:41 09.07.2022
1192 Clear 17 1013 75 10000 3.09 170 23:41 08.07.2022
1193 Clear 17 1013 72 10000 2.06 220 22:33 08.07.2022
1194 Clear 18 1013 69 10000 3.6 200 21:26 08.07.2022
1195 Clear 18 1006 67 10000 2.57 210 20:35 08.07.2022
1196 Clear 20 1004 58 10000 2.57 220 19:38 08.07.2022
1197 Clear 20 1003 54 10000 4.63 190 17:50 08.07.2022
1198 Clear 20 1003 52 10000 5.14 180 16:29 08.07.2022
1199 Clear 20 1003 55 10000 4.63 170 14:50 08.07.2022
1200 Clear 16 1015 60 10000 3.6 180 12:42 08.07.2022
1201 Clouds 13 1015 79 10000 2.57 0 10:47 08.07.2022
1202 Clouds 14 1015 78 10000 2.06 0 09:58 08.07.2022
1203 Clear 15 1003 78 10000 2.06 240 06:59 08.07.2022
1204 Clear 12 1003 84 10000 1.03 0 05:33 08.07.2022
1205 Clouds 13 1012 83 10000 2.06 250 00:40 08.07.2022
1206 Clouds 15 1012 77 10000 2.24 258 22:50 07.07.2022
1207 Clouds 16 1010 72 10000 4.63 260 21:46 07.07.2022
1208 Clouds 18 1009 65 10000 5.14 250 19:34 07.07.2022
1209 Clouds 19 1008 63 10000 6.17 250 17:43 07.07.2022
1210 Clear 21 1008 53 10000 7.2 260 16:21 07.07.2022
1211 Clear 22 1007 46 10000 7.72 240 13:40 07.07.2022
1212 Clouds 21 1007 53 10000 6.17 240 12:41 07.07.2022
1213 Clouds 21 1006 61 10000 4.02 190 12:22 07.07.2022
1214 Clouds 20 1006 74 10000 3.58 192 11:32 07.07.2022
1215 Clouds 19 1006 75 10000 5.14 190 10:45 07.07.2022
1216 Clouds 19 1006 75 10000 5.66 170 10:27 07.07.2022
1217 Clouds 19 1006 74 10000 5.66 180 09:22 07.07.2022
1218 Clouds 15 1007 76 10000 1.54 110 05:57 07.07.2022
1219 Clear 13 1006 79 10000 0.89 213 00:18 07.07.2022
1220 Clear 14 1006 77 10000 0.45 234 23:36 06.07.2022
1221 Clouds 14 1007 76 10000 3.6 220 23:18 06.07.2022
1222 Clouds 15 1007 74 10000 3.6 220 22:47 06.07.2022
1223 Clouds 15 1007 74 10000 3.6 220 22:47 06.07.2022
1224 Clouds 15 1007 73 10000 3.6 220 22:28 06.07.2022
1225 Clouds 19 1008 62 10000 6.17 220 19:46 06.07.2022
1226 Clouds 19 1008 60 10000 8.75 190 18:45 06.07.2022
1227 Clear 20 1009 55 10000 8.23 190 16:58 06.07.2022
1228 Clouds 20 1009 54 10000 7.2 220 15:44 06.07.2022
1229 Clouds 21 1009 57 10000 6.69 210 12:44 06.07.2022
1230 Clouds 21 1009 50 10000 8.75 210 11:50 06.07.2022
1231 Clouds 20 1009 59 10000 7.2 200 10:48 06.07.2022
1232 Clouds 18 1010 73 10000 6.17 200 08:46 06.07.2022
1233 Clouds 18 1010 77 10000 5.66 200 07:41 06.07.2022
1234 Clouds 17 1010 78 10000 5.14 200 06:40 06.07.2022
1235 Clear 15 1012 76 10000 4.12 220 22:50 05.07.2022
1236 Clear 16 1010 72 10000 4.12 220 22:28 05.07.2022
1237 Clouds 18 1009 62 10000 6.69 240 20:42 05.07.2022
1238 Clouds 19 1009 58 10000 6.17 240 19:54 05.07.2022
1239 Clouds 19 1010 58 10000 6.69 230 19:35 05.07.2022
1240 Clouds 20 1009 60 10000 6.17 230 17:49 05.07.2022
1241 Clouds 20 1001 63 10000 7.72 230 17:18 05.07.2022
1242 Clouds 20 1009 61 10000 10.8 210 15:39 05.07.2022
1243 Clouds 22 1009 53 10000 9.77 210 14:39 05.07.2022
1244 Clouds 23 1008 54 10000 6.69 240 12:52 05.07.2022
1245 Clouds 23 1009 58 10000 7.72 180 12:19 05.07.2022
1246 Clouds 21 1008 69 10000 8.23 200 10:44 05.07.2022
1247 Clouds 21 1008 69 10000 7.72 190 09:32 05.07.2022
1248 Clouds 21 1001 75 10000 4.12 190 08:19 05.07.2022
1249 Clouds 20 1000 75 10000 4.12 190 06:22 05.07.2022
1250 Clear 15 990 86 10000 3.09 180 04:26 05.07.2022
1251 Clear 15 986 87 10000 2.57 200 00:38 05.07.2022
1252 Clear 18 998 79 10000 3.6 190 23:34 04.07.2022
1253 Clear 18 998 78 10000 4.12 180 22:50 04.07.2022
1254 Clear 19 978 80 10000 4.63 170 21:48 04.07.2022
1255 Clear 22 1012 49 10000 4.63 180 20:54 04.07.2022
1256 Clear 21 1012 60 10000 4.63 180 20:34 04.07.2022
1257 Clear 20 1015 63 10000 4.63 220 19:55 04.07.2022
1258 Clear 22 1012 56 10000 4.63 220 19:36 04.07.2022
1259 Clear 24 1011 43 10000 5.14 230 18:18 04.07.2022
1260 Clear 24 1012 38 10000 4.12 170 15:58 04.07.2022
1261 Clear 24 1013 43 10000 5.14 210 15:34 04.07.2022
1262 Clear 24 1014 47 10000 4.12 190 13:29 04.07.2022
1263 Clear 24 1014 48 10000 4.12 170 12:33 04.07.2022
1264 Clouds 23 1014 56 10000 3.09 160 10:34 04.07.2022
1265 Clouds 23 1015 56 10000 2.06 180 09:53 04.07.2022
1266 Clear 21 1015 62 10000 1.54 0 08:24 04.07.2022
1267 Clear 15 1006 83 10000 1.03 280 04:57 04.07.2022
1268 Clear 16 1018 73 10000 3.09 270 00:39 04.07.2022
1269 Clear 19 1017 59 10000 3.09 260 22:59 03.07.2022
1270 Clear 24 1017 35 10000 3.6 260 20:58 03.07.2022
1271 Clear 22 995 68 10000 3.6 260 20:31 03.07.2022
1272 Clear 23 1003 61 10000 4.63 260 19:28 03.07.2022
1273 Clear 24 1006 61 10000 4.63 280 18:43 03.07.2022
1274 Clear 25 1016 48 10000 3.6 300 17:44 03.07.2022
1275 Clear 26 1008 50 10000 4.12 260 15:54 03.07.2022
1276 Clear 25 1007 52 10000 4.92 190 14:59 03.07.2022
1277 Clear 26 1008 50 10000 3.09 0 14:18 03.07.2022
1278 Clear 25 1008 50 10000 3.6 280 13:48 03.07.2022
1279 Clear 25 1017 48 10000 3.6 0 12:33 03.07.2022
1280 Clouds 24 1016 48 10000 3.6 280 11:29 03.07.2022
1281 Clouds 24 1016 52 10000 4.63 280 10:39 03.07.2022
1282 Clouds 23 1016 55 10000 4.47 335 09:42 03.07.2022
1283 Clouds 21 1016 74 10000 4.12 280 07:35 03.07.2022
1284 Clouds 19 1015 84 10000 3.6 230 03:46 03.07.2022
1285 Clear 18 983 85 10000 1.54 250 00:21 03.07.2022
1286 Clear 20 995 78 10000 4.63 250 22:33 02.07.2022
1287 Clear 22 1013 76 10000 2.57 190 20:58 02.07.2022
1288 Clear 25 1016 57 10000 3.6 140 19:52 02.07.2022
1289 Clear 26 1016 53 10000 4.12 140 19:20 02.07.2022
1290 Clear 27 1017 47 10000 5.14 120 17:41 02.07.2022
1291 Clear 27 1016 51 10000 5.66 120 16:53 02.07.2022
1292 Clear 28 1016 50 10000 5.14 140 14:31 02.07.2022
1293 Clear 24 1019 56 10000 5.66 160 12:21 02.07.2022
1294 Clear 24 1019 58 10000 5.66 160 11:26 02.07.2022
1295 Clear 24 1019 61 10000 5.66 180 10:39 02.07.2022
1296 Clear 24 1019 65 10000 4.63 150 09:18 02.07.2022
1297 Clear 23 1019 65 10000 3.6 120 08:20 02.07.2022
1298 Clear 24 1019 60 10000 3.6 120 07:27 02.07.2022
1299 Clear 18 1000 84 10000 2.06 110 01:53 02.07.2022
1300 Clear 19 999 81 10000 2.57 120 23:56 01.07.2022
1301 Clear 20 994 78 10000 3.6 110 22:41 01.07.2022
1302 Clear 23 1019 56 10000 2.57 100 21:48 01.07.2022
1303 Clear 23 1019 65 10000 2.57 100 21:28 01.07.2022
1304 Clouds 23 1019 56 10000 3.6 120 20:40 01.07.2022
1305 Clouds 23 1017 60 10000 4.63 120 19:46 01.07.2022
1306 Clouds 24 1018 52 10000 4.63 110 17:53 01.07.2022
1307 Clear 26 1019 46 10000 6.17 120 15:54 01.07.2022
1308 Clear 26 1020 39 10000 5.66 120 13:55 01.07.2022
1309 Clear 26 1019 50 10000 5.66 120 12:41 01.07.2022
1310 Clear 25 1019 54 10000 4.63 130 10:20 01.07.2022
1311 Clear 25 1019 54 10000 4.63 130 10:20 01.07.2022
1312 Clear 24 1020 63 10000 4.12 150 09:43 01.07.2022
1313 Clouds 17 1010 81 10000 2.24 97 04:49 01.07.2022
1314 Clear 17 1007 77 10000 2.06 60 00:26 01.07.2022
1315 Clear 17 995 82 10000 1.54 70 22:59 30.06.2022
1316 Clear 17 995 81 10000 1.54 70 22:41 30.06.2022
1317 Clear 18 995 76 10000 1.54 60 22:23 30.06.2022
1318 Clear 19 995 70 10000 1.54 90 21:41 30.06.2022
1319 Clear 24 1020 46 10000 2.06 100 20:30 30.06.2022
1320 Clear 24 1020 50 10000 3.6 100 19:54 30.06.2022
1321 Clear 24 1018 48 10000 3.6 110 19:25 30.06.2022
1322 Clear 24 1019 48 10000 4.63 110 18:42 30.06.2022
1323 Clear 25 1019 44 10000 5.81 109 17:44 30.06.2022
1324 Clear 26 1019 43 10000 5.36 110 16:55 30.06.2022
1325 Clear 26 1019 39 10000 6.17 140 15:39 30.06.2022
1326 Clear 27 1019 44 10000 5.36 124 13:36 30.06.2022
1327 Clear 26 1019 42 10000 6.26 95 12:35 30.06.2022
1328 Clouds 26 1019 50 10000 4.92 115 11:43 30.06.2022
1329 Clear 25 1020 59 10000 4.63 50 09:55 30.06.2022
1330 Clear 24 1020 59 10000 5.14 70 09:35 30.06.2022
1331 Clear 22 1019 62 10000 3.09 70 08:18 30.06.2022
1332 Clear 21 1019 65 10000 3.09 60 07:23 30.06.2022
1333 Clear 17 1020 71 10000 1.03 0 01:47 30.06.2022
1334 Clear 19 1020 64 10000 1.54 60 23:34 29.06.2022
1335 Clear 20 1019 57 10000 3.6 80 22:40 29.06.2022
1336 Clear 17 995 64 10000 2.06 100 21:39 29.06.2022
1337 Clear 21 999 53 10000 3.6 80 20:34 29.06.2022
1338 Clear 24 1018 46 10000 4.12 100 19:39 29.06.2022
1339 Clear 25 1010 42 10000 6.17 110 17:54 29.06.2022
1340 Clear 25 1011 52 10000 5.81 94 16:47 29.06.2022
1341 Clear 25 1010 53 10000 6.71 102 15:32 29.06.2022
1342 Clear 24 1013 62 10000 5.66 80 12:49 29.06.2022
1343 Clouds 24 1012 61 10000 6.69 90 11:47 29.06.2022
1344 Clear 21 1008 66 10000 5.14 80 09:34 29.06.2022
1345 Clouds 21 1010 69 10000 5.14 80 08:42 29.06.2022
1346 Clear 16 991 68 10000 4.12 90 05:19 29.06.2022
1347 Clouds 15 991 73 10000 3.09 60 02:21 29.06.2022
1348 Clouds 13 991 94 10000 6.17 90 00:38 29.06.2022
1349 Clear 14 991 91 10000 6.17 90 23:26 28.06.2022
1350 Clouds 15 991 87 10000 4.12 90 22:48 28.06.2022
1351 Thunderstorm 17 990 72 10000 4.12 80 21:55 28.06.2022
1352 Thunderstorm 19 990 71 10000 4.12 80 21:33 28.06.2022
1353 Clear 21 990 61 10000 4.63 80 20:51 28.06.2022
1354 Clear 25 1019 57 10000 4.12 90 19:43 28.06.2022
1355 Clear 23 1002 54 10000 6.17 80 19:23 28.06.2022
1356 Clear 24 1002 52 10000 6.17 100 17:44 28.06.2022
1357 Clear 27 1019 54 10000 5.81 119 16:24 28.06.2022
1358 Clear 27 1019 53 10000 7.15 95 15:53 28.06.2022
1359 Clear 25 1014 58 10000 5.36 91 14:21 28.06.2022
1360 Clear 26 1014 56 10000 6.71 101 13:54 28.06.2022
1361 Clear 23 991 56 10000 4.63 100 13:20 28.06.2022
1362 Clear 22 1009 64 10000 5.66 140 11:21 28.06.2022
1363 Clear 23 1009 68 10000 5.14 120 09:36 28.06.2022
1364 Clear 23 1008 69 10000 4.63 110 08:44 28.06.2022
1365 Clear 24 1020 73 10000 4.63 110 07:58 28.06.2022
1366 Clear 25 1020 63 10000 2.06 90 07:19 28.06.2022
1367 Clear 21 1012 81 10000 1.34 323 01:33 28.06.2022
1368 Clear 21 1000 79 10000 0.51 0 23:44 27.06.2022
1369 Clear 22 996 78 10000 1.03 0 22:54 27.06.2022
1370 Clear 26 1021 53 10000 2.57 180 21:38 27.06.2022
1371 Clear 26 1020 53 10000 3.09 190 20:54 27.06.2022
1372 Clear 26 1017 55 10000 3.6 190 19:40 27.06.2022
1373 Clear 28 1020 50 10000 4.12 190 18:33 27.06.2022
1374 Clear 30 1012 45 10000 1.79 214 16:36 27.06.2022
1375 Clear 30 1012 46 10000 1.54 0 15:24 27.06.2022
1376 Clear 29 1013 49 10000 4.63 210 13:39 27.06.2022
1377 Clear 29 1021 48 10000 4.12 180 12:57 27.06.2022
1378 Clear 28 1021 53 10000 2.24 153 10:41 27.06.2022
1379 Clear 28 1020 53 10000 1.03 0 09:23 27.06.2022
1380 Clear 27 1022 59 10000 0.51 0 08:31 27.06.2022
1381 Clear 26 1010 61 10000 1.03 0 07:38 27.06.2022
1382 Clear 18 1012 82 10000 1.34 314 03:58 27.06.2022
1383 Clear 18 1010 82 10000 0.89 317 01:18 27.06.2022
1384 Clear 21 1002 75 10000 2.06 190 22:27 26.06.2022
1385 Clear 23 998 65 10000 3.09 170 20:53 26.06.2022
1386 Clear 25 1018 58 10000 3.6 190 19:44 26.06.2022
1387 Clear 27 1019 50 10000 4.63 200 18:32 26.06.2022
1388 Clear 28 1019 45 10000 2.57 220 17:22 26.06.2022
1389 Clear 29 1019 41 10000 4.12 220 15:27 26.06.2022
1390 Clear 29 1020 41 10000 1.79 168 13:53 26.06.2022
1391 Clear 29 1021 43 10000 2.24 140 13:20 26.06.2022
1392 Clear 28 1021 42 10000 2.06 230 11:26 26.06.2022
1393 Clear 27 1022 50 10000 1.54 0 10:28 26.06.2022
1394 Clear 27 1020 48 10000 1.54 280 09:39 26.06.2022
1395 Clear 24 1019 57 10000 1.03 0 07:45 26.06.2022
1396 Clear 16 1009 89 10000 0.45 309 02:28 26.06.2022
1397 Clear 18 1009 84 10000 1.03 110 00:21 26.06.2022
1398 Clear 18 1008 84 10000 1.03 0 23:50 25.06.2022
1399 Clear 19 1007 80 10000 2.06 200 23:23 25.06.2022
1400 Clear 20 1005 77 10000 2.57 210 22:27 25.06.2022
1401 Clear 21 1017 68 10000 2.57 200 21:41 25.06.2022
1402 Clear 21 1017 65 10000 3.09 220 21:18 25.06.2022
1403 Clear 22 1018 58 10000 2.57 220 20:28 25.06.2022
1404 Clear 22 1018 58 10000 3.6 200 19:42 25.06.2022
1405 Clear 25 1018 51 10000 3.09 200 18:19 25.06.2022
1406 Clear 25 1018 50 10000 3.6 180 17:24 25.06.2022
1407 Clear 25 1018 51 10000 4.12 200 15:36 25.06.2022
1408 Clear 25 1018 51 10000 4.63 170 13:41 25.06.2022
1409 Clear 25 1018 52 10000 3.09 170 12:38 25.06.2022
1410 Clear 24 1018 57 10000 2.06 0 10:45 25.06.2022
1411 Clear 23 1018 60 10000 1.54 0 09:20 25.06.2022
1412 Clear 23 1018 64 10000 1.54 0 08:41 25.06.2022
1413 Clear 22 1017 65 10000 2.57 230 08:19 25.06.2022
1414 Clear 15 1007 90 10000 0 0 04:18 25.06.2022
1415 Clear 16 999 85 10000 1.54 230 00:38 25.06.2022
1416 Clear 17 999 81 10000 2.57 210 22:56 24.06.2022
1417 Clear 19 1013 69 10000 3.09 220 21:44 24.06.2022
1418 Clear 22 1016 60 10000 3.09 230 20:57 24.06.2022
1419 Clear 21 1017 67 10000 3.09 210 20:19 24.06.2022
1420 Clear 24 1016 55 10000 4.12 210 19:22 24.06.2022
1421 Clear 24 1015 59 10000 4.12 220 18:49 24.06.2022
1422 Clear 24 1015 54 10000 4.12 220 18:30 24.06.2022
1423 Clear 25 1015 54 10000 4.63 230 17:21 24.06.2022
1424 Clear 24 1015 57 10000 4.12 210 15:47 24.06.2022
1425 Clouds 24 1016 59 10000 5.14 210 14:28 24.06.2022
1426 Clouds 24 1016 61 10000 5.66 210 13:55 24.06.2022
1427 Clouds 22 1016 69 10000 3.6 190 11:44 24.06.2022
1428 Clouds 21 1015 70 10000 4.12 200 11:18 24.06.2022
1429 Clouds 21 1016 72 10000 3.09 200 09:55 24.06.2022
1430 Clouds 19 1015 77 10000 3.13 181 09:29 24.06.2022
1431 Clouds 20 1015 75 10000 3.09 220 08:52 24.06.2022
1432 Clouds 16 1015 85 10000 3.09 210 06:48 24.06.2022
1433 Clouds 16 1015 86 10000 3.09 210 06:30 24.06.2022
1434 Clouds 16 1008 86 10000 3.6 210 05:52 24.06.2022
1435 Clear 14 999 89 10000 3.09 220 01:28 24.06.2022
1436 Clear 16 1012 77 10000 3.6 210 22:45 23.06.2022
1437 Clear 17 1012 77 10000 3.6 220 22:18 23.06.2022
1438 Clear 18 1011 71 10000 4.63 230 20:54 23.06.2022
1439 Clear 19 1004 72 10000 4.63 230 20:32 23.06.2022
1440 Clouds 21 1011 58 10000 7.72 220 18:49 23.06.2022
1441 Clouds 22 1003 56 10000 6.69 220 17:50 23.06.2022
1442 Clouds 22 1003 56 10000 6.69 220 17:50 23.06.2022
1443 Clouds 22 1003 56 10000 6.17 220 16:42 23.06.2022
1444 Clouds 22 1003 58 10000 7.2 200 15:43 23.06.2022
1445 Clouds 22 1003 57 10000 7.2 200 15:23 23.06.2022
1446 Clouds 21 1002 65 10000 6.17 220 13:21 23.06.2022
1447 Clouds 19 1001 71 10000 6.17 170 11:23 23.06.2022
1448 Clouds 19 1000 68 10000 4.63 210 09:46 23.06.2022
1449 Clouds 17 1000 69 10000 4.12 200 08:18 23.06.2022
1450 Clear 14 985 82 10000 3.6 190 02:19 23.06.2022
1451 Clear 15 983 77 10000 3.09 200 00:25 23.06.2022
1452 Clear 14 983 84 10000 2.06 190 23:27 22.06.2022
1453 Clear 15 984 78 10000 2.06 230 22:24 22.06.2022
1454 Clear 18 1010 48 10000 3.6 280 20:57 22.06.2022
1455 Clear 19 996 54 10000 4.63 270 20:21 22.06.2022
1456 Clear 19 1010 53 10000 4.12 270 19:48 22.06.2022
1457 Clear 21 1000 45 10000 4.63 250 18:21 22.06.2022
1458 Clear 21 1000 47 10000 5.66 230 17:24 22.06.2022
1459 Clear 22 1001 47 10000 5.66 230 15:53 22.06.2022
1460 Clear 22 1008 46 10000 5.14 230 15:24 22.06.2022
1461 Clear 22 1008 48 10000 5.14 170 13:50 22.06.2022
1462 Clear 22 1008 46 10000 4.63 210 13:25 22.06.2022
1463 Clear 22 1000 47 10000 3.6 220 12:44 22.06.2022
1464 Clear 21 998 50 10000 3.6 270 11:47 22.06.2022
1465 Clear 21 994 49 10000 3.09 290 10:53 22.06.2022
1466 Clear 20 994 47 10000 3.6 280 09:44 22.06.2022
1467 Clear 17 993 62 10000 2.57 280 07:51 22.06.2022
1468 Fog 11 1006 89 10000 2.06 250 03:25 22.06.2022
1469 Clear 13 1006 91 10000 2.06 190 01:21 22.06.2022
1470 Clear 14 1006 83 10000 2.06 160 23:19 21.06.2022
1471 Clear 16 1006 75 10000 3.6 190 21:31 21.06.2022
1472 Clear 17 999 66 10000 4.12 170 19:43 21.06.2022
1473 Clear 18 999 60 10000 3.6 180 17:57 21.06.2022
1474 Clear 18 999 60 10000 4.12 180 16:52 21.06.2022
1475 Clouds 18 997 62 10000 4.63 160 12:40 21.06.2022
1476 Clouds 18 997 59 10000 1.79 204 10:55 21.06.2022
1477 Clouds 18 1005 67 10000 1.79 201 09:40 21.06.2022
1478 Clouds 16 992 72 10000 1.54 290 08:22 21.06.2022
1479 Fog 11 997 94 10000 0.89 204 05:37 21.06.2022
1480 Fog 11 1005 93 10000 0.51 0 00:37 21.06.2022
1481 Clear 13 1005 91 10000 0.89 273 22:23 20.06.2022
1482 Clear 14 1005 87 10000 1.03 210 21:49 20.06.2022
1483 Clear 15 1006 80 10000 1.54 220 20:32 20.06.2022
1484 Clouds 15 1006 82 10000 3.09 190 19:38 20.06.2022
1485 Clouds 15 1000 79 10000 3.09 170 18:44 20.06.2022
1486 Clouds 15 999 80 10000 1.54 220 17:50 20.06.2022
1487 Rain 15 1000 82 10000 2.57 190 16:55 20.06.2022
1488 Clouds 15 1006 79 10000 2.57 330 15:52 20.06.2022
1489 Clouds 15 1005 78 10000 3.6 320 12:41 20.06.2022
1490 Clouds 15 1006 75 10000 2.57 350 10:32 20.06.2022
1491 Clouds 14 1005 79 10000 3.13 9 08:57 20.06.2022
1492 Clouds 14 1005 79 10000 3.13 9 08:57 20.06.2022
1493 Clouds 14 1005 80 10000 3.6 350 08:21 20.06.2022
1494 Clouds 12 997 84 10000 3.09 270 05:35 20.06.2022
1495 Clouds 13 1003 82 10000 3.6 320 01:44 20.06.2022
1496 Clouds 13 1002 85 10000 3.6 270 00:26 20.06.2022
1497 Clouds 13 1002 78 10000 3.13 238 22:50 19.06.2022
1498 Clouds 12 992 79 10000 1.79 230 21:57 19.06.2022
1499 Rain 13 994 77 10000 1.54 240 21:39 19.06.2022
1500 Clouds 15 1002 63 10000 4.12 290 20:38 19.06.2022
1501 Clouds 16 1002 49 10000 7.2 280 19:47 19.06.2022
1502 Clouds 17 1002 40 10000 7.72 270 18:45 19.06.2022
1503 Clouds 18 1002 41 10000 7.2 260 18:26 19.06.2022
1504 Clear 18 1002 42 10000 8.75 270 17:22 19.06.2022
1505 Clear 18 1002 42 10000 6.69 270 16:35 19.06.2022
1506 Clear 19 1001 40 10000 8.23 280 15:41 19.06.2022
1507 Clear 19 1001 40 10000 9.77 270 14:57 19.06.2022
1508 Clear 18 1001 41 10000 9.77 280 14:20 19.06.2022
1509 Clear 18 1001 43 10000 9.77 260 13:23 19.06.2022
1510 Clouds 17 1000 51 10000 7.72 280 11:21 19.06.2022
1511 Clouds 15 999 69 10000 8.75 270 09:58 19.06.2022
1512 Clouds 14 988 80 10000 7.72 280 08:47 19.06.2022
1513 Clouds 13 987 83 10000 8.23 280 08:19 19.06.2022
1514 Clouds 14 988 95 10000 4.63 260 05:37 19.06.2022
1515 Clouds 14 999 93 9000 3.6 220 02:26 19.06.2022
1516 Clouds 14 1000 94 7000 3.6 220 00:25 19.06.2022
1517 Clouds 14 1001 94 6000 3.6 220 23:36 18.06.2022
1518 Clouds 14 1001 94 6000 3.6 220 23:36 18.06.2022
1519 Clouds 14 1001 96 6000 5.14 210 22:44 18.06.2022
1520 Clouds 14 1001 95 6000 3.6 210 21:38 18.06.2022
1521 Clouds 15 1002 93 8000 4.12 210 20:42 18.06.2022
1522 Drizzle 15 1002 93 8000 5.14 210 19:40 18.06.2022
1523 Clouds 14 997 94 4000 5.66 210 18:53 18.06.2022
1524 Clouds 14 993 93 6000 7.2 210 17:35 18.06.2022
1525 Clouds 15 998 89 10000 4.63 210 16:59 18.06.2022
1526 Drizzle 14 1005 93 4000 5.66 180 15:37 18.06.2022
1527 Rain 14 1006 91 3500 7.72 170 14:46 18.06.2022
1528 Rain 14 1006 95 4500 6.17 170 13:30 18.06.2022
1529 Rain 14 1008 91 10000 4.63 170 11:56 18.06.2022
1530 Rain 15 1007 91 10000 5.14 180 10:55 18.06.2022
1531 Rain 16 1001 78 10000 6.17 180 09:27 18.06.2022
1532 Clouds 15 999 82 10000 4.12 140 08:30 18.06.2022
1533 Clouds 14 1002 87 10000 3.09 160 07:20 18.06.2022
1534 Clear 13 1012 87 10000 3.09 130 03:46 18.06.2022
1535 Clear 12 1012 86 10000 2.06 130 01:26 18.06.2022
1536 Clear 12 1012 87 10000 1.54 130 00:48 18.06.2022
1537 Clear 13 1012 82 10000 2.06 90 23:58 17.06.2022
1538 Clear 12 1000 89 10000 1.54 120 23:24 17.06.2022
1539 Clear 15 1013 73 10000 3.09 120 21:27 17.06.2022
1540 Clear 17 1013 61 10000 4.12 140 20:24 17.06.2022
1541 Clear 20 1012 45 10000 5.14 350 18:49 17.06.2022
1542 Clear 21 1012 45 10000 5.66 340 17:46 17.06.2022
1543 Clear 21 1012 42 10000 4.63 350 16:43 17.06.2022
1544 Clear 21 1012 40 10000 7.2 330 16:18 17.06.2022
1545 Clear 21 1012 38 10000 6.69 340 15:34 17.06.2022
1546 Clear 21 1012 38 10000 7.2 300 14:20 17.06.2022
1547 Clear 21 1012 37 10000 7.2 300 14:20 17.06.2022
1548 Clear 21 1011 39 10000 7.72 320 13:46 17.06.2022
1549 Clear 21 1011 40 10000 6.69 310 13:24 17.06.2022
1550 Clouds 21 1011 43 10000 6.69 300 11:58 17.06.2022
1551 Clouds 20 1011 45 10000 5.66 310 11:36 17.06.2022
1552 Clouds 19 1011 50 10000 7.72 320 10:52 17.06.2022
1553 Clouds 15 1011 62 10000 3.6 320 08:30 17.06.2022
1554 Clouds 15 1011 66 10000 5.66 320 07:48 17.06.2022
1555 Clear 13 1010 76 10000 4.63 290 06:22 17.06.2022
1556 Clear 12 1010 71 10000 4.12 290 03:19 17.06.2022
1557 Clear 14 1010 66 10000 4.12 280 00:42 17.06.2022
1558 Clear 9 972 98 10000 3.13 308 22:45 16.06.2022
1559 Clear 14 1011 62 10000 2.57 300 22:26 16.06.2022
1560 Clear 17 1011 51 10000 2.06 320 21:19 16.06.2022
1561 Clear 18 1007 45 10000 2.57 340 20:50 16.06.2022
1562 Clear 18 1010 52 10000 4.12 300 19:58 16.06.2022
1563 Clear 19 1009 49 10000 6.17 300 18:44 16.06.2022
1564 Clouds 19 1009 48 10000 5.14 300 17:44 16.06.2022
1565 Clouds 19 1009 48 10000 9.26 310 17:20 16.06.2022
1566 Clouds 20 1008 42 10000 8.23 310 15:44 16.06.2022
1567 Clouds 21 1008 40 10000 7.2 280 15:20 16.06.2022
1568 Clouds 20 1007 42 10000 7.2 280 13:49 16.06.2022
1569 Clear 19 1007 45 10000 7.2 280 12:38 16.06.2022
1570 Clear 19 1007 49 10000 7.2 290 11:55 16.06.2022
1571 Clear 19 1008 50 10000 7.2 290 11:21 16.06.2022
1572 Clouds 18 1008 51 10000 7.72 300 10:35 16.06.2022
1573 Clouds 17 1007 56 10000 6.69 270 09:37 16.06.2022
1574 Clouds 17 1008 60 10000 5.66 280 08:50 16.06.2022
1575 Clouds 14 1009 67 10000 5.14 290 07:38 16.06.2022
1576 Clear 12 1009 76 10000 4.63 280 05:43 16.06.2022
1577 Clear 11 1008 77 10000 4.12 270 03:23 16.06.2022
1578 Clear 12 1008 72 10000 4.12 270 01:51 16.06.2022
1579 Clear 13 1008 69 10000 5.14 270 01:22 16.06.2022
1580 Clear 13 1008 69 10000 5.14 270 01:22 16.06.2022
1581 Clear 14 1007 66 10000 5.14 270 23:58 15.06.2022
1582 Clear 15 1008 61 10000 5.66 280 22:47 15.06.2022
1583 Clear 17 1008 54 10000 5.66 280 21:29 15.06.2022
1584 Clear 17 1007 55 10000 7.2 280 20:57 15.06.2022
1585 Clear 17 1007 52 10000 7.72 290 20:35 15.06.2022
1586 Clear 19 1007 46 10000 8.75 290 19:49 15.06.2022
1587 Clear 20 1007 44 10000 7.72 290 18:30 15.06.2022
1588 Clear 21 1006 44 10000 9.77 290 17:42 15.06.2022
1589 Clear 21 1006 42 10000 7.72 300 16:21 15.06.2022
1590 Clear 21 1006 42 10000 8.23 300 14:37 15.06.2022
1591 Clear 21 1005 44 10000 7.72 310 13:20 15.06.2022
1592 Clear 21 1005 45 10000 8.75 310 12:39 15.06.2022
1593 Clear 20 1005 46 10000 9.77 320 11:22 15.06.2022
1594 Clouds 19 1005 47 10000 9.77 320 10:21 15.06.2022
1595 Clouds 19 1005 47 10000 9.77 320 10:21 15.06.2022
1596 Clear 17 1005 62 10000 7.72 310 08:58 15.06.2022
1597 Clear 15 994 75 10000 5.66 320 07:32 15.06.2022
1598 Clear 14 996 77 10000 5.66 310 05:36 15.06.2022
1599 Clear 14 997 79 10000 5.66 310 02:40 15.06.2022
1600 Clear 14 997 79 10000 4.63 310 01:36 15.06.2022
1601 Clear 15 997 76 10000 4.12 310 00:18 15.06.2022
1602 Clear 15 994 77 10000 3.6 310 23:38 14.06.2022
1603 Clear 15 985 81 10000 3.6 330 22:45 14.06.2022
1604 Clouds 16 993 73 10000 3.09 330 21:43 14.06.2022
1605 Rain 16 1007 71 10000 2.57 310 20:58 14.06.2022
1606 Rain 17 1007 75 10000 2.57 310 20:36 14.06.2022
1607 Rain 17 1006 75 10000 4.63 20 19:32 14.06.2022
1608 Clouds 17 1006 72 10000 4.63 270 18:33 14.06.2022
1609 Clouds 19 1006 60 10000 4.63 200 16:50 14.06.2022
1610 Clouds 18 1006 63 10000 3.09 220 15:52 14.06.2022
1611 Clouds 18 1006 63 10000 3.09 220 15:34 14.06.2022
1612 Clouds 18 1006 63 10000 3.09 220 15:34 14.06.2022
1613 Clouds 18 1006 57 10000 3.09 140 14:53 14.06.2022
1614 Clouds 19 1006 59 10000 2.68 204 13:53 14.06.2022
1615 Clouds 18 1006 61 10000 1.79 211 12:56 14.06.2022
1616 Clouds 18 1007 63 10000 1.54 0 11:52 14.06.2022
1617 Clouds 17 1007 69 10000 2.06 290 10:50 14.06.2022
1618 Clouds 17 1007 68 10000 1.54 0 10:25 14.06.2022
1619 Clouds 16 994 77 10000 2.06 210 08:52 14.06.2022
1620 Clouds 16 997 79 10000 2.06 290 08:23 14.06.2022
1621 Clouds 13 999 91 10000 1.54 230 06:19 14.06.2022
1622 Fog 10 993 93 10000 1.54 210 03:39 14.06.2022
1623 Clouds 11 993 93 10000 2.06 220 01:36 14.06.2022
1624 Clear 12 992 88 10000 3.6 210 23:53 13.06.2022
1625 Clouds 13 1006 80 10000 5.14 230 22:27 13.06.2022
1626 Clouds 13 1006 78 10000 5.14 210 21:59 13.06.2022
1627 Clouds 14 993 83 10000 5.14 210 21:24 13.06.2022
1628 Clouds 16 1006 71 10000 6.17 220 19:42 13.06.2022
1629 Clouds 16 1006 69 10000 5.66 220 18:52 13.06.2022
1630 Clouds 17 998 69 10000 7.72 230 17:52 13.06.2022
1631 Clouds 17 995 65 10000 7.2 220 17:21 13.06.2022
1632 Clouds 18 1006 64 10000 7.72 210 16:22 13.06.2022
1633 Clouds 18 996 68 10000 7.2 210 14:48 13.06.2022
1634 Clouds 17 1006 67 10000 6.69 220 14:18 13.06.2022
1635 Clouds 18 1006 64 10000 5.66 230 13:23 13.06.2022
1636 Clouds 18 1006 65 10000 8.23 200 11:45 13.06.2022
1637 Clouds 17 995 70 10000 7.72 210 10:36 13.06.2022
1638 Clouds 18 1006 70 10000 5.14 210 09:42 13.06.2022
1639 Clouds 17 992 74 10000 5.66 220 08:30 13.06.2022
1640 Clouds 14 999 84 10000 5.14 210 06:34 13.06.2022
1641 Clear 13 1001 89 10000 3.09 200 04:23 13.06.2022
1642 Clouds 13 997 90 10000 4.63 210 01:44 13.06.2022
1643 Clouds 13 997 89 10000 5.14 200 01:18 13.06.2022
1644 Clear 13 1008 87 10000 4.63 210 23:37 12.06.2022
1645 Clear 13 993 84 10000 4.12 220 22:29 12.06.2022
1646 Clear 14 981 84 10000 5.14 230 21:45 12.06.2022
1647 Clear 16 987 74 10000 7.2 240 20:49 12.06.2022
1648 Clear 16 987 74 10000 5.66 230 19:43 12.06.2022
1649 Clear 19 1009 42 10000 6.69 230 18:53 12.06.2022
1650 Clear 20 1008 44 10000 7.72 230 17:20 12.06.2022
1651 Clear 21 1009 44 10000 9.26 220 15:34 12.06.2022
1652 Clear 21 1010 45 10000 9.77 220 14:48 12.06.2022
1653 Clear 20 999 51 10000 10.8 210 14:18 12.06.2022
1654 Clouds 21 1010 46 10000 9.77 210 13:43 12.06.2022
1655 Clouds 20 1011 59 10000 6.17 190 11:58 12.06.2022
1656 Clouds 19 1001 65 10000 5.14 210 10:46 12.06.2022
1657 Clouds 18 1011 73 10000 3.09 210 09:36 12.06.2022
1658 Clear 18 1011 78 10000 2.06 180 08:50 12.06.2022
1659 Clouds 16 1001 81 10000 3.09 210 07:51 12.06.2022
1660 Clouds 14 1013 86 10000 3.6 200 06:21 12.06.2022
1661 Clear 12 1012 91 10000 2.06 220 03:38 12.06.2022
1662 Clear 13 1014 87 10000 3.09 190 01:49 12.06.2022
1663 Clear 13 1014 87 10000 3.09 190 01:29 12.06.2022
1664 Clear 13 1015 86 10000 3.09 210 00:43 12.06.2022
1665 Clear 14 1015 83 10000 2.06 230 00:18 12.06.2022
1666 Clear 16 1015 67 10000 4.63 240 22:58 11.06.2022
1667 Clear 16 1015 67 10000 4.63 240 22:31 11.06.2022
1668 Clear 19 1014 63 10000 5.14 210 21:18 11.06.2022
1669 Clouds 19 1014 63 10000 6.17 210 20:26 11.06.2022
1670 Clouds 19 1015 65 10000 5.14 220 19:33 11.06.2022
1671 Clouds 20 1014 65 10000 6.69 200 18:42 11.06.2022
1672 Clouds 21 1014 62 10000 6.69 200 18:24 11.06.2022
1673 Clouds 21 1013 57 10000 6.69 210 17:38 11.06.2022
1674 Clouds 22 1014 54 10000 6.17 210 17:19 11.06.2022
1675 Clouds 23 1014 51 10000 6.69 210 16:42 11.06.2022
1676 Clouds 22 1014 50 10000 5.66 200 15:57 11.06.2022
1677 Clouds 22 1015 51 10000 5.14 230 14:43 11.06.2022
1678 Clouds 22 1015 53 10000 5.14 190 13:50 11.06.2022
1679 Clouds 21 1015 57 10000 4.12 170 11:46 11.06.2022
1680 Clouds 21 1015 59 10000 2.24 178 10:30 11.06.2022
1681 Clear 20 1015 65 10000 3.13 191 09:40 11.06.2022
1682 Clear 19 1002 64 10000 1.54 0 08:37 11.06.2022
1683 Clear 16 1005 80 10000 2.57 120 06:32 11.06.2022
1684 Clear 15 1015 81 10000 2.06 110 05:26 11.06.2022
1685 Clear 14 1015 87 10000 1.79 65 02:42 11.06.2022
1686 Clear 15 1014 84 10000 1.03 20 01:41 11.06.2022
1687 Clear 15 1014 82 10000 2.06 50 00:54 11.06.2022
1688 Clear 17 1016 77 10000 2.06 40 22:55 10.06.2022
1689 Clouds 13 981 90 10000 2.57 60 22:20 10.06.2022
1690 Clouds 14 981 83 10000 2.06 70 21:22 10.06.2022
1691 Clouds 17 981 68 10000 1.54 70 20:36 10.06.2022
1692 Clouds 18 1000 64 10000 2.06 40 20:18 10.06.2022
1693 Clear 17 1016 69 10000 1.54 330 19:19 10.06.2022
1694 Clear 17 1016 73 10000 2.57 290 18:20 10.06.2022
1695 Clear 17 1015 71 10000 2.06 310 17:41 10.06.2022
1696 Clear 19 1015 62 10000 2.57 290 16:59 10.06.2022
1697 Clear 18 1016 65 10000 2.06 320 16:23 10.06.2022
1698 Clear 18 1016 65 10000 2.57 260 15:37 10.06.2022
1699 Clouds 20 1001 59 10000 3.09 210 13:55 10.06.2022
1700 Clouds 21 1014 58 10000 2.68 183 12:48 10.06.2022
1701 Clouds 20 1004 64 10000 3.09 270 11:41 10.06.2022
1702 Clouds 19 1004 67 10000 1.79 134 10:44 10.06.2022
1703 Clouds 18 1004 71 10000 2.24 157 09:48 10.06.2022
1704 Clear 17 1003 74 10000 1.54 260 08:33 10.06.2022
1705 Clear 16 1003 80 10000 2.06 250 07:24 10.06.2022
1706 Clear 15 1003 83 10000 1.54 270 06:43 10.06.2022
1707 Clear 15 1003 85 10000 1.54 280 06:24 10.06.2022
1708 Clear 11 999 95 10000 1.03 0 03:52 10.06.2022
1709 Clear 11 991 92 10000 2.06 240 01:41 10.06.2022
1710 Clear 12 985 92 10000 3.09 270 00:28 10.06.2022
1711 Clouds 12 976 97 10000 3.6 260 23:29 09.06.2022
1712 Clouds 12 975 97 10000 3.6 240 22:18 09.06.2022
1713 Clouds 17 1011 72 10000 3.6 240 21:33 09.06.2022
1714 Clouds 14 974 90 10000 5.14 230 20:54 09.06.2022
1715 Clear 17 1001 71 10000 6.17 230 19:59 09.06.2022
1716 Clear 19 1009 63 10000 5.66 220 19:19 09.06.2022
1717 Clear 19 1009 60 10000 6.17 240 18:21 09.06.2022
1718 Clouds 18 1000 67 10000 6.69 240 16:50 09.06.2022
1719 Clouds 20 1009 56 10000 6.69 230 15:48 09.06.2022
1720 Clouds 20 1008 59 10000 6.69 220 14:35 09.06.2022
1721 Clouds 20 1008 61 10000 6.69 220 13:51 09.06.2022
1722 Clouds 19 997 62 10000 6.69 220 13:27 09.06.2022
1723 Clouds 19 1009 72 10000 5.66 180 11:54 09.06.2022
1724 Clouds 18 998 74 10000 4.63 190 11:18 09.06.2022
1725 Clouds 17 997 78 10000 3.6 180 09:43 09.06.2022
1726 Clear 17 997 80 10000 3.6 200 09:23 09.06.2022
1727 Clear 15 999 85 10000 4.12 200 07:44 09.06.2022
1728 Clear 14 997 89 10000 4.12 200 06:28 09.06.2022
1729 Clear 13 997 90 10000 2.57 190 02:38 09.06.2022
1730 Clear 14 997 84 10000 3.09 190 23:36 08.06.2022
1731 Clear 14 994 82 10000 2.57 190 22:58 08.06.2022
1732 Clear 15 995 83 10000 2.57 170 22:26 08.06.2022
1733 Clear 15 991 80 10000 4.63 160 21:52 08.06.2022
1734 Clear 15 995 78 10000 4.12 160 20:59 08.06.2022
1735 Clear 16 1000 75 10000 3.6 210 19:56 08.06.2022
1736 Clear 17 1000 72 10000 3.09 210 19:27 08.06.2022
1737 Clouds 17 996 71 10000 4.63 220 18:42 08.06.2022
1738 Clouds 19 1000 66 10000 6.17 220 16:39 08.06.2022
1739 Clouds 20 1007 65 10000 6.69 210 15:44 08.06.2022
1740 Clouds 19 1008 66 10000 6.69 180 13:44 08.06.2022
1741 Clouds 17 1008 79 10000 3.6 170 11:51 08.06.2022
1742 Clouds 16 1007 82 10000 3.6 170 11:26 08.06.2022
1743 Clouds 15 1008 78 10000 4.12 110 09:48 08.06.2022
1744 Clouds 14 1008 79 10000 3.6 100 09:20 08.06.2022
1745 Clouds 14 1008 79 10000 4.47 116 09:20 08.06.2022
1746 Clouds 14 1008 81 10000 4.47 87 08:22 08.06.2022
1747 Rain 12 1004 77 10000 3.6 70 05:47 08.06.2022
1748 Clear 11 998 70 10000 2.06 50 03:20 08.06.2022
1749 Clear 11 1004 67 10000 2.68 111 00:28 08.06.2022
1750 Clear 12 999 63 10000 1.03 0 23:25 07.06.2022
1751 Clear 13 996 61 10000 1.03 0 22:42 07.06.2022
1752 Clouds 13 998 60 10000 1.79 125 22:22 07.06.2022
1753 Clear 14 1011 51 10000 3.13 114 21:28 07.06.2022
1754 Clear 16 1014 39 10000 2.57 120 20:53 07.06.2022
1755 Clear 16 1011 47 10000 3.58 126 20:31 07.06.2022
1756 Clear 18 1012 39 10000 3.13 140 19:27 07.06.2022
1757 Clear 18 1013 35 10000 4.63 130 18:19 07.06.2022
1758 Clear 18 1014 33 10000 5.36 123 17:21 07.06.2022
1759 Clear 19 1015 35 10000 4.47 120 16:41 07.06.2022
1760 Clear 19 1015 35 10000 4.12 120 15:43 07.06.2022
1761 Clear 19 1015 36 10000 4.12 140 15:23 07.06.2022
1762 Clear 19 1015 36 10000 4.92 116 14:46 07.06.2022
1763 Clear 20 1015 33 10000 4.47 111 13:58 07.06.2022
1764 Clear 19 1015 35 10000 4.92 116 13:29 07.06.2022
1765 Clear 19 1015 35 10000 3.6 150 12:44 07.06.2022
1766 Clear 18 1016 38 10000 3.09 180 11:31 07.06.2022
1767 Clear 19 1016 39 10000 4.63 140 10:26 07.06.2022
1768 Clear 17 1005 41 10000 3.09 180 08:49 07.06.2022
1769 Clear 17 1005 41 10000 3.09 180 08:49 07.06.2022
1770 Clear 15 1007 60 10000 2.06 220 07:23 07.06.2022
1771 Clear 11 1009 77 10000 1.54 230 05:56 07.06.2022
1772 Clear 8 1018 85 10000 1.03 0 03:18 07.06.2022
1773 Clear 9 1019 77 10000 1.03 100 00:42 07.06.2022
1774 Clear 11 1019 69 10000 0.51 0 23:35 06.06.2022
1775 Clear 12 1016 64 10000 2.57 200 22:45 06.06.2022
1776 Clear 9 983 73 10000 3.09 210 21:43 06.06.2022
1777 Clear 15 1016 50 10000 4.63 210 20:19 06.06.2022
1778 Clear 16 1013 47 10000 4.63 190 19:23 06.06.2022
1779 Clear 16 1020 46 10000 5.14 180 18:46 06.06.2022
1780 Clear 17 1012 43 10000 5.66 190 17:51 06.06.2022
1781 Clear 17 1012 39 10000 5.66 190 16:39 06.06.2022
1782 Clear 17 1013 38 10000 2.57 330 15:40 06.06.2022
1783 Clear 17 1013 38 10000 4.12 260 14:56 06.06.2022
1784 Clear 17 1013 41 10000 4.02 222 13:37 06.06.2022
1785 Clear 17 1011 40 10000 3.09 330 12:44 06.06.2022
1786 Clear 17 1011 40 10000 1.79 332 12:26 06.06.2022
1787 Clear 16 1012 42 10000 4.63 340 11:45 06.06.2022
1788 Clear 15 1011 44 10000 4.63 330 09:43 06.06.2022
1789 Clear 14 1012 49 10000 5.14 330 08:35 06.06.2022
1790 Clear 13 1010 54 10000 2.57 320 07:41 06.06.2022
1791 Clear 11 1014 68 10000 3.6 320 05:48 06.06.2022
1792 Clear 8 1009 80 10000 2.57 310 04:28 06.06.2022
1793 Clear 9 1022 82 10000 3.6 310 01:30 06.06.2022
1794 Clear 9 1002 85 10000 3.6 300 00:43 06.06.2022
1795 Clear 10 1006 83 10000 4.12 310 00:19 06.06.2022
1796 Clear 10 990 89 10000 2.57 290 22:58 05.06.2022
1797 Clear 12 1021 75 10000 1.54 330 21:56 05.06.2022
1798 Clouds 14 1017 69 10000 5.66 330 20:23 05.06.2022
1799 Clouds 15 1016 73 10000 7.2 330 18:51 05.06.2022
1800 Clouds 16 1007 66 10000 7.2 240 17:58 05.06.2022
1801 Clouds 19 1016 56 10000 8.23 220 17:38 05.06.2022
1802 Clouds 18 1010 58 10000 8.23 220 17:19 05.06.2022
1803 Clouds 16 1007 63 10000 8.23 220 16:46 05.06.2022
1804 Clouds 18 1008 58 10000 6.69 200 14:59 05.06.2022
1805 Clouds 17 1009 64 10000 5.14 180 13:55 05.06.2022
1806 Clear 18 1007 59 10000 4.02 183 11:58 05.06.2022
1807 Clear 17 1005 58 10000 2.57 290 10:45 05.06.2022
1808 Clear 17 1002 61 10000 2.57 290 10:24 05.06.2022
1809 Clear 16 1010 61 10000 3.09 290 09:21 05.06.2022
1810 Clear 15 1007 66 10000 3.6 300 08:22 05.06.2022
1811 Clear 11 1010 82 10000 4.12 280 05:24 05.06.2022
1812 Clear 11 1010 83 10000 3.6 280 04:36 05.06.2022
1813 Clear 11 1009 79 10000 4.63 290 02:19 05.06.2022
1814 Clear 12 1017 78 10000 5.66 290 01:23 05.06.2022
1815 Clear 11 1009 81 10000 5.66 290 01:23 05.06.2022
1816 Clear 12 1001 82 10000 3.09 270 22:48 04.06.2022
1817 Clear 13 1000 82 10000 5.14 300 21:24 04.06.2022
1818 Clouds 16 1007 71 10000 6.69 260 18:58 04.06.2022
1819 Clouds 17 1014 76 10000 6.69 250 16:48 04.06.2022
1820 Rain 16 1007 80 10000 7.2 230 16:20 04.06.2022
1821 Rain 15 1007 82 10000 4.63 230 15:35 04.06.2022
1822 Clouds 17 1005 70 10000 6.17 230 13:57 04.06.2022
1823 Clouds 15 1007 80 10000 2.68 206 11:28 04.06.2022
1824 Clouds 14 1007 84 10000 3.09 240 10:52 04.06.2022
1825 Clouds 13 1004 88 10000 4.12 230 09:47 04.06.2022
1826 Clouds 12 1005 90 10000 3.09 210 08:59 04.06.2022
1827 Clouds 12 1006 90 10000 3.6 200 08:37 04.06.2022
1828 Clouds 11 1007 93 10000 3.13 243 06:25 04.06.2022
1829 Clouds 10 1006 93 10000 3.58 260 03:37 04.06.2022
1830 Clouds 11 1015 91 10000 4.63 220 00:22 04.06.2022
1831 Clouds 11 1014 92 10000 4.63 210 22:56 03.06.2022
1832 Clear 11 1005 90 10000 5.14 210 21:52 03.06.2022
1833 Clouds 12 1002 84 10000 5.66 200 20:40 03.06.2022
1834 Clouds 14 1006 78 10000 6.26 250 19:33 03.06.2022
1835 Clouds 15 1007 73 10000 8.23 220 16:56 03.06.2022
1836 Clouds 17 1007 67 10000 9.26 210 15:52 03.06.2022
1837 Clouds 17 1004 67 10000 8.75 220 13:58 03.06.2022
1838 Clouds 15 1005 76 10000 9.26 210 12:21 03.06.2022
1839 Clouds 13 1004 85 10000 7.15 243 09:56 03.06.2022
1840 Clouds 12 1005 89 10000 6.17 210 09:29 03.06.2022
1841 Clouds 11 1005 93 10000 5.36 290 07:45 03.06.2022
1842 Clouds 10 1005 94 10000 6.69 200 06:49 03.06.2022
1843 Clouds 10 1010 96 10000 5.66 200 06:27 03.06.2022
1844 Rain 10 1001 93 10000 7.2 200 03:39 03.06.2022
1845 Drizzle 9 1007 95 1900 7.72 180 23:52 02.06.2022
1846 Drizzle 10 1006 93 6000 8.75 170 21:58 02.06.2022
1847 Clouds 10 1007 94 10000 9.39 210 20:38 02.06.2022
1848 Drizzle 10 1007 92 10000 9.39 210 19:56 02.06.2022
1849 Clouds 10 1007 92 10000 9.39 210 19:38 02.06.2022
1850 Drizzle 10 1006 94 10000 8.23 180 18:41 02.06.2022
1851 Clouds 11 1006 90 10000 6.69 170 16:28 02.06.2022
1852 Rain 11 1007 93 8000 9.39 219 15:47 02.06.2022
1853 Clouds 10 1005 95 10000 8.94 199 13:31 02.06.2022
1854 Rain 10 1005 95 7000 8.94 199 12:49 02.06.2022
1855 Clouds 12 998 89 10000 7.2 150 10:36 02.06.2022
1856 Clouds 12 999 92 10000 7.2 140 09:29 02.06.2022
1857 Clouds 12 999 92 10000 5.14 120 08:44 02.06.2022
1858 Clouds 12 1000 91 10000 5.66 110 08:23 02.06.2022
1859 Rain 11 1005 94 9000 5.81 80 06:21 02.06.2022
1860 Rain 12 1008 86 10000 5.36 86 03:50 02.06.2022
1861 Clear 14 1014 68 10000 5.14 60 00:47 02.06.2022
1862 Clear 12 997 79 10000 3.6 60 22:57 01.06.2022
1863 Clear 13 997 76 10000 3.6 60 21:59 01.06.2022
1864 Clear 15 1014 70 10000 4.47 91 21:24 01.06.2022
1865 Clear 15 1006 68 10000 5.81 98 20:38 01.06.2022
1866 Clouds 15 1016 67 10000 6.71 101 19:51 01.06.2022
1867 Clouds 16 1016 67 10000 4.63 80 18:28 01.06.2022
1868 Clouds 17 1009 58 10000 6.71 89 16:58 01.06.2022
1869 Clouds 17 1018 59 10000 4.63 120 15:43 01.06.2022
1870 Clouds 17 1019 62 10000 5.66 110 14:49 01.06.2022
1871 Clouds 17 1017 59 10000 6.69 150 13:23 01.06.2022
1872 Clouds 15 1017 68 10000 6.17 160 10:48 01.06.2022
1873 Clouds 12 1017 80 10000 6.69 160 09:29 01.06.2022
1874 Clouds 11 1016 87 10000 6.17 160 08:18 01.06.2022
1875 Clouds 10 1016 90 10000 6.17 160 07:20 01.06.2022
1876 Clouds 10 1008 91 10000 6.69 160 04:41 01.06.2022
1877 Clouds 10 1006 93 9000 8.75 160 23:50 31.05.2022
1878 Rain 10 1011 92 10000 8.23 160 22:41 31.05.2022
1879 Rain 10 1010 92 10000 8.75 160 22:22 31.05.2022
1880 Rain 10 1009 92 9000 8.75 150 21:39 31.05.2022
1881 Rain 10 1009 91 7000 9.26 130 20:44 31.05.2022
1882 Rain 11 1008 88 10000 7.2 130 19:31 31.05.2022
1883 Clouds 11 1008 88 10000 6.69 120 18:26 31.05.2022
1884 Clouds 11 1008 89 8000 8.23 130 17:37 31.05.2022
1885 Clouds 11 1008 93 10000 7.72 100 15:45 31.05.2022
1886 Clouds 12 1002 88 10000 9.39 113 15:22 31.05.2022
1887 Clouds 12 1007 87 10000 7.2 100 12:41 31.05.2022
1888 Clouds 12 1007 88 10000 7.72 100 12:18 31.05.2022
1889 Clouds 11 1007 92 10000 8.94 87 10:25 31.05.2022
1890 Rain 11 1009 89 10000 4.12 70 07:46 31.05.2022
1891 Rain 13 1005 76 10000 5.14 50 06:19 31.05.2022
1892 Rain 13 1010 62 10000 5.14 40 03:49 31.05.2022
1893 Clear 12 995 77 10000 2.57 50 23:45 30.05.2022
1894 Clear 11 991 89 10000 2.57 50 23:23 30.05.2022
1895 Clear 12 990 86 10000 3.09 90 22:33 30.05.2022
1896 Clear 13 983 95 10000 2.06 100 21:40 30.05.2022
1897 Clear 15 1015 47 10000 3.09 110 20:43 30.05.2022
1898 Clear 15 1014 59 10000 3.6 130 19:43 30.05.2022
1899 Clear 16 1006 61 10000 4.63 140 17:53 30.05.2022
1900 Clear 17 1008 58 10000 3.09 0 17:21 30.05.2022
1901 Clear 17 1007 58 10000 2.68 160 15:54 30.05.2022
1902 Clouds 18 1015 55 10000 3.6 170 13:26 30.05.2022
1903 Clouds 16 1002 70 10000 2.57 240 11:39 30.05.2022
1904 Clouds 15 1014 69 10000 2.57 220 09:45 30.05.2022
1905 Clear 9 1015 83 10000 2.06 290 07:34 30.05.2022
1906 Clear 9 1007 89 10000 1.54 280 05:54 30.05.2022
1907 Fog 7 1007 93 10000 0.51 270 04:46 30.05.2022
1908 Clear 9 1013 83 10000 2.57 260 00:18 30.05.2022
1909 Clear 10 1011 79 10000 2.57 220 22:40 29.05.2022
1910 Clear 11 1011 73 10000 3.6 220 21:44 29.05.2022
1911 Clear 13 1002 68 10000 3.6 210 20:21 29.05.2022
1912 Clear 14 1002 66 10000 4.63 220 19:28 29.05.2022
1913 Clouds 15 1001 62 10000 6.17 200 17:56 29.05.2022
1914 Clouds 15 1001 65 10000 4.12 210 16:20 29.05.2022
1915 Clouds 15 1006 66 10000 2.24 173 15:41 29.05.2022
1916 Clouds 15 1000 73 10000 3.13 240 14:49 29.05.2022
1917 Clouds 12 999 86 10000 4.02 200 12:33 29.05.2022
1918 Clouds 12 1005 89 10000 3.13 223 11:19 29.05.2022
1919 Mist 10 1004 93 4500 1.34 228 09:54 29.05.2022
1920 Mist 10 1002 95 2500 1.34 179 07:55 29.05.2022
1921 Fog 9 994 95 100 1.03 40 04:58 29.05.2022
1922 Fog 9 992 95 100 1.34 308 04:33 29.05.2022
1923 Fog 9 994 95 700 2.06 60 01:23 29.05.2022
1924 Clouds 10 992 94 10000 0.89 124 23:47 28.05.2022
1925 Fog 10 993 94 10000 1.03 0 23:19 28.05.2022
1926 Clouds 11 993 94 10000 2.06 80 21:52 28.05.2022
1927 Clouds 11 999 92 10000 1.79 118 20:46 28.05.2022
1928 Clouds 12 999 89 10000 0.51 0 19:20 28.05.2022
1929 Clouds 12 997 86 10000 2.06 190 18:23 28.05.2022
1930 Clouds 11 998 90 10000 2.06 190 17:32 28.05.2022
1931 Clouds 12 996 85 10000 3.09 200 15:49 28.05.2022
1932 Clouds 12 997 87 10000 2.57 210 15:19 28.05.2022
1933 Rain 11 995 88 10000 3.09 160 13:29 28.05.2022
1934 Rain 10 994 93 10000 4.63 140 12:42 28.05.2022
1935 Clouds 11 996 87 10000 2.24 219 11:28 28.05.2022
1936 Clouds 11 996 87 10000 2.06 310 10:34 28.05.2022
1937 Clouds 11 996 89 10000 1.54 250 09:46 28.05.2022
1938 Clouds 10 994 92 10000 2.06 250 08:21 28.05.2022
1939 Rain 9 993 94 10000 2.06 280 06:33 28.05.2022
1940 Rain 9 987 96 9000 1.03 230 04:43 28.05.2022
1941 Rain 9 988 95 10000 1.54 220 01:46 28.05.2022
1942 Rain 9 986 94 10000 1.54 230 23:55 27.05.2022
1943 Rain 9 986 94 10000 1.54 250 22:38 27.05.2022
1944 Rain 9 986 93 10000 1.54 250 22:38 27.05.2022
1945 Rain 10 994 93 10000 1.34 276 21:22 27.05.2022
1946 Rain 10 994 92 10000 1.54 230 20:43 27.05.2022
1947 Rain 10 994 91 10000 2.57 230 20:18 27.05.2022
1948 Rain 10 994 91 10000 3.09 230 19:36 27.05.2022
1949 Rain 10 994 91 10000 2.57 230 19:18 27.05.2022
1950 Rain 10 993 94 10000 2.57 200 16:43 27.05.2022
1951 Rain 10 993 94 10000 2.57 160 15:55 27.05.2022
1952 Clouds 11 993 88 10000 2.57 130 14:47 27.05.2022
1953 Clouds 11 993 89 10000 1.54 110 13:40 27.05.2022
1954 Rain 10 994 92 10000 2.57 70 11:53 27.05.2022
1955 Rain 10 994 89 10000 2.06 50 11:27 27.05.2022
1956 Rain 10 994 89 10000 2.57 70 10:37 27.05.2022
1957 Rain 10 995 92 10000 3.13 131 09:52 27.05.2022
1958 Rain 10 995 91 10000 3.09 70 09:28 27.05.2022
1959 Clouds 9 996 95 10000 1.54 340 06:58 27.05.2022
1960 Clouds 9 996 95 7000 0.45 158 02:59 27.05.2022
1961 Clouds 9 997 94 8000 1.03 0 00:57 27.05.2022
1962 Drizzle 9 998 92 6000 2.57 110 23:23 26.05.2022
1963 Drizzle 10 992 90 6000 2.57 150 21:48 26.05.2022
1964 Drizzle 10 992 90 6000 3.09 140 20:59 26.05.2022
1965 Rain 10 999 93 10000 3.13 138 19:30 26.05.2022
1966 Rain 11 999 94 10000 3.09 120 18:24 26.05.2022
1967 Rain 12 999 91 10000 2.57 80 17:34 26.05.2022
1968 Clouds 12 1000 90 10000 2.68 94 15:58 26.05.2022
1969 Clouds 12 1000 92 10000 2.68 80 15:18 26.05.2022
1970 Clouds 12 1000 89 9000 2.24 107 13:46 26.05.2022
1971 Rain 13 989 82 10000 1.79 183 11:49 26.05.2022
1972 Rain 12 992 88 10000 1.54 280 10:39 26.05.2022
1973 Rain 11 995 90 10000 3.09 270 09:37 26.05.2022
1974 Rain 11 997 92 10000 1.03 0 08:38 26.05.2022
1975 Rain 11 1004 90 7000 2.24 264 05:26 26.05.2022
1976 Rain 12 1007 85 10000 1.54 210 02:19 26.05.2022
1977 Clouds 13 1006 67 10000 2.06 120 23:41 25.05.2022
1978 Clouds 13 1006 60 10000 3.6 150 22:51 25.05.2022
1979 Clear 12 988 63 10000 2.06 110 21:39 25.05.2022
1980 Clear 13 992 61 10000 2.57 100 20:47 25.05.2022
1981 Clear 16 1006 52 10000 2.57 120 19:32 25.05.2022
1982 Clear 16 1008 50 10000 3.09 120 18:36 25.05.2022
1983 Clear 15 1010 57 10000 7.2 170 16:53 25.05.2022
1984 Clear 16 1010 50 10000 6.69 130 16:25 25.05.2022
1985 Clear 18 1009 41 10000 8.23 120 15:36 25.05.2022
1986 Clear 18 1012 46 10000 7.2 120 14:42 25.05.2022
1987 Clear 18 1005 39 10000 7.2 120 14:24 25.05.2022
1988 Clear 17 1006 43 10000 6.69 130 12:52 25.05.2022
1989 Clear 18 999 42 10000 7.2 150 11:32 25.05.2022
1990 Clear 16 1003 49 10000 5.14 140 10:23 25.05.2022
1991 Clouds 15 1004 53 10000 4.47 136 08:53 25.05.2022
1992 Clouds 11 1002 68 10000 0.45 176 07:23 25.05.2022
1993 Clear 10 1013 67 10000 2.57 100 05:27 25.05.2022
1994 Clear 8 1013 71 10000 1.54 70 00:38 25.05.2022
1995 Clear 10 1013 66 10000 0 0 23:47 24.05.2022
1996 Clear 11 1013 59 10000 2.06 130 22:53 24.05.2022
1997 Clear 9 1001 65 10000 4.12 140 21:46 24.05.2022
1998 Clear 11 1003 58 10000 3.6 150 21:22 24.05.2022
1999 Clear 11 997 47 10000 3.6 160 20:44 24.05.2022
2000 Clear 17 1006 32 10000 3.09 200 18:59 24.05.2022
2001 Clear 19 1006 31 10000 5.14 170 17:50 24.05.2022
2002 Clear 18 1007 30 10000 5.14 170 16:29 24.05.2022
2003 Clear 19 1007 30 10000 5.14 170 15:27 24.05.2022
2004 Clear 19 1006 30 10000 5.66 160 14:36 24.05.2022
2005 Clear 19 1008 31 10000 5.14 170 13:35 24.05.2022
2006 Clear 18 1006 30 10000 2.68 211 12:18 24.05.2022
2007 Clear 16 1004 35 10000 3.58 208 09:50 24.05.2022
2008 Clear 17 1013 31 10000 2.06 280 08:51 24.05.2022
2009 Clear 13 1003 40 10000 1.54 340 07:32 24.05.2022
2010 Clear 11 1007 45 10000 1.54 290 06:27 24.05.2022
2011 Clear 8 1013 48 10000 2.68 321 03:32 24.05.2022
2012 Clear 7 1012 52 10000 3.6 300 01:46 24.05.2022
2013 Clear 9 1012 50 10000 3.6 300 00:21 24.05.2022
2014 Clear 9 986 68 10000 4.12 260 22:24 23.05.2022
2015 Clear 9 977 80 10000 4.63 260 21:45 23.05.2022
2016 Clear 12 976 68 10000 4.12 260 20:46 23.05.2022
2017 Clear 15 983 51 10000 4.63 240 19:47 23.05.2022
2018 Clear 17 1010 33 10000 6.17 230 19:22 23.05.2022
2019 Clear 17 1004 39 10000 6.69 230 18:40 23.05.2022
2020 Clear 18 1005 36 10000 7.2 230 17:56 23.05.2022
2021 Clear 18 1005 37 10000 3.58 220 16:28 23.05.2022
2022 Clear 19 1005 37 10000 5.36 263 14:18 23.05.2022
2023 Clear 18 1004 37 10000 2.57 240 11:52 23.05.2022
2024 Clear 17 1013 38 10000 3.58 212 10:47 23.05.2022
2025 Clear 17 1013 35 10000 3.09 320 09:47 23.05.2022
2026 Clear 16 1014 41 10000 2.24 323 08:46 23.05.2022
2027 Clear 11 1003 60 10000 2.24 314 07:24 23.05.2022
2028 Clear 9 1005 62 10000 1.54 310 06:39 23.05.2022
2029 Clear 7 1007 67 10000 3.13 278 03:27 23.05.2022
2030 Clear 6 1006 68 10000 3.13 281 01:52 23.05.2022
2031 Clear 7 1007 66 10000 1.79 276 01:29 23.05.2022
2032 Clear 7 1004 63 10000 2.06 260 23:18 22.05.2022
2033 Clear 8 1005 58 10000 2.57 230 22:27 22.05.2022
2034 Clear 8 1003 56 10000 2.57 230 21:51 22.05.2022
2035 Clear 10 1016 49 10000 2.57 210 20:43 22.05.2022
2036 Clear 10 1005 44 10000 2.57 210 20:22 22.05.2022
2037 Clear 12 1006 41 10000 3.09 220 19:34 22.05.2022
2038 Clear 11 1007 40 10000 4.12 190 18:50 22.05.2022
2039 Clear 12 1007 40 10000 4.12 190 18:21 22.05.2022
2040 Clear 13 1006 40 10000 4.12 160 16:57 22.05.2022
2041 Clear 13 1006 40 10000 3.6 130 15:34 22.05.2022
2042 Clear 13 1006 40 10000 4.47 108 14:47 22.05.2022
2043 Clear 13 1006 39 10000 4.12 170 12:55 22.05.2022
2044 Clear 12 1008 43 10000 4.12 160 12:33 22.05.2022
2045 Clear 12 1006 39 10000 6.17 80 10:53 22.05.2022
2046 Clear 11 1006 45 10000 4.63 70 09:38 22.05.2022
2047 Clear 10 1006 49 10000 6.26 82 07:52 22.05.2022
2048 Clear 9 1006 49 10000 5.81 91 07:20 22.05.2022
2049 Clear 6 1013 57 10000 2.57 40 04:30 22.05.2022
2050 Clear 6 1012 57 10000 3.13 67 01:20 22.05.2022
2051 Clear 7 1004 58 10000 2.68 28 23:57 21.05.2022
2052 Clear 7 1005 57 10000 2.57 30 23:32 21.05.2022
2053 Clear 9 1005 52 10000 2.68 49 22:22 21.05.2022
2054 Clear 10 1011 47 10000 4.92 77 21:39 21.05.2022
2055 Clear 11 1003 47 10000 4.47 99 20:48 21.05.2022
2056 Clear 12 1004 43 10000 4.63 80 19:59 21.05.2022
2057 Clear 12 1005 40 10000 6.17 80 19:21 21.05.2022
2058 Clear 13 1005 38 10000 7.72 80 17:35 21.05.2022
2059 Clear 13 1005 38 10000 7.15 71 15:37 21.05.2022
2060 Clear 14 1011 38 10000 9.83 98 14:36 21.05.2022
2061 Clear 13 1006 39 10000 7.72 100 13:36 21.05.2022
2062 Clear 13 1006 40 10000 7.2 90 12:39 21.05.2022
2063 Clear 13 1005 42 10000 7.15 73 11:52 21.05.2022
2064 Clear 12 1007 44 10000 8.94 94 10:22 21.05.2022
2065 Clear 11 1007 51 10000 6.71 83 09:18 21.05.2022
2066 Clear 11 1005 55 10000 5.66 70 08:39 21.05.2022
2067 Clear 7 1007 66 10000 3.58 34 06:22 21.05.2022
2068 Clear 6 1014 67 10000 3.6 40 02:23 21.05.2022
2069 Clear 8 1015 62 10000 4.02 98 23:42 20.05.2022
2070 Clear 8 1015 61 10000 3.58 101 22:41 20.05.2022
2071 Clear 8 1015 59 10000 2.68 72 22:18 20.05.2022
2072 Clear 9 1015 56 10000 2.06 70 21:19 20.05.2022
2073 Clear 10 1015 56 10000 3.09 80 20:51 20.05.2022
2074 Clear 11 1015 47 10000 4.63 90 19:54 20.05.2022
2075 Clear 11 1010 45 10000 4.63 90 18:58 20.05.2022
2076 Clear 11 1010 44 10000 6.26 84 18:23 20.05.2022
2077 Clouds 11 1011 45 10000 6.17 90 16:28 20.05.2022
2078 Clear 12 1010 44 10000 8.05 95 15:54 20.05.2022
2079 Clear 11 1017 44 10000 7.6 92 15:32 20.05.2022
2080 Clear 11 1010 45 10000 7.6 91 14:27 20.05.2022
2081 Clear 11 1012 49 10000 10.28 99 12:45 20.05.2022
2082 Clear 11 1012 52 10000 6.71 90 10:48 20.05.2022
2083 Clear 10 1011 57 10000 6.71 89 09:31 20.05.2022
2084 Clear 9 1013 61 10000 5.36 114 08:27 20.05.2022
2085 Clear 9 1018 66 10000 4.92 96 06:43 20.05.2022
2086 Clear 8 1018 66 10000 3.6 70 05:40 20.05.2022
2087 Clear 7 1018 74 10000 2.06 60 02:41 20.05.2022
2088 Clear 8 1019 70 10000 1.54 70 23:47 19.05.2022
2089 Clear 8 1019 68 10000 1.34 77 22:37 19.05.2022
2090 Clear 9 1018 66 10000 2.06 80 21:51 19.05.2022
2091 Clear 9 1018 65 10000 2.24 130 21:24 19.05.2022
2092 Clear 10 1018 63 10000 2.24 116 20:52 19.05.2022
2093 Clear 11 1011 58 10000 3.6 140 19:54 19.05.2022
2094 Clear 11 1012 55 10000 5.14 130 19:18 19.05.2022
2095 Clear 13 1018 50 10000 3.6 150 17:46 19.05.2022
2096 Clear 14 1010 45 10000 4.47 127 15:58 19.05.2022
2097 Clear 13 1010 46 10000 4.02 124 14:49 19.05.2022
2098 Clear 13 1010 47 10000 5.36 105 14:20 19.05.2022
2099 Clear 12 1011 53 10000 6.71 114 11:55 19.05.2022
2100 Clear 12 1009 57 10000 5.81 50 10:31 19.05.2022
2101 Rain 12 1016 62 10000 4.12 70 08:46 19.05.2022
2102 Rain 9 1015 73 10000 3.6 60 07:24 19.05.2022
2103 Clear 8 1015 80 10000 2.06 250 03:52 19.05.2022
2104 Clear 9 1016 71 10000 1.54 240 01:28 19.05.2022
2105 Clear 10 1007 63 10000 4.12 250 23:43 18.05.2022
2106 Clear 10 1000 57 10000 4.63 260 22:44 18.05.2022
2107 Clear 12 1017 50 10000 5.66 260 21:45 18.05.2022
2108 Clear 13 1016 49 10000 6.17 260 21:23 18.05.2022
2109 Clear 15 1016 47 10000 7.72 250 20:21 18.05.2022
2110 Clear 17 1017 42 10000 8.23 260 18:56 18.05.2022
2111 Clear 18 1017 35 10000 8.23 260 17:57 18.05.2022
2112 Clear 19 1015 30 10000 8.23 270 17:37 18.05.2022
2113 Clear 19 1016 29 10000 8.75 270 17:18 18.05.2022
2114 Clear 19 1019 33 10000 8.75 270 15:58 18.05.2022
2115 Clear 19 1018 34 10000 8.75 270 15:35 18.05.2022
2116 Clear 17 1018 40 10000 7.72 270 14:21 18.05.2022
2117 Clear 17 1018 33 10000 7.72 270 12:55 18.05.2022
2118 Clear 16 1020 38 10000 7.72 260 12:24 18.05.2022
2119 Clear 15 1020 38 10000 7.72 270 11:33 18.05.2022
2120 Clear 14 1021 41 10000 7.2 270 10:43 18.05.2022
2121 Clear 8 1010 61 10000 5.66 270 08:19 18.05.2022
2122 Clear 7 1010 67 10000 5.14 280 07:27 18.05.2022
2123 Clouds 5 1011 81 10000 2.57 270 03:59 18.05.2022
2124 Clouds 7 1013 74 10000 2.57 310 00:51 18.05.2022
2125 Clouds 8 1023 67 10000 2.57 340 23:33 17.05.2022
2126 Clouds 9 1022 61 10000 4.63 320 21:21 17.05.2022
2127 Clouds 8 999 66 10000 4.12 320 20:43 17.05.2022
2128 Clouds 11 1021 57 10000 5.66 320 19:31 17.05.2022
2129 Clouds 11 1021 55 10000 6.17 320 18:46 17.05.2022
2130 Clouds 11 1021 54 10000 5.14 340 17:34 17.05.2022
2131 Clouds 11 1021 53 10000 5.66 340 16:57 17.05.2022
2132 Clouds 11 1020 55 10000 6.17 360 15:58 17.05.2022
2133 Clouds 10 1020 57 10000 7.2 330 14:55 17.05.2022
2134 Clouds 10 1020 58 10000 7.2 330 14:28 17.05.2022
2135 Clouds 10 1019 60 10000 6.69 340 12:39 17.05.2022
2136 Clouds 7 1010 69 10000 6.17 340 10:39 17.05.2022
2137 Clouds 6 1009 76 10000 7.72 330 08:51 17.05.2022
2138 Clouds 5 1008 76 10000 7.2 340 07:55 17.05.2022
2139 Clouds 5 1009 73 10000 6.69 320 06:23 17.05.2022
2140 Clear 6 1007 68 10000 5.14 330 01:23 17.05.2022
2141 Clear 7 1007 76 10000 3.6 320 23:44 16.05.2022
2142 Rain 8 1007 81 10000 4.63 310 22:33 16.05.2022
2143 Rain 8 1007 80 10000 6.69 300 21:24 16.05.2022
2144 Clouds 10 1007 62 10000 4.63 360 20:42 16.05.2022
2145 Clouds 13 1013 48 10000 7.2 340 18:51 16.05.2022
2146 Clouds 14 1013 40 10000 4.47 321 17:18 16.05.2022
2147 Clouds 14 1013 40 10000 4.47 321 17:18 16.05.2022
2148 Clouds 14 1005 44 10000 6.17 290 15:35 16.05.2022
2149 Clouds 13 1004 45 10000 6.17 310 13:48 16.05.2022
2150 Clear 13 1004 50 10000 6.69 320 12:41 16.05.2022
2151 Clear 12 1013 47 10000 6.69 300 10:37 16.05.2022
2152 Clouds 10 1013 56 10000 6.17 300 08:32 16.05.2022
2153 Clear 8 1012 64 10000 5.66 300 06:30 16.05.2022
2154 Clear 7 1003 67 10000 5.14 280 01:43 16.05.2022
2155 Clear 9 1011 55 10000 5.66 280 22:45 15.05.2022
2156 Clear 10 1011 53 10000 5.14 280 22:20 15.05.2022
2157 Clear 10 1011 51 10000 4.63 280 21:37 15.05.2022
2158 Clear 11 1011 52 10000 6.17 290 20:47 15.05.2022
2159 Clear 13 1010 44 10000 7.2 310 18:46 15.05.2022
2160 Clear 14 1009 43 10000 9.77 300 16:54 15.05.2022
2161 Clouds 14 1009 48 10000 6.26 314 14:34 15.05.2022
2162 Clouds 14 1009 49 10000 6.69 310 13:46 15.05.2022
2163 Clouds 13 1008 50 10000 7.2 290 12:19 15.05.2022
2164 Clouds 12 1008 54 10000 7.2 290 10:49 15.05.2022
2165 Clouds 11 1007 58 10000 7.2 290 09:57 15.05.2022
2166 Clear 8 997 74 10000 6.17 290 07:24 15.05.2022
2167 Clear 8 994 77 10000 6.17 290 06:56 15.05.2022
2168 Clear 6 1006 81 10000 5.14 290 03:38 15.05.2022
2169 Clear 8 1005 80 10000 5.66 300 00:26 15.05.2022
2170 Clouds 9 1004 83 10000 5.66 290 23:37 14.05.2022
2171 Clouds 10 1004 81 10000 4.12 270 21:51 14.05.2022
2172 Rain 11 1003 79 10000 3.6 270 21:26 14.05.2022
2173 Clouds 11 996 76 10000 3.6 250 20:27 14.05.2022
2174 Clouds 12 1002 69 10000 5.66 280 19:20 14.05.2022
2175 Clouds 13 1001 73 10000 5.66 280 18:58 14.05.2022
2176 Clouds 13 1003 69 10000 3.6 270 17:47 14.05.2022
2177 Clouds 15 1001 58 10000 4.63 270 15:58 14.05.2022
2178 Clouds 14 1003 64 10000 5.36 255 14:39 14.05.2022
2179 Clouds 14 1003 65 10000 7.72 240 14:18 14.05.2022
2180 Clouds 13 1001 68 10000 2.57 190 11:46 14.05.2022
2181 Clouds 12 992 69 10000 3.09 180 10:44 14.05.2022
2182 Clouds 11 1001 75 10000 3.6 190 10:18 14.05.2022
2183 Clouds 9 1001 82 10000 2.57 140 09:23 14.05.2022
2184 Clear 8 1001 85 10000 2.57 140 07:34 14.05.2022
2185 Clouds 5 994 90 10000 0.89 187 04:43 14.05.2022
2186 Clear 7 1004 78 10000 3.09 250 00:43 14.05.2022
2187 Clear 7 994 80 10000 3.13 266 23:28 13.05.2022
2188 Clear 7 989 78 10000 2.57 250 22:55 13.05.2022
2189 Clear 9 1003 73 10000 3.13 265 22:21 13.05.2022
2190 Clear 10 992 79 10000 3.6 190 20:59 13.05.2022
2191 Clear 10 992 78 10000 5.14 180 20:38 13.05.2022
2192 Clouds 11 995 73 10000 4.12 180 20:20 13.05.2022
2193 Clouds 12 993 70 10000 6.69 200 19:18 13.05.2022
2194 Clouds 14 992 60 10000 5.66 250 17:47 13.05.2022
2195 Clouds 14 992 56 10000 3.09 290 17:23 13.05.2022
2196 Clouds 14 994 56 10000 7.72 220 15:47 13.05.2022
2197 Rain 14 994 59 10000 6.69 260 14:39 13.05.2022
2198 Clouds 16 991 46 10000 6.69 280 12:53 13.05.2022
2199 Clear 15 992 48 10000 6.69 280 11:56 13.05.2022
2200 Clouds 13 989 58 10000 8.23 280 09:55 13.05.2022
2201 Clouds 13 989 60 10000 6.17 280 09:29 13.05.2022
2202 Clear 10 988 75 10000 5.14 280 07:52 13.05.2022
2203 Clear 9 988 80 10000 4.63 280 07:18 13.05.2022
2204 Clouds 7 991 87 10000 6.17 290 05:23 13.05.2022
2205 Clouds 9 998 84 10000 5.14 260 00:59 13.05.2022
2206 Clouds 9 997 82 10000 6.17 260 22:59 12.05.2022
2207 Clouds 9 997 82 10000 6.69 260 22:34 12.05.2022
2208 Clouds 9 997 81 10000 6.69 260 21:24 12.05.2022
2209 Clouds 10 988 79 10000 8.23 240 19:51 12.05.2022
2210 Clouds 11 987 76 10000 3.6 240 18:27 12.05.2022
2211 Clouds 12 984 73 10000 7.2 230 16:44 12.05.2022
2212 Clouds 13 986 68 10000 6.69 220 14:57 12.05.2022
2213 Clouds 12 987 72 10000 5.66 220 13:50 12.05.2022
2214 Clouds 11 983 77 10000 5.14 200 11:55 12.05.2022
2215 Clouds 11 983 77 10000 4.63 180 10:32 12.05.2022
2216 Clouds 10 986 83 10000 5.66 220 08:53 12.05.2022
2217 Clouds 9 987 85 10000 5.66 220 08:35 12.05.2022
2218 Clouds 8 987 90 10000 4.12 220 07:25 12.05.2022
2219 Clouds 8 997 87 10000 5.14 180 04:32 12.05.2022
2220 Clear 7 992 89 10000 4.12 170 01:30 12.05.2022
2221 Clear 8 994 85 10000 5.14 220 23:36 11.05.2022
2222 Clear 8 994 85 10000 4.63 210 22:21 11.05.2022
2223 Clear 8 994 87 10000 5.14 210 21:26 11.05.2022
2224 Clear 8 994 87 10000 5.14 210 21:26 11.05.2022
2225 Clear 9 990 83 10000 5.14 200 20:20 11.05.2022
2226 Clouds 11 995 74 10000 6.69 200 17:37 11.05.2022
2227 Clouds 12 993 74 10000 7.72 220 16:27 11.05.2022
2228 Clouds 12 994 76 10000 7.2 220 14:48 11.05.2022
2229 Clouds 12 992 76 10000 6.69 210 14:25 11.05.2022
2230 Clouds 11 1002 80 10000 7.2 200 13:25 11.05.2022
2231 Clouds 10 1003 88 10000 6.69 200 11:48 11.05.2022
2232 Clouds 8 1003 91 10000 7.2 190 09:30 11.05.2022
2233 Rain 8 1005 83 10000 6.69 190 06:36 11.05.2022
2234 Clear 9 999 54 10000 4.63 160 02:27 11.05.2022
2235 Clear 10 1004 53 10000 6.69 180 22:58 10.05.2022
2236 Clouds 10 1002 53 10000 5.81 231 22:58 10.05.2022
2237 Clear 10 1004 54 10000 6.69 190 22:30 10.05.2022
2238 Clear 11 1003 52 10000 6.17 190 21:41 10.05.2022
2239 Clear 11 1014 54 10000 5.14 190 20:47 10.05.2022
2240 Clear 12 1015 48 10000 7.2 210 18:57 10.05.2022
2241 Clear 14 1014 32 10000 9.26 200 17:38 10.05.2022
2242 Clear 14 1017 40 10000 8.75 210 16:35 10.05.2022
2243 Clear 14 1018 33 10000 8.75 210 13:31 10.05.2022
2244 Clear 13 1020 43 10000 9.26 210 11:54 10.05.2022
2245 Clear 13 1019 47 10000 9.77 200 11:32 10.05.2022
2246 Clear 12 1020 51 10000 8.23 200 10:56 10.05.2022
2247 Clear 11 1012 58 10000 8.05 261 09:47 10.05.2022
2248 Clear 9 1009 63 10000 7.72 220 08:18 10.05.2022
2249 Clear 7 1012 71 10000 6.17 200 06:20 10.05.2022
2250 Clear 4 1014 78 10000 4.12 200 02:23 10.05.2022
2251 Clear 6 1024 75 10000 4.12 210 23:53 09.05.2022
2252 Clear 6 1024 78 10000 4.63 210 22:36 09.05.2022
2253 Clear 7 1024 74 10000 4.12 210 21:39 09.05.2022
2254 Clear 9 1025 54 10000 5.66 200 20:20 09.05.2022
2255 Clear 11 1016 47 10000 5.66 220 18:25 09.05.2022
2256 Clear 11 1016 47 10000 5.66 230 17:25 09.05.2022
2257 Clear 11 1014 45 10000 4.02 221 16:19 09.05.2022
2258 Rain 12 1017 42 10000 3.6 250 15:47 09.05.2022
2259 Rain 11 1015 44 10000 4.12 250 14:36 09.05.2022
2260 Clear 12 1017 38 10000 6.69 270 13:57 09.05.2022
2261 Clear 11 1019 42 10000 5.14 280 12:55 09.05.2022
2262 Clear 11 1028 42 10000 6.69 280 11:52 09.05.2022
2263 Clear 10 1019 43 10000 4.63 280 10:47 09.05.2022
2264 Clear 9 1017 45 10000 4.12 280 10:20 09.05.2022
2265 Clear 6 1020 57 10000 4.12 270 07:56 09.05.2022
2266 Clear 2 1026 70 10000 3.6 280 04:52 09.05.2022
2267 Clear 4 1025 63 10000 4.63 290 00:30 09.05.2022
2268 Clear 3 1016 64 10000 3.6 280 23:28 08.05.2022
2269 Clear 4 1015 62 10000 3.6 280 22:29 08.05.2022
2270 Clouds 7 1024 59 10000 2.57 330 20:54 08.05.2022
2271 Clouds 8 1024 54 10000 5.66 350 20:22 08.05.2022
2272 Clouds 8 1024 50 10000 5.66 310 19:32 08.05.2022
2273 Clouds 9 1023 49 10000 6.69 310 18:35 08.05.2022
2274 Clouds 9 1014 48 10000 7.2 300 17:36 08.05.2022
2275 Rain 9 1014 50 10000 9.77 310 15:46 08.05.2022
2276 Rain 8 1012 49 10000 7.72 270 15:21 08.05.2022
2277 Clear 10 1020 40 10000 8.23 290 12:46 08.05.2022
2278 Clouds 8 1010 49 10000 8.75 290 10:56 08.05.2022
2279 Clouds 8 1007 53 10000 7.72 280 10:22 08.05.2022
2280 Clouds 7 1007 58 10000 7.2 290 09:51 08.05.2022
2281 Clear 5 1006 70 10000 5.14 300 07:43 08.05.2022
2282 Clear 2 1006 86 10000 4.63 290 05:22 08.05.2022
2283 Clear 3 1005 84 10000 4.12 290 03:20 08.05.2022
2284 Clear 4 1005 88 10000 3.6 280 00:42 08.05.2022
2285 Clear 4 1004 89 10000 4.12 270 23:55 07.05.2022
2286 Clear 4 1004 91 10000 3.6 260 22:59 07.05.2022
2287 Clear 4 1004 90 10000 2.57 260 22:35 07.05.2022
2288 Clouds 6 1014 89 10000 4.12 290 21:55 07.05.2022
2289 Clouds 6 1013 91 10000 3.6 300 21:20 07.05.2022
2290 Clouds 6 1003 91 10000 6.69 320 19:59 07.05.2022
2291 Rain 7 1002 93 10000 7.2 320 18:41 07.05.2022
2292 Rain 10 1010 94 10000 6.17 200 16:19 07.05.2022
2293 Rain 10 1010 88 10000 6.17 200 14:46 07.05.2022
2294 Clouds 11 1012 74 10000 7.72 200 11:19 07.05.2022
2295 Clear 11 1010 74 10000 6.69 180 09:39 07.05.2022
2296 Clear 9 1012 79 10000 5.66 180 08:28 07.05.2022
2297 Clouds 8 1004 84 10000 4.63 180 06:44 07.05.2022
2298 Clear 7 1004 87 10000 4.63 180 05:41 07.05.2022
2299 Clear 6 1004 86 10000 3.6 190 03:54 07.05.2022
2300 Clouds 7 1014 83 10000 3.6 210 23:39 06.05.2022
2301 Clouds 8 1015 81 10000 4.63 200 22:33 06.05.2022
2302 Clouds 8 1015 83 10000 3.6 220 21:47 06.05.2022
2303 Clouds 9 1002 77 10000 5.66 210 20:37 06.05.2022
2304 Clouds 14 1016 63 10000 5.66 220 19:42 06.05.2022
2305 Clouds 15 1016 56 10000 7.2 210 19:19 06.05.2022
2306 Clouds 15 1017 50 10000 5.66 230 18:24 06.05.2022
2307 Clear 16 1016 49 10000 6.17 220 16:57 06.05.2022
2308 Clouds 16 1016 49 10000 6.17 230 15:47 06.05.2022
2309 Clouds 16 1017 50 10000 5.66 250 14:54 06.05.2022
2310 Clouds 16 1017 54 10000 6.17 250 13:31 06.05.2022
2311 Clouds 16 1017 56 10000 7.72 210 12:41 06.05.2022
2312 Clouds 14 1006 57 10000 5.14 160 11:49 06.05.2022
2313 Clouds 13 1006 60 10000 3.09 180 10:34 06.05.2022
2314 Clear 13 1006 61 10000 3.6 180 09:46 06.05.2022
2315 Clear 10 1004 67 10000 3.09 180 08:43 06.05.2022
2316 Clear 7 1008 78 10000 3.09 190 06:50 06.05.2022
2317 Clear 6 1008 80 10000 3.09 190 05:48 06.05.2022
2318 Rain 5 1008 76 10000 3.09 200 02:51 06.05.2022
2319 Clear 6 1005 68 10000 3.6 190 01:31 06.05.2022
2320 Clear 6 1006 69 10000 2.24 143 22:32 05.05.2022
2321 Clouds 7 1003 71 10000 0.45 166 21:22 05.05.2022
2322 Clear 8 1006 61 10000 4.12 210 20:26 05.05.2022
2323 Clear 12 1017 40 10000 6.17 210 18:35 05.05.2022
2324 Clear 12 1017 40 10000 6.17 230 16:35 05.05.2022
2325 Clouds 12 1017 45 10000 4.63 200 14:51 05.05.2022
2326 Rain 9 1009 54 10000 6.69 220 13:24 05.05.2022
2327 Rain 10 1017 48 10000 6.69 220 12:49 05.05.2022
2328 Clouds 9 1009 50 10000 7.72 210 10:48 05.05.2022
2329 Clouds 8 1009 54 10000 5.14 190 09:40 05.05.2022
2330 Rain 7 1018 61 10000 6.17 200 07:35 05.05.2022
2331 Clear 5 1018 74 10000 3.6 170 05:19 05.05.2022
2332 Clear 5 1018 74 10000 3.6 170 05:19 05.05.2022
2333 Clear 4 1018 58 10000 2.68 256 01:56 05.05.2022
2334 Clear 4 1018 60 10000 2.24 258 01:29 05.05.2022
2335 Clear 4 1017 55 10000 3.6 250 23:52 04.05.2022
2336 Clear 4 1017 54 10000 2.57 250 22:42 04.05.2022
2337 Clear 4 1018 44 10000 4.63 250 21:50 04.05.2022
2338 Clear 5 1016 42 10000 4.63 250 21:29 04.05.2022
2339 Clear 8 1017 41 10000 3.6 260 20:25 04.05.2022
2340 Clear 6 996 42 10000 5.14 260 19:53 04.05.2022
2341 Clear 8 1017 41 10000 3.6 260 19:18 04.05.2022
2342 Clear 9 1017 39 10000 2.68 216 18:22 04.05.2022
2343 Clear 9 1017 37 10000 4.63 270 17:42 04.05.2022
2344 Clear 9 1017 33 10000 4.12 330 15:41 04.05.2022
2345 Clear 9 1017 33 10000 4.12 290 15:23 04.05.2022
2346 Clouds 10 1017 34 10000 5.66 270 14:21 04.05.2022
2347 Clear 9 1017 34 10000 4.63 270 13:35 04.05.2022
2348 Clouds 8 1017 37 10000 4.92 267 12:33 04.05.2022
2349 Clouds 7 1017 41 10000 3.6 280 10:41 04.05.2022
2350 Clouds 7 1017 49 10000 3.13 314 09:43 04.05.2022
2351 Clear 5 1005 57 10000 2.68 337 08:47 04.05.2022
2352 Clear 5 1005 57 10000 2.68 337 08:47 04.05.2022
2353 Clear 2 1007 72 10000 3.09 290 06:47 04.05.2022
2354 Clear -1 1004 70 10000 3.09 280 02:59 04.05.2022
2355 Clear 1 1003 64 10000 3.6 280 00:38 04.05.2022
2356 Clear 3 1011 53 10000 3.6 300 22:40 03.05.2022
2357 Clear 4 1011 52 10000 3.6 300 21:46 03.05.2022
2358 Clear 4 1010 51 10000 4.12 310 20:54 03.05.2022
2359 Clouds 5 1009 51 10000 6.17 310 19:59 03.05.2022
2360 Clouds 5 1009 53 10000 5.66 310 18:54 03.05.2022
2361 Clouds 6 1008 54 10000 6.17 300 18:21 03.05.2022
2362 Clouds 6 1007 54 10000 7.2 300 16:44 03.05.2022
2363 Clouds 7 1007 56 10000 7.72 290 15:38 03.05.2022
2364 Clouds 7 1005 48 10000 6.69 290 12:47 03.05.2022
2365 Clouds 7 1005 47 10000 7.2 300 12:27 03.05.2022
2366 Clouds 8 1004 46 10000 7.72 290 10:57 03.05.2022
2367 Clouds 7 1003 50 10000 8.75 290 09:35 03.05.2022
2368 Clouds 4 985 66 10000 6.69 290 07:33 03.05.2022
2369 Clear 4 989 67 10000 5.66 280 06:45 03.05.2022
2370 Clear 5 1001 69 10000 3.09 280 01:47 03.05.2022
2371 Clear 7 1000 79 10000 3.6 250 22:39 02.05.2022
2372 Clear 7 1001 78 10000 3.6 240 21:54 02.05.2022
2373 Clear 7 1001 74 10000 4.63 240 20:51 02.05.2022
2374 Clouds 8 990 69 10000 7.2 210 18:46 02.05.2022
2375 Clouds 9 990 66 10000 7.72 210 18:25 02.05.2022
2376 Clouds 9 991 61 10000 8.75 220 17:37 02.05.2022
2377 Clear 10 992 56 10000 11.32 220 16:23 02.05.2022
2378 Clear 11 989 49 10000 14.4 220 15:31 02.05.2022
2379 Clear 11 995 47 10000 11.32 210 13:52 02.05.2022
2380 Clear 11 997 51 10000 10.8 210 12:20 02.05.2022
2381 Clear 10 998 62 10000 7.2 220 10:51 02.05.2022
2382 Clear 9 1010 63 10000 5.14 220 09:29 02.05.2022
2383 Clear 6 1012 71 10000 5.14 210 07:52 02.05.2022
2384 Clear 2 1005 76 10000 1.54 220 04:36 02.05.2022
2385 Clear 2 1007 71 10000 3.09 270 00:25 02.05.2022
2386 Clear 3 1004 72 10000 3.09 270 23:52 01.05.2022
2387 Clear 4 1007 64 10000 3.09 270 22:39 01.05.2022
2388 Clear 6 1016 52 10000 2.57 290 21:26 01.05.2022
2389 Clear 8 1016 46 10000 5.14 290 20:19 01.05.2022
2390 Clear 10 1015 48 10000 5.14 270 18:59 01.05.2022
2391 Clear 10 1015 49 10000 5.14 270 18:39 01.05.2022
2392 Clouds 10 1016 54 10000 4.12 270 17:38 01.05.2022
2393 Clouds 10 1016 59 10000 4.12 200 16:23 01.05.2022
2394 Clouds 10 1016 62 10000 4.12 190 15:36 01.05.2022
2395 Clouds 9 1007 61 10000 6.17 220 13:52 01.05.2022
2396 Clouds 10 1018 53 10000 5.14 210 11:28 01.05.2022
2397 Clouds 9 1019 65 10000 5.14 220 09:32 01.05.2022
2398 Clouds 7 1019 71 10000 3.6 200 08:42 01.05.2022
2399 Rain 3 1019 91 10000 2.06 230 03:44 01.05.2022
2400 Clear 3 1018 85 10000 3.09 230 00:29 01.05.2022
2401 Clouds 6 1019 66 10000 3.09 230 21:51 30.04.2022
2402 Clouds 6 1019 63 10000 3.09 230 21:18 30.04.2022
2403 Clouds 7 1020 62 10000 5.66 240 19:45 30.04.2022
2404 Clouds 8 1020 57 10000 5.66 250 18:28 30.04.2022
2405 Clouds 7 1009 59 10000 6.17 240 16:50 30.04.2022
2406 Clouds 8 1009 57 10000 7.2 220 15:48 30.04.2022
2407 Clouds 8 1009 58 10000 6.69 220 14:53 30.04.2022
2408 Clouds 8 1009 51 10000 7.2 220 13:20 30.04.2022
2409 Clear 8 1010 47 10000 6.17 250 11:34 30.04.2022
2410 Clear 7 1011 47 10000 5.14 240 10:49 30.04.2022
2411 Clear 5 1007 47 10000 5.66 230 09:48 30.04.2022
2412 Clear 1 1015 67 10000 2.06 260 06:48 30.04.2022
2413 Clear -1 1024 70 10000 3.09 290 02:55 30.04.2022
2414 Clear 0 1012 69 10000 2.57 310 23:53 29.04.2022
2415 Clear 2 1022 58 10000 2.57 320 22:34 29.04.2022
2416 Clear 1 1001 60 10000 2.06 330 21:53 29.04.2022
2417 Clear 3 1011 52 10000 2.57 330 20:49 29.04.2022
2418 Clear 6 1022 42 10000 4.63 310 19:47 29.04.2022
2419 Clouds 7 1022 40 10000 6.69 300 18:36 29.04.2022
2420 Rain 7 1022 45 10000 4.12 310 17:25 29.04.2022
2421 Clouds 6 1022 47 10000 6.17 270 15:50 29.04.2022
2422 Clouds 6 1014 54 10000 6.69 310 14:23 29.04.2022
2423 Clouds 6 1014 49 10000 4.92 284 13:22 29.04.2022
2424 Clouds 5 1012 46 10000 5.66 270 11:50 29.04.2022
2425 Clouds 3 1011 60 10000 3.6 320 08:53 29.04.2022
2426 Clouds 1 1011 77 10000 4.12 310 07:28 29.04.2022
2427 Clouds 1 1011 77 10000 4.12 310 07:28 29.04.2022
2428 Clouds 1 1013 80 10000 4.12 310 06:45 29.04.2022
2429 Clouds -1 1012 90 10000 4.12 310 04:53 29.04.2022
2430 Clouds 2 1019 85 10000 5.66 320 00:46 29.04.2022
2431 Clouds 2 1019 87 10000 5.66 300 23:34 28.04.2022
2432 Clouds 3 1018 89 10000 3.6 290 22:44 28.04.2022
2433 Clouds 2 1010 88 10000 2.06 270 21:47 28.04.2022
2434 Clouds 2 1007 88 10000 2.57 260 21:21 28.04.2022
2435 Clouds 3 1009 82 10000 2.57 250 20:35 28.04.2022
2436 Rain 3 1010 79 10000 4.47 293 19:45 28.04.2022
2437 Rain 3 1010 79 10000 3.09 280 19:45 28.04.2022
2438 Clouds 4 1010 76 10000 5.66 220 19:22 28.04.2022
2439 Clouds 5 1008 77 10000 7.2 220 18:36 28.04.2022
2440 Rain 5 1008 76 10000 7.72 220 17:24 28.04.2022
2441 Rain 5 1009 71 10000 8.23 220 16:40 28.04.2022
2442 Snow 4 1008 77 10000 5.66 230 16:18 28.04.2022
2443 Snow 5 1009 71 10000 6.69 220 15:28 28.04.2022
2444 Clouds 5 1008 55 10000 8.23 180 14:19 28.04.2022
2445 Clouds 6 1008 44 10000 6.17 190 12:44 28.04.2022
2446 Clear 6 1011 42 10000 5.66 180 11:58 28.04.2022
2447 Clear 5 1011 41 10000 3.13 184 10:46 28.04.2022
2448 Clear 4 1011 41 10000 2.68 214 09:56 28.04.2022
2449 Clear 3 1012 47 10000 2.06 270 08:31 28.04.2022
2450 Clear 1 1012 61 10000 3.09 290 07:19 28.04.2022
2451 Clear -2 1014 70 10000 3.09 300 05:56 28.04.2022
2452 Clear -2 1023 69 10000 3.09 300 05:38 28.04.2022
2453 Clear -2 1022 68 10000 3.6 300 04:39 28.04.2022
2454 Clear 0 1022 55 10000 4.12 290 00:30 28.04.2022
2455 Clear 2 1021 54 10000 3.09 280 22:39 27.04.2022
2456 Clear 3 1021 48 10000 3.09 270 21:54 27.04.2022
2457 Clear 4 1022 52 10000 1.79 263 21:18 27.04.2022
2458 Clear 4 1022 52 10000 3.09 270 20:37 27.04.2022
2459 Clear 5 1021 51 10000 3.13 203 19:37 27.04.2022
2460 Clouds 5 1022 48 10000 3.6 260 19:18 27.04.2022
2461 Clouds 6 1021 41 10000 2.68 211 18:22 27.04.2022
2462 Clouds 6 1022 41 10000 4.12 320 16:58 27.04.2022
2463 Clouds 6 1022 34 10000 3.6 260 14:33 27.04.2022
2464 Clouds 5 1022 33 10000 4.02 322 12:23 27.04.2022
2465 Clear 4 1014 35 10000 4.63 280 11:20 27.04.2022
2466 Clear 4 1021 35 10000 3.6 10 09:20 27.04.2022
2467 Clear 1 1010 56 10000 3.09 340 07:18 27.04.2022
2468 Clear -1 1010 62 10000 3.09 330 04:30 27.04.2022
2469 Clear 0 1008 58 10000 3.09 340 01:32 27.04.2022
2470 Clear 1 1008 55 10000 3.09 340 00:37 27.04.2022
2471 Clear 2 1007 55 10000 3.13 4 23:25 26.04.2022
2472 Clear 3 1006 54 10000 3.09 350 22:58 26.04.2022
2473 Clear 3 1006 53 10000 3.58 357 22:39 26.04.2022
2474 Clear 5 1014 46 10000 2.68 337 21:26 26.04.2022
2475 Clear 6 1013 42 10000 3.6 350 20:41 26.04.2022
2476 Clear 7 1012 41 10000 4.12 360 19:53 26.04.2022
2477 Clear 7 1012 39 10000 4.63 350 19:32 26.04.2022
2478 Clear 8 1012 38 10000 4.12 340 18:44 26.04.2022
2479 Clear 9 1011 35 10000 6.17 320 17:59 26.04.2022
2480 Clear 9 1011 34 10000 6.17 330 16:48 26.04.2022
2481 Clear 10 1009 38 10000 7.72 310 13:59 26.04.2022
2482 Clear 9 1009 38 10000 8.23 330 13:32 26.04.2022
2483 Clouds 9 1008 47 10000 8.23 340 11:55 26.04.2022
2484 Clouds 8 1007 56 10000 8.23 330 10:37 26.04.2022
2485 Clouds 7 1007 67 10000 6.69 310 09:25 26.04.2022
2486 Clear 5 994 77 10000 4.92 322 07:22 26.04.2022
2487 Clear 3 1004 78 10000 3.6 290 04:23 26.04.2022
2488 Clear 4 1005 71 10000 3.6 290 01:25 26.04.2022
2489 Clear 4 1005 71 10000 3.6 300 00:26 26.04.2022
2490 Clear 4 996 79 10000 1.34 307 22:33 25.04.2022
2491 Clear 4 996 75 10000 2.06 240 21:40 25.04.2022
2492 Clear 6 996 70 10000 1.03 0 20:39 25.04.2022
2493 Clear 8 990 61 10000 4.63 200 18:55 25.04.2022
2494 Clear 10 994 49 10000 5.14 170 17:54 25.04.2022
2495 Clear 11 997 48 10000 3.6 260 16:55 25.04.2022
2496 Clear 12 991 49 10000 3.13 218 15:29 25.04.2022
2497 Clear 12 995 45 10000 4.47 98 14:38 25.04.2022
2498 Clear 12 1006 44 10000 3.09 30 13:32 25.04.2022
2499 Clear 9 998 51 10000 4.02 356 11:38 25.04.2022
2500 Clear 7 998 57 10000 5.14 350 10:23 25.04.2022
2501 Clouds 5 999 67 10000 4.12 350 08:35 25.04.2022
2502 Clouds 3 1008 73 10000 3.09 360 06:39 25.04.2022
2503 Clouds 5 1008 65 10000 4.12 10 03:47 25.04.2022
2504 Clouds 5 1010 66 10000 4.12 20 00:43 25.04.2022
2505 Clear 5 1011 65 10000 4.63 20 23:51 24.04.2022
2506 Clear 6 1011 65 10000 4.47 12 22:41 24.04.2022
2507 Clear 6 1011 67 10000 3.6 20 22:20 24.04.2022
2508 Clear 7 1011 61 10000 4.02 16 21:24 24.04.2022
2509 Clear 8 1011 61 10000 4.63 30 20:48 24.04.2022
2510 Clear 9 1011 59 10000 5.14 30 20:29 24.04.2022
2511 Clear 9 1012 61 10000 5.14 30 19:45 24.04.2022
2512 Clouds 11 1012 53 10000 6.17 40 18:20 24.04.2022
2513 Clouds 11 1011 52 10000 6.69 30 17:27 24.04.2022
2514 Clouds 11 1013 53 10000 6.69 30 16:58 24.04.2022
2515 Clouds 11 1012 52 10000 6.69 40 16:32 24.04.2022
2516 Clouds 11 1012 51 10000 6.69 30 15:54 24.04.2022
2517 Clear 11 1013 52 10000 7.2 20 14:58 24.04.2022
2518 Clear 10 1014 54 10000 6.69 30 13:51 24.04.2022
2519 Clear 10 1014 55 10000 6.69 30 13:24 24.04.2022
2520 Clear 9 1014 55 10000 7.2 20 11:56 24.04.2022
2521 Clear 8 1013 55 10000 7.2 20 11:27 24.04.2022
2522 Clear 6 1008 61 10000 6.69 20 09:55 24.04.2022
2523 Clear 5 1015 61 10000 7.2 30 08:51 24.04.2022
2524 Clear 2 1016 71 10000 6.17 30 06:18 24.04.2022
2525 Clear 3 1016 67 10000 5.36 11 03:37 24.04.2022
2526 Clear 4 1017 63 10000 5.14 40 01:18 24.04.2022
2527 Clear 4 1017 65 10000 5.14 30 23:55 23.04.2022
2528 Clear 5 1017 63 10000 4.92 23 23:25 23.04.2022
2529 Clear 5 1010 61 10000 4.63 30 22:42 23.04.2022
2530 Clear 6 1017 56 10000 4.63 30 21:49 23.04.2022
2531 Clear 6 1017 55 10000 4.63 30 21:30 23.04.2022
2532 Clear 8 1017 49 10000 6.17 40 20:27 23.04.2022
2533 Clear 9 1016 48 10000 6.69 50 19:21 23.04.2022
2534 Clear 7 1004 50 10000 6.69 50 18:55 23.04.2022
2535 Clear 9 1017 46 10000 7.2 40 18:32 23.04.2022
2536 Clouds 8 1004 56 10000 7.72 30 17:47 23.04.2022
2537 Clouds 11 1017 44 10000 6.17 30 16:46 23.04.2022
2538 Clouds 9 998 55 10000 7.2 30 15:54 23.04.2022
2539 Clouds 10 1017 58 10000 6.71 44 13:33 23.04.2022
2540 Clouds 10 1017 63 10000 8.49 62 11:57 23.04.2022
2541 Clouds 8 999 67 10000 4.63 40 10:37 23.04.2022
2542 Clouds 7 1009 70 10000 4.63 40 08:27 23.04.2022
2543 Clear 4 1015 72 10000 3.09 20 04:18 23.04.2022
2544 Clear 5 1016 70 10000 2.68 336 03:32 23.04.2022
2545 Clouds 6 1006 68 10000 1.79 314 23:38 22.04.2022
2546 Clouds 6 1006 69 10000 2.24 322 23:20 22.04.2022
2547 Clear 7 1009 65 10000 1.03 0 21:58 22.04.2022
2548 Clear 7 1007 64 10000 1.03 0 21:39 22.04.2022
2549 Clear 8 1002 60 10000 2.06 220 20:34 22.04.2022
2550 Clear 10 1005 51 10000 2.06 190 19:27 22.04.2022
2551 Clear 10 999 55 10000 2.06 170 18:57 22.04.2022
2552 Clear 12 1010 47 10000 3.09 160 18:26 22.04.2022
2553 Clear 13 1018 44 10000 3.09 200 16:57 22.04.2022
2554 Clear 14 1019 42 10000 2.57 0 15:59 22.04.2022
2555 Clear 13 1011 46 10000 2.57 210 15:24 22.04.2022
2556 Clear 14 1019 45 10000 2.24 203 14:38 22.04.2022
2557 Clear 14 1020 44 10000 1.79 160 13:41 22.04.2022
2558 Clear 14 1021 47 10000 2.24 217 12:47 22.04.2022
2559 Clear 13 1021 40 10000 3.09 30 11:23 22.04.2022
2560 Clear 13 1021 42 10000 3.09 30 10:56 22.04.2022
2561 Clear 12 1021 41 10000 4.12 30 10:34 22.04.2022
2562 Clear 12 1022 46 10000 4.63 50 09:57 22.04.2022
2563 Clear 10 1010 49 10000 3.13 12 09:21 22.04.2022
2564 Clear 9 1011 54 10000 3.09 50 08:42 22.04.2022
2565 Clear 4 1020 71 10000 1.54 40 06:38 22.04.2022
2566 Clear 4 1021 71 10000 2.57 40 00:56 22.04.2022
2567 Clear 4 1019 75 10000 2.06 30 23:33 21.04.2022
2568 Clear 5 1023 77 10000 2.06 50 22:43 21.04.2022
2569 Clear 8 1021 60 10000 3.6 110 21:36 21.04.2022
2570 Clear 4 999 73 10000 4.12 50 20:30 21.04.2022
2571 Clear 9 1002 56 10000 5.14 30 18:49 21.04.2022
2572 Clear 11 1021 55 10000 5.14 30 18:26 21.04.2022
2573 Clear 11 1003 47 10000 5.66 40 17:19 21.04.2022
2574 Clear 14 1022 44 10000 5.66 60 15:25 21.04.2022
2575 Clear 13 1023 44 10000 5.66 60 14:52 21.04.2022
2576 Clear 13 1023 43 10000 6.26 87 14:18 21.04.2022
2577 Clear 13 1023 41 10000 6.69 40 13:21 21.04.2022
2578 Clear 13 1025 47 10000 6.17 70 12:22 21.04.2022
2579 Clear 7 1006 69 10000 4.63 50 09:33 21.04.2022
2580 Clear 6 1006 70 10000 4.63 60 08:38 21.04.2022
2581 Clear 4 1015 75 10000 4.12 50 06:36 21.04.2022
2582 Clear 6 1023 70 10000 4.12 40 03:41 21.04.2022
2583 Clear 6 1024 71 10000 3.09 40 03:20 21.04.2022
2584 Clear 7 1024 68 10000 3.6 40 02:44 21.04.2022
2585 Clear 7 1025 71 10000 3.6 50 00:34 21.04.2022
2586 Clear 5 1025 79 10000 2.57 20 23:25 20.04.2022
2587 Clear 8 1024 69 10000 2.57 20 22:59 20.04.2022
2588 Clear 9 1024 65 10000 2.57 20 22:59 20.04.2022
2589 Clear 7 1024 71 10000 2.57 40 22:33 20.04.2022
2590 Clear 5 1001 77 10000 2.57 70 21:36 20.04.2022
2591 Clear 5 1001 74 10000 2.57 40 20:44 20.04.2022
2592 Clear 6 1001 72 10000 3.6 30 20:21 20.04.2022
2593 Clear 8 993 71 10000 5.66 40 19:39 20.04.2022
2594 Clear 10 993 62 10000 6.17 40 18:45 20.04.2022
2595 Clear 13 1005 50 10000 6.69 60 17:18 20.04.2022
2596 Clear 16 1024 39 10000 7.72 80 16:39 20.04.2022
2597 Clear 13 1023 50 10000 7.2 50 14:58 20.04.2022
2598 Clouds 13 1025 47 10000 8.75 70 12:22 20.04.2022
2599 Clouds 12 1026 58 10000 6.69 70 11:40 20.04.2022
2600 Clear 10 1026 67 10000 5.14 60 10:39 20.04.2022
2601 Clear 10 1026 53 10000 5.14 50 09:28 20.04.2022
2602 Clear 8 1005 68 10000 4.12 50 08:27 20.04.2022
2603 Clear 8 1024 66 10000 4.63 50 07:44 20.04.2022
2604 Clear 3 1024 82 10000 3.09 30 05:29 20.04.2022
2605 Clear 5 1023 72 10000 2.57 40 01:35 20.04.2022
2606 Clear 5 1023 69 10000 2.57 40 00:21 20.04.2022
2607 Clear 5 1023 71 10000 1.54 40 22:44 19.04.2022
2608 Clear 6 1022 71 10000 2.24 78 22:23 19.04.2022
2609 Clear 5 1022 68 10000 1.54 130 21:46 19.04.2022
2610 Clear 5 1011 72 10000 2.06 210 20:57 19.04.2022
2611 Clear 7 1022 66 10000 2.24 139 20:37 19.04.2022
2612 Clear 7 1006 68 10000 2.06 170 19:32 19.04.2022
2613 Clear 11 1023 49 10000 2.06 150 18:27 19.04.2022
2614 Clear 12 1023 53 10000 3.13 113 16:50 19.04.2022
2615 Clear 12 1023 52 10000 2.57 160 16:25 19.04.2022
2616 Clear 12 1023 52 10000 3.58 127 15:57 19.04.2022
2617 Clouds 12 1024 50 10000 4.02 125 14:40 19.04.2022
2618 Clouds 12 1024 51 10000 3.6 130 12:52 19.04.2022
2619 Clear 12 1024 53 10000 2.57 70 12:31 19.04.2022
2620 Clear 10 1024 58 10000 3.09 90 11:27 19.04.2022
2621 Clear 11 1024 50 10000 4.12 120 09:31 19.04.2022
2622 Clear 7 1022 70 10000 1.54 80 07:43 19.04.2022
2623 Clear 2 1021 88 10000 2.06 40 04:24 19.04.2022
2624 Clear 4 1021 84 10000 1.34 12 01:24 19.04.2022
2625 Clouds 5 1020 79 10000 2.68 329 23:49 18.04.2022
2626 Clear 5 1020 82 10000 2.24 325 22:46 18.04.2022
2627 Clear 6 1020 82 10000 1.54 0 21:25 18.04.2022
2628 Clear 8 1020 70 10000 1.03 0 20:39 18.04.2022
2629 Clear 8 1021 67 10000 0 0 19:59 18.04.2022
2630 Clear 8 1018 70 10000 1.54 100 19:32 18.04.2022
2631 Clear 5 987 80 10000 1.54 350 18:43 18.04.2022
2632 Clear 10 1009 61 10000 2.06 350 17:40 18.04.2022
2633 Clouds 11 1012 59 10000 3.09 350 17:19 18.04.2022
2634 Clouds 11 1009 59 10000 2.06 330 16:38 18.04.2022
2635 Clouds 13 1021 55 10000 2.06 360 15:32 18.04.2022
2636 Clouds 12 1020 55 10000 3.09 350 14:27 18.04.2022
2637 Clouds 11 1013 59 10000 3.09 350 12:56 18.04.2022
2638 Clouds 11 1013 60 10000 3.6 350 12:24 18.04.2022
2639 Clear 10 1012 65 10000 4.12 320 10:46 18.04.2022
2640 Clear 8 1008 70 10000 3.6 310 09:32 18.04.2022
2641 Clear 7 1012 70 10000 2.57 320 08:46 18.04.2022
2642 Clear 3 1014 84 10000 1.79 320 06:52 18.04.2022
2643 Clear 3 1023 80 10000 2.24 308 02:45 18.04.2022
2644 Clear 3 1015 77 10000 2.57 270 23:23 17.04.2022
2645 Clear 4 1013 73 10000 2.57 260 22:37 17.04.2022
2646 Clear 5 1016 70 10000 2.68 263 21:34 17.04.2022
2647 Clear 6 1016 67 10000 2.68 260 20:52 17.04.2022
2648 Clear 7 1024 62 10000 2.24 250 20:19 17.04.2022
2649 Clear 8 1013 55 10000 2.57 230 18:58 17.04.2022
2650 Clouds 10 1025 47 10000 3.09 280 17:31 17.04.2022
2651 Clouds 10 1017 46 10000 2.68 191 15:37 17.04.2022
2652 Clouds 10 1012 45 10000 3.6 310 14:46 17.04.2022
2653 Clouds 9 1019 46 10000 3.6 290 13:37 17.04.2022
2654 Clouds 9 1019 47 10000 3.6 300 12:49 17.04.2022
2655 Clear 8 1018 45 10000 3.09 290 10:58 17.04.2022
2656 Clear 8 1018 47 10000 2.06 280 10:29 17.04.2022
2657 Clear 7 1014 44 10000 2.06 280 09:55 17.04.2022
2658 Clear 7 1017 47 10000 2.06 280 09:21 17.04.2022
2659 Clear 6 1020 55 10000 2.06 280 08:41 17.04.2022
2660 Clear -1 1018 78 10000 1.03 270 06:29 17.04.2022
2661 Clear 1 1028 78 10000 1.54 230 02:26 17.04.2022
2662 Clear 1 1029 77 10000 0.51 0 00:41 17.04.2022
2663 Clear 1 1029 74 10000 1.03 250 23:38 16.04.2022
2664 Clear 2 1029 66 10000 3.09 210 21:49 16.04.2022
2665 Clear 4 1029 59 10000 2.06 180 20:54 16.04.2022
2666 Clear 5 1028 52 10000 1.54 0 19:28 16.04.2022
2667 Clear 6 1018 49 10000 1.34 261 18:43 16.04.2022
2668 Clear 7 1019 43 10000 3.6 320 17:20 16.04.2022
2669 Clear 7 1021 43 10000 2.06 0 16:19 16.04.2022
2670 Clear 8 1030 40 10000 3.09 340 14:58 16.04.2022
2671 Clear 7 1030 40 10000 3.58 14 14:40 16.04.2022
2672 Clear 7 1030 40 10000 3.6 340 13:50 16.04.2022
2673 Clear 7 1021 42 10000 4.63 360 13:18 16.04.2022
2674 Clear 6 1022 43 10000 5.14 50 11:43 16.04.2022
2675 Clear 6 1022 49 10000 4.92 7 10:33 16.04.2022
2676 Clear 5 1022 53 10000 4.63 20 09:37 16.04.2022
2677 Clear 4 1021 60 10000 3.6 360 08:52 16.04.2022
2678 Clear 1 1021 74 10000 4.12 350 07:22 16.04.2022
2679 Clear -1 1029 77 10000 3.6 340 05:38 16.04.2022
2680 Clear 1 1027 68 10000 3.6 340 01:47 16.04.2022
2681 Clear 1 1019 75 10000 3.09 330 23:52 15.04.2022
2682 Clear 2 1027 70 10000 3.09 320 22:48 15.04.2022
2683 Clear 2 1026 69 10000 3.09 330 22:28 15.04.2022
2684 Clear 4 1026 61 10000 2.57 340 21:25 15.04.2022
2685 Clear 4 1026 59 10000 2.57 350 20:38 15.04.2022
2686 Clouds 5 1025 57 10000 5.14 350 19:45 15.04.2022
2687 Clouds 6 1025 56 10000 4.02 16 18:59 15.04.2022
2688 Clouds 6 1025 54 10000 6.69 10 18:41 15.04.2022
2689 Clouds 6 1024 53 10000 7.72 360 18:21 15.04.2022
2690 Clouds 7 1023 52 10000 7.2 20 17:26 15.04.2022
2691 Clouds 7 1023 50 10000 7.72 350 16:25 15.04.2022
2692 Clouds 7 1023 53 10000 8.23 10 15:46 15.04.2022
2693 Clouds 6 1023 57 10000 7.2 360 14:18 15.04.2022
2694 Clouds 5 1014 65 10000 7.2 360 12:52 15.04.2022
2695 Clouds 5 1022 65 10000 7.2 360 12:26 15.04.2022
2696 Clouds 5 1022 64 10000 7.2 10 11:51 15.04.2022
2697 Clouds 4 1013 73 10000 6.17 360 10:46 15.04.2022
2698 Clouds 4 1013 74 10000 6.26 351 10:20 15.04.2022
2699 Clouds 3 1013 79 10000 6.17 360 09:22 15.04.2022
2700 Clouds 2 1010 82 10000 5.66 350 08:40 15.04.2022
2701 Clouds 1 1011 91 10000 4.63 350 06:50 15.04.2022
2702 Clouds 2 1011 92 10000 3.13 333 04:49 15.04.2022
2703 Clouds 2 1010 95 10000 2.57 340 00:47 15.04.2022
2704 Clouds 1 1010 93 10000 1.79 343 23:26 14.04.2022
2705 Clouds 2 1010 94 10000 2.06 350 22:46 14.04.2022
2706 Clouds 2 1010 94 10000 2.24 9 22:27 14.04.2022
2707 Rain 2 1018 91 10000 1.79 15 21:50 14.04.2022
2708 Clouds 3 1010 91 10000 1.03 0 19:51 14.04.2022
2709 Clouds 3 1010 90 10000 1.79 131 19:22 14.04.2022
2710 Clouds 2 1018 95 10000 2.06 110 17:46 14.04.2022
2711 Clouds 2 1018 93 10000 2.68 110 17:18 14.04.2022
2712 Rain 2 1018 93 10000 2.24 134 16:21 14.04.2022
2713 Rain 3 1018 91 10000 2.68 144 13:54 14.04.2022
2714 Rain 3 1018 93 10000 2.24 143 13:25 14.04.2022
2715 Rain 3 1019 91 10000 2.06 150 12:33 14.04.2022
2716 Rain 4 1019 85 10000 3.6 200 11:47 14.04.2022
2717 Rain 4 1019 84 10000 4.63 200 11:18 14.04.2022
2718 Rain 4 1019 80 10000 3.6 200 10:31 14.04.2022
2719 Rain 4 1011 74 10000 2.24 209 09:30 14.04.2022
2720 Rain 3 1011 74 10000 0.51 0 08:35 14.04.2022
2721 Clouds 3 1020 75 10000 2.06 240 05:58 14.04.2022
2722 Clear 2 1021 72 10000 1.03 0 01:23 14.04.2022
2723 Clear 4 1022 67 10000 1.03 0 22:38 13.04.2022
2724 Clear 4 1022 68 10000 2.06 250 22:38 13.04.2022
2725 Clear 4 1022 67 10000 1.54 240 21:43 13.04.2022
2726 Clear 4 1014 66 10000 2.06 230 20:45 13.04.2022
2727 Clear 5 1022 61 10000 3.09 220 19:54 13.04.2022
2728 Clear 7 1023 53 10000 4.12 200 18:39 13.04.2022
2729 Clear 8 1023 53 10000 4.63 190 17:41 13.04.2022
2730 Clear 8 1014 50 10000 4.12 210 17:23 13.04.2022
2731 Clear 9 1015 45 10000 3.13 230 16:18 13.04.2022
2732 Clear 9 1015 44 10000 3.13 189 15:31 13.04.2022
2733 Clear 9 1015 44 10000 3.13 189 14:43 13.04.2022
2734 Clear 9 1013 43 10000 3.13 197 13:55 13.04.2022
2735 Clear 9 1013 44 10000 2.57 350 12:57 13.04.2022
2736 Clear 8 1013 46 10000 3.6 310 12:19 13.04.2022
2737 Clear 7 1023 51 10000 3.6 330 10:41 13.04.2022
2738 Clear 5 1015 64 10000 3.6 330 08:49 13.04.2022
2739 Clear 4 1014 69 10000 3.13 324 08:24 13.04.2022
2740 Clear 0 1022 82 10000 3.09 310 06:50 13.04.2022
2741 Clear -1 1022 85 10000 2.57 300 06:24 13.04.2022
2742 Clear 1 1021 81 10000 2.57 300 02:27 13.04.2022
2743 Clear 2 1020 79 10000 3.09 290 00:20 13.04.2022
2744 Clear 1 1009 82 10000 2.06 270 22:36 12.04.2022
2745 Clear 2 1006 79 10000 2.57 250 21:56 12.04.2022
2746 Clear 3 1007 80 10000 2.57 240 20:49 12.04.2022
2747 Clear 3 1007 80 10000 2.57 240 20:49 12.04.2022
2748 Clear 4 1009 76 10000 3.09 240 20:22 12.04.2022
2749 Clear 3 993 77 10000 3.09 230 19:40 12.04.2022
2750 Clear 7 1018 67 10000 3.09 250 19:18 12.04.2022
2751 Clear 7 1010 66 10000 3.6 230 17:49 12.04.2022
2752 Clear 8 1007 59 10000 2.57 240 16:48 12.04.2022
2753 Clear 8 1006 57 10000 3.09 280 15:39 12.04.2022
2754 Clouds 8 1009 61 10000 3.6 260 15:20 12.04.2022
2755 Clear 8 1007 60 10000 2.68 136 13:53 12.04.2022
2756 Clear 8 1009 62 10000 3.6 290 13:27 12.04.2022
2757 Clear 8 1009 62 10000 3.6 290 13:27 12.04.2022
2758 Clear 8 1009 61 10000 3.6 210 12:26 12.04.2022
2759 Clear 7 1008 63 10000 3.6 220 11:39 12.04.2022
2760 Clear 6 1008 65 10000 2.06 210 09:59 12.04.2022
2761 Clear 5 1008 72 10000 1.54 230 08:53 12.04.2022
2762 Snow 1 1004 78 10000 1.54 210 07:21 12.04.2022
2763 Snow -1 1006 87 10000 1.03 0 05:42 12.04.2022
2764 Clear -1 1005 84 10000 1.54 230 02:53 12.04.2022
2765 Clear 1 1001 72 10000 2.57 250 23:25 11.04.2022
2766 Clear 3 999 69 10000 2.06 240 22:43 11.04.2022
2767 Clear 3 985 73 10000 2.57 270 21:35 11.04.2022
2768 Clear 4 984 71 10000 3.09 260 20:37 11.04.2022
2769 Clear 4 984 72 10000 3.09 260 20:19 11.04.2022
2770 Clear 5 996 61 10000 4.12 270 19:27 11.04.2022
2771 Clear 5 974 68 10000 4.12 270 18:56 11.04.2022
2772 Clear 6 995 55 10000 6.69 260 17:58 11.04.2022
2773 Clear 7 1010 51 10000 6.69 260 17:39 11.04.2022
2774 Clear 8 1009 51 10000 6.17 280 16:36 11.04.2022
2775 Clear 9 1008 49 10000 6.17 240 15:21 11.04.2022
2776 Clouds 8 996 56 10000 6.69 230 13:37 11.04.2022
2777 Clouds 8 1006 56 10000 6.69 220 12:40 11.04.2022
2778 Clouds 8 1007 56 10000 6.69 230 12:21 11.04.2022
2779 Clouds 6 990 67 10000 5.66 220 10:41 11.04.2022
2780 Clear 6 989 69 10000 4.63 220 09:57 11.04.2022
2781 Clear 4 992 79 10000 4.12 230 07:59 11.04.2022
2782 Clear 2 993 88 10000 5.66 200 04:56 11.04.2022
2783 Clear 2 1000 88 10000 7.72 200 23:55 10.04.2022
2784 Clouds 2 989 87 10000 6.17 200 22:27 10.04.2022
2785 Clouds 2 1000 87 10000 6.17 200 21:52 10.04.2022
2786 Clouds 2 999 87 10000 6.17 190 20:52 10.04.2022
2787 Clouds 2 999 86 10000 6.17 190 19:57 10.04.2022
2788 Clouds 3 998 83 10000 5.66 200 19:34 10.04.2022
2789 Clouds 3 998 79 10000 6.17 200 18:48 10.04.2022
2790 Clouds 3 997 78 10000 6.17 200 18:25 10.04.2022
2791 Clouds 4 996 75 10000 5.14 220 17:43 10.04.2022
2792 Clouds 5 996 72 10000 8.23 220 16:52 10.04.2022
2793 Clouds 5 995 77 10000 5.66 220 15:38 10.04.2022
2794 Clouds 4 986 81 7000 6.69 250 14:41 10.04.2022
2795 Clouds 4 983 81 10000 7.2 220 13:22 10.04.2022
2796 Clouds 3 984 85 10000 6.17 230 12:26 10.04.2022
2797 Clouds 3 984 86 10000 7.2 230 11:36 10.04.2022
2798 Clouds 3 983 86 10000 8.75 230 10:58 10.04.2022
2799 Clouds 2 977 88 10000 8.23 210 10:23 10.04.2022
2800 Clouds 3 983 89 10000 7.2 210 09:41 10.04.2022
2801 Snow 2 982 92 10000 3.6 170 08:26 10.04.2022
2802 Clouds 1 982 92 6000 5.14 180 07:53 10.04.2022
2803 Clouds 1 989 92 10000 5.14 180 06:48 10.04.2022
2804 Clouds 1 989 94 3000 8.05 321 03:36 10.04.2022
2805 Clouds 1 989 94 3000 8.05 321 03:36 10.04.2022
2806 Clouds 1 981 88 10000 8.23 160 01:30 10.04.2022
2807 Clouds 1 982 91 10000 6.17 150 23:53 09.04.2022
2808 Clouds 1 982 92 5000 7.2 180 22:52 09.04.2022
2809 Clouds 2 981 82 10000 7.2 180 21:51 09.04.2022
2810 Clouds 2 981 82 10000 5.66 160 20:58 09.04.2022
2811 Clouds 1 989 85 10000 4.12 150 20:26 09.04.2022
2812 Clouds 1 982 81 10000 4.12 150 19:43 09.04.2022
2813 Clouds 1 989 83 10000 6.17 160 19:21 09.04.2022
2814 Clouds 2 989 78 10000 5.66 180 18:22 09.04.2022
2815 Clouds 3 988 78 10000 5.66 190 17:42 09.04.2022
2816 Clouds 2 988 86 10000 5.66 200 16:55 09.04.2022
2817 Clouds 2 988 90 800 10.29 210 16:24 09.04.2022
2818 Clouds 3 980 78 10000 6.69 160 15:43 09.04.2022
2819 Clouds 4 979 74 10000 7.2 160 14:45 09.04.2022
2820 Clouds 4 979 75 10000 7.72 160 14:24 09.04.2022
2821 Clouds 4 979 72 10000 8.75 160 13:21 09.04.2022
2822 Clouds 4 977 70 10000 9.77 170 12:52 09.04.2022
2823 Clouds 4 985 77 10000 9.77 180 11:41 09.04.2022
2824 Clouds 2 977 87 10000 8.75 180 10:21 09.04.2022
2825 Clouds 2 977 90 700 8.75 230 09:52 09.04.2022
2826 Clouds 1 976 89 700 6.69 220 08:57 09.04.2022
2827 Clouds 0 975 92 10000 8.75 190 07:32 09.04.2022
2828 Clouds 1 972 92 10000 6.17 170 02:58 09.04.2022
2829 Clouds 1 981 90 10000 6.69 160 00:30 09.04.2022
2830 Clouds 2 973 80 10000 7.72 160 22:58 08.04.2022
2831 Clouds 2 973 85 10000 4.12 180 21:34 08.04.2022
2832 Clouds 2 971 86 10000 7.2 200 20:41 08.04.2022
2833 Clouds 2 972 86 10000 7.72 200 19:39 08.04.2022
2834 Clouds 2 978 87 10000 7.2 220 18:31 08.04.2022
2835 Clouds 3 978 90 10000 6.69 180 17:53 08.04.2022
2836 Clouds 4 970 91 8000 6.69 140 17:26 08.04.2022
2837 Clouds 4 969 92 10000 4.47 196 16:51 08.04.2022
2838 Clouds 5 969 91 10000 4.63 130 16:20 08.04.2022
2839 Clouds 5 969 92 10000 6.17 130 15:27 08.04.2022
2840 Clouds 6 976 88 10000 7.72 130 14:40 08.04.2022
2841 Clouds 6 976 86 10000 7.2 140 13:55 08.04.2022
2842 Clouds 6 975 89 10000 6.69 160 13:29 08.04.2022
2843 Clouds 5 975 91 10000 6.69 170 12:42 08.04.2022
2844 Clouds 3 968 95 10000 4.63 180 10:55 08.04.2022
2845 Clouds 3 968 95 10000 4.12 170 09:41 08.04.2022
2846 Clouds 3 967 95 10000 4.12 180 08:58 08.04.2022
2847 Rain 3 967 96 7000 8.23 120 07:38 08.04.2022
2848 Rain 4 972 94 7000 8.94 127 06:44 08.04.2022
2849 Rain 4 976 96 10000 7.72 90 02:27 08.04.2022
2850 Fog 3 980 95 700 5.36 105 00:28 08.04.2022
2851 Rain 2 981 94 4000 5.66 80 23:38 07.04.2022
2852 Mist 1 982 96 1500 5.66 80 22:40 07.04.2022
2853 Drizzle 1 982 93 5000 5.14 70 22:22 07.04.2022
2854 Clouds 1 983 92 5000 5.14 70 21:56 07.04.2022
2855 Rain 1 983 92 4000 5.14 70 21:19 07.04.2022
2856 Rain 1 984 92 7000 4.12 70 20:41 07.04.2022
2857 Clouds 2 984 87 10000 4.63 80 18:54 07.04.2022
2858 Clouds 2 985 86 10000 4.12 70 17:27 07.04.2022
2859 Clouds 1 977 86 10000 4.12 70 16:45 07.04.2022
2860 Clouds 2 985 85 10000 4.02 114 16:23 07.04.2022
2861 Clouds 2 985 85 10000 4.12 60 15:37 07.04.2022
2862 Clouds 2 978 83 5000 5.36 103 13:51 07.04.2022
2863 Snow 2 978 82 5000 4.63 70 13:22 07.04.2022
2864 Snow 1 978 81 10000 5.14 80 11:40 07.04.2022
2865 Snow 1 978 81 8000 6.17 70 10:27 07.04.2022
2866 Snow 0 979 84 7000 4.63 110 08:39 07.04.2022
2867 Clouds -1 980 83 10000 2.68 122 06:58 07.04.2022
2868 Clear -1 988 83 10000 3.6 140 03:59 07.04.2022
2869 Clear -1 988 83 10000 3.09 160 02:28 07.04.2022
2870 Clear 0 989 85 10000 3.6 180 00:42 07.04.2022
2871 Clear 0 989 85 10000 4.12 180 22:54 06.04.2022
2872 Clear 0 989 84 10000 5.14 190 22:54 06.04.2022
2873 Clear 0 989 83 10000 5.14 190 22:30 06.04.2022
2874 Clear 0 990 82 10000 6.17 190 21:45 06.04.2022
2875 Clear 0 989 76 10000 5.66 200 20:41 06.04.2022
2876 Clear 0 989 71 10000 6.17 200 19:59 06.04.2022
2877 Clear 1 989 63 10000 5.14 230 18:53 06.04.2022
2878 Clear 1 989 62 10000 5.14 230 18:34 06.04.2022
2879 Clouds 1 981 63 10000 5.14 230 17:35 06.04.2022
2880 Clouds 1 980 65 10000 7.2 230 16:39 06.04.2022
2881 Snow 1 980 64 10000 7.2 230 15:49 06.04.2022
2882 Clouds 1 978 65 10000 7.2 230 15:30 06.04.2022
2883 Clouds 0 978 70 10000 6.69 230 13:30 06.04.2022
2884 Clouds 0 976 73 10000 7.2 230 12:28 06.04.2022
2885 Clouds -1 975 71 10000 6.17 230 10:54 06.04.2022
2886 Clouds -1 975 71 10000 6.17 230 10:32 06.04.2022
2887 Clear -1 977 74 10000 5.66 230 09:42 06.04.2022
2888 Clear -2 976 78 10000 5.14 220 08:36 06.04.2022
2889 Clear -4 973 84 10000 4.63 220 07:56 06.04.2022
2890 Clear -5 972 90 10000 4.12 230 04:42 06.04.2022
2891 Clear -4 972 83 10000 6.69 240 23:57 05.04.2022
2892 Clear -4 981 83 10000 6.69 250 23:22 05.04.2022
2893 Clear -3 980 84 10000 8.75 260 21:31 05.04.2022
2894 Clouds -3 979 85 10000 9.77 260 20:44 05.04.2022
2895 Clouds -3 979 85 10000 10.29 270 20:19 05.04.2022
2896 Snow -3 975 89 1500 9.77 280 18:24 05.04.2022
2897 Snow -3 973 90 1700 9.77 280 17:20 05.04.2022
2898 Snow -2 972 89 1600 10.8 280 16:41 05.04.2022
2899 Snow -2 963 92 1000 10.29 280 15:49 05.04.2022
2900 Snow -1 962 92 1000 10.29 280 15:29 05.04.2022
2901 Snow 0 956 97 1000 5.81 262 13:42 05.04.2022
2902 Clouds 1 958 95 2000 5.66 130 11:51 05.04.2022
2903 Clouds 1 964 94 2000 5.66 130 11:33 05.04.2022
2904 Snow 1 959 95 1500 5.66 130 10:57 05.04.2022
2905 Snow 0 960 95 1000 7.72 120 09:29 05.04.2022
2906 Snow 0 961 96 1400 9.83 110 07:32 05.04.2022
2907 Snow 1 976 93 3000 8.23 150 02:43 05.04.2022
2908 Snow 1 980 94 4000 6.69 160 23:22 04.04.2022
2909 Snow 1 981 93 2500 7.2 180 22:32 04.04.2022
2910 Snow 1 982 93 4000 7.2 180 21:43 04.04.2022
2911 Snow 1 982 93 4000 6.69 170 21:18 04.04.2022
2912 Snow 1 983 93 4000 6.17 180 20:46 04.04.2022
2913 Snow 0 976 94 3000 6.17 170 19:27 04.04.2022
2914 Snow 1 977 93 4000 6.69 170 18:39 04.04.2022
2915 Snow 1 978 93 3500 7.2 170 17:19 04.04.2022
2916 Snow 1 979 93 5000 7.2 160 16:26 04.04.2022
2917 Snow 1 980 93 6000 8.23 160 15:33 04.04.2022
2918 Snow 1 980 91 4500 7.2 170 14:46 04.04.2022
2919 Snow 1 981 90 3500 5.66 170 13:58 04.04.2022
2920 Snow 2 980 86 8000 9.26 180 12:41 04.04.2022
2921 Snow 2 983 83 10000 8.75 180 11:29 04.04.2022
2922 Rain 2 991 86 10000 7.2 180 09:53 04.04.2022
2923 Clear 1 994 87 10000 4.63 180 05:34 04.04.2022
2924 Clouds 1 996 87 10000 3.09 180 02:51 04.04.2022
2925 Clouds 0 999 71 10000 2.57 220 22:54 03.04.2022
2926 Clouds 0 1000 69 10000 2.06 230 21:59 03.04.2022
2927 Clouds 1 1000 68 10000 2.06 230 21:25 03.04.2022
2928 Clouds 1 1000 62 10000 3.09 240 20:30 03.04.2022
2929 Clouds 2 1000 53 10000 4.12 250 18:46 03.04.2022
2930 Clouds 3 1000 53 10000 5.66 260 17:55 03.04.2022
2931 Clouds 4 1000 53 10000 3.6 280 17:35 03.04.2022
2932 Clear 4 992 51 10000 3.09 260 16:49 03.04.2022
2933 Clear 4 992 47 10000 3.6 270 15:46 03.04.2022
2934 Clear 4 993 45 10000 3.6 280 14:20 03.04.2022
2935 Clouds 4 994 48 10000 2.24 251 12:59 03.04.2022
2936 Clouds 3 994 58 10000 4.63 280 11:39 03.04.2022
2937 Clouds 1 995 74 10000 2.06 270 09:52 03.04.2022
2938 Clouds 0 1004 78 10000 3.09 280 08:57 03.04.2022
2939 Clouds -4 1005 82 10000 2.06 230 05:45 03.04.2022
2940 Clear -4 997 76 10000 3.6 240 02:55 03.04.2022
2941 Clear -3 1008 63 10000 2.57 240 23:35 02.04.2022
2942 Clear -2 1009 60 10000 1.79 264 22:44 02.04.2022
2943 Clear -2 1009 57 10000 2.24 265 21:56 02.04.2022
2944 Clear -1 1009 56 10000 2.57 270 21:20 02.04.2022
2945 Clear -1 1009 56 10000 2.57 270 20:36 02.04.2022
2946 Clear -3 982 50 10000 3.09 290 18:47 02.04.2022
2947 Clear 1 1010 50 10000 3.6 270 18:19 02.04.2022
2948 Clear 2 1010 51 10000 2.24 195 17:23 02.04.2022
2949 Clear 2 1011 49 10000 2.06 0 15:44 02.04.2022
2950 Clear 1 1003 49 10000 3.58 190 15:19 02.04.2022
2951 Clear 2 1003 48 10000 3.58 203 14:31 02.04.2022
2952 Clear 2 1002 45 10000 2.06 330 13:34 02.04.2022
2953 Clouds 2 1013 45 10000 3.09 340 12:21 02.04.2022
2954 Clouds 0 1006 51 10000 2.57 330 10:31 02.04.2022
2955 Clear -3 1014 65 10000 1.34 354 08:26 02.04.2022
2956 Clear -7 1015 77 10000 3.58 330 04:59 02.04.2022
2957 Clouds -5 1015 74 10000 2.24 322 02:37 02.04.2022
2958 Clear -4 1016 77 10000 2.24 331 23:54 01.04.2022
2959 Clear -3 1016 78 10000 2.06 0 22:51 01.04.2022
2960 Clear -2 1015 83 10000 1.03 0 21:24 01.04.2022
2961 Clouds -2 1014 77 10000 0.45 291 20:48 01.04.2022
2962 Clouds -1 1014 75 10000 1.54 230 19:46 01.04.2022
2963 Clouds -1 1014 72 10000 2.57 180 19:26 01.04.2022
2964 Clouds 0 1015 69 10000 2.57 180 18:38 01.04.2022
2965 Clouds 1 1015 67 10000 2.57 160 17:39 01.04.2022
2966 Clouds 2 1015 56 10000 3.09 320 16:24 01.04.2022
2967 Clouds 2 1015 53 10000 2.57 360 14:56 01.04.2022
2968 Clouds 2 1017 55 10000 2.57 330 13:56 01.04.2022
2969 Clouds 3 1016 51 10000 0.89 212 13:31 01.04.2022
2970 Snow 1 1008 56 10000 2.68 92 12:26 01.04.2022
2971 Clouds 1 1008 61 10000 2.06 40 10:52 01.04.2022
2972 Clouds 0 1016 66 10000 2.57 60 09:41 01.04.2022
2973 Clear -4 1015 81 10000 1.34 309 07:41 01.04.2022
2974 Clear -7 1014 87 10000 2.24 320 05:45 01.04.2022
2975 Clear -7 1014 87 10000 2.68 331 04:43 01.04.2022
2976 Clear -6 1014 87 10000 2.68 328 03:19 01.04.2022
2977 Clear -4 1013 84 10000 1.79 308 01:51 01.04.2022
2978 Clear -2 1012 84 10000 1.54 320 22:34 31.03.2022
2979 Clear -1 1011 78 10000 1.54 220 21:44 31.03.2022
2980 Clear -1 1011 83 10000 2.06 250 20:51 31.03.2022
2981 Clear -2 1010 80 10000 2.06 250 20:51 31.03.2022
2982 Clear -1 1011 83 10000 3.6 210 20:28 31.03.2022
2983 Snow -1 1011 80 10000 3.6 200 19:43 31.03.2022
2984 Clouds 1 1010 63 10000 3.09 340 18:34 31.03.2022
2985 Clouds 2 1010 61 10000 2.24 240 16:53 31.03.2022
2986 Clouds 2 1009 58 10000 3.6 360 15:58 31.03.2022
2987 Clouds 2 1009 57 10000 3.09 270 15:29 31.03.2022
2988 Clouds 2 1009 57 10000 2.06 250 14:49 31.03.2022
2989 Snow 2 1009 56 10000 1.34 350 13:53 31.03.2022
2990 Clouds 0 997 66 10000 3.6 270 11:31 31.03.2022
2991 Clouds -1 999 69 10000 2.57 270 10:27 31.03.2022
2992 Clear -2 997 73 10000 1.54 260 09:40 31.03.2022
2993 Clouds -6 995 84 10000 2.06 280 07:49 31.03.2022
2994 Clear -7 996 91 10000 2.06 300 03:48 31.03.2022
2995 Clear -5 992 85 10000 2.57 260 23:25 30.03.2022
2996 Clear -4 994 85 10000 2.57 270 22:19 30.03.2022
2997 Clouds -3 1002 83 10000 3.6 280 21:31 30.03.2022
2998 Clouds -2 1002 83 10000 2.57 280 20:44 30.03.2022
2999 Clouds -2 1002 77 10000 3.6 270 19:54 30.03.2022
3000 Clouds -1 1001 77 10000 4.12 280 18:44 30.03.2022
3001 Clouds 0 1001 72 10000 3.6 260 17:52 30.03.2022
3002 Clouds -1 992 71 7000 5.14 290 17:29 30.03.2022
3003 Clouds 0 1001 72 10000 4.12 280 16:41 30.03.2022
3004 Clouds 0 1000 72 10000 2.57 200 16:18 30.03.2022
3005 Clouds 0 1000 73 4500 4.12 270 14:42 30.03.2022
3006 Snow 0 991 68 10000 5.14 300 13:23 30.03.2022
3007 Clouds 1 1000 59 9000 5.14 330 12:32 30.03.2022
3008 Clouds 0 1000 68 10000 4.12 250 10:48 30.03.2022
3009 Clouds -1 1000 68 10000 5.14 270 09:58 30.03.2022
3010 Clouds -4 991 78 10000 4.12 280 08:27 30.03.2022
3011 Clear -5 991 80 10000 4.63 260 07:28 30.03.2022
3012 Clear -7 1000 72 10000 3.6 260 05:40 30.03.2022
3013 Clear -6 1001 74 10000 4.12 250 02:40 30.03.2022
3014 Clear -5 992 67 10000 3.6 270 22:43 29.03.2022
3015 Clear -5 992 65 10000 3.09 260 21:52 29.03.2022
3016 Clear -5 992 64 10000 3.09 260 21:34 29.03.2022
3017 Clouds -3 1001 53 10000 3.09 280 20:26 29.03.2022
3018 Clouds -3 1001 51 10000 3.09 280 19:34 29.03.2022
3019 Clear -2 1001 48 10000 4.63 300 18:53 29.03.2022
3020 Clouds -2 1001 47 10000 5.14 280 17:52 29.03.2022
3021 Clouds -1 1001 47 10000 5.66 310 17:18 29.03.2022
3022 Clouds -1 1001 46 10000 5.66 310 16:53 29.03.2022
3023 Clouds -1 1002 44 10000 3.6 290 15:40 29.03.2022
3024 Clouds -1 993 45 10000 4.02 326 14:43 29.03.2022
3025 Clear -2 993 48 10000 4.12 330 13:35 29.03.2022
3026 Clouds -2 993 51 10000 4.12 330 12:22 29.03.2022
3027 Clouds -3 993 55 10000 4.63 340 11:18 29.03.2022
3028 Clouds -3 1001 60 10000 4.12 330 09:58 29.03.2022
3029 Clouds -4 1001 68 10000 3.6 350 08:44 29.03.2022
3030 Clouds -5 1001 78 10000 2.24 340 06:48 29.03.2022
3031 Clouds -3 999 64 10000 4.12 20 02:27 29.03.2022
3032 Clouds -2 997 65 10000 6.17 10 23:26 28.03.2022
3033 Clouds -2 997 65 10000 6.69 350 22:57 28.03.2022
3034 Clouds -2 997 65 10000 6.17 350 22:31 28.03.2022
3035 Clouds -2 996 67 10000 7.2 360 21:38 28.03.2022
3036 Clouds -1 994 75 10000 6.69 10 20:35 28.03.2022
3037 Clouds 0 993 79 10000 6.69 10 19:48 28.03.2022
3038 Clouds 1 993 79 8000 6.17 350 19:30 28.03.2022
3039 Clouds 1 992 88 5000 5.36 343 18:50 28.03.2022
3040 Clouds 4 991 78 10000 6.17 300 17:41 28.03.2022
3041 Clouds 5 990 67 10000 6.69 280 16:48 28.03.2022
3042 Clouds 5 989 61 10000 9.26 280 14:56 28.03.2022
3043 Clouds 6 989 59 10000 8.23 280 14:23 28.03.2022
3044 Rain 6 989 59 10000 9.26 280 13:19 28.03.2022
3045 Clouds 6 989 58 10000 9.77 300 11:52 28.03.2022
3046 Clouds 5 989 67 10000 8.23 290 09:55 28.03.2022
3047 Clouds 5 989 71 10000 7.2 280 09:21 28.03.2022
3048 Clouds 4 990 75 10000 7.72 290 08:24 28.03.2022
3049 Clouds 4 990 79 10000 8.23 290 07:59 28.03.2022
3050 Clouds 4 991 86 10000 5.66 270 06:31 28.03.2022
3051 Clouds 1 1000 92 10000 6.17 210 00:30 28.03.2022
3052 Snow -1 1005 91 700 6.17 170 22:35 27.03.2022
3053 Snow -2 1008 89 1000 7.2 170 21:43 27.03.2022
3054 Snow -2 1009 88 4000 7.2 160 21:18 27.03.2022
3055 Snow -2 1011 86 2000 5.66 170 20:21 27.03.2022
3056 Snow -3 1004 77 2500 4.12 180 19:36 27.03.2022
3057 Snow -3 1003 69 4000 6.17 210 18:42 27.03.2022
3058 Snow -2 1005 59 10000 5.14 220 18:23 27.03.2022
3059 Snow -1 1005 50 10000 5.66 210 17:35 27.03.2022
3060 Clear 1 1019 41 10000 3.6 230 15:47 27.03.2022
3061 Clear 0 1012 42 10000 4.63 270 13:57 27.03.2022
3062 Clear 0 1022 44 10000 5.14 270 12:58 27.03.2022
3063 Clear -2 1013 47 10000 5.66 290 11:30 27.03.2022
3064 Clear -3 1014 53 10000 4.12 310 09:37 27.03.2022
3065 Clear -5 1023 54 10000 4.63 310 06:58 27.03.2022
3066 Clear -4 1022 57 10000 7.2 330 03:39 27.03.2022
3067 Clear -3 1020 59 10000 6.17 330 00:25 27.03.2022
3068 Clouds -2 1019 56 10000 7.2 340 22:45 26.03.2022
3069 Clouds -2 1019 57 10000 10.29 340 21:54 26.03.2022
3070 Clouds -2 1018 58 10000 9.26 340 21:29 26.03.2022
3071 Clouds -2 1016 63 10000 9.77 330 19:32 26.03.2022
3072 Clouds -1 1014 69 10000 10.29 330 18:40 26.03.2022
3073 Clouds 0 1013 61 10000 10.29 330 17:34 26.03.2022
3074 Clouds 0 1013 61 10000 10.29 330 17:34 26.03.2022
3075 Snow 0 1011 63 10000 10.8 330 16:33 26.03.2022
3076 Snow 0 1010 67 10000 11.32 330 15:37 26.03.2022
3077 Snow 1 1006 63 10000 14.4 330 13:55 26.03.2022
3078 Snow 1 1005 64 10000 10.8 330 13:19 26.03.2022
3079 Clouds 1 1002 62 10000 12.86 320 11:42 26.03.2022
3080 Rain 2 1000 61 10000 13.89 330 10:44 26.03.2022
3081 Clouds 3 997 72 10000 12.35 320 08:46 26.03.2022
3082 Snow 2 996 79 10000 9.77 300 06:37 26.03.2022
3083 Clouds 2 996 79 10000 8.23 280 05:29 26.03.2022
3084 Clear 4 998 61 10000 8.23 280 00:54 26.03.2022
3085 Clear 6 1000 71 10000 6.17 260 21:58 25.03.2022
3086 Clear 5 991 81 10000 5.14 220 20:47 25.03.2022
3087 Rain 5 991 82 10000 5.14 220 20:24 25.03.2022
3088 Rain 6 1004 79 10000 4.63 250 18:59 25.03.2022
3089 Clear 6 1005 75 10000 5.14 250 17:53 25.03.2022
3090 Clear 6 1005 75 10000 5.14 250 17:27 25.03.2022
3091 Clouds 7 1006 76 10000 6.17 220 16:21 25.03.2022
3092 Clouds 6 1006 78 10000 3.09 190 14:54 25.03.2022
3093 Clouds 6 1008 81 10000 3.09 200 13:26 25.03.2022
3094 Rain 4 1011 84 10000 3.6 180 10:35 25.03.2022
3095 Clear 4 1013 85 10000 4.63 200 09:28 25.03.2022
3096 Clear 4 1013 88 10000 3.09 180 08:36 25.03.2022
3097 Clear 4 1014 90 10000 3.09 180 07:30 25.03.2022
3098 Clear 3 1015 93 10000 1.54 140 06:29 25.03.2022
3099 Snow 0 1002 86 10000 1.54 240 01:57 25.03.2022
3100 Clouds 0 995 90 10000 1.54 200 22:56 24.03.2022
3101 Clouds 2 1003 87 10000 0.45 86 21:52 24.03.2022
3102 Clouds 5 1020 81 10000 1.03 290 20:45 24.03.2022
3103 Clear 2 994 90 10000 2.06 270 19:48 24.03.2022
3104 Clear 4 1005 81 10000 3.09 260 18:22 24.03.2022
3105 Clouds 7 1019 73 10000 3.09 270 17:29 24.03.2022
3106 Clouds 8 1004 66 10000 4.12 300 15:52 24.03.2022
3107 Clear 8 1004 66 10000 4.12 290 14:51 24.03.2022
3108 Clear 8 1003 64 10000 4.12 280 14:20 24.03.2022
3109 Clear 9 1003 61 10000 6.17 280 13:26 24.03.2022
3110 Clear 8 1002 63 10000 4.63 270 11:59 24.03.2022
3111 Clear 7 1002 69 10000 4.63 270 10:28 24.03.2022
3112 Clear 5 1006 69 10000 3.6 270 09:22 24.03.2022
3113 Clear 3 1007 81 10000 3.09 260 07:39 24.03.2022
3114 Clear -1 1009 87 10000 3.09 250 04:34 24.03.2022
3115 Clear -1 1009 82 10000 2.57 270 23:21 23.03.2022
3116 Clear 0 1009 82 10000 3.6 290 21:53 23.03.2022
3117 Clear 0 1012 80 10000 3.09 290 21:20 23.03.2022
3118 Clear 1 1010 77 10000 3.6 290 19:46 23.03.2022
3119 Clear 1 1010 77 10000 3.6 290 19:25 23.03.2022
3120 Clear 3 1007 73 10000 3.09 280 17:39 23.03.2022
3121 Clear 5 1022 66 10000 2.57 300 16:53 23.03.2022
3122 Clouds 6 1012 62 10000 3.6 270 14:57 23.03.2022
3123 Clouds 6 1012 62 10000 3.6 270 14:38 23.03.2022
3124 Clouds 6 1011 63 10000 3.09 300 13:22 23.03.2022
3125 Clouds 4 1012 74 10000 1.54 190 10:20 23.03.2022
3126 Mist 0 1013 86 4500 2.06 230 07:44 23.03.2022
3127 Mist -1 1022 91 2000 2.57 220 05:27 23.03.2022
3128 Clear 0 1025 85 10000 2.06 210 01:18 23.03.2022
3129 Clear 1 1026 81 10000 3.6 190 00:23 23.03.2022
3130 Clear 0 1017 74 10000 4.12 210 21:31 22.03.2022
3131 Clear 0 1011 73 10000 3.6 210 20:51 22.03.2022
3132 Clear 0 1011 71 10000 3.09 210 19:56 22.03.2022
3133 Clear 1 1016 70 10000 2.57 210 19:25 22.03.2022
3134 Clear 1 1002 67 10000 3.09 200 18:45 22.03.2022
3135 Clear 5 1031 48 10000 4.12 220 17:42 22.03.2022
3136 Clear 6 1032 49 10000 4.12 230 16:32 22.03.2022
3137 Clear 7 1032 52 10000 4.12 220 15:23 22.03.2022
3138 Clear 7 1033 49 10000 4.12 220 14:59 22.03.2022
3139 Clear 7 1033 51 10000 5.14 230 14:41 22.03.2022
3140 Clear 8 1032 51 10000 4.12 230 13:36 22.03.2022
3141 Clear 7 1024 55 10000 4.12 220 11:52 22.03.2022
3142 Clear 6 1025 62 10000 4.12 210 10:51 22.03.2022
3143 Clear 3 1023 73 10000 2.57 220 08:40 22.03.2022
3144 Clear -1 1023 81 10000 2.06 210 06:58 22.03.2022
3145 Clear -2 1026 86 10000 1.54 230 03:54 22.03.2022
3146 Clear 0 1020 79 10000 1.34 272 00:34 22.03.2022
3147 Clear 0 1036 79 10000 3.6 270 22:42 21.03.2022
3148 Clear 2 1003 68 10000 4.12 250 21:20 21.03.2022
3149 Clear 2 1036 77 10000 3.6 250 20:42 21.03.2022
3150 Clear 3 1037 76 10000 3.6 240 19:59 21.03.2022
3151 Clear 4 1036 73 10000 3.6 240 19:35 21.03.2022
3152 Clear 5 1036 52 10000 4.12 220 18:46 21.03.2022
3153 Clear 7 1036 45 10000 3.09 240 17:32 21.03.2022
3154 Clear 9 1037 40 10000 4.12 260 16:53 21.03.2022
3155 Clear 8 1037 42 10000 3.6 230 16:24 21.03.2022
3156 Clear 10 1037 29 10000 3.6 220 15:21 21.03.2022
3157 Clear 10 1038 25 10000 5.14 240 14:28 21.03.2022
3158 Clear 9 1038 31 10000 2.57 240 12:53 21.03.2022
3159 Clear 10 1039 29 10000 4.12 290 11:54 21.03.2022
3160 Clear 9 1039 43 10000 3.09 290 10:49 21.03.2022
3161 Clear 6 1039 59 10000 1.54 270 09:21 21.03.2022
3162 Clear 2 1015 80 10000 2.57 280 07:22 21.03.2022
3163 Clear -1 1029 84 10000 2.24 285 04:54 21.03.2022
3164 Clear 0 1024 79 10000 1.54 310 00:36 21.03.2022
3165 Clear 2 1025 77 10000 2.57 280 22:56 20.03.2022
3166 Clear 2 1025 75 10000 1.54 260 22:22 20.03.2022
3167 Clear 2 1025 77 10000 2.57 290 21:31 20.03.2022
3168 Clear 2 1025 75 10000 2.06 280 20:48 20.03.2022
3169 Clear 3 1025 72 10000 2.57 280 20:25 20.03.2022
3170 Clear 4 1017 75 10000 3.6 290 19:43 20.03.2022
3171 Clear 4 1017 71 10000 3.6 280 18:48 20.03.2022
3172 Clear 10 1040 43 10000 3.6 270 17:38 20.03.2022
3173 Clear 13 1040 35 10000 2.57 270 16:59 20.03.2022
3174 Clear 13 1041 38 10000 2.06 270 15:57 20.03.2022
3175 Clear 11 1041 54 10000 2.57 260 14:37 20.03.2022
3176 Clear 11 1042 51 10000 2.06 270 13:31 20.03.2022
3177 Clear 9 1042 56 10000 2.06 280 11:51 20.03.2022
3178 Clear 7 1042 60 10000 2.57 300 09:58 20.03.2022
3179 Clear 5 1029 69 10000 4.12 300 08:19 20.03.2022
3180 Clear -1 1031 88 10000 1.34 303 05:49 20.03.2022
3181 Clear -1 1031 87 10000 2.57 270 03:18 20.03.2022
3182 Clear 0 1032 81 10000 3.09 230 00:51 20.03.2022
3183 Clear 0 1032 81 10000 3.09 230 23:35 19.03.2022
3184 Clear 0 1042 80 10000 3.13 257 21:58 19.03.2022
3185 Clear 1 1032 77 10000 3.09 230 21:25 19.03.2022
3186 Clear 1 1043 79 10000 4.63 230 19:22 19.03.2022
3187 Clear 2 1043 80 10000 4.63 220 18:30 19.03.2022
3188 Clear 2 1043 79 10000 5.14 220 17:45 19.03.2022
3189 Clear 3 1043 75 10000 4.12 220 16:45 19.03.2022
3190 Clear 5 1043 71 10000 4.12 200 15:22 19.03.2022
3191 Clear 6 1035 64 10000 3.09 210 13:40 19.03.2022
3192 Clouds 6 1036 68 10000 3.09 210 12:42 19.03.2022
3193 Clouds 6 1036 70 10000 3.09 210 12:19 19.03.2022
3194 Clouds 5 1036 72 10000 2.57 200 11:42 19.03.2022
3195 Clouds 3 1036 84 10000 1.54 290 08:57 19.03.2022
3196 Clouds 2 1033 87 9000 4.63 350 04:42 19.03.2022
3197 Clouds 2 1032 87 7000 2.06 280 02:32 19.03.2022
3198 Mist 2 1028 86 3000 1.03 220 23:50 18.03.2022
3199 Mist 2 1029 86 3000 2.06 230 22:43 18.03.2022
3200 Mist 2 1029 85 3000 3.09 230 22:20 18.03.2022
3201 Clouds 3 1029 84 7000 5.14 220 20:25 18.03.2022
3202 Clouds 3 1029 83 7000 5.14 220 20:25 18.03.2022
3203 Clouds 3 1028 81 9000 5.14 210 19:24 18.03.2022
3204 Clouds 3 1028 77 10000 5.14 210 18:35 18.03.2022
3205 Clouds 4 1025 72 10000 5.14 210 16:53 18.03.2022
3206 Clouds 4 1027 71 10000 6.17 200 16:18 18.03.2022
3207 Clouds 5 1027 62 10000 4.63 180 14:26 18.03.2022
3208 Clear 5 1028 59 10000 7.72 180 13:36 18.03.2022
3209 Clear 4 1036 64 10000 6.69 170 11:29 18.03.2022
3210 Clear 3 1028 61 10000 5.66 180 09:52 18.03.2022
3211 Clear 2 1029 65 10000 4.63 160 08:45 18.03.2022
3212 Clear 0 1037 69 10000 4.12 160 06:45 18.03.2022
3213 Clear 0 1037 69 10000 4.12 160 06:45 18.03.2022
3214 Clear 0 1037 69 10000 5.14 180 04:39 18.03.2022
3215 Clear 0 1038 76 10000 4.12 150 00:55 18.03.2022
3216 Clear -1 1038 80 10000 3.09 160 23:52 17.03.2022
3217 Clear -1 1038 80 10000 3.09 160 23:52 17.03.2022
3218 Clear -1 1038 80 10000 3.09 160 23:52 17.03.2022
3219 Clear -1 1038 80 10000 3.09 160 23:52 17.03.2022
3220 Clear 0 1038 79 10000 2.06 120 22:44 17.03.2022
3221 Clear -1 1038 80 10000 2.06 110 22:18 17.03.2022
3222 Clear -1 1030 83 10000 1.03 0 21:27 17.03.2022
3223 Clear 0 1038 78 10000 1.54 110 20:52 17.03.2022
3224 Clear 0 1038 77 10000 1.54 120 20:18 17.03.2022
3225 Clear 0 1038 74 10000 1.54 120 19:37 17.03.2022
3226 Clear 1 1027 72 10000 3.6 130 18:51 17.03.2022
3227 Clear 2 1023 68 10000 3.6 140 17:28 17.03.2022
3228 Clear 5 1037 53 10000 3.09 150 16:19 17.03.2022
3229 Clear 5 1037 53 10000 3.09 150 16:19 17.03.2022
3230 Clear 5 1038 54 10000 3.09 160 15:42 17.03.2022
3231 Clear 5 1037 53 10000 2.57 160 14:58 17.03.2022
3232 Clear 6 1038 59 10000 4.12 150 13:28 17.03.2022
3233 Clear 6 1038 57 10000 3.6 150 12:38 17.03.2022
3234 Clear 5 1038 62 10000 2.57 140 11:31 17.03.2022
3235 Clear 5 1039 64 10000 1.54 140 10:41 17.03.2022
3236 Clear 2 1038 74 10000 1.03 90 08:46 17.03.2022
3237 Clear 1 1038 73 10000 0.51 0 08:18 17.03.2022
3238 Clear -4 1037 88 10000 1.54 50 05:49 17.03.2022
3239 Clear -5 1036 82 10000 1.03 0 04:24 17.03.2022
3240 Clear -4 1035 82 10000 1.54 40 00:24 17.03.2022
3241 Clear -3 1035 81 10000 1.54 40 22:52 16.03.2022
3242 Clear -3 1035 80 10000 1.54 40 22:33 16.03.2022
3243 Clear -3 1025 81 10000 1.54 60 21:55 16.03.2022
3244 Clear -3 1015 83 10000 1.54 80 20:40 16.03.2022
3245 Clear -1 1020 74 10000 1.54 110 19:23 16.03.2022
3246 Clear -1 1014 73 10000 1.03 100 18:42 16.03.2022
3247 Clear -1 1001 83 10000 3.09 130 17:45 16.03.2022
3248 Clear 1 1001 74 10000 2.57 140 17:27 16.03.2022
3249 Clear 5 1034 45 10000 3.6 140 15:56 16.03.2022
3250 Clear 5 1034 52 10000 2.06 140 14:38 16.03.2022
3251 Clear 5 1011 58 10000 3.09 150 13:35 16.03.2022
3252 Clear 5 1019 53 10000 3.6 140 12:18 16.03.2022
3253 Clear 4 1024 56 10000 3.09 150 11:23 16.03.2022
3254 Clear 4 1024 57 10000 3.13 124 10:28 16.03.2022
3255 Clear 3 1024 64 10000 2.24 124 09:55 16.03.2022
3256 Clear -3 1029 92 10000 2.57 60 06:47 16.03.2022
3257 Clear -4 1028 83 10000 1.54 40 02:29 16.03.2022
3258 Clear -2 1028 82 10000 1.54 50 22:54 15.03.2022
3259 Clear -3 1028 84 10000 1.54 40 22:33 15.03.2022
3260 Clear -3 1028 84 10000 1.54 40 22:33 15.03.2022
3261 Clear -2 1018 85 10000 1.03 0 20:42 15.03.2022
3262 Clear -1 1014 81 10000 1.03 120 19:27 15.03.2022
3263 Clear 0 1007 82 10000 2.06 160 17:35 15.03.2022
3264 Clear 3 1012 66 10000 2.06 140 16:34 15.03.2022
3265 Clear 5 1020 62 10000 1.54 170 15:26 15.03.2022
3266 Clear 4 1012 65 10000 2.06 160 14:46 15.03.2022
3267 Clear 6 1020 62 10000 0.89 125 13:55 15.03.2022
3268 Clear 6 1021 62 10000 1.03 190 12:46 15.03.2022
3269 Clear 5 1021 61 10000 1.03 210 11:32 15.03.2022
3270 Clear 2 1019 67 10000 1.03 260 09:54 15.03.2022
3271 Clear 2 1029 70 10000 0.89 335 08:49 15.03.2022
3272 Clear -1 1029 70 10000 2.06 250 07:52 15.03.2022
3273 Clear -2 1029 74 10000 2.06 250 07:34 15.03.2022
3274 Clear -6 1030 75 10000 1.03 230 04:20 15.03.2022
3275 Clear -5 1008 78 10000 1.03 250 23:57 14.03.2022
3276 Clear -5 1008 75 10000 1.03 240 23:24 14.03.2022
3277 Clear -4 1008 72 10000 1.03 240 22:30 14.03.2022
3278 Clouds -3 994 77 10000 2.29 288 21:35 14.03.2022
3279 Clear -3 1007 70 10000 2.57 280 20:54 14.03.2022
3280 Clear -2 1007 71 10000 2.57 250 20:20 14.03.2022
3281 Clear -1 1007 65 10000 2.06 250 18:55 14.03.2022
3282 Clear 2 1007 58 10000 2.06 260 17:55 14.03.2022
3283 Clear 1 993 67 10000 2.06 270 17:23 14.03.2022
3284 Clear 10 1030 17 10000 3.09 280 16:18 14.03.2022
3285 Clear 10 1030 18 10000 2.06 250 14:41 14.03.2022
3286 Clear 7 1030 48 10000 2.57 280 12:51 14.03.2022
3287 Clear 5 1014 45 10000 1.34 236 10:54 14.03.2022
3288 Clear 4 1018 50 10000 2.06 250 09:55 14.03.2022
3289 Clear 3 1018 54 10000 1.79 199 09:22 14.03.2022
3290 Clear 1 1015 61 10000 1.54 250 08:56 14.03.2022
3291 Clear 0 1028 60 10000 1.03 280 07:34 14.03.2022
3292 Clear -4 1028 74 10000 1.54 280 05:46 14.03.2022
3293 Clear -4 1014 77 10000 2.06 300 01:55 14.03.2022
3294 Clear -3 1029 70 10000 3.6 310 01:28 14.03.2022
3295 Clear -3 1014 77 10000 3.6 290 22:52 13.03.2022
3296 Clear -2 1013 75 10000 3.09 290 21:31 13.03.2022
3297 Clear -2 1013 75 10000 3.09 290 20:56 13.03.2022
3298 Clouds -1 1008 78 10000 2.52 303 20:31 13.03.2022
3299 Clear -1 1013 73 10000 3.6 270 19:59 13.03.2022
3300 Clear 0 1013 71 10000 3.09 270 19:37 13.03.2022
3301 Clear 0 1005 73 10000 3.09 270 19:18 13.03.2022
3302 Clouds 0 991 79 10000 0.45 235 18:35 13.03.2022
3303 Clear 0 991 83 10000 3.09 260 17:46 13.03.2022
3304 Clear 2 991 81 10000 3.09 260 17:19 13.03.2022
3305 Clear 5 1026 83 10000 2.57 260 16:30 13.03.2022
3306 Clear 3 1024 71 10000 3.09 260 15:47 13.03.2022
3307 Clear 4 1025 71 10000 3.09 280 14:56 13.03.2022
3308 Clear 5 1025 70 10000 2.06 210 13:45 13.03.2022
3309 Clear 4 1025 60 10000 2.06 200 12:55 13.03.2022
3310 Clear 4 1026 63 10000 1.03 200 11:52 13.03.2022
3311 Clear 4 1026 65 10000 1.03 200 11:32 13.03.2022
3312 Clear 3 1026 66 10000 2.06 210 10:47 13.03.2022
3313 Clear 2 1026 72 10000 1.03 240 10:22 13.03.2022
3314 Clear 0 1026 83 10000 2.06 220 09:40 13.03.2022
3315 Clouds 0 1016 80 10000 0.45 182 08:45 13.03.2022
3316 Clear -3 1017 85 10000 1.03 280 07:41 13.03.2022
3317 Fog -5 1017 88 10000 0.89 230 05:40 13.03.2022
3318 Fog -4 1015 89 10000 1.03 240 02:39 13.03.2022
3319 Clear -3 1015 89 10000 0.51 0 23:56 12.03.2022
3320 Clear -2 1015 88 10000 1.03 200 22:27 12.03.2022
3321 Clear -1 1015 84 10000 1.54 220 20:34 12.03.2022
3322 Clear 0 1015 81 10000 1.54 230 19:47 12.03.2022
3323 Clear 0 1004 83 10000 1.54 200 18:58 12.03.2022
3324 Clear 1 1004 79 10000 1.54 180 18:22 12.03.2022
3325 Clear 3 1004 85 10000 3.09 190 17:23 12.03.2022
3326 Clear 4 1025 75 10000 4.12 190 16:23 12.03.2022
3327 Clear 4 1025 75 10000 4.12 190 16:23 12.03.2022
3328 Clear 5 1017 70 10000 1.34 133 15:22 12.03.2022
3329 Clear 5 1026 66 10000 1.03 210 14:27 12.03.2022
3330 Clear 6 1026 65 10000 1.34 172 12:45 12.03.2022
3331 Clear 5 1018 71 10000 1.34 121 11:56 12.03.2022
3332 Clear 5 1018 70 10000 1.79 278 11:34 12.03.2022
3333 Clear 4 1018 72 10000 1.79 273 10:52 12.03.2022
3334 Clear 3 1018 76 10000 1.03 0 09:44 12.03.2022
3335 Clear 1 1018 79 10000 0.45 331 08:53 12.03.2022
3336 Fog -2 1018 89 10000 2.24 334 07:19 12.03.2022
3337 Clear -2 1015 90 10000 1.54 240 02:34 12.03.2022
3338 Clear -1 1011 87 10000 2.06 280 23:52 11.03.2022
3339 Clear -1 1018 87 10000 3.09 270 22:52 11.03.2022
3340 Clouds 0 1017 85 10000 2.57 240 21:35 11.03.2022
3341 Clouds 0 1018 84 10000 2.57 280 20:54 11.03.2022
3342 Clouds 0 1018 83 10000 2.57 290 20:28 11.03.2022
3343 Clouds 0 1017 82 10000 4.12 300 19:42 11.03.2022
3344 Clouds 1 1018 82 10000 4.63 290 18:51 11.03.2022
3345 Clouds 2 1027 78 10000 4.12 290 17:28 11.03.2022
3346 Clouds 2 1018 75 10000 4.63 290 16:27 11.03.2022
3347 Clouds 3 1018 76 10000 5.14 310 15:52 11.03.2022
3348 Clouds 4 1017 71 10000 5.66 290 14:19 11.03.2022
3349 Clouds 4 1019 73 10000 0.89 238 12:43 11.03.2022
3350 Clouds 4 1018 73 10000 4.12 290 12:20 11.03.2022
3351 Clouds 3 1018 75 10000 5.14 260 11:40 11.03.2022
3352 Clouds 2 1019 83 10000 5.66 250 09:37 11.03.2022
3353 Clouds 1 1019 84 10000 5.14 240 08:29 11.03.2022
3354 Clouds 0 1019 85 10000 4.63 250 07:48 11.03.2022
3355 Clouds 0 1019 85 10000 4.12 250 06:59 11.03.2022
3356 Clouds 0 1020 84 10000 4.12 240 05:20 11.03.2022
3357 Clouds 0 1030 81 10000 4.63 230 02:45 11.03.2022
3358 Clouds 0 1022 84 10000 6.17 230 22:51 10.03.2022
3359 Clouds 0 1023 83 10000 6.17 230 22:27 10.03.2022
3360 Clouds 0 1023 82 10000 6.17 230 21:26 10.03.2022
3361 Clouds 0 1023 81 10000 5.14 220 20:39 10.03.2022
3362 Clouds 0 1024 80 10000 6.17 220 19:22 10.03.2022
3363 Clouds 0 1024 79 10000 5.66 220 18:19 10.03.2022
3364 Clouds 0 1034 75 10000 6.17 220 16:53 10.03.2022
3365 Clouds 0 1025 75 10000 6.69 210 15:36 10.03.2022
3366 Clouds 1 1026 72 10000 5.14 220 14:19 10.03.2022
3367 Clouds 1 1035 70 10000 5.66 210 12:43 10.03.2022
3368 Clouds 1 1036 74 10000 5.66 210 11:33 10.03.2022
3369 Rain -1 1036 76 10000 5.66 210 09:54 10.03.2022
3370 Clear -3 1028 73 10000 4.63 210 08:39 10.03.2022
3371 Clear -5 1036 71 10000 4.63 200 05:48 10.03.2022
3372 Clear -7 1037 73 10000 1.34 213 03:22 10.03.2022
3373 Clear -7 1036 82 10000 1.54 100 00:22 10.03.2022
3374 Clear -6 1035 85 10000 1.54 90 22:32 09.03.2022
3375 Clear -6 1034 83 10000 2.06 70 21:47 09.03.2022
3376 Clear -6 1035 80 10000 1.03 100 20:50 09.03.2022
3377 Clear -6 1034 77 10000 2.24 125 18:58 09.03.2022
3378 Clear -3 1034 70 10000 2.68 104 17:28 09.03.2022
3379 Clear -3 1023 71 10000 3.6 110 16:45 09.03.2022
3380 Clear -2 1023 68 10000 0.45 226 15:41 09.03.2022
3381 Clear -2 1023 70 10000 4.47 110 14:24 09.03.2022
3382 Clouds -2 1022 68 10000 5.14 120 13:38 09.03.2022
3383 Clouds -2 1022 76 10000 5.66 120 12:20 09.03.2022
3384 Clouds -2 1021 79 10000 6.26 103 11:46 09.03.2022
3385 Clouds -3 1021 85 10000 4.47 74 10:54 09.03.2022
3386 Clouds -3 1029 91 10000 4.47 87 09:25 09.03.2022
3387 Clouds -3 1029 94 10000 4.12 50 08:43 09.03.2022
3388 Clouds -3 1025 89 4500 3.6 50 05:36 09.03.2022
3389 Clouds -3 1022 87 10000 3.6 50 00:58 09.03.2022
3390 Clouds -3 1021 89 10000 2.68 67 23:46 08.03.2022
3391 Clouds -3 1021 86 10000 2.06 50 22:45 08.03.2022
3392 Clouds -2 1021 87 10000 2.06 70 21:46 08.03.2022
3393 Clouds -2 1020 87 7000 2.57 80 21:19 08.03.2022
3394 Clouds -2 1020 87 10000 3.09 90 20:18 08.03.2022
3395 Snow -2 1019 87 10000 4.47 109 18:55 08.03.2022
3396 Snow -2 1019 87 10000 2.68 104 17:58 08.03.2022
3397 Clouds -2 1018 87 10000 4.47 119 16:37 08.03.2022
3398 Snow -1 1017 88 2500 5.66 130 14:24 08.03.2022
3399 Clouds -1 1017 87 2500 6.17 140 13:22 08.03.2022
3400 Snow -2 1018 88 1800 5.14 130 12:19 08.03.2022
3401 Snow -2 1018 87 1700 5.66 150 11:41 08.03.2022
3402 Snow -2 1018 86 1200 6.69 150 10:27 08.03.2022
3403 Snow -3 1018 87 1100 5.66 160 08:30 08.03.2022
3404 Snow -4 1019 84 4000 5.66 150 05:48 08.03.2022
3405 Snow -3 1020 76 10000 4.63 140 01:48 08.03.2022
3406 Clouds -3 1021 74 10000 2.68 112 22:24 07.03.2022
3407 Clouds -3 1020 74 10000 2.57 120 21:35 07.03.2022
3408 Clouds -3 1020 74 10000 3.09 80 20:54 07.03.2022
3409 Clouds -2 1020 74 10000 2.57 80 20:22 07.03.2022
3410 Clouds -2 1020 74 10000 4.63 60 19:41 07.03.2022
3411 Clouds -2 1020 75 10000 3.6 60 18:47 07.03.2022
3412 Clouds -1 1020 75 10000 3.6 60 17:58 07.03.2022
3413 Clouds -1 1019 74 10000 3.6 60 16:56 07.03.2022
3414 Clouds 0 1019 73 10000 3.6 60 16:30 07.03.2022
3415 Clouds 1 1017 71 10000 4.12 330 14:31 07.03.2022
3416 Clouds 1 1017 71 10000 4.63 310 12:33 07.03.2022
3417 Clouds 1 1017 73 10000 4.47 12 10:39 07.03.2022
3418 Clouds 1 1016 76 10000 4.12 10 09:47 07.03.2022
3419 Clouds 0 1014 80 10000 3.6 350 06:35 07.03.2022
3420 Clouds 0 1009 87 10000 2.57 320 00:23 07.03.2022
3421 Clouds 0 1009 85 10000 4.12 310 23:41 06.03.2022
3422 Clouds 0 1008 83 10000 4.02 296 22:58 06.03.2022
3423 Clouds 0 1001 84 10000 3.6 270 22:24 06.03.2022
3424 Clouds 0 1001 84 10000 3.6 270 22:24 06.03.2022
3425 Clouds 0 1008 79 10000 3.6 270 20:51 06.03.2022
3426 Clouds 0 1008 79 10000 3.6 270 20:26 06.03.2022
3427 Clouds 1 1009 77 10000 2.57 260 19:29 06.03.2022
3428 Clouds 1 1009 75 10000 4.12 270 18:25 06.03.2022
3429 Clouds 2 1009 70 10000 6.69 270 17:21 06.03.2022
3430 Clouds 2 1009 69 10000 6.69 280 16:44 06.03.2022
3431 Clouds 2 1009 69 10000 6.69 280 16:44 06.03.2022
3432 Clouds 3 1010 68 10000 6.17 280 16:18 06.03.2022
3433 Clouds 4 1010 66 10000 6.17 270 14:57 06.03.2022
3434 Clouds 4 1010 64 10000 6.17 270 14:38 06.03.2022
3435 Clouds 4 1001 65 10000 5.14 280 13:36 06.03.2022
3436 Clouds 3 1002 70 10000 6.17 280 12:35 06.03.2022
3437 Clouds 2 1002 76 10000 5.66 280 11:21 06.03.2022
3438 Clouds 1 1003 79 10000 3.6 270 10:28 06.03.2022
3439 Clear -2 1003 84 10000 4.12 290 08:32 06.03.2022
3440 Clear -3 1003 87 10000 3.6 280 07:45 06.03.2022
3441 Clear -3 1003 86 10000 4.63 290 06:19 06.03.2022
3442 Clear -3 1013 85 10000 3.6 230 00:55 06.03.2022
3443 Clear -3 1013 85 10000 3.6 230 00:33 06.03.2022
3444 Clear -3 1014 85 10000 2.57 230 23:26 05.03.2022
3445 Clear -3 1014 85 10000 2.68 250 22:57 05.03.2022
3446 Clear -3 1015 85 10000 2.68 239 22:23 05.03.2022
3447 Clear -2 1016 83 10000 5.14 220 21:23 05.03.2022
3448 Clear -2 1008 81 10000 4.12 220 19:49 05.03.2022
3449 Clear -1 1017 80 10000 4.12 230 18:56 05.03.2022
3450 Clear -1 1017 80 10000 3.6 230 18:27 05.03.2022
3451 Clear 0 1018 75 10000 6.17 210 16:52 05.03.2022
3452 Clouds 2 1019 74 10000 5.14 210 15:40 05.03.2022
3453 Clouds 2 1020 76 10000 5.66 210 14:52 05.03.2022
3454 Clouds 2 1020 77 10000 5.66 210 14:33 05.03.2022
3455 Clouds 2 1021 74 10000 4.47 203 13:22 05.03.2022
3456 Clouds 1 1023 74 10000 3.6 200 11:48 05.03.2022
3457 Clear 0 1015 74 10000 3.6 200 11:19 05.03.2022
3458 Clear -1 1023 75 10000 2.57 180 10:20 05.03.2022
3459 Clear -2 1024 74 10000 1.34 138 09:26 05.03.2022
3460 Clear -6 1024 81 10000 0.45 169 07:51 05.03.2022
3461 Clear -10 1024 86 10000 1.03 280 05:43 05.03.2022
3462 Clear -9 1024 87 10000 1.79 322 03:49 05.03.2022
3463 Clear -7 1025 84 10000 1.34 319 23:38 04.03.2022
3464 Clear -7 1025 81 10000 0.89 306 22:42 04.03.2022
3465 Clear -6 1025 82 10000 1.54 320 22:23 04.03.2022
3466 Clear -6 1026 79 10000 0.51 0 20:57 04.03.2022
3467 Clear -5 1026 79 10000 1.03 280 20:27 04.03.2022
3468 Clear -5 1026 79 10000 1.03 350 19:36 04.03.2022
3469 Clear -3 1025 75 10000 2.06 350 18:45 04.03.2022
3470 Clear -4 1004 66 10000 2.06 330 17:48 04.03.2022
3471 Clear -2 1011 63 10000 2.06 330 17:28 04.03.2022
3472 Clouds 2 1024 55 10000 3.13 325 15:30 04.03.2022
3473 Clouds 2 1024 56 10000 4.12 330 14:33 04.03.2022
3474 Clear 1 1016 56 10000 4.63 330 13:26 04.03.2022
3475 Clear 0 1016 58 10000 4.63 330 11:46 04.03.2022
3476 Clear -1 1016 62 10000 3.6 320 10:52 04.03.2022
3477 Clouds -3 1016 68 10000 3.6 330 09:52 04.03.2022
3478 Clouds -4 1015 73 10000 4.63 330 08:39 04.03.2022
3479 Clear -6 1015 77 10000 3.6 330 07:36 04.03.2022
3480 Clear -5 1014 76 10000 4.12 330 03:56 04.03.2022
3481 Clear -3 1013 70 10000 3.6 340 00:28 04.03.2022
3482 Clear -2 1012 66 10000 4.12 340 22:27 03.03.2022
3483 Clear -1 1012 66 10000 4.63 340 21:43 03.03.2022
3484 Clear -1 1011 66 10000 4.63 340 21:24 03.03.2022
3485 Clear 0 1010 66 10000 4.63 340 19:55 03.03.2022
3486 Clear 0 1010 67 10000 4.12 330 18:54 03.03.2022
3487 Clear 1 1009 64 10000 4.12 330 18:24 03.03.2022
3488 Clear 2 1009 63 10000 5.66 340 17:30 03.03.2022
3489 Clouds 3 1015 57 10000 6.17 340 16:24 03.03.2022
3490 Clouds 4 1015 58 10000 7.72 330 15:23 03.03.2022
3491 Clouds 4 1015 58 10000 7.72 330 14:43 03.03.2022
3492 Clouds 4 1016 59 10000 7.2 340 14:20 03.03.2022
3493 Clouds 4 1016 59 10000 7.2 340 14:20 03.03.2022
3494 Clear 3 1015 70 10000 5.14 320 12:22 03.03.2022
3495 Clear 2 1007 77 10000 4.63 330 10:47 03.03.2022
3496 Clouds 1 1006 80 10000 4.12 330 09:41 03.03.2022
3497 Clouds -2 1014 84 10000 4.02 329 07:50 03.03.2022
3498 Clear -2 1005 87 10000 2.24 314 06:37 03.03.2022
3499 Clear -3 1005 87 10000 2.06 280 02:42 03.03.2022
3500 Clouds -2 1006 89 10000 2.57 230 23:34 02.03.2022
3501 Clouds -2 1006 89 10000 3.09 220 22:52 02.03.2022
3502 Clouds -1 1007 92 10000 3.6 230 21:35 02.03.2022
3503 Clouds -1 1007 89 10000 3.6 230 20:55 02.03.2022
3504 Clouds 0 1004 88 10000 4.63 240 20:24 02.03.2022
3505 Clouds 0 1004 88 10000 4.63 240 20:24 02.03.2022
3506 Clouds 0 1007 88 10000 5.14 230 19:37 02.03.2022
3507 Clouds 0 1007 89 10000 4.63 220 18:54 02.03.2022
3508 Clear 0 1007 90 10000 4.12 210 18:19 02.03.2022
3509 Clear 0 1007 85 10000 4.63 200 17:34 02.03.2022
3510 Clear 1 1008 84 10000 3.6 230 16:51 02.03.2022
3511 Clouds 3 1008 80 10000 3.6 230 14:49 02.03.2022
3512 Clouds 3 1009 81 10000 4.12 240 13:30 02.03.2022
3513 Clouds 3 1009 82 10000 0.45 269 12:45 02.03.2022
3514 Clouds 3 1010 83 10000 4.63 230 11:59 02.03.2022
3515 Clouds 2 1010 83 10000 5.14 230 11:25 02.03.2022
3516 Clouds 2 1010 85 10000 3.6 230 10:25 02.03.2022
3517 Clouds 2 1011 84 10000 3.6 240 09:25 02.03.2022
3518 Clouds 1 1019 86 10000 3.6 230 07:52 02.03.2022
3519 Clouds 1 1019 86 8000 3.6 210 06:57 02.03.2022
3520 Clouds 1 1021 86 10000 4.12 220 03:46 02.03.2022
3521 Clouds 0 1014 85 10000 3.6 210 00:39 02.03.2022
3522 Clouds 0 1015 83 10000 5.66 220 22:50 01.03.2022
3523 Clouds 0 1015 83 10000 5.66 220 22:31 01.03.2022
3524 Clouds 1 1015 81 10000 5.66 210 21:25 01.03.2022
3525 Clear 1 1015 81 10000 5.66 220 20:33 01.03.2022
3526 Clear 1 1015 77 10000 4.63 230 19:50 01.03.2022
3527 Clear 1 1015 78 10000 5.14 220 18:51 01.03.2022
3528 Clear 1 1015 80 10000 5.14 210 18:21 01.03.2022
3529 Clear 2 1015 79 10000 5.14 210 17:37 01.03.2022
3530 Clear 3 1015 74 10000 6.69 200 16:35 01.03.2022
3531 Clear 3 1016 74 10000 6.69 200 16:35 01.03.2022
3532 Clear 4 1016 70 10000 6.69 200 15:45 01.03.2022
3533 Clear 4 1016 69 10000 5.66 210 14:41 01.03.2022
3534 Clear 4 1017 70 10000 5.66 210 14:23 01.03.2022
3535 Clear 4 1017 71 10000 5.66 210 13:26 01.03.2022
3536 Clear 4 1017 73 10000 6.17 210 12:35 01.03.2022
3537 Clear 3 1018 78 10000 5.66 210 10:38 01.03.2022
3538 Clear 2 1018 81 10000 5.14 210 09:25 01.03.2022
3539 Clouds 0 1027 86 10000 4.63 210 07:55 01.03.2022
3540 Clouds -2 1027 89 10000 4.12 210 06:27 01.03.2022
3541 Clear -2 1028 88 10000 4.63 200 02:45 01.03.2022
3542 Clear -1 1029 88 10000 3.6 220 00:39 01.03.2022
3543 Clear -1 1029 85 10000 3.6 230 23:35 28.02.2022
3544 Clear -1 1021 87 10000 3.6 220 22:28 28.02.2022
3545 Clear -1 1021 88 10000 3.6 220 21:41 28.02.2022
3546 Clear -1 1021 87 10000 4.63 210 20:32 28.02.2022
3547 Clear -1 1022 85 10000 4.12 210 19:42 28.02.2022
3548 Clear -1 1022 83 10000 4.12 200 18:49 28.02.2022
3549 Clear 0 1010 79 10000 4.12 230 17:33 28.02.2022
3550 Clear 1 1010 79 10000 4.12 230 16:53 28.02.2022
3551 Clear 2 1019 75 10000 3.09 220 15:58 28.02.2022
3552 Clear 4 1020 76 10000 3.6 230 14:32 28.02.2022
3553 Clear 4 1017 75 10000 3.6 230 13:48 28.02.2022
3554 Clear 4 1022 77 10000 3.6 220 12:53 28.02.2022
3555 Clear 3 1022 82 10000 3.6 210 11:59 28.02.2022
3556 Clear 2 1022 79 10000 3.6 240 11:18 28.02.2022
3557 Clear 1 1020 77 10000 2.57 260 10:22 28.02.2022
3558 Clear 0 1022 82 10000 3.09 250 09:41 28.02.2022
3559 Clear -2 1020 84 10000 2.57 220 08:51 28.02.2022
3560 Clear -3 1019 87 10000 3.09 230 07:57 28.02.2022
3561 Clear -3 1021 90 10000 2.68 263 05:52 28.02.2022
3562 Clear -2 1021 89 10000 3.09 220 04:30 28.02.2022
3563 Clear -2 1020 89 10000 3.09 230 04:30 28.02.2022
3564 Clear -2 1020 89 10000 3.09 230 04:30 28.02.2022
3565 Clouds -1 1021 88 10000 3.09 210 00:34 28.02.2022
3566 Clouds 0 1021 87 10000 3.6 210 22:38 27.02.2022
3567 Clouds 0 1021 87 10000 4.12 210 21:55 27.02.2022
3568 Clouds 0 1022 87 10000 4.12 210 21:35 27.02.2022
3569 Clouds 0 1022 87 10000 5.66 210 20:40 27.02.2022
3570 Clouds 0 1022 86 10000 5.66 210 20:18 27.02.2022
3571 Clouds 1 1030 86 10000 6.17 210 19:28 27.02.2022
3572 Clouds 1 1030 86 10000 6.17 210 18:56 27.02.2022
3573 Clouds 1 1031 86 10000 6.17 200 17:57 27.02.2022
3574 Clouds 1 1031 86 10000 6.17 210 17:26 27.02.2022
3575 Clouds 2 1031 84 10000 7.2 210 16:22 27.02.2022
3576 Clouds 3 1032 83 10000 8.75 210 13:49 27.02.2022
3577 Clouds 2 1032 81 10000 8.75 200 12:35 27.02.2022
3578 Clouds 2 1033 80 10000 5.66 190 11:28 27.02.2022
3579 Clear 1 1033 82 10000 7.2 190 10:24 27.02.2022
3580 Clear 0 1033 83 10000 7.2 180 09:51 27.02.2022
3581 Clouds 0 1033 86 10000 6.69 180 09:21 27.02.2022
3582 Clouds -1 1034 84 10000 6.69 180 08:38 27.02.2022
3583 Clear -3 1034 89 10000 3.6 180 05:41 27.02.2022
3584 Clouds -6 1034 89 10000 0.45 155 02:57 27.02.2022
3585 Fog -7 1034 89 10000 1.03 220 23:36 26.02.2022
3586 Fog -6 1033 89 10000 1.03 210 22:34 26.02.2022
3587 Clear -6 1033 89 10000 2.06 290 21:19 26.02.2022
3588 Clear -5 1032 87 10000 1.79 290 20:37 26.02.2022
3589 Clear -4 1032 86 10000 2.24 301 19:54 26.02.2022
3590 Clear -4 1032 86 10000 2.68 296 19:33 26.02.2022
3591 Clear -3 1022 81 10000 3.09 310 17:58 26.02.2022
3592 Clear -2 1030 79 10000 3.6 310 17:30 26.02.2022
3593 Clear -1 1029 75 10000 3.09 320 16:36 26.02.2022
3594 Clouds 0 1028 72 10000 5.36 331 15:27 26.02.2022
3595 Clouds 0 1027 72 10000 5.66 320 14:58 26.02.2022
3596 Clouds 1 1027 72 10000 5.14 320 14:39 26.02.2022
3597 Clouds 1 1026 73 10000 6.17 320 13:46 26.02.2022
3598 Clouds 1 1025 76 10000 5.14 330 12:53 26.02.2022
3599 Clouds 0 1023 80 10000 5.66 320 11:39 26.02.2022
3600 Clouds -1 1014 80 10000 5.66 320 10:59 26.02.2022
3601 Clear -2 1011 82 10000 5.14 310 09:22 26.02.2022
3602 Clear -3 1007 82 10000 5.66 310 07:57 26.02.2022
3603 Clear -2 1011 85 10000 4.12 310 04:22 26.02.2022
3604 Clouds 0 989 82 10000 2.68 298 23:35 25.02.2022
3605 Clouds 1 993 86 10000 5.14 280 22:18 25.02.2022
3606 Clouds 1 992 86 10000 5.14 290 21:29 25.02.2022
3607 Clouds 1 1000 85 10000 5.66 280 20:33 25.02.2022
3608 Clouds 1 998 86 10000 7.2 280 19:53 25.02.2022
3609 Snow 1 986 90 2000 5.66 280 17:48 25.02.2022
3610 Snow 1 984 90 2000 5.14 280 16:47 25.02.2022
3611 Snow 1 982 90 7000 2.57 310 15:49 25.02.2022
3612 Clouds 1 988 88 7000 3.09 10 15:23 25.02.2022
3613 Clouds 1 988 88 7000 3.09 10 15:23 25.02.2022
3614 Snow 1 988 88 5000 3.09 10 14:50 25.02.2022
3615 Snow 1 987 88 6000 2.57 20 14:18 25.02.2022
3616 Snow 1 988 88 10000 3.58 95 13:23 25.02.2022
3617 Snow 1 983 90 600 5.14 130 11:52 25.02.2022
3618 Snow 1 983 90 1200 4.63 120 11:18 25.02.2022
3619 Snow 1 984 90 1700 4.63 130 10:23 25.02.2022
3620 Snow 1 984 90 2500 5.66 160 09:42 25.02.2022
3621 Snow 1 984 90 2500 5.66 160 09:42 25.02.2022
3622 Snow 1 984 90 2500 5.66 160 09:42 25.02.2022
3623 Snow 1 985 90 5000 6.69 160 07:48 25.02.2022
3624 Snow 1 985 90 10000 1.79 170 06:54 25.02.2022
3625 Snow 1 986 89 10000 7.2 170 05:40 25.02.2022
3626 Clouds 2 989 87 10000 8.23 190 01:23 25.02.2022
3627 Rain 3 998 84 10000 10.29 190 22:31 24.02.2022
3628 Clouds 3 998 84 10000 9.77 190 21:43 24.02.2022
3629 Clouds 2 991 87 10000 9.77 200 21:21 24.02.2022
3630 Clouds 2 991 87 10000 9.26 190 20:44 24.02.2022
3631 Clouds 2 991 87 10000 8.75 200 19:31 24.02.2022
3632 Clouds 3 999 85 10000 9.26 210 18:20 24.02.2022
3633 Clouds 3 999 85 10000 9.26 210 17:52 24.02.2022
3634 Clouds 3 991 86 10000 10.8 210 17:19 24.02.2022
3635 Clouds 3 999 84 8000 10.29 210 16:28 24.02.2022
3636 Drizzle 3 1000 86 6000 11.32 210 15:42 24.02.2022
3637 Rain 3 1000 87 4500 10.29 210 14:45 24.02.2022
3638 Clouds 3 1000 86 6000 11.32 210 13:57 24.02.2022
3639 Clouds 3 1000 86 10000 11.83 210 13:35 24.02.2022
3640 Clouds 3 1000 85 10000 10.8 200 11:32 24.02.2022
3641 Clouds 2 1000 83 10000 11.83 190 10:31 24.02.2022
3642 Rain 2 1001 73 10000 10.8 190 08:43 24.02.2022
3643 Clouds 1 1003 75 10000 10.8 190 06:45 24.02.2022
3644 Clouds 1 1005 72 10000 11.32 190 05:40 24.02.2022
3645 Snow -1 1009 88 4000 7.72 180 00:30 24.02.2022
3646 Clouds -2 1009 82 8000 3.09 190 22:19 23.02.2022
3647 Clouds -5 1010 91 10000 3.6 170 20:44 23.02.2022
3648 Clouds -7 1010 89 10000 3.09 130 20:23 23.02.2022
3649 Clouds -8 1011 87 10000 2.57 120 19:35 23.02.2022
3650 Clouds -6 1011 89 10000 2.06 140 18:26 23.02.2022
3651 Clouds -6 1010 88 10000 1.03 0 16:28 23.02.2022
3652 Clear -6 1009 88 10000 1.54 210 13:58 23.02.2022
3653 Clouds -5 1008 87 10000 2.42 247 12:31 23.02.2022
3654 Clouds -7 1007 82 10000 2.07 253 10:58 23.02.2022
3655 Clouds -8 1007 69 10000 1.81 265 09:49 23.02.2022
3656 Clouds -10 1006 66 10000 1.32 281 08:54 23.02.2022
3657 Clouds -11 1005 89 10000 1.09 314 07:55 23.02.2022
3658 Clear -14 982 88 10000 0.51 0 02:58 23.02.2022
3659 Clear -11 1001 88 10000 3.09 300 00:18 23.02.2022
3660 Clear -10 1001 86 10000 3.09 300 23:33 22.02.2022
3661 Clear -9 990 89 10000 3.09 320 22:28 22.02.2022
3662 Clear -8 999 88 10000 3.09 310 21:45 22.02.2022
3663 Clear -8 999 93 10000 2.57 300 21:21 22.02.2022
3664 Clear -7 999 87 10000 4.12 320 20:43 22.02.2022
3665 Clear -7 999 91 10000 4.12 320 20:25 22.02.2022
3666 Clouds -6 998 86 10000 4.63 320 19:34 22.02.2022
3667 Clouds -5 997 86 10000 5.66 330 18:43 22.02.2022
3668 Clouds -4 995 87 10000 5.66 310 17:35 22.02.2022
3669 Clouds -4 995 87 10000 6.17 320 16:58 22.02.2022
3670 Clouds -4 993 88 8000 5.14 330 16:22 22.02.2022
3671 Snow -3 992 87 3000 6.17 330 15:36 22.02.2022
3672 Snow -3 992 87 2000 6.69 330 14:37 22.02.2022
3673 Clouds -3 988 86 10000 6.69 350 11:41 22.02.2022
3674 Clouds -3 987 86 10000 6.69 350 10:22 22.02.2022
3675 Clouds -2 984 86 5000 5.66 350 07:41 22.02.2022
3676 Clouds -2 984 86 6000 6.69 10 07:23 22.02.2022
3677 Snow 0 980 80 1800 5.14 40 02:51 22.02.2022
3678 Snow 0 978 85 1200 9.39 163 23:48 21.02.2022
3679 Snow 0 978 88 1500 6.17 60 22:38 21.02.2022
3680 Snow 0 978 74 1500 7.2 70 21:24 21.02.2022
3681 Snow 0 978 88 1000 9.83 90 19:36 21.02.2022
3682 Snow 0 978 89 600 10.73 89 18:39 21.02.2022
3683 Snow -1 979 88 1100 10.73 88 16:38 21.02.2022
3684 Snow -1 980 89 600 11.18 88 14:24 21.02.2022
3685 Snow -1 981 88 2500 11.18 94 13:55 21.02.2022
3686 Snow 0 982 84 10000 9.83 88 12:57 21.02.2022
3687 Snow 0 982 85 10000 10.28 82 12:21 21.02.2022
3688 Clouds -1 984 83 10000 8.49 92 10:32 21.02.2022
3689 Clouds -1 986 83 10000 4.92 109 07:52 21.02.2022
3690 Clouds -3 971 95 10000 1.54 190 00:36 21.02.2022
3691 Clouds -4 971 97 10000 1.54 170 22:37 20.02.2022
3692 Clouds -4 977 95 10000 0.51 0 21:51 20.02.2022
3693 Clouds -4 977 95 10000 0.45 139 21:25 20.02.2022
3694 Clouds -4 977 88 10000 1.03 210 20:45 20.02.2022
3695 Clouds -4 977 87 10000 1.03 0 19:59 20.02.2022
3696 Clouds -3 977 87 10000 1.03 0 18:57 20.02.2022
3697 Clouds -3 977 87 10000 1.54 320 18:37 20.02.2022
3698 Clouds -2 990 85 10000 1.54 310 17:56 20.02.2022
3699 Clouds -2 990 85 10000 1.54 310 17:24 20.02.2022
3700 Clouds 0 990 84 10000 2.24 282 15:29 20.02.2022
3701 Clouds 0 990 85 10000 2.57 280 14:20 20.02.2022
3702 Clouds 0 990 86 10000 0.89 278 12:49 20.02.2022
3703 Clouds 0 991 87 10000 2.68 277 11:56 20.02.2022
3704 Fog -1 990 85 900 1.79 311 10:21 20.02.2022
3705 Fog -2 990 87 700 1.54 280 09:51 20.02.2022
3706 Clouds -4 982 88 10000 3.09 210 06:30 20.02.2022
3707 Clear -2 989 85 10000 3.6 250 00:33 20.02.2022
3708 Clear -2 989 85 10000 3.6 250 00:33 20.02.2022
3709 Clear -3 989 87 10000 4.63 260 23:39 19.02.2022
3710 Clear -4 980 86 10000 4.12 270 22:24 19.02.2022
3711 Clear -3 988 84 10000 5.14 280 21:50 19.02.2022
3712 Clear -3 986 82 10000 4.63 290 20:41 19.02.2022
3713 Clear -3 977 83 10000 5.14 300 19:36 19.02.2022
3714 Clear -2 984 81 10000 5.66 320 18:41 19.02.2022
3715 Clouds -2 975 83 10000 6.17 310 17:58 19.02.2022
3716 Clouds -1 982 84 10000 7.2 330 17:23 19.02.2022
3717 Clouds 0 980 85 10000 6.69 330 15:59 19.02.2022
3718 Clouds 1 979 87 4500 4.63 340 14:55 19.02.2022
3719 Clouds 1 978 88 9000 5.14 350 13:58 19.02.2022
3720 Snow 1 976 87 10000 3.6 20 11:58 19.02.2022
3721 Snow 1 976 88 3500 3.09 30 11:24 19.02.2022
3722 Clouds 1 976 87 3000 3.58 88 09:00 19.02.2022
3723 Mist 0 977 88 2500 2.68 92 06:48 19.02.2022
3724 Clouds -3 981 86 10000 3.09 200 00:42 19.02.2022
3725 Clouds -3 982 88 10000 3.09 200 22:33 18.02.2022
3726 Clouds -1 982 88 10000 3.09 240 21:26 18.02.2022
3727 Clouds 0 982 86 10000 3.6 240 20:24 18.02.2022
3728 Clouds 0 982 84 10000 4.63 250 19:25 18.02.2022
3729 Clouds 0 982 84 10000 5.66 230 18:29 18.02.2022
3730 Clouds 0 982 85 10000 4.12 230 17:56 18.02.2022
3731 Clouds 0 982 85 10000 5.14 230 17:18 18.02.2022
3732 Clouds 0 981 85 10000 6.69 240 14:19 18.02.2022
3733 Clouds 0 981 85 10000 8.23 240 13:45 18.02.2022
3734 Clouds 0 980 83 10000 6.17 250 12:48 18.02.2022
3735 Clouds 0 980 87 10000 5.66 240 11:57 18.02.2022
3736 Clouds 0 979 90 2500 5.66 240 10:42 18.02.2022
3737 Clouds -1 966 87 10000 7.2 260 07:21 18.02.2022
3738 Clouds -1 964 86 10000 7.2 270 05:52 18.02.2022
3739 Clouds -1 964 85 10000 8.75 280 05:34 18.02.2022
3740 Snow 0 964 87 3500 7.2 290 21:59 17.02.2022
3741 Snow 0 963 88 2500 6.69 290 21:33 17.02.2022
3742 Snow 0 962 88 2500 5.66 290 20:42 17.02.2022
3743 Snow 1 961 88 3000 4.63 300 19:55 17.02.2022
3744 Snow 0 952 89 2000 3.6 320 18:57 17.02.2022
3745 Snow 0 952 89 2000 2.57 330 18:18 17.02.2022
3746 Snow 0 952 89 1800 2.06 340 17:30 17.02.2022
3747 Snow 1 952 89 3000 2.06 50 15:50 17.02.2022
3748 Snow 1 953 90 6000 3.58 116 14:29 17.02.2022
3749 Snow 2 961 87 10000 4.12 130 13:30 17.02.2022
3750 Rain 2 962 87 8000 5.81 117 11:48 17.02.2022
3751 Drizzle 1 955 89 1800 5.81 123 09:58 17.02.2022
3752 Snow 0 959 89 3500 5.14 110 06:44 17.02.2022
3753 Snow 1 981 87 7000 5.36 121 23:23 16.02.2022
3754 Snow 1 983 89 10000 5.14 140 22:28 16.02.2022
3755 Clouds 2 986 86 7000 6.17 190 20:22 16.02.2022
3756 Clouds 2 987 86 8000 7.72 190 18:56 16.02.2022
3757 Clouds 2 987 87 6000 7.72 180 17:56 16.02.2022
3758 Clouds 1 988 90 3500 7.72 170 16:44 16.02.2022
3759 Snow 2 983 89 4000 8.23 150 15:21 16.02.2022
3760 Rain 2 985 88 10000 6.17 140 13:38 16.02.2022
3761 Clouds 2 987 86 10000 6.17 160 12:24 16.02.2022
3762 Rain 2 988 87 10000 7.2 160 11:45 16.02.2022
3763 Rain 2 989 86 10000 4.63 160 10:34 16.02.2022
3764 Clouds 1 989 87 10000 6.17 180 09:34 16.02.2022
3765 Clouds 2 990 86 10000 6.17 200 06:43 16.02.2022
3766 Mist 2 997 88 4000 6.17 190 00:37 16.02.2022
3767 Clouds 2 997 87 4500 8.75 200 22:34 15.02.2022
3768 Snow 2 997 87 4500 8.23 190 21:50 15.02.2022
3769 Clouds 2 997 87 5000 8.75 190 21:29 15.02.2022
3770 Snow 2 998 88 6000 7.2 190 20:57 15.02.2022
3771 Mist 1 998 86 4500 7.72 190 20:19 15.02.2022
3772 Mist 1 998 88 5000 8.23 190 19:33 15.02.2022
3773 Clouds 1 992 88 6000 5.66 180 18:24 15.02.2022
3774 Snow 1 992 89 4000 4.63 170 17:52 15.02.2022
3775 Snow 1 992 89 3000 5.14 170 17:26 15.02.2022
3776 Snow 1 992 89 5000 4.63 160 15:34 15.02.2022
3777 Clouds 2 1001 86 7000 5.14 180 13:29 15.02.2022
3778 Rain 2 1001 87 7000 5.14 180 12:59 15.02.2022
3779 Mist 1 994 90 4500 5.14 170 11:40 15.02.2022
3780 Rain 2 1002 87 10000 6.17 180 09:54 15.02.2022
3781 Clouds 2 1001 86 8000 4.12 200 07:00 15.02.2022
3782 Clouds 2 1001 86 9000 4.63 180 06:19 15.02.2022
3783 Drizzle 2 1000 86 3500 5.66 210 23:34 14.02.2022
3784 Snow 1 999 87 10000 7.2 210 21:55 14.02.2022
3785 Drizzle 1 999 88 8000 5.66 210 20:50 14.02.2022
3786 Snow 1 998 88 8000 7.2 210 19:45 14.02.2022
3787 Snow 1 991 89 8000 7.2 210 19:45 14.02.2022
3788 Snow 1 991 89 5000 5.66 200 19:26 14.02.2022
3789 Snow 1 991 90 3500 5.66 190 18:23 14.02.2022
3790 Snow 0 991 89 2600 7.2 190 17:27 14.02.2022
3791 Snow 0 990 89 1400 6.69 190 16:25 14.02.2022
3792 Drizzle 1 991 88 4500 6.17 190 14:42 14.02.2022
3793 Snow 2 991 88 7000 6.17 200 13:34 14.02.2022
3794 Clouds 1 991 90 6000 5.66 190 12:56 14.02.2022
3795 Mist 2 991 89 3500 7.2 210 11:55 14.02.2022
3796 Mist 2 991 89 3000 6.69 210 11:18 14.02.2022
3797 Clouds 1 991 90 7000 5.66 190 09:19 14.02.2022
3798 Snow 1 991 88 4500 2.24 226 07:33 14.02.2022
3799 Snow 1 991 88 4500 6.17 210 07:33 14.02.2022
3800 Drizzle 1 991 89 5000 7.2 210 06:32 14.02.2022
3801 Clouds 2 999 87 9000 7.2 210 22:43 13.02.2022
3802 Clouds 2 999 87 10000 6.69 210 22:25 13.02.2022
3803 Clouds 2 999 87 6000 7.2 220 21:36 13.02.2022
3804 Clouds 1 991 90 6000 7.2 220 20:42 13.02.2022
3805 Clouds 2 999 89 9000 7.2 210 19:51 13.02.2022
3806 Clouds 1 999 86 7000 7.72 210 18:56 13.02.2022
3807 Snow 1 999 87 8000 7.72 200 18:38 13.02.2022
3808 Rain 1 1000 87 7000 8.75 210 16:39 13.02.2022
3809 Snow 1 1000 87 7000 11.32 210 15:42 13.02.2022
3810 Snow 1 1001 87 6000 10.29 210 14:37 13.02.2022
3811 Snow 1 1002 88 3000 10.29 200 12:52 13.02.2022
3812 Snow 1 1002 86 5000 11.32 210 12:33 13.02.2022
3813 Clouds 1 1003 85 10000 8.75 200 10:38 13.02.2022
3814 Clouds 1 1004 85 10000 9.26 200 09:49 13.02.2022
3815 Clouds 1 1005 83 8000 8.75 210 07:54 13.02.2022
3816 Clouds 2 1009 83 10000 4.63 220 00:49 13.02.2022
3817 Clouds 2 1009 84 10000 4.63 230 00:20 13.02.2022
3818 Clouds 2 1009 83 10000 5.14 240 22:34 12.02.2022
3819 Clouds 1 1009 84 10000 4.63 240 21:40 12.02.2022
3820 Clouds 1 1009 84 10000 4.12 230 20:52 12.02.2022
3821 Clear 0 1009 85 10000 4.63 230 19:48 12.02.2022
3822 Clear 0 1008 84 10000 5.66 230 18:53 12.02.2022
3823 Clear 0 1008 84 10000 5.66 240 18:35 12.02.2022
3824 Clear 0 1008 84 10000 5.66 230 17:37 12.02.2022
3825 Clear 0 1008 80 10000 5.14 240 16:43 12.02.2022
3826 Clear 0 1008 79 10000 5.14 240 15:52 12.02.2022
3827 Clear 1 1008 77 10000 6.69 250 14:55 12.02.2022
3828 Clear 1 1008 74 10000 7.2 250 14:25 12.02.2022
3829 Clear 1 1008 74 10000 7.2 250 14:25 12.02.2022
3830 Clear -1 1008 78 10000 5.66 240 11:20 12.02.2022
3831 Clear -2 1009 80 10000 4.63 250 10:28 12.02.2022
3832 Clear -3 1009 82 10000 3.6 240 09:33 12.02.2022
3833 Clear -3 1008 79 10000 4.63 230 08:46 12.02.2022
3834 Clear -3 1009 80 10000 5.14 220 06:46 12.02.2022
3835 Clear -6 1010 87 10000 4.12 210 04:38 12.02.2022
3836 Clear -6 1010 87 10000 3.09 230 02:19 12.02.2022
3837 Clouds -4 1010 84 10000 5.14 270 23:20 11.02.2022
3838 Clouds -4 1001 84 10000 4.63 260 22:20 11.02.2022
3839 Clouds -4 1000 84 10000 4.12 280 21:18 11.02.2022
3840 Clear -4 999 84 10000 5.66 280 20:26 11.02.2022
3841 Clear -3 999 83 10000 4.63 280 19:28 11.02.2022
3842 Clear -3 998 83 10000 5.14 280 18:29 11.02.2022
3843 Clouds -2 1006 80 10000 4.12 290 17:26 11.02.2022
3844 Clouds -1 1005 79 10000 4.63 280 16:37 11.02.2022
3845 Clouds 0 1006 78 10000 5.66 280 15:18 11.02.2022
3846 Clouds 0 1006 79 10000 4.12 290 14:37 11.02.2022
3847 Clouds 0 1006 79 10000 4.12 290 14:19 11.02.2022
3848 Clouds 0 1005 79 10000 5.14 280 13:40 11.02.2022
3849 Clouds 0 1005 81 10000 4.63 280 12:37 11.02.2022
3850 Clouds -2 1002 80 10000 4.12 280 10:49 11.02.2022
3851 Clouds -3 991 83 10000 3.13 278 09:31 11.02.2022
3852 Clear -5 992 85 10000 4.12 230 08:31 11.02.2022
3853 Clear -5 992 86 10000 3.09 230 07:40 11.02.2022
3854 Clear -3 992 86 10000 3.09 250 02:40 11.02.2022
3855 Clear -2 992 86 10000 3.13 260 02:20 11.02.2022
3856 Clear -2 992 86 10000 3.6 240 23:41 10.02.2022
3857 Clear -1 991 84 10000 3.6 240 21:55 10.02.2022
3858 Clear -1 991 85 10000 4.12 240 21:35 10.02.2022
3859 Clear -1 991 85 10000 3.6 240 20:48 10.02.2022
3860 Clear -1 991 84 10000 5.66 220 19:49 10.02.2022
3861 Clear -1 991 84 10000 5.14 220 19:20 10.02.2022
3862 Clear 0 991 83 10000 4.12 230 17:43 10.02.2022
3863 Clouds 0 998 81 10000 4.12 230 17:20 10.02.2022
3864 Clouds 1 997 80 10000 4.63 240 16:23 10.02.2022
3865 Clouds 2 997 80 10000 4.63 240 15:34 10.02.2022
3866 Clouds 2 997 80 10000 5.14 240 14:49 10.02.2022
3867 Clouds 2 997 79 10000 5.66 240 14:30 10.02.2022
3868 Clouds 2 997 80 10000 6.69 250 13:33 10.02.2022
3869 Clouds 2 997 80 10000 5.66 250 13:33 10.02.2022
3870 Clouds 2 997 81 10000 5.66 240 12:51 10.02.2022
3871 Clouds 1 997 84 10000 5.14 230 11:44 10.02.2022
3872 Clouds 1 997 83 10000 4.63 230 11:25 10.02.2022
3873 Clouds 1 997 83 10000 5.66 220 10:21 10.02.2022
3874 Clear -1 990 86 10000 4.63 210 09:27 10.02.2022
3875 Clear -2 988 87 10000 4.63 210 07:57 10.02.2022
3876 Clear -2 988 86 10000 3.6 210 05:53 10.02.2022
3877 Clouds 0 989 89 10000 5.14 260 01:58 10.02.2022
3878 Clouds 1 995 88 10000 3.6 270 00:51 10.02.2022
3879 Clouds 1 995 88 10000 4.63 270 00:29 10.02.2022
3880 Clouds 1 994 87 10000 4.63 270 23:28 09.02.2022
3881 Clouds 1 994 88 10000 4.12 250 22:38 09.02.2022
3882 Clouds 1 994 88 10000 4.12 250 21:56 09.02.2022
3883 Clouds 1 993 88 10000 4.63 230 21:32 09.02.2022
3884 Clouds 1 994 87 10000 2.68 262 20:53 09.02.2022
3885 Clouds 1 994 88 10000 5.14 210 20:31 09.02.2022
3886 Snow 1 994 89 10000 5.14 210 19:59 09.02.2022
3887 Snow 1 994 89 10000 5.14 210 19:38 09.02.2022
3888 Drizzle 1 996 90 10000 7.2 210 17:39 09.02.2022
3889 Snow 1 997 88 10000 6.69 210 16:53 09.02.2022
3890 Clouds 2 998 87 10000 5.81 259 15:52 09.02.2022
3891 Clouds 1 999 87 10000 6.17 220 14:42 09.02.2022
3892 Clouds 1 1000 86 10000 5.81 264 12:30 09.02.2022
3893 Rain 0 995 87 10000 3.6 190 10:55 09.02.2022
3894 Snow -1 995 87 10000 3.6 200 10:30 09.02.2022
3895 Clear -2 994 86 10000 2.06 200 09:40 09.02.2022
3896 Clear -3 995 88 10000 2.06 220 09:19 09.02.2022
3897 Fog -4 993 90 10000 3.6 220 07:55 09.02.2022
3898 Clear -4 990 90 10000 3.6 240 05:30 09.02.2022
3899 Clear -4 990 90 10000 3.6 240 05:30 09.02.2022
3900 Fog -3 992 90 10000 4.12 220 03:50 09.02.2022
3901 Clouds -1 999 87 10000 3.09 270 00:53 09.02.2022
3902 Clouds 0 998 87 10000 4.12 280 23:33 08.02.2022
3903 Clouds 1 997 87 10000 4.63 280 22:47 08.02.2022
3904 Clouds 1 997 86 10000 4.63 290 22:21 08.02.2022
3905 Clouds 0 996 89 10000 3.6 280 21:49 08.02.2022
3906 Clouds 0 996 89 8000 3.09 260 21:21 08.02.2022
3907 Mist 0 995 89 4500 2.57 230 20:44 08.02.2022
3908 Clouds 0 994 89 4500 4.12 190 19:46 08.02.2022
3909 Clouds 0 994 89 6000 4.12 170 18:48 08.02.2022
3910 Snow 0 994 89 3000 5.14 160 17:43 08.02.2022
3911 Snow 0 994 88 1300 5.14 150 16:30 08.02.2022
3912 Snow 0 995 90 1300 5.66 150 15:30 08.02.2022
3913 Snow 0 996 89 2500 4.63 150 14:38 08.02.2022
3914 Snow 0 990 89 10000 5.66 160 13:24 08.02.2022
3915 Clouds 0 990 88 10000 3.09 130 11:38 08.02.2022
3916 Clouds -1 992 87 10000 3.09 190 10:23 08.02.2022
3917 Clouds -2 992 88 10000 2.57 200 09:45 08.02.2022
3918 Clouds -3 1002 86 10000 3.09 260 07:53 08.02.2022
3919 Clouds -3 986 94 10000 5.14 260 05:41 08.02.2022
3920 Clouds -2 987 93 10000 4.12 270 04:39 08.02.2022
3921 Clouds -2 991 86 10000 5.14 270 04:21 08.02.2022
3922 Clouds -1 1001 85 10000 4.12 280 03:36 08.02.2022
3923 Clouds -1 992 89 10000 4.12 290 03:18 08.02.2022
3924 Clouds 0 1000 86 10000 4.12 290 02:58 08.02.2022
3925 Clouds -1 1000 87 10000 3.09 280 02:36 08.02.2022
3926 Clouds 0 1000 87 10000 3.6 280 02:18 08.02.2022
3927 Clouds 0 999 87 10000 3.09 300 01:44 08.02.2022
3928 Clouds 0 999 87 10000 3.09 300 01:24 08.02.2022
3929 Clouds 0 999 85 10000 1.79 307 00:54 08.02.2022
3930 Clouds 0 998 84 10000 4.12 300 23:54 07.02.2022
3931 Clouds 0 998 85 10000 3.6 300 23:36 07.02.2022
3932 Clouds 0 998 84 10000 3.6 300 23:18 07.02.2022
3933 Clouds 0 997 85 8000 3.6 290 22:19 07.02.2022
3934 Clouds 0 997 83 10000 4.63 320 21:55 07.02.2022
3935 Clouds 0 987 86 10000 3.09 310 21:29 07.02.2022
3936 Clouds 0 987 87 10000 2.68 330 20:56 07.02.2022
3937 Clouds 0 987 87 10000 2.57 310 20:38 07.02.2022
3938 Clouds 0 986 87 10000 2.57 310 19:49 07.02.2022
3939 Clouds 0 995 85 10000 3.13 293 19:31 07.02.2022
3940 Clouds 0 981 87 10000 2.06 300 17:52 07.02.2022
3941 Clouds 0 980 86 10000 2.06 310 16:52 07.02.2022
3942 Clouds 0 980 93 10000 2.06 310 15:49 07.02.2022
3943 Clouds 1 982 86 10000 2.06 330 14:48 07.02.2022
3944 Clouds 1 981 87 10000 1.03 0 13:28 07.02.2022
3945 Clouds 1 980 86 10000 0.45 1 12:38 07.02.2022
3946 Clouds 1 980 86 10000 0.89 2 11:55 07.02.2022
3947 Clouds 1 980 87 10000 1.34 348 11:33 07.02.2022
3948 Clouds 1 979 87 10000 1.34 338 10:47 07.02.2022
3949 Clouds 1 979 88 10000 0.89 316 10:28 07.02.2022
3950 Clouds 0 979 87 10000 0.89 333 09:52 07.02.2022
3951 Clouds 1 987 87 10000 0.89 340 09:18 07.02.2022
3952 Clouds 0 986 88 10000 1.54 200 08:20 07.02.2022
3953 Clouds 0 984 81 7000 0.89 161 06:35 07.02.2022
3954 Mist 0 984 76 2800 0.89 194 05:47 07.02.2022
3955 Clouds 1 982 83 10000 2.24 187 02:56 07.02.2022
3956 Clouds 1 984 88 10000 3.13 189 00:42 07.02.2022
3957 Clouds 1 984 88 10000 1.79 193 23:42 06.02.2022
3958 Clouds 1 983 88 10000 1.79 192 22:47 06.02.2022
3959 Clouds 1 983 88 10000 3.58 203 21:51 06.02.2022
3960 Clouds 1 983 88 10000 2.68 201 21:26 06.02.2022
3961 Clouds 1 983 88 10000 2.68 207 20:52 06.02.2022
3962 Clouds 1 983 89 10000 2.68 216 20:24 06.02.2022
3963 Clouds 1 983 90 10000 3.58 195 19:32 06.02.2022
3964 Clouds 1 983 90 10000 2.68 220 18:38 06.02.2022
3965 Clouds 1 983 88 10000 3.13 202 17:54 06.02.2022
3966 Clouds 1 982 90 9000 2.68 186 16:53 06.02.2022
3967 Clouds 1 983 90 9000 3.58 211 16:32 06.02.2022
3968 Clouds 1 982 90 10000 2.68 185 15:47 06.02.2022
3969 Clouds 1 983 88 8000 3.58 197 15:26 06.02.2022
3970 Clouds 1 983 87 4000 4.92 191 14:27 06.02.2022
3971 Clouds 1 983 88 2600 4.47 195 13:24 06.02.2022
3972 Snow 1 982 87 1500 4.47 182 12:45 06.02.2022
3973 Snow 1 983 88 1900 3.13 160 11:19 06.02.2022
3974 Snow 0 985 88 2200 1.79 164 09:48 06.02.2022
3975 Snow 1 986 87 10000 1.34 183 08:46 06.02.2022
3976 Clouds 1 987 86 10000 4.47 182 07:36 06.02.2022
3977 Clouds 0 989 86 8000 3.13 206 05:29 06.02.2022
3978 Clouds -6 979 85 10000 2.06 160 02:26 06.02.2022
3979 Clouds -5 973 87 10000 3.6 180 00:51 06.02.2022
3980 Clouds -5 973 83 10000 2.57 160 00:24 06.02.2022
3981 Clouds -5 973 95 10000 4.63 220 22:18 05.02.2022
3982 Clouds -4 973 94 10000 4.12 220 20:48 05.02.2022
3983 Clouds -4 973 94 10000 3.09 220 20:23 05.02.2022
3984 Clouds -4 973 94 10000 4.12 230 19:44 05.02.2022
3985 Clouds 0 991 84 10000 0.89 225 18:48 05.02.2022
3986 Clouds 0 990 84 10000 1.34 217 17:37 05.02.2022
3987 Clouds 0 990 87 10000 1.34 225 16:33 05.02.2022
3988 Drizzle 0 989 87 3500 0.89 216 15:31 05.02.2022
3989 Snow 0 989 87 1800 1.79 223 13:58 05.02.2022
3990 Clouds 0 989 88 1000 3.58 211 12:46 05.02.2022
3991 Snow 0 989 88 900 2.24 181 11:47 05.02.2022
3992 Clouds 0 989 87 1400 2.68 184 10:44 05.02.2022
3993 Snow 0 989 87 1200 1.79 171 09:51 05.02.2022
3994 Snow -1 990 87 900 2.24 171 09:23 05.02.2022
3995 Snow -1 990 89 1200 1.34 188 07:32 05.02.2022
3996 Snow -1 991 88 1500 2.24 169 06:55 05.02.2022
3997 Snow -2 994 88 2000 3.13 176 02:43 05.02.2022
3998 Snow -2 994 88 1500 2.24 176 01:18 05.02.2022
3999 Snow -2 995 86 4000 4.47 187 00:36 05.02.2022
4000 Clouds -2 997 87 10000 2.68 174 23:33 04.02.2022
4001 Clouds -2 997 87 8000 3.13 180 22:50 04.02.2022
4002 Clouds -3 998 87 6000 1.79 179 21:36 04.02.2022
4003 Clouds -3 998 87 10000 2.68 185 21:18 04.02.2022
4004 Clouds -3 999 87 5000 1.79 186 20:37 04.02.2022
4005 Snow -3 1000 89 1400 1.34 206 19:19 04.02.2022
4006 Snow -3 1002 88 2000 0.89 231 16:50 04.02.2022
4007 Clouds -3 1004 83 10000 1.79 163 15:33 04.02.2022
4008 Clouds -3 1004 84 10000 1.79 184 14:47 04.02.2022
4009 Clouds -3 1006 88 10000 1.79 199 12:43 04.02.2022
4010 Clouds -3 1008 85 10000 2.68 176 11:45 04.02.2022
4011 Clouds -3 1009 87 10000 2.68 175 10:56 04.02.2022
4012 Clouds -4 1009 87 10000 4.02 184 10:22 04.02.2022
4013 Clouds -4 1009 87 10000 3.13 185 08:30 04.02.2022
4014 Clouds -7 1011 86 10000 2.68 55 03:47 04.02.2022
4015 Clouds -8 1011 87 10000 2.68 58 02:36 04.02.2022
4016 Fog -10 1011 85 700 1.79 61 23:40 03.02.2022
4017 Mist -10 1011 85 1400 2.24 80 22:51 03.02.2022
4018 Mist -10 1011 86 3000 1.79 57 21:52 03.02.2022
4019 Mist -10 1011 86 4000 2.68 69 21:29 03.02.2022
4020 Clouds -11 1011 92 7000 2.68 74 20:22 03.02.2022
4021 Clouds -10 1011 92 7000 2.24 78 20:22 03.02.2022
4022 Clouds -11 1011 92 8000 2.68 82 19:42 03.02.2022
4023 Clouds -11 1012 87 10000 4.02 2 18:56 03.02.2022
4024 Clouds -10 1012 82 10000 4.47 5 17:59 03.02.2022
4025 Fog -10 1011 87 10000 4.47 3 16:55 03.02.2022
4026 Clouds -9 1011 87 10000 1.79 351 15:28 03.02.2022
4027 Clouds -7 1011 85 10000 3.13 7 13:50 03.02.2022
4028 Clouds -7 1010 87 10000 3.13 298 12:22 03.02.2022
4029 Clouds -10 1009 85 10000 0.89 331 08:56 03.02.2022
4030 Clouds -10 1001 87 8000 1.34 316 07:41 03.02.2022
4031 Clouds -10 1006 85 10000 1.34 327 00:47 03.02.2022
4032 Clouds -10 1006 85 10000 0.89 330 00:22 03.02.2022
4033 Clouds -10 1005 85 10000 1.34 335 22:38 02.02.2022
4034 Clouds -10 1005 84 10000 1.34 312 21:46 02.02.2022
4035 Clouds -10 1004 83 10000 0.89 306 21:28 02.02.2022
4036 Clouds -10 1004 85 10000 0.89 337 20:24 02.02.2022
4037 Clear -9 1004 86 10000 1.79 338 19:46 02.02.2022
4038 Clear -9 1003 86 10000 1.34 310 18:56 02.02.2022
4039 Clear -9 1003 85 10000 1.34 329 18:24 02.02.2022
4040 Clear -8 1003 87 10000 0.45 307 17:20 02.02.2022
4041 Clouds -8 1002 87 10000 0.89 308 16:56 02.02.2022
4042 Clouds -7 1001 87 10000 1.79 333 15:23 02.02.2022
4043 Clouds -7 992 87 10000 0.89 346 12:30 02.02.2022
4044 Clouds -8 992 87 10000 2.24 359 11:48 02.02.2022
4045 Clouds -8 992 87 10000 2.06 330 11:30 02.02.2022
4046 Clouds -8 992 87 10000 2.06 330 11:30 02.02.2022
4047 Clouds -9 997 86 10000 0.89 351 08:29 02.02.2022
4048 Clouds -9 987 87 10000 1.79 343 01:46 02.02.2022
4049 Clouds -9 986 86 10000 0.89 301 22:29 01.02.2022
4050 Clouds -9 986 88 10000 0.89 328 20:50 01.02.2022
4051 Clear -9 986 88 10000 0.89 307 18:55 01.02.2022
4052 Clouds -8 986 88 10000 0.89 339 16:56 01.02.2022
4053 Clouds -8 986 89 10000 1.34 338 16:19 01.02.2022
4054 Clouds -7 987 89 10000 1.79 334 12:57 01.02.2022
4055 Clouds -7 987 89 10000 1.34 346 11:57 01.02.2022
4056 Clouds -8 989 87 10000 1.34 342 08:51 01.02.2022
4057 Clouds -7 989 86 10000 2.68 331 02:20 01.02.2022
4058 Clouds -7 991 88 10000 2.24 348 23:37 31.01.2022
4059 Clouds -6 991 87 10000 1.79 321 22:33 31.01.2022
4060 Snow -6 992 87 10000 1.79 326 21:34 31.01.2022
4061 Clouds -6 991 88 10000 2.24 325 20:34 31.01.2022
4062 Clouds -6 997 87 10000 2.68 327 19:52 31.01.2022
4063 Clouds -6 997 88 5000 3.13 329 18:31 31.01.2022
4064 Clouds -6 997 88 4000 2.24 323 17:55 31.01.2022
4065 Snow -5 991 88 4000 2.24 331 16:58 31.01.2022
4066 Snow -5 997 87 3000 3.13 333 16:20 31.01.2022
4067 Snow -5 990 87 3000 2.68 333 14:50 31.01.2022
4068 Snow -5 989 88 2500 3.13 333 13:29 31.01.2022
4069 Snow -5 989 89 5000 3.58 335 12:37 31.01.2022
4070 Snow -5 989 92 4000 2.68 336 10:59 31.01.2022
4071 Clouds -6 989 92 7000 2.68 338 10:38 31.01.2022
4072 Clouds -6 988 87 7000 3.13 332 09:36 31.01.2022
4073 Clouds -6 987 86 6000 3.13 332 08:54 31.01.2022
4074 Clouds -6 987 87 6000 3.13 334 08:20 31.01.2022
4075 Snow -6 993 84 10000 3.58 340 07:29 31.01.2022
4076 Snow -6 986 88 2700 4.47 343 05:24 31.01.2022
4077 Snow -4 992 87 2600 3.58 335 23:37 30.01.2022
4078 Snow -4 992 86 4500 3.58 345 22:31 30.01.2022
4079 Snow -4 991 86 6000 3.13 341 21:44 30.01.2022
4080 Snow -4 991 87 4500 4.47 342 21:24 30.01.2022
4081 Clouds -4 990 87 4500 3.13 336 20:51 30.01.2022
4082 Clouds -4 990 87 7000 4.02 345 20:30 30.01.2022
4083 Snow -4 990 87 4500 3.58 346 19:54 30.01.2022
4084 Snow -3 989 87 1400 3.58 338 18:51 30.01.2022
4085 Snow -3 988 94 1400 4.47 338 18:21 30.01.2022
4086 Snow -3 987 94 4000 3.13 341 17:30 30.01.2022
4087 Clouds -3 986 95 2000 2.68 344 16:42 30.01.2022
4088 Clouds -3 986 94 2000 3.13 339 16:22 30.01.2022
4089 Clouds -3 986 94 2000 3.13 339 16:22 30.01.2022
4090 Clouds -3 985 94 2500 1.34 345 15:54 30.01.2022
4091 Snow -3 985 94 2500 1.34 345 15:54 30.01.2022
4092 Clouds -3 985 94 2800 2.24 348 15:32 30.01.2022
4093 Clouds -3 984 94 3500 2.68 354 14:47 30.01.2022
4094 Snow -2 982 94 1800 1.79 343 13:37 30.01.2022
4095 Clouds -2 980 96 1800 2.24 349 12:41 30.01.2022
4096 Clouds -1 977 88 10000 1.34 2 10:38 30.01.2022
4097 Clouds -1 976 88 10000 1.79 82 09:57 30.01.2022
4098 Clouds -1 974 89 9000 1.79 64 09:21 30.01.2022
4099 Snow -1 971 87 4000 1.79 355 07:57 30.01.2022
4100 Clouds 0 967 88 1500 1.79 128 02:44 30.01.2022
4101 Clouds 0 968 91 1500 2.68 134 01:52 30.01.2022
4102 Snow -1 970 89 800 1.79 154 23:45 29.01.2022
4103 Snow -1 973 89 400 1.79 179 22:37 29.01.2022
4104 Snow -1 975 89 600 1.34 191 21:27 29.01.2022
4105 Snow -1 976 89 1100 1.79 231 20:50 29.01.2022
4106 Snow -1 978 90 800 1.79 213 19:47 29.01.2022
4107 Snow -1 980 89 1000 1.79 214 19:29 29.01.2022
4108 Snow 0 982 90 800 2.24 195 18:39 29.01.2022
4109 Snow 0 985 90 1100 1.79 204 17:42 29.01.2022
4110 Snow 0 987 89 1200 2.68 196 16:42 29.01.2022
4111 Snow 0 990 89 1600 4.47 185 14:52 29.01.2022
4112 Clouds 0 993 86 4500 5.36 194 13:46 29.01.2022
4113 Clouds 0 993 86 4500 3.13 190 13:26 29.01.2022
4114 Clouds 0 996 85 10000 4.02 199 12:42 29.01.2022
4115 Clouds 0 998 82 10000 4.47 202 11:38 29.01.2022
4116 Clear -1 1000 81 10000 4.92 207 10:25 29.01.2022
4117 Clear -6 1005 85 10000 1.79 216 07:24 29.01.2022
4118 Clear -6 1000 87 10000 0.89 324 01:35 29.01.2022
4119 Clouds -5 998 87 10000 0.45 324 00:31 29.01.2022
4120 Clouds -5 998 87 10000 0.45 324 00:31 29.01.2022
4121 Clouds -4 993 83 10000 0.89 324 23:22 28.01.2022
4122 Clouds -3 993 82 10000 0.45 324 22:42 28.01.2022
4123 Clouds -2 1006 79 10000 3.58 317 22:18 28.01.2022
4124 Clouds -2 1007 87 10000 2.24 304 20:40 28.01.2022
4125 Clouds -2 1006 86 10000 2.24 315 19:51 28.01.2022
4126 Clouds -2 1006 86 10000 3.13 318 18:49 28.01.2022
4127 Clouds -2 1005 85 10000 3.13 316 17:45 28.01.2022
4128 Clouds -1 1003 85 10000 5.81 316 15:45 28.01.2022
4129 Clouds -1 1002 86 8000 6.26 333 14:18 28.01.2022
4130 Clouds 0 1000 86 8000 6.26 353 12:33 28.01.2022
4131 Clouds 0 999 86 2000 7.6 345 11:38 28.01.2022
4132 Clouds 0 998 86 10000 8.49 310 10:21 28.01.2022
4133 Clouds 0 997 87 10000 10.28 328 09:44 28.01.2022
4134 Clouds 0 994 88 3000 10.73 325 07:39 28.01.2022
4135 Snow 0 992 88 5000 2.24 350 05:24 28.01.2022
4136 Snow 0 991 88 6000 8.49 75 03:47 28.01.2022
4137 Snow 0 990 88 3000 1.34 311 02:23 28.01.2022
4138 Snow 0 989 88 6000 0.89 18 01:34 28.01.2022
4139 Clouds 0 988 88 4000 0.89 25 23:33 27.01.2022
4140 Clouds 0 988 88 4000 0.45 63 21:50 27.01.2022
4141 Clouds 0 988 88 4000 0.45 116 21:30 27.01.2022
4142 Clouds 0 988 88 4000 0.45 116 21:30 27.01.2022
4143 Snow 0 988 88 3500 0.89 137 20:53 27.01.2022
4144 Snow 0 988 88 2500 1.79 143 19:30 27.01.2022
4145 Mist 0 988 87 2500 1.79 133 17:56 27.01.2022
4146 Snow 1 990 88 4000 1.34 147 15:30 27.01.2022
4147 Mist 1 991 89 4000 0.89 187 13:37 27.01.2022
4148 Rain 1 992 89 4000 0.45 199 12:46 27.01.2022
4149 Clouds 1 994 89 10000 1.79 189 10:46 27.01.2022
4150 Clouds 1 995 88 10000 1.79 196 08:57 27.01.2022
4151 Clouds 1 994 88 10000 3.13 188 08:34 27.01.2022
4152 Clouds 0 997 88 7000 1.34 183 05:59 27.01.2022
4153 Mist 1 999 89 4500 0.89 294 02:43 27.01.2022
4154 Mist 1 1000 89 4500 1.79 202 23:32 26.01.2022
4155 Clouds 1 1000 87 2500 2.24 199 21:59 26.01.2022
4156 Clouds 1 1001 87 2800 2.24 196 21:35 26.01.2022
4157 Clouds 1 1001 87 3500 3.13 217 20:36 26.01.2022
4158 Clouds 1 1001 87 3500 3.13 217 20:36 26.01.2022
4159 Clouds 1 1001 88 2800 1.79 203 19:59 26.01.2022
4160 Clouds 1 1001 87 2800 4.02 214 19:20 26.01.2022
4161 Drizzle 0 1002 88 2700 3.58 202 18:45 26.01.2022
4162 Clouds 0 1002 88 3000 3.13 191 17:50 26.01.2022
4163 Clouds 0 1003 88 2700 4.02 194 17:22 26.01.2022
4164 Snow 0 1003 87 1600 4.47 192 16:31 26.01.2022
4165 Snow 0 1004 89 1400 3.13 192 15:49 26.01.2022
4166 Snow 0 1006 85 10000 4.47 186 13:58 26.01.2022
4167 Clouds 0 1009 84 10000 2.68 191 11:48 26.01.2022
4168 Clouds -1 1010 86 10000 3.58 212 10:27 26.01.2022
4169 Clouds -1 1011 85 10000 3.13 199 09:45 26.01.2022
4170 Clouds -4 1012 88 10000 0.89 202 07:37 26.01.2022
4171 Clear -7 1017 94 10000 0.45 255 01:53 26.01.2022
4172 Clear -6 1017 87 10000 0.89 294 23:56 25.01.2022
4173 Clear -6 1018 86 10000 0.45 294 22:56 25.01.2022
4174 Clear -5 1018 86 10000 0.45 307 22:21 25.01.2022
4175 Clear -5 1018 86 10000 0.89 310 21:52 25.01.2022
4176 Clear -5 1018 86 10000 1.34 300 20:46 25.01.2022
4177 Clear -4 1018 86 10000 0.89 274 20:22 25.01.2022
4178 Clear -4 1018 91 10000 1.34 264 19:46 25.01.2022
4179 Clear -4 1019 86 10000 0.89 285 18:24 25.01.2022
4180 Clear -4 1018 86 10000 1.34 258 17:42 25.01.2022
4181 Clear -2 1018 87 10000 0.45 317 16:35 25.01.2022
4182 Clear -2 1017 84 10000 0.89 313 15:47 25.01.2022
4183 Clear -1 1017 83 10000 0.89 325 15:28 25.01.2022
4184 Clear -1 1017 78 10000 2.24 329 14:57 25.01.2022
4185 Clouds 0 1016 76 10000 2.68 323 13:28 25.01.2022
4186 Clear 0 1015 79 10000 3.58 322 10:39 25.01.2022
4187 Clear -1 1014 83 10000 3.13 307 08:34 25.01.2022
4188 Clear -1 1014 84 10000 2.24 303 07:28 25.01.2022
4189 Clear 0 1004 86 10000 2.24 309 06:29 25.01.2022
4190 Clear 0 1004 86 10000 0.45 325 04:22 25.01.2022
4191 Clouds 1 1004 88 10000 0.89 273 23:37 24.01.2022
4192 Clouds 1 1004 88 10000 0.45 320 23:18 24.01.2022
4193 Clouds 2 1004 87 10000 0.45 320 22:59 24.01.2022
4194 Clouds 2 1004 87 10000 1.34 319 22:41 24.01.2022
4195 Clouds 2 1012 85 10000 1.79 302 21:49 24.01.2022
4196 Clouds 2 1012 86 10000 2.68 301 21:27 24.01.2022
4197 Clouds 2 1012 86 10000 2.24 309 20:29 24.01.2022
4198 Clouds 2 1012 86 10000 1.79 254 19:39 24.01.2022
4199 Clouds 2 1012 86 10000 1.34 290 19:19 24.01.2022
4200 Drizzle 2 1013 87 9000 1.79 236 17:45 24.01.2022
4201 Drizzle 2 1013 87 10000 1.79 242 17:23 24.01.2022
4202 Clouds 2 1013 87 10000 2.68 244 16:33 24.01.2022
4203 Clouds 2 1013 87 10000 2.24 230 15:52 24.01.2022
4204 Drizzle 2 1013 89 4800 3.58 233 14:27 24.01.2022
4205 Drizzle 2 1015 87 10000 2.68 235 12:36 24.01.2022
4206 Drizzle 2 1015 87 6000 3.13 242 11:53 24.01.2022
4207 Drizzle 2 1015 87 4800 4.02 229 10:25 24.01.2022
4208 Drizzle 2 1016 88 5000 4.02 228 09:47 24.01.2022
4209 Drizzle 2 1017 88 5000 4.92 207 08:19 24.01.2022
4210 Mist 1 1020 89 3000 3.13 223 02:33 24.01.2022
4211 Mist 1 1021 89 1500 2.24 219 01:28 24.01.2022
4212 Mist 1 1021 89 1100 3.58 215 00:34 24.01.2022
4213 Mist 1 1021 89 2500 3.58 215 23:47 23.01.2022
4214 Mist 1 1021 89 2500 2.24 211 23:47 23.01.2022
4215 Mist 1 1022 89 3000 2.68 237 22:21 23.01.2022
4216 Mist 1 1022 89 2000 1.34 230 21:42 23.01.2022
4217 Mist 1 1022 89 1300 2.24 229 21:24 23.01.2022
4218 Mist 1 1022 89 1500 2.68 228 20:29 23.01.2022
4219 Mist 1 1022 89 2500 2.24 256 19:21 23.01.2022
4220 Mist 1 1022 89 2500 1.79 224 18:44 23.01.2022
4221 Mist 1 1022 89 2500 1.79 231 17:27 23.01.2022
4222 Mist 1 1022 87 3500 1.34 239 16:27 23.01.2022
4223 Mist 1 1021 88 4000 1.79 226 14:54 23.01.2022
4224 Mist 0 1021 88 1800 2.24 234 14:19 23.01.2022
4225 Clouds 0 1021 90 7000 3.13 227 12:47 23.01.2022
4226 Clouds 0 1021 90 8000 2.68 211 12:21 23.01.2022
4227 Clouds -1 1022 90 3500 3.13 217 11:27 23.01.2022
4228 Clouds -1 1022 88 2500 1.79 201 10:59 23.01.2022
4229 Clouds -1 1022 88 2000 3.13 188 10:25 23.01.2022
4230 Snow -2 1021 88 2500 3.13 196 09:33 23.01.2022
4231 Snow -2 1021 89 2500 2.68 189 08:50 23.01.2022
4232 Clear -7 1013 87 10000 1.34 90 04:41 23.01.2022
4233 Clear -8 1013 88 10000 0 0 01:43 23.01.2022
4234 Clear -8 1013 88 10000 0.45 308 00:56 23.01.2022
4235 Clear -8 1021 86 10000 0.45 304 00:22 23.01.2022
4236 Clear -9 1021 86 10000 0.45 313 23:19 22.01.2022
4237 Clear -9 1021 86 10000 0.89 319 22:34 22.01.2022
4238 Clear -9 1021 86 10000 0.89 319 22:34 22.01.2022
4239 Clear -9 1020 85 10000 0.89 308 21:18 22.01.2022
4240 Clouds -9 1020 90 10000 1.34 332 19:46 22.01.2022
4241 Clouds -9 1020 90 10000 2.24 331 18:43 22.01.2022
4242 Clouds -8 1020 86 10000 1.79 338 17:56 22.01.2022
4243 Clouds -8 1019 89 10000 1.79 335 17:35 22.01.2022
4244 Clouds -8 1019 89 10000 1.79 336 16:55 22.01.2022
4245 Clear -7 1018 89 10000 2.68 320 15:49 22.01.2022
4246 Clouds -7 1018 88 10000 3.13 333 14:57 22.01.2022
4247 Clouds -6 1017 87 10000 3.58 332 13:36 22.01.2022
4248 Clouds -6 1017 87 10000 4.02 336 12:47 22.01.2022
4249 Clouds -5 1017 85 10000 3.13 327 12:24 22.01.2022
4250 Clouds -5 1009 85 10000 4.47 333 10:55 22.01.2022
4251 Clouds -5 1006 89 10000 3.58 335 10:28 22.01.2022
4252 Clouds -5 1006 89 10000 3.13 332 09:46 22.01.2022
4253 Clouds -5 1006 90 10000 2.68 336 08:51 22.01.2022
4254 Clouds -5 1008 88 10000 2.68 332 07:28 22.01.2022
4255 Clouds -4 1006 88 10000 2.68 330 04:50 22.01.2022
4256 Clouds -4 1002 86 10000 4.47 338 00:57 22.01.2022
4257 Clouds -4 999 89 10000 4.02 339 23:21 21.01.2022
4258 Clouds -4 998 89 10000 5.36 339 22:19 21.01.2022
4259 Clouds -4 998 89 10000 5.36 339 22:19 21.01.2022
4260 Clouds -2 1004 84 10000 5.81 335 19:55 21.01.2022
4261 Clouds -2 1002 84 10000 4.92 335 18:23 21.01.2022
4262 Clouds -2 1001 87 5000 6.71 335 17:18 21.01.2022
4263 Snow -2 1000 85 10000 5.81 332 15:27 21.01.2022
4264 Clouds -2 998 79 10000 5.81 329 13:18 21.01.2022
4265 Clouds -2 997 81 10000 6.26 334 12:26 21.01.2022
4266 Clouds -2 996 79 10000 6.26 335 11:26 21.01.2022
4267 Clouds -2 995 82 10000 6.26 328 09:34 21.01.2022
4268 Clouds -2 995 83 10000 5.81 334 08:22 21.01.2022
4269 Clouds -2 992 89 10000 6.71 322 04:37 21.01.2022
4270 Snow -3 979 95 2700 3.58 345 23:19 20.01.2022
4271 Snow -2 975 95 10000 4.92 345 21:50 20.01.2022
4272 Snow -2 974 97 5000 4.92 330 21:31 20.01.2022
4273 Snow -2 977 94 4500 4.47 359 20:21 20.01.2022
4274 Snow -1 976 95 7000 4.47 355 19:19 20.01.2022
4275 Snow 0 974 97 4000 3.58 359 17:46 20.01.2022
4276 Snow 0 973 97 3000 2.06 360 16:35 20.01.2022
4277 Snow 0 973 97 3000 2.06 360 16:35 20.01.2022
4278 Snow 0 974 97 2000 4.92 291 15:40 20.01.2022
4279 Snow 0 973 97 5000 3.58 300 14:40 20.01.2022
4280 Snow 1 973 97 1200 3.13 233 13:21 20.01.2022
4281 Snow 1 973 97 3000 0.45 209 12:31 20.01.2022
4282 Snow 1 972 97 2000 1.34 155 11:20 20.01.2022
4283 Snow 1 972 96 4000 1.79 151 10:19 20.01.2022
4284 Clouds 1 979 95 6000 3.13 186 09:19 20.01.2022
4285 Snow 1 972 95 4500 0.45 253 07:24 20.01.2022
4286 Rain 1 978 95 7000 1.34 167 00:41 20.01.2022
4287 Rain 3 987 96 9000 4.47 219 22:50 19.01.2022
4288 Rain 3 988 94 10000 3.13 220 21:44 19.01.2022
4289 Rain 3 989 96 10000 3.58 222 21:22 19.01.2022
4290 Drizzle 3 989 95 9000 2.68 223 20:45 19.01.2022
4291 Clouds 3 991 91 10000 2.24 239 19:26 19.01.2022
4292 Drizzle 3 992 93 10000 4.47 234 17:51 19.01.2022
4293 Clouds 3 992 93 10000 3.13 225 17:28 19.01.2022
4294 Clouds 3 993 91 10000 2.24 232 15:36 19.01.2022
4295 Clouds 3 996 92 10000 2.68 250 13:38 19.01.2022
4296 Clouds 2 997 93 10000 3.58 239 12:24 19.01.2022
4297 Clouds 2 997 94 10000 3.58 231 11:38 19.01.2022
4298 Clouds 2 1000 94 10000 1.79 224 09:52 19.01.2022
4299 Clouds 1 1000 94 10000 4.02 215 09:33 19.01.2022
4300 Clear -2 995 94 10000 0.45 245 06:34 19.01.2022
4301 Clouds -1 1010 86 10000 1.34 254 00:33 19.01.2022
4302 Clouds 0 1011 86 10000 1.34 262 23:18 18.01.2022
4303 Clouds 0 1012 85 10000 0.89 235 21:55 18.01.2022
4304 Clouds -1 1013 87 10000 1.79 236 20:44 18.01.2022
4305 Snow -1 1013 86 10000 1.34 220 19:52 18.01.2022
4306 Clouds -1 1013 84 10000 2.24 229 19:33 18.01.2022
4307 Clouds -1 1014 84 10000 0.89 259 18:25 18.01.2022
4308 Clouds -1 1015 88 10000 1.79 245 17:33 18.01.2022
4309 Clouds -3 1017 85 10000 1.79 232 16:22 18.01.2022
4310 Clouds -4 1017 84 10000 1.79 239 15:25 18.01.2022
4311 Clear -4 1018 84 10000 1.79 219 14:34 18.01.2022
4312 Clear -5 1018 82 10000 1.79 307 11:52 18.01.2022
4313 Clear -6 1009 84 10000 2.24 298 10:30 18.01.2022
4314 Clear -7 1008 85 10000 0.89 264 08:36 18.01.2022
4315 Clear -7 1016 83 10000 2.24 298 07:45 18.01.2022
4316 Clear -7 1007 83 10000 3.13 291 07:45 18.01.2022
4317 Clear -4 1012 76 10000 4.92 318 01:34 18.01.2022
4318 Clear -3 1008 78 10000 5.81 325 22:47 17.01.2022
4319 Clear -3 1006 77 10000 5.81 322 21:50 17.01.2022
4320 Clear -3 1006 76 10000 4.92 319 21:29 17.01.2022
4321 Clear -3 1004 77 10000 4.47 309 19:42 17.01.2022
4322 Clear -3 1003 73 10000 4.47 308 18:27 17.01.2022
4323 Clear -3 1001 74 10000 5.36 321 17:22 17.01.2022
4324 Clear -3 999 72 10000 6.71 312 16:22 17.01.2022
4325 Clear -3 997 72 10000 6.71 322 14:58 17.01.2022
4326 Clear -3 996 71 10000 7.6 331 14:32 17.01.2022
4327 Clouds -2 993 77 10000 7.15 328 13:19 17.01.2022
4328 Clouds -2 989 84 10000 7.6 332 12:27 17.01.2022
4329 Clouds -2 987 88 10000 10.28 324 11:33 17.01.2022
4330 Clouds -2 984 92 10000 6.71 340 10:21 17.01.2022
4331 Snow -1 979 95 600 4.92 1 08:44 17.01.2022
4332 Snow 0 974 96 600 3.58 344 07:21 17.01.2022
4333 Clear -1 980 96 10000 1.79 177 01:52 17.01.2022
4334 Clouds 0 983 93 10000 1.34 244 23:44 16.01.2022
4335 Clouds 1 985 91 10000 2.24 267 21:21 16.01.2022
4336 Clouds 1 985 94 10000 2.68 267 20:18 16.01.2022
4337 Rain 2 986 94 8000 2.24 264 18:46 16.01.2022
4338 Clouds 2 987 94 10000 1.79 242 17:47 16.01.2022
4339 Rain 2 988 94 7000 3.58 247 16:53 16.01.2022
4340 Drizzle 2 989 94 7000 3.58 237 15:40 16.01.2022
4341 Mist 2 992 96 3000 4.47 235 14:29 16.01.2022
4342 Rain 2 993 94 10000 5.36 222 13:23 16.01.2022
4343 Clouds 1 996 92 10000 3.13 247 11:58 16.01.2022
4344 Clouds 1 997 90 10000 3.58 231 11:27 16.01.2022
4345 Clouds 0 999 90 10000 2.68 244 10:27 16.01.2022
4346 Clouds 0 999 90 10000 3.58 226 09:57 16.01.2022
4347 Clouds -1 1000 91 10000 3.13 232 09:23 16.01.2022
4348 Clouds -1 1000 91 10000 3.58 234 08:53 16.01.2022
4349 Clear -1 1004 87 10000 1.79 245 05:52 16.01.2022
4350 Clear -3 1010 90 10000 1.34 274 00:19 16.01.2022
4351 Clear -3 1012 89 10000 1.34 280 22:49 15.01.2022
4352 Clear -3 1012 85 10000 0.89 292 21:21 15.01.2022
4353 Clear -3 1012 83 10000 0.89 300 20:44 15.01.2022
4354 Clear -2 1012 81 10000 0.89 286 20:18 15.01.2022
4355 Clear -2 1013 78 10000 1.34 309 19:25 15.01.2022
4356 Clear -2 1011 75 10000 1.79 306 17:52 15.01.2022
4357 Clear -2 1011 72 10000 1.79 309 16:43 15.01.2022
4358 Clear 0 1010 69 10000 2.68 300 14:32 15.01.2022
4359 Clear 0 1009 68 10000 3.58 316 12:38 15.01.2022
4360 Clear 0 1008 70 10000 4.02 309 11:20 15.01.2022
4361 Clear 0 1007 73 10000 5.36 322 09:35 15.01.2022
4362 Clouds 2 999 74 10000 5.36 322 01:25 15.01.2022
4363 Clear 2 996 75 10000 4.47 312 21:57 14.01.2022
4364 Clear 1 995 75 10000 4.92 314 20:54 14.01.2022
4365 Clear 1 995 75 10000 4.92 319 20:23 14.01.2022
4366 Clear 1 995 75 10000 6.26 319 19:49 14.01.2022
4367 Clouds 1 994 74 10000 5.81 319 18:33 14.01.2022
4368 Clouds 2 993 70 10000 4.92 316 16:51 14.01.2022
4369 Clouds 2 993 69 10000 5.81 313 16:33 14.01.2022
4370 Clouds 2 990 76 10000 4.92 315 14:49 14.01.2022
4371 Clouds 2 989 74 10000 5.36 322 13:48 14.01.2022
4372 Clouds 2 988 72 10000 6.26 322 12:34 14.01.2022
4373 Clouds 2 987 69 10000 7.6 321 11:29 14.01.2022
4374 Clouds 2 987 72 10000 4.92 313 10:22 14.01.2022
4375 Clouds 2 986 72 10000 4.47 324 08:52 14.01.2022
4376 Clouds 2 985 73 10000 4.47 306 07:27 14.01.2022
4377 Clouds 4 988 81 10000 2.68 291 01:43 14.01.2022
4378 Clouds 4 990 84 10000 2.68 302 23:36 13.01.2022
4379 Clouds 4 991 89 10000 1.34 258 21:42 13.01.2022
4380 Rain 5 992 86 10000 1.34 284 21:23 13.01.2022
4381 Clouds 6 993 81 10000 2.24 263 19:44 13.01.2022
4382 Clouds 6 993 83 10000 2.24 291 19:22 13.01.2022
4383 Clouds 6 994 81 10000 3.13 294 17:56 13.01.2022
4384 Clouds 5 996 82 10000 3.58 300 16:22 13.01.2022
4385 Clouds 5 996 84 10000 2.24 286 15:38 13.01.2022
4386 Clouds 5 997 85 10000 0.89 276 14:50 13.01.2022
4387 Clouds 6 998 84 10000 1.79 269 12:54 13.01.2022
4388 Clouds 5 1000 82 10000 1.79 256 10:25 13.01.2022
4389 Clouds 4 1000 86 10000 1.79 283 09:20 13.01.2022
4390 Clouds 3 998 89 10000 1.34 271 08:27 13.01.2022
4391 Clouds 4 999 89 10000 1.34 300 07:24 13.01.2022
4392 Clouds 3 999 92 10000 1.79 291 06:38 13.01.2022
4393 Clouds 3 999 93 10000 2.68 249 05:20 13.01.2022
4394 Clouds 3 1003 97 10000 2.68 248 02:33 13.01.2022
4395 Clouds 2 1005 94 10000 2.24 236 00:56 13.01.2022
4396 Clouds 2 1006 94 10000 2.68 243 23:50 12.01.2022
4397 Drizzle 2 1007 94 6000 4.02 229 23:29 12.01.2022
4398 Clouds 2 1009 95 8000 4.02 234 21:58 12.01.2022
4399 Clouds 1 1010 96 10000 3.13 235 21:23 12.01.2022
4400 Clouds 1 1010 94 10000 3.13 227 20:57 12.01.2022
4401 Clouds 1 1012 94 10000 2.68 237 19:57 12.01.2022
4402 Clouds 1 1014 96 10000 3.58 249 18:43 12.01.2022
4403 Clouds 1 1015 96 10000 3.58 232 17:50 12.01.2022
4404 Drizzle 1 1016 97 4500 2.68 220 16:38 12.01.2022
4405 Mist 1 1018 95 2500 3.58 216 14:49 12.01.2022
4406 Clouds 0 1021 97 6000 2.68 213 13:32 12.01.2022
4407 Clouds 0 1022 97 6000 2.68 246 12:34 12.01.2022
4408 Clouds -1 1024 95 10000 3.13 212 08:45 12.01.2022
4409 Clouds -1 1024 97 10000 3.13 203 07:52 12.01.2022
4410 Clouds -1 1025 97 8000 3.13 221 07:32 12.01.2022
4411 Clouds -4 1030 94 10000 1.79 265 23:53 11.01.2022
4412 Clouds -4 1030 93 10000 2.24 213 22:57 11.01.2022
4413 Clouds -5 1031 93 10000 1.79 208 22:23 11.01.2022
4414 Clouds -5 1033 93 10000 1.34 225 21:25 11.01.2022
4415 Clouds -6 1033 93 10000 2.24 206 20:21 11.01.2022
4416 Clouds -6 1034 91 10000 2.24 207 18:43 11.01.2022
4417 Clouds -7 1035 92 10000 1.34 204 17:35 11.01.2022
4418 Clouds -7 1035 90 10000 1.34 228 16:38 11.01.2022
4419 Clouds -8 1036 92 10000 1.34 248 15:56 11.01.2022
4420 Clouds -8 1036 91 6000 3.13 245 14:43 11.01.2022
4421 Clouds -9 1036 90 6000 0.45 111 13:56 11.01.2022
4422 Clouds -9 1036 90 6000 1.34 131 13:36 11.01.2022
4423 Clouds -10 1036 94 6000 1.03 70 12:51 11.01.2022
4424 Mist -10 1034 95 5000 0.51 0 12:20 11.01.2022
4425 Fog -14 1037 89 200 1.03 0 09:58 11.01.2022
4426 Fog -17 1036 86 800 1.79 316 07:35 11.01.2022
4427 Clear -17 1035 84 10000 2.24 316 00:43 11.01.2022
4428 Clear -17 1035 85 10000 2.68 326 00:21 11.01.2022
4429 Clear -16 1035 85 10000 3.13 329 23:28 10.01.2022
4430 Clouds -16 1034 86 10000 3.13 335 22:19 10.01.2022
4431 Clear -16 1034 85 10000 2.24 343 21:54 10.01.2022
4432 Clear -16 1034 85 10000 1.79 328 21:31 10.01.2022
4433 Clear -16 1034 85 10000 1.79 348 20:58 10.01.2022
4434 Clear -15 1033 85 10000 2.68 335 20:29 10.01.2022
4435 Clear -15 1034 87 10000 2.24 333 19:45 10.01.2022
4436 Clear -15 1034 87 10000 2.24 351 19:21 10.01.2022
4437 Clear -14 1034 87 10000 2.24 342 18:50 10.01.2022
4438 Clear -14 1033 87 10000 2.24 343 18:31 10.01.2022
4439 Clear -13 1032 87 10000 2.68 337 16:42 10.01.2022
4440 Clear -12 1031 87 10000 2.24 2 15:50 10.01.2022
4441 Clear -11 1030 88 10000 2.24 343 14:34 10.01.2022
4442 Clear -11 1029 86 10000 2.68 338 12:22 10.01.2022
4443 Clear -11 1029 87 10000 3.58 335 11:25 10.01.2022
4444 Clear -12 1028 89 10000 3.13 336 10:21 10.01.2022
4445 Clouds -10 1024 94 10000 2.68 343 08:22 10.01.2022
4446 Clouds -8 1022 86 10000 4.63 30 05:50 10.01.2022
4447 Clouds -7 1018 95 10000 3.13 92 01:33 10.01.2022
4448 Clouds -7 1017 95 10000 3.58 20 00:33 10.01.2022
4449 Clouds -6 1017 95 10000 4.12 50 23:43 09.01.2022
4450 Clouds -6 1015 95 10000 3.58 15 22:42 09.01.2022
4451 Clouds -6 1014 95 10000 2.24 30 21:47 09.01.2022
4452 Clouds -6 1014 95 10000 3.58 16 21:24 09.01.2022
4453 Clouds -6 1014 95 10000 3.13 28 20:54 09.01.2022
4454 Clouds -6 1013 95 10000 1.79 31 20:36 09.01.2022
4455 Clouds -6 1013 95 10000 2.24 40 20:18 09.01.2022
4456 Clouds -6 1012 95 10000 3.58 47 19:36 09.01.2022
4457 Clouds -6 1012 95 10000 3.13 26 19:18 09.01.2022
4458 Clouds -6 1011 95 10000 2.68 25 18:37 09.01.2022
4459 Clouds -5 1010 95 10000 3.13 15 17:48 09.01.2022
4460 Clouds -5 1010 98 10000 2.24 21 17:25 09.01.2022
4461 Clouds -5 1009 95 10000 2.68 28 16:34 09.01.2022
4462 Clouds -5 1009 95 10000 3.13 21 15:37 09.01.2022
4463 Clouds -5 1008 95 10000 3.13 15 14:41 09.01.2022
4464 Clouds -5 1008 96 10000 1.79 0 14:21 09.01.2022
4465 Clouds -5 1008 93 10000 2.68 11 13:41 09.01.2022
4466 Clouds -5 1006 91 8000 3.09 30 11:56 09.01.2022
4467 Clouds -5 1006 93 8000 3.58 17 11:24 09.01.2022
4468 Clouds -5 1005 93 9000 2.68 19 09:53 09.01.2022
4469 Clouds -5 1004 96 9000 2.68 6 08:54 09.01.2022
4470 Clouds -4 1002 94 6000 2.68 12 05:54 09.01.2022
4471 Clouds -4 1002 92 7000 3.6 50 01:26 09.01.2022
4472 Clouds -4 1002 93 9000 3.6 50 00:37 09.01.2022
4473 Clouds -4 1002 94 9000 2.24 102 23:27 08.01.2022
4474 Clouds -4 1003 95 8000 2.24 123 22:35 08.01.2022
4475 Clouds -4 1003 94 4000 2.68 107 21:27 08.01.2022
4476 Clouds -5 1004 93 3400 1.79 96 20:43 08.01.2022
4477 Clouds -5 1004 94 3200 3.13 121 20:21 08.01.2022
4478 Snow -5 1005 94 2800 3.58 108 18:46 08.01.2022
4479 Snow -5 1005 94 2900 4.47 100 17:24 08.01.2022
4480 Snow -6 1006 93 2800 3.6 70 16:40 08.01.2022
4481 Clouds -7 1007 93 3500 4.02 73 14:50 08.01.2022
4482 Clouds -7 1008 91 3500 4.02 91 13:41 08.01.2022
4483 Clouds -9 1010 90 10000 3.58 92 11:30 08.01.2022
4484 Clear -10 1010 94 10000 2.68 82 10:31 08.01.2022
4485 Clear -11 1011 86 10000 2.06 50 09:57 08.01.2022
4486 Clear -11 1011 88 10000 1.79 96 09:30 08.01.2022
4487 Clear -13 1011 88 10000 0.89 294 04:25 08.01.2022
4488 Clouds -11 1013 89 10000 0.89 326 00:58 08.01.2022
4489 Clouds -8 1013 91 10000 0.89 296 22:54 07.01.2022
4490 Clear -8 1012 87 10000 0.89 284 21:46 07.01.2022
4491 Clouds -8 1011 90 10000 1.79 301 20:23 07.01.2022
4492 Snow -8 1010 90 10000 1.34 307 19:26 07.01.2022
4493 Clouds -8 1009 91 10000 2.24 275 18:45 07.01.2022
4494 Clouds -8 1008 89 10000 3.13 293 17:58 07.01.2022
4495 Clouds -8 1008 87 10000 3.58 282 17:22 07.01.2022
4496 Clouds -9 1007 86 10000 2.68 297 14:50 07.01.2022
4497 Clouds -8 1006 88 10000 3.58 296 13:50 07.01.2022
4498 Clouds -8 1006 85 10000 4.02 284 12:50 07.01.2022
4499 Clouds -9 1004 86 10000 4.02 289 10:18 07.01.2022
4500 Clouds -8 998 86 10000 4.02 290 02:59 07.01.2022
4501 Clear -7 998 86 10000 3.13 282 02:21 07.01.2022
4502 Clouds -7 999 88 10000 3.13 291 01:45 07.01.2022
4503 Clouds -7 999 86 10000 4.47 284 01:23 07.01.2022
4504 Snow -6 999 89 10000 3.58 289 00:29 07.01.2022
4505 Clouds -8 999 89 10000 4.02 271 21:57 06.01.2022
4506 Clouds -8 999 90 10000 3.58 271 20:37 06.01.2022
4507 Clear -8 999 88 10000 4.02 285 19:54 06.01.2022
4508 Clear -8 999 89 10000 4.02 282 19:29 06.01.2022
4509 Clear -9 999 89 10000 3.13 286 17:51 06.01.2022
4510 Clear -8 999 89 10000 3.58 289 17:21 06.01.2022
4511 Clear -8 999 89 10000 4.47 287 16:31 06.01.2022
4512 Clear -9 999 90 10000 3.13 280 15:43 06.01.2022
4513 Clear -9 999 89 10000 2.68 293 15:20 06.01.2022
4514 Clear -8 998 90 10000 2.68 307 14:19 06.01.2022
4515 Clear -8 998 88 10000 3.13 304 13:30 06.01.2022
4516 Clouds -8 997 87 10000 4.02 298 12:20 06.01.2022
4517 Clouds -7 995 88 10000 3.58 314 11:29 06.01.2022
4518 Clouds -7 993 88 10000 3.58 319 09:50 06.01.2022
4519 Snow -5 990 96 10000 1.34 315 05:55 06.01.2022
4520 Snow -1 986 96 6000 3.09 20 23:56 05.01.2022
4521 Snow -1 986 96 8000 3.09 20 23:21 05.01.2022
4522 Snow -1 985 95 4000 3.6 30 22:41 05.01.2022
4523 Snow -1 985 97 1500 3.6 20 22:18 05.01.2022
4524 Snow -1 985 97 5000 2.57 40 21:23 05.01.2022
4525 Mist 0 984 96 4000 8.05 16 20:30 05.01.2022
4526 Mist 0 984 96 4000 8.05 16 20:30 05.01.2022
4527 Snow 0 984 96 3000 4.47 64 19:28 05.01.2022
4528 Snow 0 984 96 3500 4.92 124 17:56 05.01.2022
4529 Snow 0 984 97 3500 4.92 105 16:56 05.01.2022
4530 Fog -1 985 96 600 2.68 131 15:46 05.01.2022
4531 Fog -1 985 97 600 1.79 195 14:50 05.01.2022
4532 Fog -1 985 96 800 1.79 160 13:33 05.01.2022
4533 Clouds 0 984 97 7000 1.79 112 11:59 05.01.2022
4534 Snow 0 983 96 3000 1.34 183 08:21 05.01.2022
4535 Mist 0 983 96 1500 0.89 120 06:37 05.01.2022
4536 Mist 0 983 96 1500 0.89 120 06:37 05.01.2022
4537 Clouds 0 986 94 7000 1.79 188 01:20 05.01.2022
4538 Clouds -1 986 95 10000 1.79 195 23:41 04.01.2022
4539 Clouds -1 986 96 10000 1.34 207 23:19 04.01.2022
4540 Clouds 0 986 96 10000 0.89 186 21:32 04.01.2022
4541 Clouds 0 986 96 10000 1.34 195 20:27 04.01.2022
4542 Clouds -1 986 96 10000 1.34 220 18:35 04.01.2022
4543 Clouds -1 987 97 10000 1.79 193 17:19 04.01.2022
4544 Clouds 0 986 94 10000 1.79 243 16:31 04.01.2022
4545 Clouds 1 986 94 10000 1.79 217 14:58 04.01.2022
4546 Clouds 2 986 96 10000 1.79 230 14:37 04.01.2022
4547 Clouds 2 986 96 10000 1.34 199 13:55 04.01.2022
4548 Rain 1 986 97 1100 2.68 185 11:44 04.01.2022
4549 Snow 1 985 96 4000 2.68 180 10:18 04.01.2022
4550 Snow 0 986 96 3000 1.79 131 08:49 04.01.2022
4551 Snow -1 987 94 1500 9.39 347 06:28 04.01.2022
4552 Clouds -1 990 96 5000 3.58 256 00:42 04.01.2022
4553 Clouds -1 990 94 9000 4.47 306 23:49 03.01.2022
4554 Mist -2 991 96 2500 6.71 358 22:21 03.01.2022
4555 Clouds -2 991 95 6000 6.26 348 21:38 03.01.2022
4556 Mist -2 992 96 3500 5.36 234 20:40 03.01.2022
4557 Clouds -2 992 95 4000 7.6 117 18:55 03.01.2022
4558 Snow -2 992 95 4000 5.36 205 18:30 03.01.2022
4559 Snow -2 992 94 5000 6.71 147 17:20 03.01.2022
4560 Snow -2 992 96 7000 5.36 194 16:28 03.01.2022
4561 Snow -2 992 96 4000 2.68 220 14:31 03.01.2022
4562 Clouds -2 992 96 4000 1.79 187 12:52 03.01.2022
4563 Clouds -2 993 96 3000 1.79 129 11:50 03.01.2022
4564 Snow -2 993 96 3000 0.89 133 10:37 03.01.2022
4565 Snow -2 991 95 3000 0.89 143 09:27 03.01.2022
4566 Clouds -2 991 94 3500 0.89 137 07:52 03.01.2022
4567 Snow -3 993 94 4500 0.45 187 02:28 03.01.2022
4568 Snow -3 995 93 2600 0.45 202 23:22 02.01.2022
4569 Snow -3 995 93 2600 0.45 209 22:56 02.01.2022
4570 Snow -3 996 93 2200 1.79 149 21:52 02.01.2022
4571 Snow -3 998 93 2700 0.89 214 20:50 02.01.2022
4572 Snow -3 998 93 3500 0.89 201 20:29 02.01.2022
4573 Snow -3 999 93 4500 1.34 177 19:31 02.01.2022
4574 Clouds -3 1000 95 4000 0.89 234 18:55 02.01.2022
4575 Snow -3 1001 93 2800 0.89 240 17:56 02.01.2022
4576 Snow -3 1001 92 4500 0.89 214 17:38 02.01.2022
4577 Clouds -3 1002 91 10000 0.89 195 17:19 02.01.2022
4578 Snow -3 1003 92 3500 0.89 231 16:27 02.01.2022
4579 Mist -3 1005 92 2100 0.89 213 14:38 02.01.2022
4580 Drizzle -3 1007 91 2800 1.34 188 12:57 02.01.2022
4581 Snow -3 1008 91 4000 1.79 192 12:31 02.01.2022
4582 Snow -3 1009 90 9000 1.34 242 11:36 02.01.2022
4583 Snow -3 1010 91 10000 1.79 168 10:50 02.01.2022
4584 Snow -5 1010 91 6000 0.89 224 09:52 02.01.2022
4585 Snow -8 1012 87 10000 1.34 73 07:26 02.01.2022
4586 Clear -11 1017 85 10000 0.45 294 02:19 02.01.2022
4587 Clear -10 1019 88 10000 2.24 310 23:40 01.01.2022
4588 Clear -10 1019 88 10000 1.79 305 22:58 01.01.2022
4589 Clear -10 1020 89 10000 1.79 306 22:23 01.01.2022
4590 Clear -10 1020 90 10000 1.34 310 21:44 01.01.2022
4591 Clear -9 1019 93 10000 1.79 322 20:55 01.01.2022
4592 Clear -9 1019 90 10000 2.24 305 19:58 01.01.2022
4593 Clear -9 1019 89 10000 2.24 306 19:26 01.01.2022
4594 Clear -8 1018 89 10000 1.79 324 17:59 01.01.2022
4595 Clouds -7 1017 87 10000 3.58 329 16:41 01.01.2022
4596 Clouds -7 1017 87 10000 2.68 320 16:19 01.01.2022
4597 Clouds -6 1016 85 10000 2.24 315 15:27 01.01.2022
4598 Clear -5 1015 81 10000 2.68 314 13:59 01.01.2022
4599 Clear -5 1014 80 10000 4.92 319 12:50 01.01.2022
4600 Clear -5 1013 78 10000 4.02 328 11:56 01.01.2022
4601 Clear -5 1012 78 10000 4.02 336 11:23 01.01.2022
4602 Clear -5 1011 81 10000 3.13 317 10:40 01.01.2022
4603 Clear -5 1010 83 10000 3.58 338 09:46 01.01.2022
4604 Clouds -4 1007 87 10000 4.47 325 08:26 01.01.2022
4605 Clouds -4 1005 82 10000 5.36 334 07:54 01.01.2022
4606 Clouds -4 1005 83 10000 4.47 334 07:34 01.01.2022
4607 Clouds -4 1004 83 10000 4.92 326 06:41 01.01.2022
4608 Clouds -3 1004 86 10000 6.69 330 04:38 01.01.2022
4609 Clouds -1 1000 97 10000 1.79 311 02:44 01.01.2022
4610 Snow -1 1001 95 7000 0.89 329 23:39 31.12.2021
4611 Snow -1 1000 96 10000 0.45 288 21:53 31.12.2021
4612 Clouds -1 1000 92 10000 0.89 301 20:39 31.12.2021
4613 Clouds -1 999 90 10000 0.45 262 19:31 31.12.2021
4614 Clouds -2 999 93 10000 2.06 280 18:41 31.12.2021
4615 Clouds -2 999 93 10000 1.34 299 17:43 31.12.2021
4616 Clouds -1 999 93 10000 1.34 299 17:19 31.12.2021
4617 Clouds -1 998 92 10000 1.34 319 16:40 31.12.2021
4618 Clouds -1 998 92 10000 1.79 334 15:57 31.12.2021
4619 Clouds -1 998 90 10000 0.89 292 15:29 31.12.2021
4620 Clouds -1 998 90 10000 0.89 292 15:29 31.12.2021
4621 Clouds -1 998 90 10000 0.89 292 15:29 31.12.2021
4622 Clouds -1 998 90 10000 1.79 310 14:57 31.12.2021
4623 Clouds 0 998 90 10000 1.34 287 14:30 31.12.2021
4624 Snow 0 997 90 10000 0.89 270 13:37 31.12.2021
4625 Clouds 0 998 90 10000 2.68 308 12:49 31.12.2021
4626 Clouds 0 998 89 10000 1.34 299 11:52 31.12.2021
4627 Clouds 0 998 88 10000 1.34 297 11:33 31.12.2021
4628 Clouds 0 998 89 10000 0.89 267 10:38 31.12.2021
4629 Clouds 0 998 89 10000 2.24 296 10:38 31.12.2021
4630 Clouds 0 997 89 10000 0.89 302 10:20 31.12.2021
4631 Clouds 0 994 89 10000 2.24 301 09:33 31.12.2021
4632 Clouds 0 994 89 10000 2.24 304 08:43 31.12.2021
4633 Snow 1 994 92 8000 1.79 319 07:31 31.12.2021
4634 Clouds 0 994 97 2500 12.07 279 23:32 30.12.2021
4635 Snow -1 995 96 2500 10.28 196 22:34 30.12.2021
4636 Clouds -1 996 94 2500 4.47 169 21:59 30.12.2021
4637 Snow -1 996 94 3000 3.58 169 21:37 30.12.2021
4638 Snow -1 996 94 2500 3.58 169 21:37 30.12.2021
4639 Snow -1 996 94 3500 2.24 198 20:47 30.12.2021
4640 Snow -1 998 95 3000 4.02 185 20:28 30.12.2021
4641 Snow -1 999 94 3000 4.02 190 19:48 30.12.2021
4642 Snow -2 1000 93 3000 2.68 186 18:51 30.12.2021
4643 Snow -2 1000 93 3000 2.68 186 18:51 30.12.2021
4644 Snow -2 1000 95 3000 3.58 184 18:20 30.12.2021
4645 Snow -2 1002 93 4000 1.79 174 16:34 30.12.2021
4646 Drizzle -2 1002 93 3000 1.79 176 15:52 30.12.2021
4647 Clouds -2 1003 92 6000 1.79 179 14:41 30.12.2021
4648 Clouds -2 1003 92 6000 1.79 184 14:19 30.12.2021
4649 Snow -2 1004 92 5000 3.58 187 13:23 30.12.2021
4650 Clouds -3 1005 92 6000 3.13 199 11:34 30.12.2021
4651 Clouds -3 1005 89 8000 1.79 176 10:27 30.12.2021
4652 Clouds -3 1006 93 8000 1.79 212 09:27 30.12.2021
4653 Clouds -3 1007 89 10000 1.79 203 06:55 30.12.2021
4654 Clouds -3 1007 91 10000 3.58 190 04:25 30.12.2021
4655 Snow -3 1007 91 10000 3.58 188 03:40 30.12.2021
4656 Snow -3 1009 91 9000 0.45 185 00:42 30.12.2021
4657 Snow -3 1009 91 9000 1.79 203 23:35 29.12.2021
4658 Snow -3 1009 92 4000 1.79 186 22:30 29.12.2021
4659 Snow -3 1009 93 5000 2.68 188 21:53 29.12.2021
4660 Snow -3 1009 91 6000 1.79 170 20:56 29.12.2021
4661 Snow -3 1009 91 6000 1.34 186 20:18 29.12.2021
4662 Snow -3 1009 91 10000 1.79 178 19:30 29.12.2021
4663 Snow -4 1009 91 10000 0.89 174 18:26 29.12.2021
4664 Snow -4 1009 91 6000 2.68 194 17:29 29.12.2021
4665 Snow -3 1009 91 2500 2.24 193 16:58 29.12.2021
4666 Snow -4 1009 90 6000 2.68 183 16:19 29.12.2021
4667 Snow -4 1009 88 10000 1.79 187 14:46 29.12.2021
4668 Snow -4 1009 90 9000 2.68 197 12:49 29.12.2021
4669 Snow -4 1009 91 4500 3.13 197 12:27 29.12.2021
4670 Snow -4 1008 91 1400 4.47 190 10:38 29.12.2021
4671 Snow -4 1008 93 4500 2.68 206 08:37 29.12.2021
4672 Snow -5 1007 87 8000 3.58 186 06:48 29.12.2021
4673 Snow -5 1007 86 10000 4.02 191 06:27 29.12.2021
4674 Clouds -5 1007 83 10000 3.13 188 05:44 29.12.2021
4675 Clouds -4 1008 83 10000 2.24 192 03:46 29.12.2021
4676 Clear -4 1010 80 10000 1.34 236 00:25 29.12.2021
4677 Clear -4 1010 80 10000 1.79 211 23:49 28.12.2021
4678 Clear -3 1011 79 10000 1.79 216 22:50 28.12.2021
4679 Clear -3 1011 79 10000 1.34 210 22:24 28.12.2021
4680 Clear -3 1011 82 10000 1.34 241 21:53 28.12.2021
4681 Clear -3 1012 84 10000 2.24 179 20:54 28.12.2021
4682 Clear -4 1012 85 10000 1.79 176 19:50 28.12.2021
4683 Clear -4 1013 85 10000 1.79 167 18:50 28.12.2021
4684 Clear -4 1013 86 10000 1.34 187 18:23 28.12.2021
4685 Clouds -3 1014 86 10000 1.34 186 16:35 28.12.2021
4686 Clouds -3 1014 85 10000 1.79 174 15:52 28.12.2021
4687 Clouds -3 1015 90 10000 2.24 177 15:27 28.12.2021
4688 Clouds -3 1014 90 10000 2.24 170 14:53 28.12.2021
4689 Clouds -2 1015 87 10000 3.58 184 14:21 28.12.2021
4690 Clouds -2 1015 91 10000 3.13 185 13:54 28.12.2021
4691 Clouds -2 1015 90 10000 4.47 185 13:33 28.12.2021
4692 Clouds -2 1015 91 10000 1.79 191 12:55 28.12.2021
4693 Clouds -2 1015 93 10000 2.68 205 12:18 28.12.2021
4694 Clouds -6 1014 93 10000 2.06 100 09:30 28.12.2021
4695 Clouds -8 1014 93 10000 1.34 109 07:33 28.12.2021
4696 Clouds -16 1016 85 10000 1.54 80 03:28 28.12.2021
4697 Snow -19 1016 84 8000 0.51 300 23:26 27.12.2021
4698 Snow -18 1016 85 9000 0.51 0 22:20 27.12.2021
4699 Fog -16 1015 85 600 1.03 0 21:29 27.12.2021
4700 Fog -14 1015 85 1200 1.03 0 20:24 27.12.2021
4701 Snow -14 1015 85 1200 1.03 0 20:24 27.12.2021
4702 Snow -14 1015 92 800 0.51 0 19:45 27.12.2021
4703 Fog -14 1014 85 800 1.03 0 18:54 27.12.2021
4704 Fog -14 1013 92 500 0.89 358 17:50 27.12.2021
4705 Fog -14 1012 89 700 0.89 327 17:27 27.12.2021
4706 Clear -13 1012 87 10000 1.34 332 15:53 27.12.2021
4707 Clear -12 1011 85 10000 0.89 333 14:35 27.12.2021
4708 Clear -12 1012 85 10000 0.45 350 13:59 27.12.2021
4709 Clear -11 1012 84 10000 0.89 308 12:49 27.12.2021
4710 Clouds -12 1011 89 10000 0.89 326 10:37 27.12.2021
4711 Clear -13 1009 90 10000 1.79 315 10:18 27.12.2021
4712 Clouds -12 1008 92 10000 0.89 318 08:41 27.12.2021
4713 Clouds -13 1008 92 10000 0.45 326 07:33 27.12.2021
4714 Snow -12 1007 83 10000 0.45 275 02:29 27.12.2021
4715 Snow -13 1005 92 10000 0.89 307 00:29 27.12.2021
4716 Clear -14 1005 90 10000 0.89 315 23:42 26.12.2021
4717 Clouds -13 1006 90 10000 0.89 314 22:49 26.12.2021
4718 Clouds -13 1006 89 10000 0.89 326 21:30 26.12.2021
4719 Snow -13 1005 85 10000 2.24 293 19:54 26.12.2021
4720 Clear -13 1005 83 10000 3.13 281 18:29 26.12.2021
4721 Clear -13 1005 83 10000 3.13 268 17:51 26.12.2021
4722 Clear -12 1002 83 10000 1.79 300 15:35 26.12.2021
4723 Clear -13 1003 85 10000 3.6 290 13:43 26.12.2021
4724 Clear -13 1002 92 10000 3.6 290 13:21 26.12.2021
4725 Clear -13 1002 85 10000 3.6 270 12:35 26.12.2021
4726 Clear -15 1001 85 10000 3.6 280 11:18 26.12.2021
4727 Clear -16 1000 89 10000 3.58 295 09:30 26.12.2021
4728 Clear -16 1000 75 10000 4.12 290 08:45 26.12.2021
4729 Clouds -16 1000 72 10000 5.14 300 08:23 26.12.2021
4730 Snow -12 992 83 10000 4.02 337 01:45 26.12.2021
4731 Snow -10 992 84 10000 2.24 0 00:28 26.12.2021
4732 Snow -9 991 85 8000 3.13 329 23:35 25.12.2021
4733 Snow -9 990 87 8000 3.58 326 22:29 25.12.2021
4734 Clouds -8 990 88 10000 2.68 307 21:30 25.12.2021
4735 Snow -8 989 87 5000 2.68 303 20:18 25.12.2021
4736 Snow -8 989 86 6000 2.24 301 19:18 25.12.2021
4737 Snow -9 989 88 10000 1.34 297 18:29 25.12.2021
4738 Clear -9 991 89 10000 3.58 279 16:49 25.12.2021
4739 Snow -8 990 89 10000 2.68 307 15:34 25.12.2021
4740 Clouds -9 990 88 10000 0.89 296 14:23 25.12.2021
4741 Clouds -10 989 86 10000 1.79 292 12:21 25.12.2021
4742 Clouds -14 990 92 10000 4.63 250 10:46 25.12.2021
4743 Clouds -16 991 92 10000 2.06 230 09:49 25.12.2021
4744 Clear -16 990 85 10000 2.57 280 07:27 25.12.2021
4745 Clear -14 989 69 10000 3.09 290 01:40 25.12.2021
4746 Clear -15 989 76 10000 4.12 310 00:21 25.12.2021
4747 Snow -14 988 83 10000 1.79 310 21:57 24.12.2021
4748 Snow -13 988 86 10000 2.68 330 19:27 24.12.2021
4749 Clouds -13 987 84 10000 1.79 324 18:56 24.12.2021
4750 Snow -12 986 86 6000 1.79 335 16:44 24.12.2021
4751 Clouds -12 987 77 10000 3.09 280 15:50 24.12.2021
4752 Clouds -12 987 77 10000 3.09 280 15:50 24.12.2021
4753 Clouds -12 987 84 10000 1.34 313 15:25 24.12.2021
4754 Clouds -12 985 85 10000 1.79 307 14:35 24.12.2021
4755 Clouds -11 987 83 10000 2.68 309 13:57 24.12.2021
4756 Clouds -11 987 83 10000 1.34 301 13:32 24.12.2021
4757 Clouds -10 987 82 10000 1.79 301 12:45 24.12.2021
4758 Clouds -10 989 83 10000 3.58 278 11:45 24.12.2021
4759 Clouds -11 987 81 10000 2.68 309 11:24 24.12.2021
4760 Clouds -11 988 81 10000 1.79 300 10:35 24.12.2021
4761 Clear -11 987 85 10000 1.34 306 08:58 24.12.2021
4762 Clear -10 987 86 10000 1.79 308 07:58 24.12.2021
4763 Clear -10 987 86 10000 1.79 308 07:58 24.12.2021
4764 Clear -10 988 85 10000 1.34 305 07:31 24.12.2021
4765 Snow -4 987 93 1500 4.47 330 00:47 24.12.2021
4766 Snow -2 987 95 1500 0.89 254 23:50 23.12.2021
4767 Snow -1 987 92 1200 1.34 239 22:53 23.12.2021
4768 Snow -1 988 90 3000 1.34 232 22:24 23.12.2021
4769 Snow -1 988 87 4000 1.79 245 21:47 23.12.2021
4770 Clouds -1 989 87 10000 2.68 250 20:31 23.12.2021
4771 Snow -1 989 87 10000 2.68 269 19:30 23.12.2021
4772 Snow -1 990 87 10000 1.34 249 18:27 23.12.2021
4773 Clouds -1 991 87 10000 2.24 273 17:46 23.12.2021
4774 Clouds -1 992 87 10000 3.58 243 16:27 23.12.2021
4775 Snow -1 993 87 10000 3.58 259 15:54 23.12.2021
4776 Snow -1 993 89 10000 3.58 245 15:30 23.12.2021
4777 Snow -1 994 88 10000 1.79 259 14:42 23.12.2021
4778 Clouds -1 995 87 10000 3.58 254 13:49 23.12.2021
4779 Snow -1 998 89 10000 2.68 250 11:59 23.12.2021
4780 Clouds -1 999 85 10000 2.24 272 10:36 23.12.2021
4781 Clouds -1 1000 87 10000 3.13 258 09:34 23.12.2021
4782 Clouds -1 1001 88 10000 2.24 272 08:41 23.12.2021
4783 Clouds -2 1003 87 10000 3.13 246 06:20 23.12.2021
4784 Snow -4 1008 91 5000 3.58 244 03:28 23.12.2021
4785 Clear -10 1015 90 10000 0.89 218 22:54 22.12.2021
4786 Clouds -11 1018 86 10000 2.24 241 22:22 22.12.2021
4787 Clouds -11 1018 86 10000 1.79 256 21:48 22.12.2021
4788 Clouds -11 1019 84 10000 1.34 242 21:25 22.12.2021
4789 Clouds -11 1019 84 10000 1.34 259 20:41 22.12.2021
4790 Clouds -11 1019 87 10000 0.89 293 19:57 22.12.2021
4791 Clouds -12 1021 85 10000 0.89 295 18:57 22.12.2021
4792 Clear -12 1022 89 10000 0.89 312 17:39 22.12.2021
4793 Clear -11 1023 89 10000 0.89 288 16:34 22.12.2021
4794 Clear -11 1023 88 10000 0.45 284 15:24 22.12.2021
4795 Clear -9 1023 85 10000 0.89 312 12:59 22.12.2021
4796 Clear -9 1023 84 10000 1.34 278 11:58 22.12.2021
4797 Clear -10 1024 84 10000 1.34 324 09:53 22.12.2021
4798 Clear -11 1022 86 10000 1.79 311 08:58 22.12.2021
4799 Clear -12 1022 82 10000 1.79 314 07:21 22.12.2021
4800 Clear -13 1023 76 10000 3.6 330 05:39 22.12.2021
4801 Clear -13 1023 73 10000 3.6 330 05:20 22.12.2021
4802 Clear -13 1023 73 10000 3.6 320 04:43 22.12.2021
4803 Clear -13 1023 73 10000 4.63 320 03:56 22.12.2021
4804 Clear -13 1023 73 10000 4.63 320 03:31 22.12.2021
4805 Clear -13 1021 81 10000 1.79 318 23:57 21.12.2021
4806 Clear -12 1021 81 10000 2.68 323 22:44 21.12.2021
4807 Clear -12 1021 81 10000 2.68 331 22:24 21.12.2021
4808 Clear -12 1020 81 10000 2.68 323 21:42 21.12.2021
4809 Clear -12 1021 82 10000 3.13 312 20:44 21.12.2021
4810 Clear -13 1021 81 10000 4.47 324 20:20 21.12.2021
4811 Clear -13 1021 81 10000 4.47 324 20:20 21.12.2021
4812 Clouds -12 1021 79 10000 3.58 333 19:40 21.12.2021
4813 Clear -13 1020 80 10000 4.47 338 18:33 21.12.2021
4814 Clear -13 1020 79 10000 1.79 320 17:59 21.12.2021
4815 Clear -13 1020 82 10000 2.68 322 17:40 21.12.2021
4816 Clear -13 1021 80 10000 3.13 327 15:46 21.12.2021
4817 Clear -12 1021 82 10000 1.79 317 14:24 21.12.2021
4818 Clear -12 1021 78 10000 2.68 337 13:42 21.12.2021
4819 Clear -12 1021 78 10000 2.68 332 12:39 21.12.2021
4820 Clear -12 1021 82 10000 3.58 329 10:52 21.12.2021
4821 Clear -12 1021 83 10000 2.68 333 09:56 21.12.2021
4822 Clear -12 1019 82 10000 2.68 347 08:57 21.12.2021
4823 Clouds -12 1018 82 10000 2.68 346 07:45 21.12.2021
4824 Clouds -12 1018 80 10000 3.58 345 07:23 21.12.2021
4825 Clouds -10 1017 83 10000 2.68 343 04:37 21.12.2021
4826 Clouds -10 1016 87 10000 4.02 339 02:31 21.12.2021
4827 Clouds -8 1017 81 10000 3.13 324 23:55 20.12.2021
4828 Snow -8 1017 82 9000 4.47 339 22:44 20.12.2021
4829 Snow -8 1017 83 10000 4.92 335 22:25 20.12.2021
4830 Clouds -8 1017 83 10000 4.02 329 21:27 20.12.2021
4831 Snow -8 1017 81 10000 5.36 334 20:55 20.12.2021
4832 Snow -8 1017 83 10000 4.02 327 20:24 20.12.2021
4833 Snow -9 1017 81 7000 4.02 328 19:38 20.12.2021
4834 Snow -9 1018 80 7000 4.47 335 19:19 20.12.2021
4835 Snow -9 1018 79 10000 4.47 328 18:33 20.12.2021
4836 Snow -9 1018 73 10000 3.13 335 17:51 20.12.2021
4837 Snow -10 1018 71 10000 5.81 332 16:47 20.12.2021
4838 Clouds -10 1019 71 10000 4.92 337 16:18 20.12.2021
4839 Clouds -10 1018 73 10000 4.02 336 15:40 20.12.2021
4840 Clouds -10 1019 72 10000 3.58 331 13:49 20.12.2021
4841 Clouds -10 1019 72 10000 4.47 337 12:40 20.12.2021
4842 Clouds -10 1019 75 10000 2.24 345 10:50 20.12.2021
4843 Clouds -10 1018 75 10000 3.58 346 09:40 20.12.2021
4844 Snow -9 1016 75 9000 1.79 8 08:50 20.12.2021
4845 Snow -9 1015 75 10000 3.13 358 08:32 20.12.2021
4846 Snow -8 1014 74 10000 2.68 354 07:35 20.12.2021
4847 Clouds -8 1013 77 10000 2.68 338 06:39 20.12.2021
4848 Snow -4 1010 70 10000 4.02 349 00:26 20.12.2021
4849 Snow -4 1009 72 10000 4.02 348 22:58 19.12.2021
4850 Clouds -4 1009 72 10000 2.68 352 22:40 19.12.2021
4851 Clouds -4 1008 73 10000 2.68 18 21:32 19.12.2021
4852 Clouds -3 1007 74 10000 2.68 4 20:42 19.12.2021
4853 Clouds -3 1006 72 10000 3.13 355 20:23 19.12.2021
4854 Clouds -2 1005 74 10000 3.58 29 19:41 19.12.2021
4855 Snow -1 1003 81 10000 3.58 23 18:42 19.12.2021
4856 Snow 0 1002 84 10000 4.47 356 17:53 19.12.2021
4857 Snow 0 1001 84 10000 1.79 337 17:31 19.12.2021
4858 Snow 1 1000 80 10000 3.58 331 16:41 19.12.2021
4859 Clouds 1 1000 80 10000 3.13 331 15:56 19.12.2021
4860 Clouds 1 1000 81 10000 4.47 333 15:24 19.12.2021
4861 Clouds 1 999 82 10000 4.92 332 14:45 19.12.2021
4862 Clouds 1 999 83 10000 4.92 332 13:32 19.12.2021
4863 Clouds 1 999 84 10000 4.02 319 12:59 19.12.2021
4864 Clouds 1 999 82 10000 3.58 331 12:29 19.12.2021
4865 Clouds 1 998 84 10000 3.58 324 11:37 19.12.2021
4866 Clouds 1 998 84 10000 4.02 321 10:50 19.12.2021
4867 Clouds 1 998 85 10000 4.02 333 10:22 19.12.2021
4868 Clouds 1 996 85 10000 4.02 321 08:50 19.12.2021
4869 Clouds 1 996 85 10000 4.92 326 06:45 19.12.2021
4870 Clouds 2 998 89 10000 3.58 312 01:52 19.12.2021
4871 Rain 2 999 91 10000 3.58 322 00:54 19.12.2021
4872 Clouds 3 999 89 10000 4.47 314 23:18 18.12.2021
4873 Clouds 3 999 91 10000 4.47 321 22:24 18.12.2021
4874 Clouds 3 1000 93 10000 4.02 321 21:44 18.12.2021
4875 Clouds 3 1000 94 10000 3.13 329 21:22 18.12.2021
4876 Clouds 4 1001 94 10000 2.68 319 20:26 18.12.2021
4877 Rain 4 1003 96 10000 0.89 5 19:35 18.12.2021
4878 Clouds 4 1004 94 10000 1.79 285 18:24 18.12.2021
4879 Clouds 4 1005 94 10000 1.79 280 17:49 18.12.2021
4880 Clouds 4 1007 96 10000 1.34 289 16:36 18.12.2021
4881 Clouds 4 1007 94 10000 1.79 303 16:18 18.12.2021
4882 Clouds 4 1009 94 10000 2.24 303 14:54 18.12.2021
4883 Clouds 3 1010 94 10000 1.79 301 13:45 18.12.2021
4884 Clouds 3 1012 96 10000 3.13 306 11:55 18.12.2021
4885 Clouds 3 1012 96 10000 2.68 307 09:54 18.12.2021
4886 Mist 3 1013 97 5000 2.68 311 09:31 18.12.2021
4887 Drizzle 2 1013 97 6000 1.79 310 08:36 18.12.2021
4888 Drizzle 1 1014 97 2500 0.89 301 06:28 18.12.2021
4889 Snow 0 1021 92 10000 0.45 301 01:45 18.12.2021
4890 Clear 0 1022 91 10000 0.89 301 23:49 17.12.2021
4891 Clouds 0 1022 91 10000 1.34 326 22:39 17.12.2021
4892 Clouds 0 1023 91 10000 1.79 327 21:31 17.12.2021
4893 Clouds 0 1023 89 10000 2.68 319 20:43 17.12.2021
4894 Clouds 0 1023 90 10000 2.68 332 19:56 17.12.2021
4895 Clouds 1 1023 88 10000 3.13 328 18:39 17.12.2021
4896 Clouds 1 1023 88 10000 3.58 333 17:50 17.12.2021
4897 Clouds 0 1023 88 10000 1.79 320 16:51 17.12.2021
4898 Clear 0 1022 88 10000 1.34 324 16:27 17.12.2021
4899 Clear 0 1022 88 10000 1.79 313 15:38 17.12.2021
4900 Clear 1 1021 88 10000 1.79 309 14:42 17.12.2021
4901 Clear 1 1021 87 10000 2.68 333 13:45 17.12.2021
4902 Clear 2 1020 85 10000 4.02 333 12:36 17.12.2021
4903 Clear 1 1019 86 10000 3.13 324 10:42 17.12.2021
4904 Clear 1 1018 87 10000 4.92 333 09:47 17.12.2021
4905 Clouds 1 1015 87 10000 4.47 323 08:32 17.12.2021
4906 Clouds 1 1014 88 10000 3.13 327 07:30 17.12.2021
4907 Clouds 1 1012 89 10000 3.13 327 04:40 17.12.2021
4908 Clouds 2 1012 89 10000 3.13 322 00:22 17.12.2021
4909 Clouds 2 1012 88 10000 3.13 316 22:24 16.12.2021
4910 Clouds 3 1011 89 10000 2.68 313 21:51 16.12.2021
4911 Clouds 3 1011 88 10000 3.58 312 21:33 16.12.2021
4912 Clouds 3 1011 87 10000 3.13 317 20:31 16.12.2021
4913 Clouds 3 1011 87 10000 3.13 315 19:51 16.12.2021
4914 Clouds 3 1011 88 10000 3.13 309 18:42 16.12.2021
4915 Clouds 3 1010 88 10000 3.58 311 18:22 16.12.2021
4916 Clouds 3 1009 89 10000 2.24 315 17:32 16.12.2021
4917 Clouds 3 1009 89 10000 3.13 313 16:23 16.12.2021
4918 Clouds 3 1008 91 10000 3.13 315 15:20 16.12.2021
4919 Clouds 3 1007 90 10000 2.68 310 13:43 16.12.2021
4920 Clouds 3 1006 90 10000 2.24 292 11:48 16.12.2021
4921 Clouds 3 1006 92 10000 2.68 286 11:18 16.12.2021
4922 Clouds 3 1005 93 10000 2.24 301 10:32 16.12.2021
4923 Clouds 3 1003 94 10000 1.34 299 08:56 16.12.2021
4924 Fog 3 1002 97 900 1.34 277 06:23 16.12.2021
4925 Clouds 2 1003 97 10000 1.34 251 02:59 16.12.2021
4926 Clouds 3 1005 94 10000 1.79 289 23:35 15.12.2021
4927 Clouds 3 1005 94 10000 2.24 282 22:48 15.12.2021
4928 Clouds 4 1005 94 10000 0.89 293 21:58 15.12.2021
4929 Clouds 4 1005 94 10000 0.89 285 21:28 15.12.2021
4930 Clouds 4 1005 95 10000 1.34 280 20:31 15.12.2021
4931 Clouds 4 1005 97 10000 1.34 296 19:52 15.12.2021
4932 Clouds 4 1005 97 8000 0.89 259 18:40 15.12.2021
4933 Drizzle 5 1005 95 5000 1.79 266 17:57 15.12.2021
4934 Drizzle 5 1005 95 7000 0.89 245 17:39 15.12.2021
4935 Drizzle 4 1005 98 3000 2.68 233 16:35 15.12.2021
4936 Drizzle 4 1005 98 3000 3.13 229 15:47 15.12.2021
4937 Mist 4 1005 98 3000 3.13 229 15:47 15.12.2021
4938 Mist 4 1006 98 3000 3.13 222 15:29 15.12.2021
4939 Drizzle 4 1006 98 2500 2.68 231 14:43 15.12.2021
4940 Drizzle 4 1007 98 4000 3.58 225 12:52 15.12.2021
4941 Drizzle 4 1009 95 4000 2.68 212 10:49 15.12.2021
4942 Clouds 3 1009 95 6000 2.24 234 09:28 15.12.2021
4943 Clouds 1 1010 97 8000 0.89 189 07:44 15.12.2021
4944 Drizzle 1 1011 94 10000 1.34 262 01:39 15.12.2021
4945 Drizzle 1 1011 97 10000 1.34 248 23:42 14.12.2021
4946 Clouds 1 1011 97 10000 1.34 254 22:49 14.12.2021
4947 Drizzle 2 1011 95 10000 0.89 271 22:25 14.12.2021
4948 Clouds 2 1010 95 10000 1.79 277 20:55 14.12.2021
4949 Drizzle 2 1010 95 10000 0.45 268 19:44 14.12.2021
4950 Drizzle 2 1010 97 8000 0.89 307 19:20 14.12.2021
4951 Drizzle 3 1009 97 6000 0.89 277 18:28 14.12.2021
4952 Mist 3 1009 98 4500 0.89 252 17:33 14.12.2021
4953 Mist 3 1009 97 4000 1.34 236 16:42 14.12.2021
4954 Mist 3 1009 98 1400 1.34 245 15:36 14.12.2021
4955 Drizzle 2 1011 96 10000 4.02 213 13:31 14.12.2021
4956 Snow 2 1011 95 7000 4.47 203 12:21 14.12.2021
4957 Snow 2 1011 95 7000 2.68 194 11:24 14.12.2021
4958 Drizzle 2 1012 97 7000 3.13 187 10:24 14.12.2021
4959 Drizzle 2 1013 97 6000 4.02 191 09:51 14.12.2021
4960 Drizzle 2 1013 97 4500 3.58 192 08:28 14.12.2021
4961 Drizzle 2 1014 97 2500 4.47 191 07:43 14.12.2021
4962 Clouds 2 1015 97 10000 4.92 194 05:35 14.12.2021
4963 Clouds 2 1019 94 10000 1.34 200 22:56 13.12.2021
4964 Clouds 2 1019 95 10000 0.89 239 21:53 13.12.2021
4965 Clouds 2 1019 95 10000 0.89 246 21:33 13.12.2021
4966 Clouds 2 1019 95 10000 3.13 206 20:43 13.12.2021
4967 Rain 2 1019 95 10000 1.79 195 19:53 13.12.2021
4968 Clouds 2 1019 95 10000 2.68 194 18:33 13.12.2021
4969 Clouds 2 1020 95 10000 1.79 212 17:26 13.12.2021
4970 Rain 2 1020 97 9000 1.34 198 15:54 13.12.2021
4971 Rain 2 1021 97 10000 1.79 217 15:32 13.12.2021
4972 Rain 1 1021 97 6000 2.24 196 13:45 13.12.2021
4973 Mist 1 1021 97 4500 1.79 218 12:59 13.12.2021
4974 Fog 1 1021 97 800 1.79 227 11:59 13.12.2021
4975 Mist 1 1020 97 5000 2.24 213 11:35 13.12.2021
4976 Mist 1 1020 97 4000 0.89 220 10:47 13.12.2021
4977 Fog 1 1020 97 500 1.79 234 09:32 13.12.2021
4978 Mist 1 1019 97 1100 0.89 223 07:53 13.12.2021
4979 Clouds 0 1019 97 6000 1.03 0 05:36 13.12.2021
4980 Mist 0 1019 96 2000 0.89 211 03:28 13.12.2021
4981 Fog 1 1018 97 800 0.45 295 23:22 12.12.2021
4982 Fog 1 1018 97 800 0 0 21:41 12.12.2021
4983 Mist 1 1018 97 1500 0.51 0 20:18 12.12.2021
4984 Drizzle 1 1018 97 3000 0.45 304 18:43 12.12.2021
4985 Drizzle 1 1018 95 2500 0.45 27 17:38 12.12.2021
4986 Drizzle 1 1018 96 2500 0.45 302 16:28 12.12.2021
4987 Mist 1 1018 96 1400 0.45 319 15:50 12.12.2021
4988 Mist 1 1018 97 1400 0.45 305 15:25 12.12.2021
4989 Fog 1 1018 97 500 0.51 0 14:36 12.12.2021
4990 Fog 1 1018 96 500 1.03 40 13:26 12.12.2021
4991 Fog 1 1018 96 400 0 0 12:30 12.12.2021
4992 Fog 1 1018 96 400 0 0 11:44 12.12.2021
4993 Fog 1 1018 96 300 0.45 201 11:22 12.12.2021
4994 Fog 1 1018 96 200 0.45 303 10:22 12.12.2021
4995 Fog 1 1018 96 200 0 0 09:38 12.12.2021
4996 Fog 1 1018 96 400 1.03 0 08:33 12.12.2021
4997 Rain 1 1018 96 1500 1.54 60 06:19 12.12.2021
4998 Drizzle 1 1018 96 1000 0.45 207 04:56 12.12.2021
4999 Rain 1 1017 96 7000 0.89 177 03:31 12.12.2021
5000 Snow 1 1017 96 6000 0.45 166 23:47 11.12.2021
5001 Snow 1 1017 96 4000 0.45 171 22:23 11.12.2021
5002 Snow 1 1017 96 7000 0.45 146 21:52 11.12.2021
5003 Snow 1 1016 96 6000 0.89 140 20:51 11.12.2021
5004 Snow 1 1016 96 6000 0.89 138 19:27 11.12.2021
5005 Snow 1 1016 96 6000 0.89 147 18:52 11.12.2021
5006 Snow 0 1016 96 4000 1.34 129 18:25 11.12.2021
5007 Snow 1 1016 96 4000 0.89 147 17:21 11.12.2021
5008 Snow 0 1016 96 6000 0.89 159 15:54 11.12.2021
5009 Snow 0 1016 96 4000 1.34 146 15:28 11.12.2021
5010 Rain 0 1015 95 4500 18.78 353 12:57 11.12.2021
5011 Snow 0 1015 94 3000 1.79 164 11:25 11.12.2021
5012 Snow 0 1015 93 10000 1.34 141 09:46 11.12.2021
5013 Snow 0 1015 92 10000 1.79 136 08:28 11.12.2021
5014 Clouds 0 1015 95 10000 4.02 329 02:29 11.12.2021
5015 Snow -1 1015 95 10000 4.02 351 00:36 11.12.2021
5016 Snow -1 1015 92 10000 2.68 136 23:21 10.12.2021
5017 Snow -1 1015 93 10000 4.47 351 21:57 10.12.2021
5018 Snow -1 1015 93 10000 4.47 359 21:31 10.12.2021
5019 Snow -1 1015 94 10000 2.68 133 19:22 10.12.2021
5020 Snow -1 1015 93 10000 2.68 130 18:21 10.12.2021
5021 Snow -2 1015 92 10000 2.68 129 16:56 10.12.2021
5022 Snow -2 1015 92 10000 2.68 135 16:28 10.12.2021
5023 Snow -2 1015 92 10000 3.58 130 15:41 10.12.2021
5024 Snow -2 1015 92 10000 3.13 137 15:21 10.12.2021
5025 Snow -2 1015 92 5000 3.13 123 13:52 10.12.2021
5026 Snow -2 1015 92 10000 3.58 129 13:26 10.12.2021
5027 Snow -2 1016 92 10000 3.58 142 12:39 10.12.2021
5028 Snow -2 1016 92 10000 3.58 139 11:29 10.12.2021
5029 Snow -2 1016 93 10000 3.13 129 10:37 10.12.2021
5030 Clouds -2 1017 93 10000 2.68 135 08:57 10.12.2021
5031 Clouds -3 1018 92 10000 2.68 132 06:50 10.12.2021
5032 Clear -4 1019 77 10000 1.79 143 02:48 10.12.2021
5033 Clear -4 1019 76 10000 1.79 143 02:48 10.12.2021
5034 Clear -4 1021 78 10000 2.68 135 00:38 10.12.2021
5035 Clouds -4 1022 82 10000 3.58 130 23:22 09.12.2021
5036 Clouds -5 1022 82 10000 2.24 132 22:26 09.12.2021
5037 Clouds -5 1022 82 10000 2.68 131 21:59 09.12.2021
5038 Clouds -5 1022 84 10000 3.13 136 21:18 09.12.2021
5039 Clouds -5 1023 81 10000 2.68 137 20:22 09.12.2021
5040 Clouds -5 1024 84 10000 2.68 130 19:21 09.12.2021
5041 Clouds -5 1024 85 10000 2.68 138 18:48 09.12.2021
5042 Clouds -5 1024 88 10000 3.13 125 17:56 09.12.2021
5043 Clouds -5 1024 88 10000 2.68 134 17:26 09.12.2021
5044 Clouds -5 1024 87 10000 0.45 160 16:55 09.12.2021
5045 Snow -5 1025 89 10000 1.79 143 15:46 09.12.2021
5046 Clouds -5 1025 89 10000 1.34 168 14:48 09.12.2021
5047 Clouds -5 1024 89 10000 0.45 216 13:25 09.12.2021
5048 Clouds -6 1025 90 10000 0.89 204 12:42 09.12.2021
5049 Clouds -7 1025 90 10000 0.89 112 11:24 09.12.2021
5050 Clouds -8 1025 88 10000 0.89 62 09:44 09.12.2021
5051 Clouds -10 1024 85 10000 0.89 45 06:50 09.12.2021
5052 Clouds -12 1024 82 10000 0.89 342 03:41 09.12.2021
5053 Clouds -13 1023 83 10000 0.89 32 23:44 08.12.2021
5054 Clouds -13 1023 85 10000 1.34 349 23:21 08.12.2021
5055 Clouds -13 1023 85 10000 0.89 348 22:48 08.12.2021
5056 Clouds -14 1022 85 10000 0.89 347 21:42 08.12.2021
5057 Clouds -14 1022 85 10000 0.89 344 21:24 08.12.2021
5058 Snow -15 1023 84 10000 0.89 8 19:58 08.12.2021
5059 Snow -15 1023 77 10000 2.06 40 19:34 08.12.2021
5060 Snow -15 1022 84 10000 0.89 27 18:46 08.12.2021
5061 Clouds -15 1021 84 10000 0.89 348 17:37 08.12.2021
5062 Clouds -15 1022 90 10000 0.45 22 15:51 08.12.2021
5063 Fog -15 1022 81 10000 0.45 354 15:28 08.12.2021
5064 Fog -15 1022 73 10000 1.54 30 14:31 08.12.2021
5065 Fog -17 1021 92 10000 1.03 320 11:36 08.12.2021
5066 Clouds -18 1021 85 10000 1.03 330 10:31 08.12.2021
5067 Fog -20 1021 84 10000 1.54 310 08:56 08.12.2021
5068 Clouds -18 1021 73 10000 1.03 340 07:25 08.12.2021
5069 Clear -18 1019 73 10000 1.03 20 04:57 08.12.2021
5070 Snow -16 1017 82 10000 1.34 335 23:34 07.12.2021
5071 Clear -16 1016 82 10000 1.79 337 21:51 07.12.2021
5072 Clear -16 1016 82 10000 1.79 341 21:23 07.12.2021
5073 Clouds -15 1016 81 10000 0.89 332 20:20 07.12.2021
5074 Clouds -15 1017 85 10000 0.89 343 18:43 07.12.2021
5075 Clouds -15 1017 85 10000 0.89 328 17:52 07.12.2021
5076 Clouds -15 1017 88 10000 0.89 335 17:19 07.12.2021
5077 Clouds -15 1017 85 10000 0.89 332 16:31 07.12.2021
5078 Clouds -14 1016 84 10000 1.34 308 15:33 07.12.2021
5079 Clouds -14 1016 87 10000 0.89 313 14:18 07.12.2021
5080 Clouds -13 1016 83 10000 1.34 331 12:55 07.12.2021
5081 Clear -14 1016 83 10000 0.89 324 11:29 07.12.2021
5082 Clear -15 1015 83 10000 1.34 27 10:33 07.12.2021
5083 Clouds -16 1015 77 10000 1.34 331 08:26 07.12.2021
5084 Clear -16 1016 81 10000 2.68 328 06:19 07.12.2021
5085 Clear -16 1016 83 10000 2.24 320 05:34 07.12.2021
5086 Snow -14 1017 82 10000 3.13 328 23:47 06.12.2021
5087 Clouds -15 1018 82 10000 2.24 332 22:57 06.12.2021
5088 Snow -15 1018 82 10000 3.58 335 22:35 06.12.2021
5089 Snow -15 1018 85 10000 3.13 337 21:51 06.12.2021
5090 Clouds -15 1018 77 10000 2.06 10 20:33 06.12.2021
5091 Clouds -15 1018 82 10000 2.68 344 19:55 06.12.2021
5092 Clouds -15 1019 82 10000 3.13 337 19:20 06.12.2021
5093 Snow -15 1019 89 10000 2.68 343 18:23 06.12.2021
5094 Clouds -14 1018 82 10000 0.89 356 17:40 06.12.2021
5095 Clouds -15 1019 82 10000 2.24 337 17:40 06.12.2021
5096 Snow -14 1019 84 10000 4.12 40 16:32 06.12.2021
5097 Clouds -14 1019 83 10000 0.89 348 15:38 06.12.2021
5098 Snow -12 1020 82 10000 1.79 42 13:46 06.12.2021
5099 Snow -11 1021 81 10000 1.34 53 12:39 06.12.2021
5100 Clouds -11 1021 79 10000 0.89 2 11:36 06.12.2021
5101 Clouds -12 1021 83 10000 2.68 22 08:46 06.12.2021
5102 Snow -13 1021 86 10000 0.89 13 06:39 06.12.2021
5103 Snow -16 1022 81 10000 1.34 328 22:54 05.12.2021
5104 Clouds -17 1024 81 10000 4.02 356 21:51 05.12.2021
5105 Clouds -17 1023 81 10000 3.13 352 21:19 05.12.2021
5106 Clouds -17 1023 81 10000 4.47 354 20:19 05.12.2021
5107 Clouds -17 1024 73 10000 4.12 10 19:33 05.12.2021
5108 Clouds -17 1024 73 10000 3.6 20 18:47 05.12.2021
5109 Clouds -17 1023 73 10000 3.6 20 18:19 05.12.2021
5110 Clear -17 1023 73 10000 4.12 20 17:48 05.12.2021
5111 Clear -16 1023 73 10000 4.12 10 16:47 05.12.2021
5112 Clear -16 1023 70 10000 4.12 20 16:26 05.12.2021
5113 Clear -15 1021 79 10000 1.34 31 15:34 05.12.2021
5114 Clear -15 1021 79 10000 1.34 348 14:37 05.12.2021
5115 Clear -15 1022 82 10000 4.02 9 14:19 05.12.2021
5116 Clear -14 1021 79 10000 2.24 1 13:22 05.12.2021
5117 Clear -14 1021 79 10000 1.34 14 12:40 05.12.2021
5118 Clear -14 1020 76 10000 2.68 24 12:18 05.12.2021
5119 Clear -14 1020 77 10000 2.24 18 11:29 05.12.2021
5120 Clear -15 1020 81 10000 4.92 10 09:59 05.12.2021
5121 Clear -16 1018 81 10000 4.92 16 07:55 05.12.2021
5122 Clear -14 1015 82 10000 0.89 331 03:27 05.12.2021
5123 Snow -12 1014 80 10000 2.68 41 23:34 04.12.2021
5124 Snow -12 1013 80 10000 2.68 27 21:55 04.12.2021
5125 Snow -12 1012 81 10000 1.34 16 20:57 04.12.2021
5126 Clouds -12 1011 81 10000 2.24 38 19:55 04.12.2021
5127 Clouds -12 1011 81 10000 2.24 27 19:32 04.12.2021
5128 Clouds -12 1009 83 10000 1.34 7 18:20 04.12.2021
5129 Snow -12 1009 82 10000 1.34 352 17:38 04.12.2021
5130 Snow -12 1010 83 10000 1.34 354 16:49 04.12.2021
5131 Snow -12 1009 83 10000 0.89 9 16:30 04.12.2021
5132 Clear -11 1009 82 10000 1.79 34 15:22 04.12.2021
5133 Snow -8 1007 81 10000 2.24 43 11:50 04.12.2021
5134 Snow -8 1007 81 10000 2.24 24 11:32 04.12.2021
5135 Snow -7 1006 83 10000 1.79 54 10:44 04.12.2021
5136 Clouds -6 1003 86 10000 1.34 49 08:47 04.12.2021
5137 Clouds -5 1001 88 10000 1.34 17 06:26 04.12.2021
5138 Snow -5 1000 91 10000 0.89 348 04:42 04.12.2021
5139 Snow -6 1001 90 10000 1.34 332 00:18 04.12.2021
5140 Snow -6 1000 90 10000 0.89 336 23:20 03.12.2021
5141 Snow -6 1000 89 10000 1.34 327 22:41 03.12.2021
5142 Snow -6 1000 90 6000 1.34 339 21:26 03.12.2021
5143 Snow -7 999 89 8000 2.24 327 20:52 03.12.2021
5144 Snow -7 999 87 8000 1.79 321 19:50 03.12.2021
5145 Snow -8 999 88 7000 2.68 333 18:34 03.12.2021
5146 Snow -8 998 87 7000 2.24 326 17:59 03.12.2021
5147 Snow -8 998 86 10000 4.02 348 15:36 03.12.2021
5148 Clouds -9 997 68 10000 4.93 26 12:54 03.12.2021
5149 Snow -11 997 92 10000 4.12 360 11:39 03.12.2021
5150 Snow -12 997 92 9000 3.6 360 10:51 03.12.2021
5151 Snow -11 996 85 7000 4.12 10 08:26 03.12.2021
5152 Snow -11 996 85 10000 4.63 20 07:42 03.12.2021
5153 Clear -10 996 89 10000 3.09 20 04:26 03.12.2021
5154 Clear -10 995 84 10000 4.12 20 00:48 03.12.2021
5155 Clear -10 995 80 10000 3.09 30 23:47 02.12.2021
5156 Clouds -9 995 79 10000 4.12 30 21:57 02.12.2021
5157 Clouds -9 995 79 10000 4.63 40 21:30 02.12.2021
5158 Clouds -9 995 82 10000 4.63 30 20:40 02.12.2021
5159 Clouds -9 994 81 10000 5.14 30 19:43 02.12.2021
5160 Clear -8 994 82 10000 4.47 31 18:33 02.12.2021
5161 Clouds -7 993 80 10000 1.79 8 15:52 02.12.2021
5162 Clouds -7 992 80 10000 2.24 44 15:28 02.12.2021
5163 Clouds -7 992 82 10000 0.89 64 14:48 02.12.2021
5164 Clouds -7 991 79 10000 1.79 33 12:53 02.12.2021
5165 Clouds -7 991 77 10000 1.34 61 12:19 02.12.2021
5166 Clear -7 992 81 10000 1.79 37 10:38 02.12.2021
5167 Clouds -8 993 82 10000 1.79 67 08:59 02.12.2021
5168 Snow -8 992 82 10000 0.45 89 05:34 02.12.2021
5169 Clouds -11 993 81 10000 0.89 324 00:55 02.12.2021
5170 Clear -11 992 85 10000 0.51 0 23:30 01.12.2021
5171 Clear -11 992 85 10000 0.89 322 22:25 01.12.2021
5172 Clouds -10 993 85 10000 1.34 338 21:36 01.12.2021
5173 Clouds -10 993 85 10000 0.89 293 19:58 01.12.2021
5174 Clear -10 993 86 10000 0.89 283 19:34 01.12.2021
5175 Clear -9 993 86 10000 0.89 294 17:50 01.12.2021
5176 Clouds -8 993 86 10000 2.24 324 16:58 01.12.2021
5177 Clouds -6 992 79 10000 1.34 320 14:59 01.12.2021
5178 Clouds -5 991 76 10000 3.13 330 13:49 01.12.2021
5179 Clouds -5 991 74 10000 1.79 302 13:30 01.12.2021
5180 Snow -5 990 74 10000 3.58 316 10:43 01.12.2021
5181 Snow -5 989 76 10000 2.68 327 09:32 01.12.2021
5182 Snow -5 987 78 10000 3.58 314 08:36 01.12.2021
5183 Snow -5 987 76 10000 2.68 327 07:38 01.12.2021
5184 Snow -5 986 79 10000 3.13 313 07:19 01.12.2021
5185 Snow -7 984 82 10000 4.02 311 03:47 01.12.2021
5186 Snow -7 984 80 10000 4.02 328 02:34 01.12.2021
5187 Snow -9 984 81 8000 4.02 296 23:56 30.11.2021
5188 Snow -9 983 75 8000 6.17 300 23:28 30.11.2021
5189 Snow -9 983 70 8000 6.17 300 21:55 30.11.2021
5190 Snow -9 983 66 7000 7.2 310 20:46 30.11.2021
5191 Snow -10 982 79 7000 6.69 310 20:19 30.11.2021
5192 Snow -10 982 79 7000 7.2 310 19:38 30.11.2021
5193 Snow -9 982 70 7000 7.2 310 18:38 30.11.2021
5194 Snow -9 982 73 8000 5.66 310 17:21 30.11.2021
5195 Snow -9 982 84 10000 4.92 295 15:44 30.11.2021
5196 Clouds -9 982 82 10000 4.47 301 14:23 30.11.2021
5197 Clouds -8 983 79 10000 4.02 320 13:28 30.11.2021
5198 Clouds -8 981 78 10000 3.58 328 12:52 30.11.2021
5199 Clouds -8 983 78 10000 4.47 309 11:50 30.11.2021
5200 Clouds -8 983 73 10000 5.66 320 11:25 30.11.2021
5201 Clouds -9 984 76 10000 5.66 320 10:34 30.11.2021
5202 Clouds -9 985 85 10000 5.14 330 08:53 30.11.2021
5203 Snow -9 986 75 10000 5.66 320 08:31 30.11.2021
5204 Snow -9 986 76 10000 5.14 330 07:48 30.11.2021
5205 Snow -8 989 82 10000 3.58 330 02:41 30.11.2021
5206 Snow -7 990 84 10000 3.13 331 01:43 30.11.2021
5207 Snow -7 991 84 10000 2.68 352 00:33 30.11.2021
5208 Snow -7 992 85 8000 4.02 334 23:25 29.11.2021
5209 Snow -7 993 86 5000 3.13 334 22:57 29.11.2021
5210 Snow -7 993 85 4000 4.92 328 22:34 29.11.2021
5211 Snow -7 994 85 10000 4.02 338 21:39 29.11.2021
5212 Snow -6 995 85 10000 2.68 355 21:18 29.11.2021
5213 Snow -6 995 84 10000 1.79 328 20:40 29.11.2021
5214 Snow -6 996 84 10000 1.79 14 19:56 29.11.2021
5215 Snow -6 996 84 10000 2.68 346 19:36 29.11.2021
5216 Snow -6 997 84 10000 2.68 16 19:36 29.11.2021
5217 Clouds -4 998 80 10000 7.03 36 18:52 29.11.2021
5218 Clouds -4 1000 77 10000 7.39 38 17:55 29.11.2021
5219 Clouds -4 1000 78 10000 7.79 39 17:20 29.11.2021
5220 Clouds -4 1001 80 10000 7.81 39 16:29 29.11.2021
5221 Clouds -4 1001 80 10000 7.81 39 15:52 29.11.2021
5222 Snow -4 1003 82 10000 7.47 44 14:43 29.11.2021
5223 Clouds -4 1003 82 5866 7.82 53 13:36 29.11.2021
5224 Snow -3 1004 82 5836 7.74 55 12:42 29.11.2021
5225 Snow -3 1005 83 5493 7.35 59 11:41 29.11.2021
5226 Snow -3 1005 84 1582 7.36 63 10:58 29.11.2021
5227 Snow -5 1006 80 10000 6.17 30 09:36 29.11.2021
5228 Snow -6 1006 86 10000 6.69 30 06:21 29.11.2021
5229 Snow -6 1007 86 10000 6.69 30 03:46 29.11.2021
5230 Snow -6 1007 86 10000 5.14 30 00:43 29.11.2021
5231 Snow -6 1007 79 10000 5.14 30 23:44 28.11.2021
5232 Snow -6 1007 79 10000 5.14 30 23:24 28.11.2021
5233 Clouds -7 1007 86 10000 5.14 40 21:52 28.11.2021
5234 Clouds -7 1007 86 10000 5.14 40 21:23 28.11.2021
5235 Clouds -7 1007 86 10000 5.14 30 20:34 28.11.2021
5236 Clouds -7 1006 79 10000 5.14 30 19:28 28.11.2021
5237 Clouds -7 1006 79 10000 4.12 30 18:35 28.11.2021
5238 Clouds -7 1006 86 10000 4.12 20 17:56 28.11.2021
5239 Clouds -7 1006 86 10000 4.12 10 17:32 28.11.2021
5240 Clouds -7 1006 79 10000 3.09 20 16:44 28.11.2021
5241 Clouds -7 1005 86 10000 3.6 20 16:22 28.11.2021
5242 Clouds -7 1005 86 10000 3.6 30 15:32 28.11.2021
5243 Clouds -7 1005 86 10000 3.09 10 14:48 28.11.2021
5244 Clouds -7 1005 86 10000 3.6 20 13:49 28.11.2021
5245 Clouds -7 1004 86 10000 4.12 20 12:51 28.11.2021
5246 Clouds -7 1004 86 10000 4.63 20 11:18 28.11.2021
5247 Clouds -7 1004 86 10000 5.14 40 10:22 28.11.2021
5248 Clouds -7 1004 79 10000 5.66 30 09:38 28.11.2021
5249 Clouds -8 1003 86 10000 5.66 20 07:59 28.11.2021
5250 Clouds -7 1004 86 10000 5.66 30 00:20 28.11.2021
5251 Clouds -7 1005 86 10000 5.14 20 21:20 27.11.2021
5252 Clouds -7 1005 86 10000 4.63 20 19:47 27.11.2021
5253 Clouds -7 1005 86 10000 5.14 30 17:27 27.11.2021
5254 Clouds -8 1005 93 10000 6.17 30 15:59 27.11.2021
5255 Clouds -8 1005 86 10000 5.14 40 14:26 27.11.2021
5256 Clear -8 1005 93 10000 4.12 30 12:58 27.11.2021
5257 Clear -7 1005 86 10000 4.12 20 10:52 27.11.2021
5258 Clear -8 1005 93 10000 4.63 40 09:53 27.11.2021
5259 Clear -9 1005 92 10000 3.09 30 08:44 27.11.2021
5260 Clouds -9 1005 92 10000 3.6 30 06:34 27.11.2021
5261 Clear -8 1003 93 10000 2.57 30 01:59 27.11.2021
5262 Clear -7 1002 93 10000 2.06 30 23:39 26.11.2021
5263 Clear -6 1002 86 10000 1.54 40 22:26 26.11.2021
5264 Clear -6 1001 86 10000 2.06 40 21:41 26.11.2021
5265 Clear -7 1001 93 10000 2.06 20 21:22 26.11.2021
5266 Clear -7 1000 93 10000 2.06 20 20:40 26.11.2021
5267 Clear -6 1000 93 10000 3.09 350 19:55 26.11.2021
5268 Clear -5 999 86 10000 2.57 350 18:44 26.11.2021
5269 Clouds -4 998 80 10000 3.6 360 17:24 26.11.2021
5270 Clouds -3 998 80 10000 3.09 340 16:29 26.11.2021
5271 Clouds -2 995 86 10000 3.09 300 14:25 26.11.2021
5272 Clouds -1 995 80 10000 1.79 336 13:31 26.11.2021
5273 Clouds -2 992 85 10000 1.79 305 10:43 26.11.2021
5274 Clouds -2 991 81 10000 1.34 304 09:41 26.11.2021
5275 Clear -3 990 82 10000 1.34 303 08:49 26.11.2021
5276 Clear -2 990 85 10000 1.34 277 08:19 26.11.2021
5277 Clear -2 988 82 10000 1.79 311 06:29 26.11.2021
5278 Clouds -1 988 88 10000 2.68 330 04:52 26.11.2021
5279 Clouds 1 987 83 10000 3.58 336 03:32 26.11.2021
5280 Rain 3 988 87 8000 0.45 286 23:29 25.11.2021
5281 Mist 3 989 87 1500 1.03 0 22:19 25.11.2021
5282 Mist 3 989 89 1000 0.45 224 20:41 25.11.2021
5283 Rain 3 990 86 10000 0.45 255 19:21 25.11.2021
5284 Rain 3 991 87 10000 0.89 230 18:19 25.11.2021
5285 Rain 3 991 89 10000 0.45 249 17:27 25.11.2021
5286 Clouds 4 992 88 10000 0.89 217 16:41 25.11.2021
5287 Rain 4 992 87 10000 0.89 236 15:58 25.11.2021
5288 Rain 5 993 87 10000 1.34 267 14:24 25.11.2021
5289 Rain 6 993 86 10000 1.79 236 12:55 25.11.2021
5290 Rain 6 994 86 10000 1.79 253 11:56 25.11.2021
5291 Drizzle 6 995 88 10000 3.13 232 10:34 25.11.2021
5292 Clouds 5 996 87 10000 1.79 242 06:36 25.11.2021
5293 Drizzle 3 1000 88 8000 1.79 166 02:56 25.11.2021
5294 Clear 1 1004 86 10000 2.24 130 00:37 25.11.2021
5295 Clear 0 1005 89 10000 0.45 96 22:29 24.11.2021
5296 Clear 0 1005 85 10000 0.45 97 21:48 24.11.2021
5297 Clear 0 1006 89 10000 0.45 162 21:21 24.11.2021
5298 Clear 0 1006 85 10000 2.06 240 20:27 24.11.2021
5299 Clear 0 1006 85 10000 0.45 311 19:36 24.11.2021
5300 Clouds 0 1006 84 10000 0.89 309 18:19 24.11.2021
5301 Clouds 1 1005 80 10000 0.89 309 16:21 24.11.2021
5302 Clouds 2 1004 77 10000 4.02 314 14:57 24.11.2021
5303 Clouds 2 1004 81 10000 2.68 310 14:21 24.11.2021
5304 Clouds 3 1004 80 10000 2.24 318 13:34 24.11.2021
5305 Clouds 4 1002 81 10000 3.58 303 11:26 24.11.2021
5306 Clouds 4 1001 82 10000 4.02 312 10:55 24.11.2021
5307 Clouds 4 1001 80 10000 2.68 314 10:35 24.11.2021
5308 Clouds 4 1000 84 10000 1.79 302 09:33 24.11.2021
5309 Clouds 3 999 84 10000 1.79 271 07:41 24.11.2021
5310 Clouds 3 998 83 10000 2.24 270 05:38 24.11.2021
5311 Clouds 4 998 86 10000 3.13 271 03:32 24.11.2021
5312 Rain 2 1003 82 10000 2.68 221 23:33 23.11.2021
5313 Snow 0 1005 84 10000 3.13 212 22:39 23.11.2021
5314 Snow -1 1007 89 10000 1.79 214 21:45 23.11.2021
5315 Clouds -2 1009 86 10000 0.45 190 20:23 23.11.2021
5316 Snow -2 1009 86 10000 1.79 242 19:33 23.11.2021
5317 Snow -1 1009 86 10000 3.13 225 18:34 23.11.2021
5318 Snow -1 1009 86 10000 1.34 233 17:41 23.11.2021
5319 Snow -1 1009 86 10000 1.34 233 17:41 23.11.2021
5320 Snow -1 1010 86 10000 0.45 294 16:37 23.11.2021
5321 Snow 0 1010 87 6000 0.89 297 15:27 23.11.2021
5322 Snow 0 1010 87 7000 1.34 338 14:54 23.11.2021
5323 Clouds 0 1010 89 10000 2.24 308 13:29 23.11.2021
5324 Clouds 0 1009 88 10000 0.45 339 10:28 23.11.2021
5325 Clouds 1 1009 88 10000 0.45 339 10:28 23.11.2021
5326 Clouds 0 1009 88 10000 1.34 339 09:48 23.11.2021
5327 Snow 0 1008 88 5000 0.89 0 08:41 23.11.2021
5328 Snow 1 1006 87 10000 0.89 157 04:53 23.11.2021
5329 Snow 1 1006 87 10000 2.24 189 03:35 23.11.2021
5330 Snow 1 1008 80 10000 1.79 239 23:41 22.11.2021
5331 Clouds 2 1008 84 10000 4.47 215 23:20 22.11.2021
5332 Rain 1 1009 80 10000 1.79 206 22:30 22.11.2021
5333 Snow -1 1009 84 10000 1.79 206 21:45 22.11.2021
5334 Clouds -1 1009 83 10000 1.34 189 21:21 22.11.2021
5335 Clouds -1 1009 82 10000 1.34 183 20:42 22.11.2021
5336 Clouds -2 1009 78 10000 1.34 202 19:21 22.11.2021
5337 Clear -2 1009 81 10000 0.89 197 18:41 22.11.2021
5338 Clear -2 1010 79 10000 1.34 204 18:21 22.11.2021
5339 Clouds -2 1010 80 10000 0.89 231 16:45 22.11.2021
5340 Clouds -2 1011 80 10000 1.34 218 15:32 22.11.2021
5341 Clouds -1 1011 78 10000 0.89 301 12:51 22.11.2021
5342 Clouds -1 1012 78 10000 0.45 289 11:39 22.11.2021
5343 Clouds -2 1012 80 10000 1.34 279 10:26 22.11.2021
5344 Snow -4 1012 82 10000 0.89 263 08:44 22.11.2021
5345 Clouds -4 1012 80 10000 0.89 275 08:24 22.11.2021
5346 Clear -3 1011 81 10000 2.68 308 01:40 22.11.2021
5347 Clear -3 1009 71 10000 2.24 314 23:21 21.11.2021
5348 Clear -3 1009 71 10000 3.13 317 22:43 21.11.2021
5349 Clear -2 1007 70 10000 4.02 326 20:55 21.11.2021
5350 Clear -2 1007 70 10000 4.02 326 20:34 21.11.2021
5351 Clear -1 1004 70 10000 3.58 324 18:55 21.11.2021
5352 Clear -1 1003 70 10000 4.02 324 17:57 21.11.2021
5353 Clear -1 1003 71 10000 4.47 324 17:36 21.11.2021
5354 Clouds 1 1000 74 10000 4.47 338 14:56 21.11.2021
5355 Rain 1 998 76 10000 4.02 329 14:38 21.11.2021
5356 Rain 1 996 80 10000 3.13 338 12:59 21.11.2021
5357 Clouds 1 996 81 10000 2.68 342 12:25 21.11.2021
5358 Clouds 1 996 81 10000 2.24 338 11:37 21.11.2021
5359 Clouds 1 995 81 10000 2.24 324 10:19 21.11.2021
5360 Clouds 1 994 83 10000 1.79 326 09:45 21.11.2021
5361 Snow 0 994 83 10000 1.34 319 08:32 21.11.2021
5362 Snow 0 993 88 10000 1.34 319 07:53 21.11.2021
5363 Clouds 0 993 84 10000 1.79 309 06:28 21.11.2021
5364 Clouds 1 993 82 10000 1.79 315 05:42 21.11.2021
5365 Clouds 1 993 82 10000 0.89 301 03:22 21.11.2021
5366 Clouds 1 993 85 10000 1.34 305 02:55 21.11.2021
5367 Clouds 2 993 83 10000 0.89 321 01:28 21.11.2021
5368 Clouds 2 994 85 10000 0.89 294 00:43 21.11.2021
5369 Clouds 2 994 84 10000 1.34 279 22:35 20.11.2021
5370 Clouds 3 994 81 10000 0.89 266 21:32 20.11.2021
5371 Clouds 3 994 81 10000 0.45 276 20:32 20.11.2021
5372 Clouds 3 994 79 10000 2.68 303 18:45 20.11.2021
5373 Clouds 3 994 79 10000 3.58 307 18:24 20.11.2021
5374 Clouds 4 995 79 10000 4.47 311 17:22 20.11.2021
5375 Clouds 4 995 77 10000 4.92 308 15:23 20.11.2021
5376 Clouds 4 994 76 10000 3.58 304 14:39 20.11.2021
5377 Clouds 5 995 79 10000 4.47 307 14:20 20.11.2021
5378 Clouds 5 994 76 10000 5.36 314 11:56 20.11.2021
5379 Clouds 5 994 76 10000 5.36 314 11:56 20.11.2021
5380 Clouds 4 994 79 10000 4.47 304 09:58 20.11.2021
5381 Clouds 4 992 81 10000 5.36 305 08:44 20.11.2021
5382 Clouds 3 992 81 10000 4.92 317 06:50 20.11.2021
5383 Clouds 2 991 84 10000 2.24 306 05:18 20.11.2021
5384 Clouds 2 991 84 10000 3.58 305 04:49 20.11.2021
5385 Clouds 2 986 89 10000 2.68 326 00:43 20.11.2021
5386 Drizzle 2 986 96 4000 3.13 334 00:18 20.11.2021
5387 Drizzle 3 984 86 6000 1.79 332 22:54 19.11.2021
5388 Drizzle 3 983 88 6000 1.54 60 21:29 19.11.2021
5389 Drizzle 3 983 89 5000 0.45 210 20:43 19.11.2021
5390 Drizzle 3 983 89 4500 0.45 211 20:25 19.11.2021
5391 Clouds 4 984 85 3500 0.89 27 19:46 19.11.2021
5392 Clouds 3 984 86 5000 0.89 144 18:48 19.11.2021
5393 Rain 3 986 89 10000 0.45 186 17:45 19.11.2021
5394 Rain 3 988 88 10000 1.34 65 16:43 19.11.2021
5395 Rain 4 990 87 10000 0.89 246 15:22 19.11.2021
5396 Clouds 4 995 84 10000 0.89 266 11:54 19.11.2021
5397 Clouds 3 996 85 10000 0.45 269 10:25 19.11.2021
5398 Clouds 2 997 84 10000 1.79 260 08:39 19.11.2021
5399 Clouds 1 998 85 10000 0.89 279 06:29 19.11.2021
5400 Clouds 1 999 86 10000 1.79 302 04:19 19.11.2021
5401 Clouds 1 1000 83 10000 1.34 268 23:55 18.11.2021
5402 Clouds 1 1000 83 10000 0.89 255 23:29 18.11.2021
5403 Clouds 1 1000 91 10000 0.45 257 21:21 18.11.2021
5404 Clouds 1 999 85 10000 0.89 274 20:46 18.11.2021
5405 Clouds 2 999 81 10000 1.79 273 20:23 18.11.2021
5406 Clear 2 999 84 10000 1.34 266 19:42 18.11.2021
5407 Clouds 2 999 83 10000 1.34 281 18:38 18.11.2021
5408 Clouds 3 999 83 10000 1.79 272 17:53 18.11.2021
5409 Clouds 3 999 87 10000 1.34 289 17:31 18.11.2021
5410 Clouds 3 999 82 10000 2.24 290 16:42 18.11.2021
5411 Clouds 4 998 85 10000 2.24 284 15:23 18.11.2021
5412 Clouds 5 997 82 10000 3.58 305 13:21 18.11.2021
5413 Rain 6 997 85 10000 2.24 315 11:45 18.11.2021
5414 Rain 6 996 87 10000 1.79 298 11:26 18.11.2021
5415 Rain 6 997 87 10000 1.79 276 10:44 18.11.2021
5416 Rain 6 997 86 8000 2.24 232 08:49 18.11.2021
5417 Rain 6 998 86 8000 3.13 225 07:19 18.11.2021
5418 Rain 6 999 86 8000 2.68 184 05:46 18.11.2021
5419 Clouds 5 1004 86 10000 2.68 182 01:27 18.11.2021
5420 Clouds 5 1005 86 6000 4.02 176 23:46 17.11.2021
5421 Clouds 5 1006 85 10000 4.92 186 22:40 17.11.2021
5422 Clouds 5 1007 85 10000 2.68 188 22:20 17.11.2021
5423 Clouds 5 1007 85 10000 2.24 186 21:36 17.11.2021
5424 Clouds 6 1008 85 10000 5.36 197 20:18 17.11.2021
5425 Clouds 6 1009 85 6000 4.47 183 17:36 17.11.2021
5426 Clouds 6 1010 84 6000 4.02 188 16:45 17.11.2021
5427 Clouds 6 1011 84 10000 2.68 181 13:50 17.11.2021
5428 Clouds 6 1012 86 6000 2.24 185 12:39 17.11.2021
5429 Drizzle 6 1012 86 5000 2.68 202 11:28 17.11.2021
5430 Clouds 6 1013 84 8000 3.13 188 09:58 17.11.2021
5431 Clouds 6 1013 85 6000 2.68 200 09:23 17.11.2021
5432 -273 0 0 0 0 0 07:41 17.11.2021
5433 Rain 5 1014 86 10000 1.34 211 03:31 17.11.2021
5434 Drizzle 5 1016 88 6000 1.34 235 00:46 17.11.2021
5435 Drizzle 5 1017 85 6000 0.89 190 22:41 16.11.2021
5436 Clouds 5 1018 85 10000 0.89 248 20:20 16.11.2021
5437 Clouds 5 1018 85 10000 0.45 234 19:57 16.11.2021
5438 Clouds 5 1020 86 10000 1.34 221 18:53 16.11.2021
5439 Clouds 5 1020 86 10000 2.24 219 18:29 16.11.2021
5440 Clouds 5 1021 84 10000 1.34 233 17:31 16.11.2021
5441 Clouds 6 1021 82 10000 0.89 265 16:31 16.11.2021
5442 Clouds 6 1021 81 10000 1.34 257 15:48 16.11.2021
5443 Clouds 6 1021 80 10000 1.79 241 14:31 16.11.2021
5444 Clouds 6 1021 83 10000 1.34 242 11:22 16.11.2021
5445 Clouds 5 1022 84 8000 1.79 250 09:45 16.11.2021
5446 Clouds 5 1022 86 10000 1.34 245 08:25 16.11.2021
5447 Clouds 5 1022 85 10000 2.24 234 07:31 16.11.2021
5448 Clouds 6 1023 80 10000 3.13 240 01:20 16.11.2021
5449 Clouds 5 1025 83 10000 4.47 227 22:48 15.11.2021
5450 Clouds 5 1025 84 10000 3.58 221 22:21 15.11.2021
5451 Clouds 4 1026 86 10000 3.13 207 21:52 15.11.2021
5452 Clouds 4 1026 86 10000 3.13 224 21:26 15.11.2021
5453 Clouds 4 1027 85 10000 2.24 226 19:41 15.11.2021
5454 Clouds 3 1028 87 10000 4.02 216 18:18 15.11.2021
5455 Clouds 3 1030 86 10000 2.68 204 16:19 15.11.2021
5456 Clouds 2 1030 86 10000 2.24 221 15:40 15.11.2021
5457 Clouds 2 1030 84 10000 4.47 215 15:21 15.11.2021
5458 Clouds 2 1032 82 10000 3.58 209 13:22 15.11.2021
5459 Clouds 1 1034 83 10000 1.34 182 10:57 15.11.2021
5460 Clouds -1 1035 82 10000 1.79 137 09:27 15.11.2021
5461 Mist -2 1035 81 1200 0.45 104 07:45 15.11.2021
5462 Fog -3 1036 92 700 1.54 100 04:46 15.11.2021
5463 Clouds -2 1035 88 7000 2.24 333 23:37 14.11.2021
5464 Clouds -3 1034 89 10000 1.34 327 22:35 14.11.2021
5465 Clouds -2 1034 86 10000 2.24 326 19:53 14.11.2021
5466 Clouds -2 1033 86 10000 2.24 331 19:18 14.11.2021
5467 Clouds -2 1033 86 10000 2.24 324 18:54 14.11.2021
5468 Clouds -2 1033 87 10000 1.79 334 18:36 14.11.2021
5469 Clouds -2 1033 88 10000 2.68 333 18:18 14.11.2021
5470 Clouds -2 1032 86 10000 2.24 333 17:55 14.11.2021
5471 Clouds -1 1032 88 10000 3.13 331 17:37 14.11.2021
5472 Clouds -1 1032 88 10000 1.34 341 17:19 14.11.2021
5473 Clouds -1 1032 88 10000 2.24 334 16:45 14.11.2021
5474 Clouds -1 1032 92 10000 0.89 316 16:19 14.11.2021
5475 Clouds 0 1031 85 10000 1.34 327 15:22 14.11.2021
5476 Clouds 0 1031 84 10000 1.79 316 14:49 14.11.2021
5477 Clouds 1 1031 81 10000 1.34 344 14:28 14.11.2021
5478 Clouds 1 1031 82 10000 1.79 342 13:54 14.11.2021
5479 Clouds 1 1031 81 10000 0.45 351 13:35 14.11.2021
5480 Clouds 2 1030 77 10000 1.79 341 12:27 14.11.2021
5481 Clear 2 1030 77 10000 2.24 339 11:41 14.11.2021
5482 Clear 2 1029 76 10000 1.79 331 10:41 14.11.2021
5483 Clear 1 1029 80 10000 2.24 341 09:47 14.11.2021
5484 Clear 1 1028 85 10000 1.34 327 08:53 14.11.2021
5485 Clouds 1 1027 86 10000 0.89 324 07:19 14.11.2021
5486 Clouds 1 1025 84 10000 0.45 325 23:47 13.11.2021
5487 Clouds 1 1025 82 10000 0.45 340 22:25 13.11.2021
5488 Clouds 2 1025 83 10000 0.89 322 21:50 13.11.2021
5489 Clouds 2 1024 82 10000 1.54 40 21:22 13.11.2021
5490 Clouds 2 1025 81 10000 0.45 173 19:38 13.11.2021
5491 Clouds 2 1024 81 10000 0.45 191 18:33 13.11.2021
5492 Clouds 2 1025 81 10000 0.45 170 18:33 13.11.2021
5493 Clouds 2 1024 81 10000 0.45 177 17:55 13.11.2021
5494 Clouds 3 1024 80 10000 0.45 310 16:37 13.11.2021
5495 Clouds 3 1024 81 10000 0.89 349 15:20 13.11.2021
5496 Clouds 3 1024 81 10000 0.89 241 14:20 13.11.2021
5497 Clouds 3 1024 82 10000 0.45 349 13:18 13.11.2021
5498 Clouds 3 1024 85 10000 0.89 301 12:22 13.11.2021
5499 Clouds 2 1023 87 10000 0.89 268 11:34 13.11.2021
5500 Clouds 2 1023 84 10000 1.79 310 10:44 13.11.2021
5501 Clouds 1 1022 84 10000 0.89 286 09:56 13.11.2021
5502 Clouds 1 1022 81 10000 0.89 283 09:34 13.11.2021
5503 Clouds 0 1022 88 10000 0.89 293 08:56 13.11.2021
5504 Fog -1 1021 90 10000 0.89 309 08:22 13.11.2021
5505 Fog 0 1019 92 10000 1.34 309 04:44 13.11.2021
5506 Fog 0 1019 92 10000 1.34 307 04:25 13.11.2021
5507 Clouds 1 1018 87 10000 0.89 314 01:30 13.11.2021
5508 Clouds 4 1016 81 10000 1.34 309 22:46 12.11.2021
5509 Clouds 4 1015 79 10000 2.68 320 21:45 12.11.2021
5510 Clouds 5 1014 79 10000 3.58 318 19:46 12.11.2021
5511 Clouds 5 1014 80 10000 2.68 309 19:27 12.11.2021
5512 Clouds 5 1013 80 10000 3.13 300 18:28 12.11.2021
5513 Clouds 5 1011 79 10000 2.24 308 16:23 12.11.2021
5514 Clouds 6 1010 76 10000 3.13 303 15:32 12.11.2021
5515 Clouds 6 1007 76 10000 4.02 310 11:33 12.11.2021
5516 Clouds 6 1006 77 10000 4.47 308 10:51 12.11.2021
5517 Clouds 6 1005 78 10000 3.13 306 09:37 12.11.2021
5518 Clouds 5 1004 80 10000 4.47 311 08:38 12.11.2021
5519 Clouds 5 999 82 10000 4.02 305 02:28 12.11.2021
5520 Clouds 6 999 85 10000 2.24 267 23:39 11.11.2021
5521 Clouds 6 999 85 10000 1.34 279 22:30 11.11.2021
5522 Drizzle 7 999 86 10000 1.34 244 21:27 11.11.2021
5523 Clouds 7 1000 84 10000 1.79 244 20:38 11.11.2021
5524 Clouds 7 1002 83 10000 3.58 227 18:56 11.11.2021
5525 Clouds 7 1004 84 10000 2.68 222 17:43 11.11.2021
5526 Clouds 7 1005 84 10000 2.68 215 16:43 11.11.2021
5527 Clouds 7 1007 83 10000 3.13 217 14:46 11.11.2021
5528 Clouds 7 1007 81 10000 1.79 224 14:28 11.11.2021
5529 Clouds 7 1008 83 10000 2.68 226 13:38 11.11.2021
5530 Clouds 7 1009 82 10000 3.13 230 12:48 11.11.2021
5531 Clear 5 1011 82 10000 1.34 235 10:36 11.11.2021
5532 Clear 4 1011 83 10000 1.34 242 09:34 11.11.2021
5533 Clear 3 1011 87 10000 1.34 235 07:38 11.11.2021
5534 Clouds 5 1011 88 10000 1.34 257 03:58 11.11.2021
5535 Clouds 8 1008 85 10000 1.79 251 23:00 10.11.2021
5536 Clouds 8 1008 85 10000 2.24 263 22:22 10.11.2021
5537 Clouds 9 1008 84 10000 1.34 252 21:21 10.11.2021
5538 Clouds 9 1008 83 10000 1.34 258 20:46 10.11.2021
5539 Clouds 9 1008 85 10000 2.24 231 19:47 10.11.2021
5540 Clouds 9 1008 85 10000 2.24 231 19:47 10.11.2021
5541 Clouds 9 1007 85 10000 2.24 232 18:33 10.11.2021
5542 Clouds 9 1008 83 10000 2.24 235 16:34 10.11.2021
5543 Drizzle 9 1008 85 10000 2.24 220 14:52 10.11.2021
5544 Drizzle 9 1008 86 4500 2.24 231 13:41 10.11.2021
5545 Drizzle 9 1009 86 8000 3.13 229 12:47 10.11.2021
5546 Mist 9 1010 85 4500 2.24 217 10:39 10.11.2021
5547 Drizzle 8 1010 84 4000 2.24 214 08:45 10.11.2021
5548 Drizzle 7 1010 87 4000 3.13 225 07:44 10.11.2021
5549 Drizzle 7 1011 85 5000 4.47 213 06:26 10.11.2021
5550 Drizzle 7 1011 87 6000 4.92 208 05:51 10.11.2021
5551 Drizzle 5 1015 85 3500 4.92 222 23:53 09.11.2021
5552 Drizzle 5 1017 86 5000 5.36 199 21:48 09.11.2021
5553 Drizzle 4 1018 86 4000 5.36 204 20:32 09.11.2021
5554 Drizzle 4 1018 86 5000 4.47 200 19:25 09.11.2021
5555 Rain 4 1020 87 7000 1.34 208 17:37 09.11.2021
5556 Rain 4 1021 84 6000 3.58 204 15:45 09.11.2021
5557 Clouds 4 1022 79 10000 4.02 194 14:29 09.11.2021
5558 Clouds 2 1023 76 10000 3.58 200 12:53 09.11.2021
5559 Clear 1 1023 81 10000 0.45 128 11:42 09.11.2021
5560 Clear 0 1025 82 10000 1.54 210 10:45 09.11.2021
5561 Clear -2 1024 83 10000 1.54 140 09:28 09.11.2021
5562 Clear -4 1025 88 10000 0 0 08:26 09.11.2021
5563 Clear -8 1025 100 10000 1.54 290 05:52 09.11.2021
5564 Clear -4 1023 83 10000 1.79 310 02:23 09.11.2021
5565 Clear -4 1022 82 10000 0.89 307 01:45 09.11.2021
5566 Clear -3 1022 79 10000 0.89 325 23:58 08.11.2021
5567 Clear -3 1021 79 10000 1.34 320 22:50 08.11.2021
5568 Clear -2 1020 77 10000 2.24 327 21:59 08.11.2021
5569 Clear -2 1019 77 10000 3.58 336 20:55 08.11.2021
5570 Clear -1 1019 74 10000 2.68 334 19:51 08.11.2021
5571 Clear -1 1018 72 10000 2.68 331 18:30 08.11.2021
5572 Clear 0 1017 78 10000 4.47 331 16:34 08.11.2021
5573 Clouds 1 1016 73 10000 2.68 338 15:25 08.11.2021
5574 Clouds 2 1015 75 10000 4.92 340 14:40 08.11.2021
5575 Clouds 2 1014 71 10000 3.13 337 13:33 08.11.2021
5576 Clouds 2 1011 72 10000 4.02 1 11:56 08.11.2021
5577 Snow 2 1010 77 10000 4.02 341 10:52 08.11.2021
5578 Clouds 2 1009 75 10000 3.13 346 09:44 08.11.2021
5579 Snow 1 1008 79 10000 4.47 339 08:54 08.11.2021
5580 Snow 1 1004 81 10000 4.47 337 07:35 08.11.2021
5581 Clouds 2 1002 79 10000 3.58 342 04:42 08.11.2021
5582 Clouds 2 1001 78 10000 3.58 358 03:28 08.11.2021
5583 Clouds 3 999 84 10000 3.13 5 23:46 07.11.2021
5584 Rain 2 997 85 10000 2.68 22 21:54 07.11.2021
5585 Rain 2 997 86 10000 1.79 13 21:20 07.11.2021
5586 Rain 2 997 84 10000 2.68 36 19:40 07.11.2021
5587 Rain 3 997 84 10000 1.79 30 18:22 07.11.2021
5588 Drizzle 3 997 86 10000 1.79 27 16:54 07.11.2021
5589 Drizzle 3 997 86 10000 1.34 77 15:54 07.11.2021
5590 Rain 4 998 84 10000 0.89 121 14:29 07.11.2021
5591 Rain 3 998 84 10000 0.89 125 13:35 07.11.2021
5592 Clouds 3 999 82 10000 0.45 91 11:43 07.11.2021
5593 Clouds 2 1000 91 10000 0.89 69 09:52 07.11.2021
5594 Clouds 1 1000 90 10000 1.03 0 08:31 07.11.2021
5595 Clouds 1 1002 86 10000 0.89 232 02:41 07.11.2021
5596 Clouds 2 1003 84 10000 1.79 237 23:38 06.11.2021
5597 Clouds 2 1002 84 10000 1.34 250 22:48 06.11.2021
5598 Clear 2 1002 82 10000 0.89 247 21:33 06.11.2021
5599 Clouds 2 1002 82 10000 1.79 264 20:50 06.11.2021
5600 Clouds 3 1000 86 10000 1.34 261 18:56 06.11.2021
5601 Clouds 4 999 86 10000 1.79 284 16:47 06.11.2021
5602 Clouds 4 999 86 10000 1.79 284 16:47 06.11.2021
5603 Clouds 4 999 86 10000 1.79 284 16:47 06.11.2021
5604 Clouds 4 999 86 10000 1.79 284 16:47 06.11.2021
5605 Clouds 4 999 86 10000 1.79 284 16:47 06.11.2021
5606 Clouds 5 998 82 10000 2.24 307 15:20 06.11.2021
5607 Rain 6 998 83 10000 2.68 303 13:38 06.11.2021
5608 Clouds 7 998 83 10000 1.79 282 12:28 06.11.2021
5609 Clouds 5 999 85 10000 1.34 290 09:33 06.11.2021
5610 Clouds 4 999 88 10000 1.34 253 07:55 06.11.2021
5611 Rain 5 999 91 10000 1.34 264 02:36 06.11.2021
5612 Clouds 5 999 86 10000 1.34 248 23:37 05.11.2021
5613 Clouds 5 998 85 10000 1.79 242 22:34 05.11.2021
5614 Clouds 5 998 85 10000 1.79 259 21:50 05.11.2021
5615 Clouds 5 997 83 10000 1.79 270 20:20 05.11.2021
5616 Clouds 5 997 85 10000 2.24 281 19:48 05.11.2021
5617 Clouds 6 997 86 10000 1.79 294 18:40 05.11.2021
5618 Rain 5 995 86 10000 2.68 307 17:30 05.11.2021
5619 Clouds 6 993 85 10000 2.68 330 15:43 05.11.2021
5620 Rain 8 993 88 4000 4.02 203 13:38 05.11.2021
5621 Mist 8 994 88 3000 3.13 191 11:27 05.11.2021
5622 Rain 7 996 88 3000 0.89 142 08:41 05.11.2021
5623 Rain 7 998 86 4000 1.79 132 07:39 05.11.2021
5624 Rain 7 997 86 4000 1.79 133 07:39 05.11.2021
5625 Rain 7 1000 88 4500 1.34 130 05:33 05.11.2021
5626 Rain 6 1004 86 10000 0.89 124 02:26 05.11.2021
5627 Clouds 6 1006 85 10000 0.89 109 00:52 05.11.2021
5628 Clouds 6 1007 87 10000 0.45 195 23:24 04.11.2021
5629 Clouds 7 1008 86 10000 0.45 189 22:19 04.11.2021
5630 Clouds 7 1008 87 10000 0.45 177 21:38 04.11.2021
5631 Clouds 8 1009 84 10000 2.68 198 20:50 04.11.2021
5632 Clouds 8 1009 84 10000 1.79 191 20:22 04.11.2021
5633 Clouds 8 1009 84 10000 2.24 225 19:47 04.11.2021
5634 Clouds 7 1009 85 10000 2.24 198 18:52 04.11.2021
5635 Clouds 7 1009 86 10000 2.24 199 18:18 04.11.2021
5636 Clouds 7 1008 86 10000 1.79 212 16:48 04.11.2021
5637 Clouds 8 1008 81 10000 1.34 245 14:42 04.11.2021
5638 Clouds 9 1007 81 10000 2.24 230 12:53 04.11.2021
5639 Clouds 8 1005 88 6000 1.79 260 09:42 04.11.2021
5640 Clouds 8 1004 86 10000 1.79 191 08:31 04.11.2021
5641 Clouds 8 1004 86 10000 1.79 196 07:35 04.11.2021
5642 Clouds 8 1003 86 10000 1.79 225 04:47 04.11.2021
5643 Drizzle 8 1002 86 2500 1.79 139 22:53 03.11.2021
5644 Rain 8 1002 86 2500 1.79 136 21:49 03.11.2021
5645 Drizzle 8 1002 86 2500 1.34 136 21:30 03.11.2021
5646 Drizzle 8 1002 86 2500 1.34 139 20:36 03.11.2021
5647 Drizzle 8 1002 86 2500 1.34 138 19:58 03.11.2021
5648 Drizzle 8 1002 88 4000 1.34 132 18:57 03.11.2021
5649 Drizzle 8 1003 88 3000 1.34 130 18:23 03.11.2021
5650 Drizzle 7 1003 88 3000 1.34 143 17:36 03.11.2021
5651 Clouds 7 1003 88 8000 1.34 135 16:26 03.11.2021
5652 Clouds 7 1003 88 4000 1.34 131 15:43 03.11.2021
5653 Rain 7 1004 86 4000 1.79 134 13:57 03.11.2021
5654 Clouds 7 1005 85 10000 2.24 139 11:59 03.11.2021
5655 Rain 7 1005 84 10000 2.68 134 11:25 03.11.2021
5656 Rain 7 1006 83 10000 3.13 130 10:46 03.11.2021
5657 Clouds 7 1006 82 10000 2.24 127 09:30 03.11.2021
5658 Clouds 7 1006 78 10000 1.79 139 08:22 03.11.2021
5659 Clouds 7 1006 78 10000 0.89 229 07:39 03.11.2021
5660 Clouds 6 1007 80 10000 0.89 161 05:35 03.11.2021
5661 Clouds 7 1007 83 10000 1.34 138 02:28 03.11.2021
5662 Clouds 7 1008 83 10000 0.45 229 23:51 02.11.2021
5663 Clouds 7 1008 84 10000 0.89 239 22:46 02.11.2021
5664 Clouds 7 1008 83 10000 0.45 258 21:29 02.11.2021
5665 Clear 7 1008 80 10000 0.89 191 20:33 02.11.2021
5666 Clear 7 1008 82 10000 1.34 158 19:51 02.11.2021
5667 Clouds 7 1008 82 10000 1.79 138 18:59 02.11.2021
5668 Clouds 7 1008 84 10000 0.89 165 17:59 02.11.2021
5669 Clouds 7 1008 84 10000 0.89 167 17:38 02.11.2021
5670 Clouds 7 1008 84 10000 1.79 135 16:30 02.11.2021
5671 Clouds 8 1008 83 10000 2.24 123 15:30 02.11.2021
5672 Clear 8 1008 81 10000 1.79 132 14:28 02.11.2021
5673 Clear 8 1009 82 10000 1.34 130 13:27 02.11.2021
5674 Clear 8 1009 81 10000 1.34 133 12:39 02.11.2021
5675 Clouds 8 1009 77 10000 0.89 155 11:33 02.11.2021
5676 Clouds 8 1009 78 10000 0.45 170 10:52 02.11.2021
5677 Clouds 7 1010 79 10000 0.89 150 10:26 02.11.2021
5678 Clouds 6 1009 83 10000 0.89 212 08:43 02.11.2021
5679 Clouds 5 1009 85 8000 1.34 187 06:50 02.11.2021
5680 Clear 6 1008 83 10000 0.89 203 03:48 02.11.2021
5681 Clear 6 1008 80 10000 0.89 183 02:18 02.11.2021
5682 Clear 6 1008 84 10000 0.45 215 22:44 01.11.2021
5683 Clear 7 1008 84 10000 0.89 196 20:52 01.11.2021
5684 Clear 7 1008 86 10000 0.89 240 20:33 01.11.2021
5685 Clear 8 1008 89 10000 0.89 208 19:52 01.11.2021
5686 Clear 8 1008 87 10000 2.24 132 18:58 01.11.2021
5687 Clear 8 1008 85 10000 2.24 138 18:21 01.11.2021
5688 Clear 9 1008 83 10000 2.24 131 17:19 01.11.2021
5689 Clear 9 1008 84 10000 1.79 139 16:43 01.11.2021
5690 Clouds 10 1008 83 10000 1.79 132 15:46 01.11.2021
5691 Clouds 10 1009 83 10000 1.79 128 15:20 01.11.2021
5692 Clouds 10 1009 83 10000 1.34 124 15:20 01.11.2021
5693 Clouds 11 1009 81 10000 1.34 129 14:41 01.11.2021
5694 Clouds 11 1009 81 10000 1.34 123 14:20 01.11.2021
5695 Clouds 11 1010 82 10000 0.89 134 13:18 01.11.2021
5696 Clouds 11 1010 84 10000 0.89 150 12:24 01.11.2021
5697 Clouds 10 1011 86 9000 1.34 131 10:23 01.11.2021
5698 Mist 9 1011 88 5000 0.45 215 08:53 01.11.2021
5699 Mist 9 1011 87 4800 0.45 201 07:47 01.11.2021
5700 Clouds 8 1010 88 8000 0.89 184 05:53 01.11.2021
5701 Clouds 8 1010 93 10000 0.89 248 03:40 01.11.2021
5702 Clouds 9 1009 88 10000 1.34 208 23:59 31.10.2021
5703 Clouds 10 1008 84 10000 3.13 232 21:31 31.10.2021
5704 Clouds 10 1008 85 10000 3.58 206 20:25 31.10.2021
5705 Clouds 10 1007 84 10000 3.13 210 18:51 31.10.2021
5706 Clouds 10 1007 84 10000 4.47 193 18:25 31.10.2021
5707 Clouds 9 1007 87 10000 1.79 202 16:48 31.10.2021
5708 Clouds 9 1007 85 10000 0.45 182 15:18 31.10.2021
5709 Clouds 9 1006 87 10000 2.24 194 13:27 31.10.2021
5710 Clouds 8 1007 85 10000 0.89 203 12:30 31.10.2021
5711 Clouds 8 1007 85 10000 2.68 196 10:51 31.10.2021
5712 Clouds 8 1007 85 10000 1.34 178 09:43 31.10.2021
5713 Clouds 8 1007 86 8000 0.45 215 08:48 31.10.2021
5714 Clouds 8 1009 87 7000 0.45 221 04:55 31.10.2021
5715 Clouds 9 1011 84 10000 0.89 227 00:47 31.10.2021
5716 Clouds 9 1011 84 10000 2.68 225 22:28 30.10.2021
5717 Clouds 9 1011 84 10000 1.79 219 21:30 30.10.2021
5718 Clouds 9 1009 81 10000 1.34 209 19:57 30.10.2021
5719 Mist 7 1011 92 4500 0.89 175 18:21 30.10.2021
5720 Clouds 9 1012 86 10000 0.45 157 15:58 30.10.2021
5721 Clouds 9 1012 84 10000 0.45 168 14:23 30.10.2021
5722 Clouds 9 1012 86 10000 1.79 183 13:38 30.10.2021
5723 Clouds 9 1012 86 10000 2.24 181 13:20 30.10.2021
5724 Clouds 9 1013 85 10000 1.79 207 11:50 30.10.2021
5725 Clouds 9 1013 84 10000 1.34 239 10:58 30.10.2021
5726 Clouds 9 1012 84 10000 2.24 196 09:40 30.10.2021
5727 Clouds 9 1011 84 10000 1.34 226 07:57 30.10.2021
5728 Clouds 9 1011 84 10000 1.34 226 07:57 30.10.2021
5729 Clouds 9 1011 82 10000 1.34 238 05:48 30.10.2021
5730 Clouds 9 1011 81 10000 1.79 236 03:28 30.10.2021
5731 Clouds 9 1011 84 10000 1.34 200 23:33 29.10.2021
5732 Clouds 9 1011 86 9000 1.34 224 22:35 29.10.2021
5733 Clouds 9 1011 92 7000 2.24 203 21:19 29.10.2021
5734 Clouds 9 1011 87 8000 1.79 185 20:33 29.10.2021
5735 Clouds 10 1011 85 9000 1.79 201 19:33 29.10.2021
5736 Clouds 10 1011 85 9000 1.79 226 18:18 29.10.2021
5737 Clouds 11 1011 85 10000 3.13 230 16:20 29.10.2021
5738 Clouds 11 1011 85 10000 3.13 233 13:23 29.10.2021
5739 Clouds 11 1010 88 10000 2.24 222 10:50 29.10.2021
5740 Clouds 10 1011 88 10000 2.24 245 10:31 29.10.2021
5741 Clouds 10 1010 87 10000 3.13 231 05:43 29.10.2021
5742 Drizzle 11 1009 87 10000 2.24 234 00:35 29.10.2021
5743 Drizzle 11 1009 88 7000 3.13 223 22:40 28.10.2021
5744 Drizzle 11 1009 88 10000 2.24 239 21:20 28.10.2021
5745 Mist 11 1009 88 3500 2.24 221 20:19 28.10.2021
5746 Drizzle 10 1009 84 3000 3.13 198 18:47 28.10.2021
5747 Mist 10 1010 91 3000 4.02 188 17:52 28.10.2021
5748 Drizzle 10 1011 91 2500 2.68 191 16:39 28.10.2021
5749 Mist 9 1011 91 1000 2.68 205 14:43 28.10.2021
5750 Mist 9 1011 91 2000 2.24 187 13:33 28.10.2021
5751 Mist 9 1011 89 1200 1.34 168 12:50 28.10.2021
5752 Mist 8 1011 89 2000 1.79 198 11:51 28.10.2021
5753 Fog 7 1011 85 300 1.34 205 10:47 28.10.2021
5754 Fog 6 1011 86 300 0.45 143 09:37 28.10.2021
5755 Fog 5 1009 85 300 0.45 13 08:37 28.10.2021
5756 Fog 6 1009 88 800 0.45 319 07:41 28.10.2021
5757 Clouds 7 1006 85 10000 2.68 309 03:51 28.10.2021
5758 Clouds 9 999 85 10000 3.58 310 22:57 27.10.2021
5759 Clouds 9 999 87 10000 2.68 306 22:26 27.10.2021
5760 Clouds 9 998 87 10000 2.24 298 21:32 27.10.2021
5761 Clouds 9 997 88 10000 2.24 292 20:46 27.10.2021
5762 Drizzle 9 996 88 7000 2.68 287 19:48 27.10.2021
5763 Drizzle 8 997 88 4000 2.68 199 18:56 27.10.2021
5764 Drizzle 8 997 88 4000 3.13 214 18:37 27.10.2021
5765 Rain 8 1001 88 7000 1.79 179 16:26 27.10.2021
5766 Rain 8 1002 88 9000 2.68 205 15:29 27.10.2021
5767 Rain 8 1003 85 10000 2.68 216 14:38 27.10.2021
5768 Clouds 8 1005 85 10000 1.79 231 11:19 27.10.2021
5769 Clouds 8 1005 85 10000 1.79 266 10:56 27.10.2021
5770 Clouds 7 1005 85 10000 1.79 262 09:38 27.10.2021
5771 Clouds 7 1004 89 10000 0.89 252 07:51 27.10.2021
5772 Clouds 7 1004 89 10000 1.34 259 06:36 27.10.2021
5773 Clouds 8 1003 88 10000 1.34 244 01:29 27.10.2021
5774 Clouds 8 1003 90 10000 0.89 246 00:55 27.10.2021
5775 Rain 8 1004 90 10000 1.79 240 23:56 26.10.2021
5776 Rain 9 1003 88 8000 1.34 244 22:55 26.10.2021
5777 Rain 9 1004 88 7000 0.89 238 22:27 26.10.2021
5778 Rain 9 1004 88 5000 1.79 224 21:51 26.10.2021
5779 Drizzle 9 1006 87 4000 5.66 200 19:59 26.10.2021
5780 Drizzle 9 1005 88 6000 2.68 209 19:25 26.10.2021
5781 Clouds 9 1005 85 10000 2.24 229 18:30 26.10.2021
5782 Clouds 10 1006 83 10000 2.24 227 15:53 26.10.2021
5783 Clouds 10 1007 82 10000 2.68 229 14:18 26.10.2021
5784 Clouds 9 1007 84 10000 3.13 225 11:23 26.10.2021
5785 Clouds 9 1008 85 10000 2.68 230 09:27 26.10.2021
5786 Clouds 8 1008 84 10000 1.79 231 07:23 26.10.2021
5787 Clouds 9 1009 78 10000 0.89 255 00:31 26.10.2021
5788 Clouds 9 1009 77 10000 2.24 226 23:48 25.10.2021
5789 Clouds 9 1010 74 10000 3.13 221 22:35 25.10.2021
5790 Clouds 9 1010 76 10000 3.13 226 21:47 25.10.2021
5791 Clouds 9 1011 77 10000 3.13 233 20:48 25.10.2021
5792 Clouds 9 1011 75 10000 3.13 214 19:44 25.10.2021
5793 Clouds 9 1011 75 10000 2.68 223 19:24 25.10.2021
5794 Clouds 9 1011 76 10000 3.13 225 18:42 25.10.2021
5795 Clouds 9 1012 72 10000 3.13 239 17:42 25.10.2021
5796 Clouds 10 1012 72 10000 2.68 220 15:24 25.10.2021
5797 Clouds 10 1013 74 10000 2.68 243 12:39 25.10.2021
5798 Clouds 10 1013 77 10000 2.68 226 11:25 25.10.2021
5799 Clouds 9 1013 79 10000 3.58 231 09:22 25.10.2021
5800 Clouds 8 1013 85 10000 2.68 231 07:26 25.10.2021
5801 Clouds 9 1013 87 10000 3.13 222 05:24 25.10.2021
5802 Clouds 8 1016 88 10000 3.13 198 00:52 25.10.2021
5803 Rain 8 1016 90 10000 2.24 222 00:34 25.10.2021
5804 Clouds 7 1016 90 10000 2.24 200 23:42 24.10.2021
5805 Clouds 7 1017 88 10000 3.58 214 22:39 24.10.2021
5806 Clouds 6 1017 88 10000 4.47 199 22:20 24.10.2021
5807 Rain 6 1018 88 10000 4.47 211 21:33 24.10.2021
5808 Rain 5 1018 90 8000 4.02 197 20:39 24.10.2021
5809 Rain 4 1019 87 10000 4.47 196 19:47 24.10.2021
5810 Clouds 4 1020 84 10000 2.68 174 18:29 24.10.2021
5811 Rain 3 1021 83 10000 2.68 169 17:45 24.10.2021
5812 Clouds 3 1022 70 10000 1.79 193 15:57 24.10.2021
5813 Clouds 3 1022 69 10000 0.89 197 15:19 24.10.2021
5814 Clouds 3 1023 67 10000 1.79 238 13:19 24.10.2021
5815 Clear 2 1023 74 10000 0.45 248 12:23 24.10.2021
5816 Clouds 1 1023 73 10000 0.45 246 11:34 24.10.2021
5817 Clouds 0 1022 76 10000 0.89 310 10:30 24.10.2021
5818 Clear -2 1021 86 10000 0.89 303 08:00 24.10.2021
5819 Clouds 0 1016 79 10000 3.58 337 01:26 24.10.2021
5820 Clouds 0 1016 76 10000 1.79 319 23:51 23.10.2021
5821 Clouds 1 1015 78 10000 2.24 337 22:40 23.10.2021
5822 Clouds 1 1013 79 10000 4.02 328 20:39 23.10.2021
5823 Clouds 1 1011 84 10000 2.68 328 19:00 23.10.2021
5824 Clouds 1 1011 84 10000 3.13 331 18:41 23.10.2021
5825 Clouds 2 1010 80 10000 1.79 327 17:44 23.10.2021
5826 Clouds 2 1009 81 10000 1.79 327 17:44 23.10.2021
5827 Clouds 2 1008 81 10000 3.58 338 16:45 23.10.2021
5828 Clouds 3 1004 84 10000 5.36 334 14:45 23.10.2021
5829 Clouds 2 998 88 10000 3.58 337 09:45 23.10.2021
5830 Drizzle 2 985 87 10000 2.24 298 00:36 23.10.2021
5831 Drizzle 3 984 87 10000 3.58 312 23:28 22.10.2021
5832 Rain 4 982 86 10000 3.13 269 20:56 22.10.2021
5833 Rain 5 982 85 10000 3.13 254 18:57 22.10.2021
5834 Rain 5 981 85 10000 4.02 255 17:44 22.10.2021
5835 Rain 6 979 81 10000 3.58 233 15:57 22.10.2021
5836 Rain 6 978 80 10000 4.47 254 14:30 22.10.2021
5837 Clouds 6 976 82 10000 3.58 270 12:41 22.10.2021
5838 Rain 5 974 84 10000 3.58 248 10:50 22.10.2021
5839 Rain 5 971 84 10000 3.58 241 09:56 22.10.2021
5840 Rain 5 971 84 10000 3.58 241 09:56 22.10.2021
5841 Rain 5 970 84 10000 4.47 248 09:32 22.10.2021
5842 Rain 6 968 85 10000 4.02 246 07:26 22.10.2021
5843 Rain 7 965 86 10000 4.02 243 04:59 22.10.2021
5844 Clouds 9 966 87 10000 2.68 194 00:31 22.10.2021
5845 Clouds 10 967 85 10000 4.02 197 23:48 21.10.2021
5846 Clouds 10 967 85 10000 2.24 173 22:21 21.10.2021
5847 Clouds 11 968 88 10000 2.24 190 20:55 21.10.2021
5848 Rain 10 971 89 4500 1.34 203 20:20 21.10.2021
5849 Rain 10 972 89 10000 1.34 136 19:30 21.10.2021
5850 Rain 10 974 89 10000 2.24 139 18:52 21.10.2021
5851 Rain 10 974 88 10000 0.89 146 18:27 21.10.2021
5852 Clouds 10 976 88 10000 0.89 173 17:42 21.10.2021
5853 Clouds 11 978 84 7000 4.12 160 16:26 21.10.2021
5854 Clouds 11 979 84 10000 2.68 217 15:21 21.10.2021
5855 Clouds 12 980 81 10000 1.79 191 14:50 21.10.2021
5856 Clouds 12 981 82 10000 4.02 203 13:27 21.10.2021
5857 Clouds 11 980 80 10000 5.36 230 11:35 21.10.2021
5858 Clouds 10 979 83 10000 1.34 264 09:23 21.10.2021
5859 Clouds 10 978 85 10000 1.34 243 07:32 21.10.2021
5860 Clouds 10 978 88 10000 3.13 236 05:33 21.10.2021
5861 Rain 12 978 91 10000 2.68 227 23:56 20.10.2021
5862 Rain 12 978 89 8000 2.24 234 22:21 20.10.2021
5863 Clouds 12 978 89 10000 3.58 227 21:45 20.10.2021
5864 Clouds 11 978 91 10000 2.68 231 20:57 20.10.2021
5865 Rain 11 978 91 10000 1.79 240 20:36 20.10.2021
5866 Rain 12 979 89 10000 2.24 219 19:59 20.10.2021
5867 Rain 12 979 89 10000 3.58 230 18:59 20.10.2021
5868 Drizzle 12 980 89 10000 2.68 205 17:54 20.10.2021
5869 Drizzle 10 983 91 2200 3.13 209 15:47 20.10.2021
5870 Rain 7 988 88 3500 3.13 187 12:33 20.10.2021
5871 Drizzle 5 995 88 4000 1.79 187 09:19 20.10.2021
5872 Clouds 6 1004 73 10000 1.34 188 05:24 20.10.2021
5873 Clouds 6 1012 76 10000 1.79 210 00:53 20.10.2021
5874 Clouds 6 1013 76 10000 1.79 190 00:22 20.10.2021
5875 Clouds 4 1016 72 10000 1.34 202 21:47 19.10.2021
5876 Clouds 3 1014 72 10000 1.34 196 21:27 19.10.2021
5877 Clouds 3 1016 71 10000 0.89 200 20:25 19.10.2021
5878 Clouds 2 1016 75 10000 0.45 221 19:45 19.10.2021
5879 Clear 2 1016 75 10000 0.45 163 19:21 19.10.2021
5880 Clouds 2 1019 73 10000 0.89 212 17:59 19.10.2021
5881 Clouds 4 1021 60 10000 0.89 227 15:57 19.10.2021
5882 Clouds 5 1021 57 10000 1.34 258 15:20 19.10.2021
5883 Clouds 5 1021 56 10000 1.79 311 14:27 19.10.2021
5884 Clouds 5 1021 58 10000 1.79 304 13:36 19.10.2021
5885 Clear 4 1022 66 10000 1.79 324 11:37 19.10.2021
5886 Clear 3 1022 74 10000 1.79 337 10:39 19.10.2021
5887 Clear -1 1019 81 10000 1.34 312 08:59 19.10.2021
5888 Clear -2 1018 85 10000 0.89 325 07:50 19.10.2021
5889 Clouds 2 1018 77 10000 2.24 314 00:27 19.10.2021
5890 Clouds 3 1018 75 10000 3.13 327 23:56 18.10.2021
5891 Clouds 3 1017 75 10000 2.68 314 23:20 18.10.2021
5892 Clouds 3 1017 77 10000 3.58 313 22:54 18.10.2021
5893 Clouds 3 1017 77 10000 3.13 323 21:54 18.10.2021
5894 Clouds 3 1016 75 10000 4.02 327 20:42 18.10.2021
5895 Clouds 4 1016 74 10000 2.24 323 20:19 18.10.2021
5896 Clouds 4 1015 71 10000 4.47 337 19:30 18.10.2021
5897 Clouds 5 1015 69 10000 4.92 338 18:58 18.10.2021
5898 Clouds 6 1013 73 10000 3.58 315 15:56 18.10.2021
5899 Clouds 6 1012 69 10000 4.47 323 14:28 18.10.2021
5900 Clouds 5 1010 74 10000 4.47 306 10:55 18.10.2021
5901 Clouds 4 1009 78 10000 4.02 325 09:31 18.10.2021
5902 Clouds 4 1003 80 10000 3.58 295 05:32 18.10.2021
5903 Clouds 3 1004 78 10000 1.79 304 23:45 17.10.2021
5904 Clouds 4 1005 76 10000 2.68 303 21:58 17.10.2021
5905 Clouds 4 1005 76 10000 2.24 300 21:40 17.10.2021
5906 Clouds 4 1005 76 10000 1.79 295 20:40 17.10.2021
5907 Clouds 5 1005 71 10000 1.34 258 19:43 17.10.2021
5908 Clouds 5 1005 69 10000 0.89 271 19:24 17.10.2021
5909 Clouds 6 1004 63 10000 1.79 279 17:47 17.10.2021
5910 Clouds 8 1004 57 10000 3.13 272 15:54 17.10.2021
5911 Clouds 8 1004 56 10000 3.13 296 14:32 17.10.2021
5912 Clouds 8 1004 57 10000 3.13 304 13:56 17.10.2021
5913 Clouds 8 1004 64 10000 2.68 285 12:35 17.10.2021
5914 Clouds 6 1001 68 10000 2.24 290 10:44 17.10.2021
5915 Clouds 6 1001 69 10000 2.68 289 09:48 17.10.2021
5916 Clouds 3 1000 78 10000 1.79 274 07:42 17.10.2021
5917 Clouds 4 997 84 10000 1.34 273 00:56 17.10.2021
5918 Clouds 4 997 85 10000 2.24 248 00:24 17.10.2021
5919 Rain 5 996 82 10000 3.58 276 22:31 16.10.2021
5920 Clouds 6 996 78 10000 1.79 243 20:35 16.10.2021
5921 Clear 6 996 75 10000 2.68 253 19:55 16.10.2021
5922 Clear 6 996 75 10000 1.34 255 19:37 16.10.2021
5923 Clear 6 996 73 10000 3.13 264 19:18 16.10.2021
5924 Clear 6 996 71 10000 1.79 261 18:42 16.10.2021
5925 Clear 6 996 70 10000 1.79 254 18:19 16.10.2021
5926 Clear 7 995 67 10000 1.79 232 17:28 16.10.2021
5927 Clouds 9 996 54 10000 2.68 249 15:38 16.10.2021
5928 Clouds 8 995 63 10000 2.68 277 12:30 16.10.2021
5929 Clouds 7 996 69 10000 3.13 278 10:48 16.10.2021
5930 Clear 4 995 79 10000 3.13 246 08:32 16.10.2021
5931 Clouds 4 992 79 10000 3.58 242 01:27 16.10.2021
5932 Clouds 5 991 80 10000 2.68 259 23:57 15.10.2021
5933 Clouds 5 991 80 10000 3.13 240 23:24 15.10.2021
5934 Clouds 5 990 83 10000 3.13 255 22:20 15.10.2021
5935 Clouds 6 989 77 10000 3.13 252 21:32 15.10.2021
5936 Clouds 8 988 84 10000 4.02 244 20:50 15.10.2021
5937 Clouds 9 988 84 10000 3.58 263 20:18 15.10.2021
5938 Clouds 8 988 84 10000 2.68 191 18:45 15.10.2021
5939 Rain 9 989 84 10000 1.34 230 17:58 15.10.2021
5940 Clouds 10 990 88 2500 2.24 184 15:37 15.10.2021
5941 Clouds 10 992 91 3000 2.24 184 13:39 15.10.2021
5942 Clouds 9 994 88 10000 3.58 180 11:46 15.10.2021
5943 Clouds 9 994 88 10000 2.68 184 10:58 15.10.2021
5944 Drizzle 9 995 91 10000 4.02 180 10:19 15.10.2021
5945 Clouds 8 997 88 10000 6.71 190 06:47 15.10.2021
5946 Clouds 8 1001 82 10000 2.68 196 02:21 15.10.2021
5947 Clouds 8 1003 78 10000 4.92 186 00:22 15.10.2021
5948 Clouds 8 1004 76 10000 3.58 187 22:52 14.10.2021
5949 Clouds 8 1005 76 10000 5.36 194 21:46 14.10.2021
5950 Clouds 8 1006 74 10000 4.02 186 20:55 14.10.2021
5951 Clouds 8 1006 74 10000 4.92 192 20:19 14.10.2021
5952 Clouds 8 1007 74 10000 4.02 188 19:42 14.10.2021
5953 Clouds 8 1008 70 10000 2.24 205 17:39 14.10.2021
5954 Clouds 8 1008 70 10000 2.24 205 17:39 14.10.2021
5955 Clouds 8 1008 69 10000 1.79 237 16:56 14.10.2021
5956 Clouds 8 1009 71 10000 3.13 205 16:21 14.10.2021
5957 Clouds 9 1009 70 10000 4.02 210 14:44 14.10.2021
5958 Clouds 9 1009 73 10000 2.68 202 14:24 14.10.2021
5959 Clouds 8 1011 71 10000 2.24 184 11:56 14.10.2021
5960 Clouds 7 1013 69 10000 3.09 180 10:43 14.10.2021
5961 Clouds 1 1010 92 10000 1.8 242 07:39 14.10.2021
5962 Clear 3 1010 89 10000 0.45 300 03:51 14.10.2021
5963 Clouds 4 1009 90 10000 2.03 298 00:31 14.10.2021
5964 Fog 1 1013 100 10000 1.54 240 22:32 13.10.2021
5965 Fog 4 1010 94 10000 0.45 308 21:34 13.10.2021
5966 Clouds 5 1010 92 10000 0.89 297 20:22 13.10.2021
5967 Clouds 6 1008 89 10000 0.89 291 19:19 13.10.2021
5968 Clouds 5 1009 87 10000 0.45 289 18:37 13.10.2021
5969 Clouds 9 1008 73 10000 0.45 292 15:53 13.10.2021
5970 Clouds 10 1007 74 10000 1.34 330 14:46 13.10.2021
5971 Clouds 9 1007 77 10000 0.45 298 14:22 13.10.2021
5972 Clouds 8 1007 81 10000 1.34 343 12:23 13.10.2021
5973 Clouds 8 1006 83 10000 0.89 317 11:35 13.10.2021
5974 Clouds 6 1006 97 10000 1.34 327 08:57 13.10.2021
5975 Clouds 6 1005 91 7000 0.89 4 07:43 13.10.2021
5976 Clouds 7 1004 91 7000 1.34 325 02:30 13.10.2021
5977 Drizzle 7 1005 91 8000 1.03 360 01:47 13.10.2021
5978 Clouds 7 1005 87 10000 1.34 339 23:31 12.10.2021
5979 Clouds 7 1005 89 10000 0.45 30 22:47 12.10.2021
5980 Rain 7 1005 88 10000 0.45 342 22:23 12.10.2021
5981 Rain 7 1004 91 10000 0.89 348 20:46 12.10.2021
5982 Rain 7 1004 91 10000 0.89 308 20:18 12.10.2021
5983 Clouds 8 1004 86 10000 0.89 321 18:45 12.10.2021
5984 Clouds 8 1004 86 10000 0.89 333 18:18 12.10.2021
5985 Clouds 9 1004 81 10000 0.89 194 16:44 12.10.2021
5986 Clouds 10 1003 79 10000 1.34 190 15:58 12.10.2021
5987 Clouds 10 1003 82 10000 0.89 199 14:46 12.10.2021
5988 Clouds 10 1003 83 10000 1.03 0 13:44 12.10.2021
5989 Clouds 9 1003 87 10000 0.45 322 12:40 12.10.2021
5990 Rain 8 1002 89 10000 0.89 221 10:20 12.10.2021
5991 Rain 7 1002 88 10000 2.06 160 08:44 12.10.2021
5992 Rain 7 1002 87 10000 0.89 195 07:54 12.10.2021
5993 Clouds 7 1002 87 10000 0.89 178 05:31 12.10.2021
5994 Rain 7 1002 89 10000 2.68 223 04:33 12.10.2021
5995 Clouds 9 1003 85 10000 4.02 184 01:28 12.10.2021
5996 Clouds 9 1003 84 10000 4.47 192 23:41 11.10.2021
5997 Clouds 9 1003 82 10000 2.24 191 22:59 11.10.2021
5998 Clouds 9 1004 78 10000 4.92 198 21:46 11.10.2021
5999 Clouds 9 1004 78 10000 4.92 198 21:46 11.10.2021
6000 Clouds 8 1005 79 10000 4.47 201 21:18 11.10.2021
6001 Rain 9 1006 82 10000 3.58 189 19:46 11.10.2021
6002 Clouds 10 1006 78 10000 5.36 185 18:43 11.10.2021
6003 Clouds 10 1006 76 10000 4.47 191 17:54 11.10.2021
6004 Clouds 11 1007 74 10000 2.68 182 16:39 11.10.2021
6005 Clouds 11 1008 74 10000 2.24 205 15:51 11.10.2021
6006 Clouds 11 1008 73 10000 3.58 187 15:23 11.10.2021
6007 Clouds 11 1011 75 10000 3.58 183 14:42 11.10.2021
6008 Clouds 11 1012 79 10000 4.47 183 13:37 11.10.2021
6009 Clouds 11 1013 81 10000 4.02 199 11:52 11.10.2021
6010 Clouds 10 1014 87 10000 3.58 209 10:43 11.10.2021
6011 Clouds 10 1014 86 10000 4.02 190 09:44 11.10.2021
6012 Clouds 10 1012 84 10000 3.58 194 07:29 11.10.2021
6013 Clouds 11 1016 82 10000 4.02 212 01:41 11.10.2021
6014 Clouds 11 1016 82 10000 3.58 215 00:50 11.10.2021
6015 Clouds 11 1017 82 10000 4.02 220 00:28 11.10.2021
6016 Clouds 11 1018 82 10000 3.58 220 21:57 10.10.2021
6017 Clouds 11 1018 82 10000 3.58 232 21:32 10.10.2021
6018 Clouds 11 1018 81 10000 3.58 220 20:48 10.10.2021
6019 Clouds 11 1018 81 10000 3.13 227 20:21 10.10.2021
6020 Clouds 11 1019 81 10000 3.58 227 19:59 10.10.2021
6021 Clouds 11 1019 81 10000 2.68 223 19:36 10.10.2021
6022 Clouds 11 1019 82 10000 2.68 217 18:36 10.10.2021
6023 Clouds 12 1023 82 10000 4.02 220 16:46 10.10.2021
6024 Clouds 12 1024 83 10000 1.79 228 15:46 10.10.2021
6025 Clouds 12 1021 82 10000 2.68 230 13:57 10.10.2021
6026 Clouds 12 1022 83 10000 4.02 219 13:33 10.10.2021
6027 Clouds 12 1022 83 10000 2.68 232 12:35 10.10.2021
6028 Clouds 11 1022 85 10000 3.58 214 10:44 10.10.2021
6029 Rain 11 1022 87 10000 2.68 231 09:30 10.10.2021
6030 Rain 11 1023 88 10000 2.24 218 08:53 10.10.2021
6031 Clouds 11 1023 87 10000 3.13 231 07:28 10.10.2021
6032 Mist 11 1026 92 1600 1.79 209 02:45 10.10.2021
6033 Drizzle 11 1027 92 3500 2.24 197 00:57 10.10.2021
6034 Drizzle 11 1027 92 3500 1.79 202 00:23 10.10.2021
6035 Drizzle 11 1027 89 4000 2.68 188 22:52 09.10.2021
6036 Drizzle 11 1028 89 7000 1.34 209 21:45 09.10.2021
6037 Drizzle 11 1028 89 7000 2.24 210 21:26 09.10.2021
6038 Drizzle 12 1029 87 10000 2.68 210 19:44 09.10.2021
6039 Clouds 12 1029 86 10000 1.79 212 18:59 09.10.2021
6040 Clouds 12 1029 86 10000 1.79 190 18:33 09.10.2021
6041 Clouds 13 1029 85 10000 1.79 217 16:43 09.10.2021
6042 Clouds 13 1029 88 10000 2.68 221 15:33 09.10.2021
6043 Drizzle 13 1030 88 8000 1.34 201 13:44 09.10.2021
6044 Clouds 13 1030 87 10000 2.24 198 12:40 09.10.2021
6045 Clouds 12 1030 96 10000 1.34 218 11:48 09.10.2021
6046 Drizzle 12 1030 94 9000 1.34 222 10:42 09.10.2021
6047 Mist 12 1030 89 4000 1.79 230 09:40 09.10.2021
6048 Clouds 11 1030 92 7000 0.89 211 08:30 09.10.2021
6049 Clouds 11 1030 91 9000 0.89 212 07:48 09.10.2021
6050 Clouds 11 1030 89 8000 0.89 218 05:29 09.10.2021
6051 Clouds 11 1033 89 10000 1.34 241 02:59 09.10.2021
6052 Clouds 11 1033 89 10000 1.79 233 02:39 09.10.2021
6053 Clouds 11 1033 87 10000 1.34 252 23:41 08.10.2021
6054 Clouds 11 1033 86 10000 2.24 237 22:54 08.10.2021
6055 Clouds 11 1034 86 10000 2.24 236 22:23 08.10.2021
6056 Clouds 11 1034 86 10000 2.24 216 20:55 08.10.2021
6057 Clouds 11 1034 86 10000 3.58 214 18:54 08.10.2021
6058 Clouds 12 1035 84 10000 1.34 226 17:34 08.10.2021
6059 Clouds 12 1032 82 10000 1.34 237 16:51 08.10.2021
6060 Clouds 12 1032 81 10000 1.34 223 16:23 08.10.2021
6061 Clouds 12 1035 84 10000 2.68 194 13:57 08.10.2021
6062 Clouds 12 1033 88 10000 1.79 197 12:48 08.10.2021
6063 Clouds 12 1033 85 10000 1.79 198 11:32 08.10.2021
6064 Clouds 11 1033 88 10000 1.79 198 10:41 08.10.2021
6065 Clouds 11 1033 88 10000 1.34 221 09:18 08.10.2021
6066 Clouds 11 1030 89 10000 1.79 221 23:55 07.10.2021
6067 Drizzle 11 1030 89 9000 2.68 214 23:18 07.10.2021
6068 Clouds 11 1029 90 10000 2.68 218 21:45 07.10.2021
6069 Clouds 10 1029 88 10000 2.24 225 21:20 07.10.2021
6070 Drizzle 10 1029 90 6000 3.13 205 19:57 07.10.2021
6071 Drizzle 10 1029 91 5000 2.24 212 19:28 07.10.2021
6072 Clouds 10 1028 91 7000 2.24 227 18:22 07.10.2021
6073 Drizzle 10 1028 89 4500 2.68 225 17:18 07.10.2021
6074 Drizzle 10 1027 89 6000 2.68 216 15:34 07.10.2021
6075 Clouds 10 1027 89 5000 4.02 193 13:47 07.10.2021
6076 Rain 10 1027 85 8000 2.24 201 13:28 07.10.2021
6077 Clouds 11 1027 78 10000 2.68 201 12:40 07.10.2021
6078 Clouds 11 1026 77 10000 3.58 217 10:49 07.10.2021
6079 Clouds 11 1026 76 10000 5.81 189 10:19 07.10.2021
6080 Clouds 11 1026 76 10000 4.02 190 08:56 07.10.2021
6081 Clouds 11 1026 77 10000 3.58 196 08:35 07.10.2021
6082 Clouds 11 1025 74 10000 4.47 184 07:42 07.10.2021
6083 Clouds 11 1025 74 10000 2.68 186 06:57 07.10.2021
6084 Clear 13 1024 68 10000 1.79 184 02:24 07.10.2021
6085 Clear 13 1024 69 10000 1.34 182 23:40 06.10.2021
6086 Clear 13 1024 74 10000 2.68 180 22:46 06.10.2021
6087 Clouds 13 1024 73 10000 2.24 173 21:49 06.10.2021
6088 Clear 13 1023 70 10000 1.34 186 20:35 06.10.2021
6089 Clear 13 1023 70 10000 0.89 178 19:46 06.10.2021
6090 Clear 13 1022 67 10000 1.34 178 18:39 06.10.2021
6091 Clear 13 1021 68 10000 1.34 184 16:55 06.10.2021
6092 Clear 13 1021 66 10000 1.34 198 15:26 06.10.2021
6093 Clear 13 1021 67 10000 0.89 176 13:54 06.10.2021
6094 Clear 13 1020 67 10000 0.89 169 12:57 06.10.2021
6095 Clear 13 1020 69 10000 0.89 185 12:39 06.10.2021
6096 Clear 12 1020 70 10000 0.89 207 12:20 06.10.2021
6097 Clear 11 1020 75 10000 1.34 171 09:58 06.10.2021
6098 Clear 10 1020 77 10000 1.34 191 09:38 06.10.2021
6099 Clear 10 1020 79 10000 1.34 201 08:42 06.10.2021
6100 Clear 10 1020 81 10000 0.89 182 07:20 06.10.2021
6101 Clear 10 1020 80 10000 0.89 180 05:26 06.10.2021
6102 Clear 10 1021 80 10000 0.89 164 00:26 06.10.2021
6103 Clear 10 1021 79 10000 0.45 186 23:52 05.10.2021
6104 Clear 10 1021 80 10000 0.45 190 23:52 05.10.2021
6105 Clear 10 1021 84 10000 0.89 146 23:32 05.10.2021
6106 Clear 10 1021 84 10000 0.89 160 22:44 05.10.2021
6107 Clouds 10 1022 84 10000 0.89 191 21:58 05.10.2021
6108 Clouds 10 1022 84 10000 0.89 191 21:58 05.10.2021
6109 Clouds 10 1022 84 10000 0.89 188 21:36 05.10.2021
6110 Rain 10 1024 85 10000 0.45 137 20:41 05.10.2021
6111 Rain 10 1024 85 10000 0.45 193 20:22 05.10.2021
6112 Rain 10 1024 88 10000 0.45 200 19:33 05.10.2021
6113 Clouds 10 1022 91 10000 0.89 154 18:49 05.10.2021
6114 Rain 10 1021 91 10000 0.45 171 16:36 05.10.2021
6115 Clouds 10 1021 89 10000 0.89 185 14:30 05.10.2021
6116 Rain 10 1021 89 10000 0.89 195 13:33 05.10.2021
6117 Rain 10 1021 89 10000 1.34 171 12:38 05.10.2021
6118 Rain 10 1021 88 10000 0.89 167 11:59 05.10.2021
6119 Rain 10 1020 86 10000 1.34 185 10:39 05.10.2021
6120 Rain 10 1020 86 10000 1.34 185 10:39 05.10.2021
6121 Clouds 11 1020 78 10000 2.68 178 08:56 05.10.2021
6122 Clear 11 1019 78 10000 1.34 181 03:56 05.10.2021
6123 Clear 12 1020 75 10000 1.34 199 23:53 04.10.2021
6124 Clear 13 1020 75 10000 1.34 209 21:59 04.10.2021
6125 Clear 13 1020 75 10000 0.89 157 19:34 04.10.2021
6126 Clear 13 1020 71 10000 0.89 193 17:59 04.10.2021
6127 Clear 14 1020 70 10000 1.34 167 16:23 04.10.2021
6128 Clear 14 1020 70 10000 0.89 181 15:31 04.10.2021
6129 Clear 14 1020 70 10000 1.34 154 14:42 04.10.2021
6130 Clear 13 1020 70 10000 1.34 137 13:48 04.10.2021
6131 Clear 13 1020 71 10000 1.34 146 13:24 04.10.2021
6132 Clear 12 1020 75 10000 0.89 151 11:35 04.10.2021
6133 Clear 11 1020 77 10000 0.45 179 10:48 04.10.2021
6134 Clear 10 1020 82 10000 1.34 142 09:51 04.10.2021
6135 Clear 10 1020 85 10000 1.34 186 08:33 04.10.2021
6136 Clear 8 1019 85 10000 0.89 215 06:51 04.10.2021
6137 Clouds 10 1020 87 10000 0.89 203 23:43 03.10.2021
6138 Clouds 11 1020 85 10000 0.89 182 22:33 03.10.2021
6139 Clear 11 1020 85 10000 1.34 162 21:37 03.10.2021
6140 Clouds 11 1020 85 10000 0.89 201 20:54 03.10.2021
6141 Clear 12 1020 82 10000 0.89 150 19:56 03.10.2021
6142 Clear 12 1020 83 10000 0.89 167 18:33 03.10.2021
6143 Clear 12 1020 80 10000 1.34 148 17:41 03.10.2021
6144 Clear 13 1020 72 10000 1.34 131 15:45 03.10.2021
6145 Clear 13 1020 74 10000 1.34 129 14:42 03.10.2021
6146 Clouds 13 1020 77 10000 1.79 141 13:40 03.10.2021
6147 Clouds 13 1020 77 10000 1.34 133 13:20 03.10.2021
6148 Clouds 12 1021 76 10000 0.89 142 11:49 03.10.2021
6149 Clouds 11 1021 75 10000 0.89 138 10:35 03.10.2021
6150 Clear 9 1021 84 10000 1.34 171 08:33 03.10.2021
6151 Clear 9 1022 82 10000 0.89 181 00:26 03.10.2021
6152 Clear 10 1022 81 10000 0.89 165 22:23 02.10.2021
6153 Clear 9 1024 86 10000 2.57 110 20:50 02.10.2021
6154 Clear 10 1022 86 10000 0.45 214 18:59 02.10.2021
6155 Clear 10 1022 82 10000 0.89 141 18:31 02.10.2021
6156 Clouds 11 1022 81 10000 0.89 127 17:38 02.10.2021
6157 Clouds 13 1022 74 10000 0.45 139 16:46 02.10.2021
6158 Clouds 12 1023 76 10000 0.89 168 14:42 02.10.2021
6159 Clouds 10 1029 72 10000 0.45 147 15:38 30.09.2021
6160 Clouds 10 1030 70 10000 0.89 152 14:42 30.09.2021
6161 Clouds 10 1030 67 10000 0.45 201 12:22 30.09.2021
6162 Clouds 9 1031 70 10000 1.79 185 11:29 30.09.2021
6163 Clouds 10 1028 69 10000 0.89 196 10:26 30.09.2021
6164 Clouds 10 1030 82 10000 0.45 206 08:32 30.09.2021
6165 Clouds 10 1028 83 10000 1.34 171 07:57 30.09.2021
6166 Clear 9 1029 88 10000 0.45 180 05:25 30.09.2021
6167 Clouds 9 1031 91 10000 0.89 161 02:33 30.09.2021
6168 Clouds 9 1030 91 10000 1.34 175 00:35 30.09.2021
6169 Clouds 9 1030 91 10000 0.89 193 22:59 29.09.2021
6170 Clouds 10 1030 85 10000 0.45 189 21:54 29.09.2021
6171 Clear 10 1030 86 10000 3.09 100 20:40 29.09.2021
6172 Clear 10 1032 85 10000 0.45 116 20:20 29.09.2021
6173 Clear 10 1032 87 10000 0.89 145 19:24 29.09.2021
6174 Clear 10 1032 87 10000 0.89 129 18:18 29.09.2021
6175 Clouds 10 1032 88 10000 0.89 137 16:56 29.09.2021
6176 Clouds 10 1033 88 10000 0.45 140 16:28 29.09.2021
6177 Clouds 11 1031 87 10000 0.45 164 15:35 29.09.2021
6178 Clouds 11 1033 85 10000 4.12 130 14:37 29.09.2021
6179 Clouds 11 1031 84 10000 0.45 187 13:33 29.09.2021
6180 Clouds 11 1031 84 10000 0.45 155 12:39 29.09.2021
6181 Clouds 11 1031 85 10000 0.89 174 11:23 29.09.2021
6182 Clouds 10 1031 88 10000 0.89 142 10:28 29.09.2021
6183 Clouds 10 1031 89 10000 0.45 202 09:41 29.09.2021
6184 Clouds 8 1031 91 10000 0.45 174 07:51 29.09.2021
6185 Clouds 8 1033 92 10000 3.09 60 06:46 29.09.2021
6186 Clouds 8 1034 88 10000 0.89 114 00:28 29.09.2021
6187 Clouds 9 1034 84 10000 0.45 130 22:26 28.09.2021
6188 Clouds 9 1034 82 10000 0.89 119 21:54 28.09.2021
6189 Clouds 9 1034 80 10000 0.89 116 21:19 28.09.2021
6190 Clouds 9 1034 82 10000 0.89 129 19:49 28.09.2021
6191 Clouds 9 1033 82 10000 1.34 124 19:27 28.09.2021
6192 Clouds 10 1033 81 10000 0.89 159 18:41 28.09.2021
6193 Clouds 11 1033 77 10000 0.89 118 16:54 28.09.2021
6194 Clouds 11 1033 76 10000 1.34 137 15:19 28.09.2021
6195 Clouds 11 1033 81 10000 1.79 124 13:27 28.09.2021
6196 Clouds 11 1033 84 10000 1.34 137 12:24 28.09.2021
6197 Clouds 11 1033 86 10000 1.34 125 11:48 28.09.2021
6198 Clouds 10 1033 87 10000 0.89 135 11:27 28.09.2021
6199 Clouds 10 1033 89 8000 0.89 124 10:27 28.09.2021
6200 Fog 9 1032 94 500 0.45 143 09:29 28.09.2021
6201 Fog 7 1030 97 600 0.45 84 08:43 28.09.2021
6202 Clouds 7 1030 97 8000 0.45 60 08:18 28.09.2021
6203 Fog 5 1029 96 900 1.79 329 06:46 28.09.2021
6204 Clear 4 1030 91 10000 0.89 344 01:35 28.09.2021
6205 Fog 5 1030 92 10000 0.45 339 00:32 28.09.2021
6206 Clear 5 1030 93 10000 0.89 330 23:49 27.09.2021
6207 Clear 6 1030 91 10000 0.45 355 23:24 27.09.2021
6208 Clear 6 1029 93 10000 0.45 356 22:21 27.09.2021
6209 Clear 6 1029 93 10000 1.54 50 21:38 27.09.2021
6210 Clear 7 1029 92 10000 0.45 85 20:27 27.09.2021
6211 Clear 8 1029 88 10000 1.54 90 19:37 27.09.2021
6212 Clear 9 1029 82 10000 2.06 100 18:53 27.09.2021
6213 Clear 11 1029 74 10000 0.45 128 17:41 27.09.2021
6214 Clear 11 1029 74 10000 0.45 128 17:41 27.09.2021
6215 Clear 12 1031 74 10000 0.45 154 16:59 27.09.2021
6216 Clear 13 1031 73 10000 0.45 148 16:35 27.09.2021
6217 Clouds 13 1029 68 10000 0.89 136 15:39 27.09.2021
6218 Clouds 14 1030 67 10000 0.45 192 13:50 27.09.2021
6219 Clouds 13 1030 75 10000 0.45 160 12:25 27.09.2021
6220 Clouds 12 1029 77 10000 0.89 130 10:50 27.09.2021
6221 Fog 9 1031 90 300 0.89 100 09:42 27.09.2021
6222 Fog 5 1029 94 300 0.51 0 07:57 27.09.2021
6223 Fog 5 1027 92 300 0.89 318 03:40 27.09.2021
6224 Clear 5 1025 89 10000 0.45 321 23:53 26.09.2021
6225 Clear 7 1024 84 10000 1.54 40 21:59 26.09.2021
6226 Clear 7 1024 86 10000 0.45 315 21:27 26.09.2021
6227 Clear 8 1023 84 10000 0.45 307 20:30 26.09.2021
6228 Clear 9 1023 83 10000 1.54 320 19:54 26.09.2021
6229 Clear 9 1023 79 10000 1.54 20 19:26 26.09.2021
6230 Clear 9 1023 79 10000 1.54 340 19:26 26.09.2021
6231 Clear 9 1023 79 10000 1.54 340 19:26 26.09.2021
6232 Clear 11 1022 75 10000 0.45 327 18:41 26.09.2021
6233 Clear 13 1022 60 10000 1.79 330 17:38 26.09.2021
6234 Clear 14 1022 57 10000 1.79 330 17:20 26.09.2021
6235 Clear 14 1021 55 10000 1.34 327 16:23 26.09.2021
6236 Clear 14 1021 55 10000 1.79 337 15:47 26.09.2021
6237 Clear 14 1020 57 10000 2.24 309 14:23 26.09.2021
6238 Clear 14 1020 60 10000 1.79 341 13:43 26.09.2021
6239 Clouds 13 1019 68 10000 0.89 347 12:31 26.09.2021
6240 Clouds 12 1019 69 10000 2.24 308 11:56 26.09.2021
6241 Clouds 12 1018 69 10000 2.24 327 11:26 26.09.2021
6242 Clouds 10 1019 76 10000 3.58 343 09:52 26.09.2021
6243 Clouds 9 1018 84 10000 1.79 331 08:52 26.09.2021
6244 Clouds 10 1009 81 10000 3.13 314 01:18 26.09.2021
6245 Clouds 10 1009 81 10000 3.13 312 01:18 26.09.2021
6246 Clouds 10 1007 82 10000 2.68 314 00:18 26.09.2021
6247 Clear 10 1006 86 10000 1.79 305 22:40 25.09.2021
6248 Clear 10 1006 85 10000 3.13 315 22:20 25.09.2021
6249 Clear 10 1006 83 10000 2.68 315 21:47 25.09.2021
6250 Clear 10 1003 84 10000 1.79 306 20:53 25.09.2021
6251 Clouds 11 1002 83 10000 2.68 311 19:53 25.09.2021
6252 Clouds 11 1001 84 10000 0.45 218 18:31 25.09.2021
6253 Clouds 12 1000 81 10000 0.89 218 17:46 25.09.2021
6254 Clouds 12 997 82 10000 2.68 334 14:46 25.09.2021
6255 Clouds 11 997 84 10000 2.68 314 13:55 25.09.2021
6256 Clouds 11 996 85 10000 2.24 310 12:46 25.09.2021
6257 Clouds 10 995 90 10000 0.89 279 11:29 25.09.2021
6258 Clouds 9 994 92 10000 1.34 253 10:20 25.09.2021
6259 Clouds 9 993 96 10000 0.89 246 09:24 25.09.2021
6260 Clouds 8 993 94 10000 0.89 292 07:49 25.09.2021
6261 Rain 8 994 97 10000 0.89 215 00:56 25.09.2021
6262 Rain 8 994 97 10000 1.79 185 23:33 24.09.2021
6263 Clouds 8 996 94 7000 0.89 160 21:39 24.09.2021
6264 Clouds 8 996 92 10000 0.45 195 20:32 24.09.2021
6265 Clouds 8 997 91 10000 0.89 183 19:43 24.09.2021
6266 Clouds 9 998 91 10000 0.45 146 18:29 24.09.2021
6267 Clouds 9 998 91 10000 1.34 137 17:53 24.09.2021
6268 Clouds 8 997 91 10000 1.34 133 17:34 24.09.2021
6269 Clouds 8 996 92 10000 1.34 132 15:59 24.09.2021
6270 Clouds 8 996 92 10000 1.34 91 13:28 24.09.2021
6271 Clouds 8 994 91 10000 1.34 125 12:44 24.09.2021
6272 Clouds 8 995 92 10000 0.89 113 12:25 24.09.2021
6273 Clouds 8 996 96 10000 0.45 274 10:56 24.09.2021
6274 Clouds 8 993 96 10000 6.17 70 09:57 24.09.2021
6275 Rain 8 992 98 10000 5.66 70 08:23 24.09.2021
6276 Rain 8 991 96 5000 5.66 80 07:30 24.09.2021
6277 Drizzle 8 990 96 5000 6.17 90 05:57 24.09.2021
6278 Rain 8 989 95 6000 7.2 90 04:51 24.09.2021
6279 Rain 8 993 92 5000 9.39 131 22:38 23.09.2021
6280 Rain 8 994 90 7517 14.31 147 21:59 23.09.2021
6281 Rain 9 994 90 7000 12.52 148 21:20 23.09.2021
6282 Rain 9 994 90 7000 12.52 148 21:20 23.09.2021
6283 Rain 9 995 83 7000 11.62 151 20:32 23.09.2021
6284 Clouds 9 997 80 10000 12.96 151 18:36 23.09.2021
6285 Clouds 10 1000 76 10000 9.39 147 16:39 23.09.2021
6286 Clouds 10 1003 76 10000 8.94 164 15:19 23.09.2021
6287 Clouds 10 1004 77 10000 8.05 148 14:52 23.09.2021
6288 Clouds 9 1005 78 10000 7.6 158 13:27 23.09.2021
6289 Clouds 9 1006 76 10000 8.05 175 12:57 23.09.2021
6290 Clouds 9 1006 75 10000 8.05 175 12:37 23.09.2021
6291 Clouds 9 1007 76 10000 8.05 175 12:18 23.09.2021
6292 Clouds 9 1007 82 10000 7.2 150 10:31 23.09.2021
6293 Clouds 8 1008 84 10000 6.17 160 09:54 23.09.2021
6294 Clouds 8 1009 77 10000 5.66 150 08:56 23.09.2021
6295 Clouds 5 1012 90 10000 2.06 140 05:32 23.09.2021
6296 Clouds 3 1016 88 10000 1.03 0 00:21 23.09.2021
6297 Clear 3 1017 86 10000 0 0 22:52 22.09.2021
6298 Clear 4 1018 86 10000 0.51 0 22:20 22.09.2021
6299 Clear 4 1018 88 10000 0.51 0 21:42 22.09.2021
6300 Clear 5 1018 88 10000 0 0 20:57 22.09.2021
6301 Clear 6 1019 84 10000 0.51 0 19:48 22.09.2021
6302 Clear 7 1019 83 10000 0.51 0 19:26 22.09.2021
6303 Clouds 8 1019 76 10000 3.09 200 18:30 22.09.2021
6304 Clouds 10 1020 71 10000 1.63 170 17:18 22.09.2021
6305 Clouds 11 1021 63 10000 2.06 70 15:38 22.09.2021
6306 Clouds 11 1021 64 10000 2.06 30 14:27 22.09.2021
6307 Clouds 10 1022 69 10000 2.06 100 12:55 22.09.2021
6308 Clouds 9 1025 70 10000 0.45 198 11:18 22.09.2021
6309 Clear 6 1025 81 10000 1.79 46 09:30 22.09.2021
6310 Clear 5 1025 87 10000 2.68 32 08:44 22.09.2021
6311 Clear 2 1024 87 10000 2.68 43 07:31 22.09.2021
6312 Clear 1 1022 89 10000 3.09 20 06:23 22.09.2021
6313 Clear 2 1023 89 10000 2.57 360 05:48 22.09.2021
6314 Clear 2 1025 89 10000 2.68 32 03:59 22.09.2021
6315 Clear 2 1024 89 10000 2.24 33 02:55 22.09.2021
6316 Clouds 4 1024 87 10000 2.68 46 23:31 21.09.2021
6317 Clouds 5 1024 86 10000 2.24 30 21:49 21.09.2021
6318 Clouds 6 1025 83 10000 1.79 13 20:31 21.09.2021
6319 Clouds 6 1024 81 10000 1.34 11 19:25 21.09.2021
6320 Clouds 7 1022 78 10000 2.06 350 18:35 21.09.2021
6321 Clouds 8 1023 75 10000 1.34 68 16:47 21.09.2021
6322 Clouds 9 1022 73 10000 2.57 360 15:56 21.09.2021
6323 Clouds 8 1023 72 10000 1.79 40 14:59 21.09.2021
6324 Clouds 9 1022 72 10000 3.09 40 13:58 21.09.2021
6325 Clouds 9 1022 73 10000 3.09 40 13:39 21.09.2021
6326 Clouds 8 1024 76 10000 1.34 49 12:44 21.09.2021
6327 Clouds 6 1022 81 10000 4.12 30 10:42 21.09.2021
6328 Clouds 6 1023 81 10000 3.6 30 08:57 21.09.2021
6329 Clouds 3 1023 93 10000 3.09 20 07:37 21.09.2021
6330 Clouds 3 1023 93 10000 3.09 20 07:37 21.09.2021
6331 Clouds 4 1023 87 10000 3.6 20 05:18 21.09.2021
6332 Clouds 5 1025 75 10000 3.6 20 22:54 20.09.2021
6333 Clouds 5 1026 75 10000 3.09 30 21:43 20.09.2021
6334 Clouds 6 1026 70 10000 3.6 20 21:24 20.09.2021
6335 Clouds 7 1028 68 10000 2.24 126 19:47 20.09.2021
6336 Clouds 9 1027 65 10000 1.79 39 17:54 20.09.2021
6337 Clouds 9 1027 64 10000 2.24 62 17:19 20.09.2021
6338 Clouds 10 1027 64 10000 2.24 67 16:23 20.09.2021
6339 Clouds 10 1026 61 10000 5.66 30 15:36 20.09.2021
6340 Clouds 10 1028 62 10000 1.79 53 14:27 20.09.2021
6341 Clouds 10 1029 61 10000 1.79 90 12:44 20.09.2021
6342 Clouds 10 1029 63 10000 0.89 64 12:22 20.09.2021
6343 Clouds 8 1029 66 10000 2.68 70 10:52 20.09.2021
6344 Clouds 8 1029 68 10000 1.79 182 09:51 20.09.2021
6345 Clouds 8 1029 68 10000 3.58 134 09:31 20.09.2021
6346 Clouds 7 1029 70 10000 4.02 69 08:35 20.09.2021
6347 Clouds 6 1027 77 10000 5.14 30 06:22 20.09.2021
6348 Clouds 6 1027 77 10000 5.14 30 06:22 20.09.2021
6349 Clouds 7 1029 70 10000 4.02 38 22:58 19.09.2021
6350 Clouds 8 1029 68 10000 2.68 76 21:50 19.09.2021
6351 Clouds 8 1029 70 10000 1.79 51 20:59 19.09.2021
6352 Clouds 8 1028 69 10000 2.68 75 19:54 19.09.2021
6353 Clouds 9 1028 68 10000 1.34 53 18:53 19.09.2021
6354 Clouds 9 1028 68 10000 1.34 53 18:53 19.09.2021
6355 Clouds 10 1028 66 10000 0.45 342 17:42 19.09.2021
6356 Clouds 10 1027 61 10000 1.79 86 16:35 19.09.2021
6357 Clouds 10 1028 62 10000 1.79 94 15:31 19.09.2021
6358 Clouds 10 1026 60 10000 5.66 60 14:49 19.09.2021
6359 Clouds 10 1028 66 10000 0.89 76 13:52 19.09.2021
6360 Clouds 9 1029 65 10000 1.34 335 12:55 19.09.2021
6361 Clouds 9 1029 67 10000 2.68 232 11:46 19.09.2021
6362 Clouds 9 1029 66 10000 2.24 107 11:22 19.09.2021
6363 Clouds 8 1028 70 10000 4.02 32 09:51 19.09.2021
6364 Clouds 8 1029 70 10000 3.13 56 09:23 19.09.2021
6365 Clouds 7 1026 76 10000 4.63 40 06:48 19.09.2021
6366 Clouds 8 1028 75 10000 3.13 72 00:48 19.09.2021
6367 Clouds 8 1028 79 10000 4.02 57 22:58 18.09.2021
6368 Clouds 8 1028 79 10000 2.68 60 21:56 18.09.2021
6369 Clouds 8 1026 77 10000 3.6 40 20:46 18.09.2021
6370 Clouds 8 1027 77 10000 1.79 59 19:42 18.09.2021
6371 Clouds 8 1028 75 10000 1.79 59 19:22 18.09.2021
6372 Clouds 9 1025 73 10000 4.98 71 18:58 18.09.2021
6373 Clouds 9 1025 69 10000 3.09 60 18:29 18.09.2021
6374 Clouds 10 1027 67 10000 0.89 103 16:35 18.09.2021
6375 Clouds 10 1028 75 10000 0.45 252 13:53 18.09.2021
6376 Clouds 10 1027 77 10000 3.6 90 13:31 18.09.2021
6377 Clouds 9 1026 79 10000 3.6 70 12:52 18.09.2021
6378 Clouds 9 1027 80 10000 5.14 100 11:59 18.09.2021
6379 Rain 10 1027 70 10000 6.69 50 11:29 18.09.2021
6380 Rain 9 1028 81 10000 0.89 64 10:23 18.09.2021
6381 Rain 8 1028 81 10000 1.79 82 09:23 18.09.2021
6382 Rain 7 1028 84 10000 1.79 28 08:24 18.09.2021
6383 Clouds 8 1027 73 10000 2.24 64 00:52 18.09.2021
6384 Clouds 8 1030 77 10000 2.68 59 23:55 17.09.2021
6385 Clouds 8 1027 69 10000 2.24 60 22:45 17.09.2021
6386 Clouds 8 1026 68 10000 2.68 59 22:22 17.09.2021
6387 Clouds 8 1026 68 10000 2.24 77 21:32 17.09.2021
6388 Clouds 9 1026 70 10000 1.79 56 19:31 17.09.2021
6389 Clouds 10 1025 67 10000 0.89 137 18:30 17.09.2021
6390 Clouds 10 1025 68 10000 3.13 104 16:34 17.09.2021
6391 Clouds 10 1025 64 10000 0.89 41 14:34 17.09.2021
6392 Clouds 11 1024 60 10000 2.68 51 11:43 17.09.2021
6393 Rain 9 1024 72 10000 1.79 86 09:57 17.09.2021
6394 Clouds 7 1023 75 10000 1.79 120 07:42 17.09.2021
6395 Clear 7 1021 69 10000 5.14 60 05:27 17.09.2021
6396 Clouds 7 1023 77 10000 2.24 93 00:29 17.09.2021
6397 Clouds 7 1023 75 10000 1.34 94 22:41 16.09.2021
6398 Clouds 7 1023 75 10000 1.34 115 22:23 16.09.2021
6399 Clouds 7 1023 73 10000 1.79 71 21:31 16.09.2021
6400 Clouds 8 1023 72 10000 0.89 53 20:29 16.09.2021
6401 Clouds 8 1023 67 10000 0.45 82 18:38 16.09.2021
6402 Clouds 9 1023 67 10000 0.45 106 17:59 16.09.2021
6403 Clouds 10 1021 59 10000 3.09 50 15:31 16.09.2021
6404 Clouds 10 1023 59 10000 0.89 177 14:43 16.09.2021
6405 Clouds 10 1024 59 10000 1.34 39 13:23 16.09.2021
6406 Clouds 10 1024 60 10000 1.79 75 12:40 16.09.2021
6407 Clouds 9 1024 61 10000 1.34 143 11:46 16.09.2021
6408 Clouds 9 1024 64 10000 1.34 103 10:50 16.09.2021
6409 Clouds 8 1024 66 10000 2.24 68 10:21 16.09.2021
6410 Clouds 7 1024 72 10000 1.34 54 08:45 16.09.2021
6411 Clouds 7 1024 79 10000 1.34 70 07:46 16.09.2021
6412 Clouds 7 1022 80 10000 2.06 50 06:55 16.09.2021
6413 Clouds 7 1022 80 10000 2.06 50 06:31 16.09.2021
6414 Clouds 6 1022 93 10000 2.06 40 02:58 16.09.2021
6415 Clouds 7 1022 88 10000 1.03 300 00:46 16.09.2021
6416 Clouds 7 1021 85 10000 1.03 350 22:59 15.09.2021
6417 Clouds 7 1021 82 10000 2.06 350 22:20 15.09.2021
6418 Clouds 7 1021 83 10000 1.54 320 21:30 15.09.2021
6419 Clouds 7 1021 83 10000 1.54 320 21:30 15.09.2021
6420 Clouds 8 1021 82 10000 1.03 330 20:24 15.09.2021
6421 Clouds 8 1021 74 10000 2.06 350 19:29 15.09.2021
6422 Clouds 10 1023 67 10000 1.34 25 18:25 15.09.2021
6423 Clouds 10 1022 65 10000 1.79 50 17:27 15.09.2021
6424 Clouds 10 1022 63 10000 4.02 43 16:27 15.09.2021
6425 Clouds 10 1021 65 10000 3.13 47 14:46 15.09.2021
6426 Clouds 10 1021 66 10000 3.13 47 14:24 15.09.2021
6427 Clouds 10 1021 67 10000 3.58 72 13:40 15.09.2021
6428 Clouds 10 1021 68 10000 2.68 48 13:21 15.09.2021
6429 Clouds 9 1021 71 10000 1.79 78 12:21 15.09.2021
6430 Clouds 9 1020 72 10000 3.13 33 11:47 15.09.2021
6431 Clouds 8 1020 76 10000 2.24 341 10:56 15.09.2021
6432 Clouds 8 1019 79 10000 3.13 8 09:31 15.09.2021
6433 Clouds 6 1018 85 10000 2.68 343 08:41 15.09.2021
6434 Clear 5 1017 88 10000 1.34 309 05:54 15.09.2021
6435 Clear 6 1017 77 10000 0.89 316 23:56 14.09.2021
6436 Clear 7 1017 70 10000 1.79 318 21:58 14.09.2021
6437 Clear 8 1016 67 10000 3.58 311 20:56 14.09.2021
6438 Clear 10 1016 62 10000 3.58 314 19:51 14.09.2021
6439 Clouds 12 1015 53 10000 3.13 349 17:53 14.09.2021
6440 Clouds 12 1015 54 10000 2.68 330 17:28 14.09.2021
6441 Clouds 13 1014 53 10000 4.47 267 15:39 14.09.2021
6442 Clouds 12 1014 55 10000 3.13 300 14:31 14.09.2021
6443 Clouds 11 1015 56 10000 3.13 356 13:20 14.09.2021
6444 Clouds 11 1013 56 10000 4.47 330 10:55 14.09.2021
6445 Clouds 10 1012 63 10000 3.58 349 09:51 14.09.2021
6446 Clouds 9 1012 72 10000 4.47 319 08:49 14.09.2021
6447 Clouds 8 1009 75 10000 5.66 280 06:47 14.09.2021
6448 Clear 9 1011 76 10000 3.58 304 00:41 14.09.2021
6449 Clear 9 1011 73 10000 3.13 278 22:53 13.09.2021
6450 Clear 9 1011 72 10000 3.58 315 22:24 13.09.2021
6451 Clear 9 1011 70 10000 4.47 296 21:53 13.09.2021
6452 Clear 10 1011 67 10000 4.47 324 20:51 13.09.2021
6453 Clear 11 1010 60 10000 4.47 316 19:26 13.09.2021
6454 Clear 12 1009 55 10000 3.58 310 18:43 13.09.2021
6455 Clear 14 1008 52 10000 7.15 321 16:51 13.09.2021
6456 Clouds 15 1007 54 10000 4.92 343 15:32 13.09.2021
6457 Clouds 14 1005 76 10000 5.36 23 12:54 13.09.2021
6458 Clouds 13 1002 88 10000 7.2 310 10:58 13.09.2021
6459 Clouds 14 1002 88 10000 7.2 310 10:58 13.09.2021
6460 Clouds 13 1001 94 10000 6.69 290 09:40 13.09.2021
6461 Clouds 14 1000 95 10000 5.66 300 07:27 13.09.2021
6462 Clouds 15 1005 98 6000 2.24 256 23:41 12.09.2021
6463 Mist 15 1005 98 4000 1.79 266 22:25 12.09.2021
6464 Mist 15 1005 98 3500 1.79 252 21:37 12.09.2021
6465 Clouds 15 1006 96 10000 2.24 259 20:29 12.09.2021
6466 Clouds 15 1007 97 10000 2.24 248 19:51 12.09.2021
6467 Clouds 15 1006 95 10000 2.68 267 19:20 12.09.2021
6468 Clouds 16 1004 95 10000 4.63 230 18:29 12.09.2021
6469 Clouds 16 1007 98 10000 3.58 266 16:32 12.09.2021
6470 Mist 16 1005 98 1500 4.12 180 14:54 12.09.2021
6471 Drizzle 15 1006 95 1500 3.09 160 13:45 12.09.2021
6472 Clouds 14 1009 98 10000 1.34 126 11:31 12.09.2021
6473 Rain 14 1010 96 4000 2.24 113 09:27 12.09.2021
6474 Rain 14 1008 95 3000 3.6 110 08:38 12.09.2021
6475 Fog 13 1014 97 600 2.24 133 01:50 12.09.2021
6476 Fog 13 1012 100 350 2.06 140 23:28 11.09.2021
6477 Fog 14 1012 95 150 2.57 150 21:50 11.09.2021
6478 Mist 14 1014 94 4500 1.54 90 20:31 11.09.2021
6479 Clouds 16 1012 89 10000 2.57 140 19:20 11.09.2021
6480 Clouds 17 1012 86 10000 1.03 0 17:29 11.09.2021
6481 Clouds 18 1012 85 10000 1.03 0 15:48 11.09.2021
6482 Clouds 18 1012 87 10000 1.03 0 13:33 11.09.2021
6483 Clouds 17 1012 88 10000 1.54 220 12:48 11.09.2021
6484 Clouds 16 1012 93 10000 2.57 90 11:18 11.09.2021
6485 Clouds 14 1014 95 10000 0.89 141 09:38 11.09.2021
6486 Clouds 14 1014 94 10000 1.03 0 07:45 11.09.2021
6487 Clouds 13 1012 92 10000 1.54 90 06:48 11.09.2021
6488 Clouds 13 1017 88 10000 3.09 70 23:23 10.09.2021
6489 Clouds 13 1017 89 10000 2.06 60 22:24 10.09.2021
6490 Clouds 13 1018 87 10000 3.25 102 21:53 10.09.2021
6491 Clouds 13 1018 84 10000 0.45 68 19:58 10.09.2021
6492 Clear 14 1018 80 10000 0.45 126 18:26 10.09.2021
6493 Clear 15 1019 73 10000 0.89 147 16:48 10.09.2021
6494 Clouds 16 1017 71 10000 4.63 150 13:55 10.09.2021
6495 Clouds 15 1017 74 10000 2.57 100 11:54 10.09.2021
6496 Clouds 12 1019 90 10000 0.89 126 08:36 10.09.2021
6497 Clouds 11 1018 93 10000 1.79 55 07:48 10.09.2021
6498 Clouds 14 1013 95 10000 2.57 30 00:42 10.09.2021
6499 Clouds 15 1011 90 10000 3.09 10 22:24 09.09.2021
6500 Clouds 15 1011 92 10000 2.57 30 21:39 09.09.2021
6501 Clouds 15 1010 89 10000 3.09 30 20:46 09.09.2021
6502 Clouds 17 1009 69 10000 3.09 250 18:58 09.09.2021
6503 Clear 18 1009 82 10000 5.14 220 17:56 09.09.2021
6504 Clouds 19 1011 80 10000 3.58 255 16:40 09.09.2021
6505 Clouds 21 1009 74 10000 6.17 210 15:27 09.09.2021
6506 Clouds 20 1011 81 10000 4.92 258 12:48 09.09.2021
6507 Clouds 18 1012 85 10000 4.47 262 11:33 09.09.2021
6508 Clear 16 1013 89 10000 0.45 86 09:39 09.09.2021
6509 Clear 14 1012 92 10000 1.54 200 08:32 09.09.2021
6510 Clouds 12 1011 96 10000 2.06 240 06:24 09.09.2021
6511 Clear 13 1013 94 10000 3.09 240 01:31 09.09.2021
6512 Clear 13 1013 94 10000 3.09 240 01:31 09.09.2021
6513 Clouds 15 1012 92 10000 2.24 326 22:34 08.09.2021
6514 Clouds 15 1012 91 10000 1.34 297 20:57 08.09.2021
6515 Clouds 16 1011 89 10000 1.34 284 19:48 08.09.2021
6516 Clouds 16 1011 88 10000 1.34 276 18:50 08.09.2021
6517 Clouds 16 1011 88 10000 1.79 295 18:27 08.09.2021
6518 Clouds 16 1011 87 10000 2.24 269 17:54 08.09.2021
6519 Clouds 17 1011 84 10000 3.58 262 16:27 08.09.2021
6520 Clouds 17 1011 85 10000 3.58 262 13:53 08.09.2021
6521 Clouds 17 1012 87 10000 4.02 265 12:42 08.09.2021
6522 Clouds 17 1012 87 10000 4.92 261 12:24 08.09.2021
6523 Rain 16 1012 89 10000 4.02 283 11:26 08.09.2021
6524 Rain 15 1010 92 10000 3.6 210 10:32 08.09.2021
6525 Clouds 15 1012 93 10000 2.24 284 09:57 08.09.2021
6526 Clear 14 1012 93 10000 1.34 264 07:55 08.09.2021
6527 Clear 13 1012 93 10000 2.68 294 07:29 08.09.2021
6528 Clouds 13 1012 91 10000 4.12 210 23:41 07.09.2021
6529 Clouds 14 1015 91 10000 1.34 256 22:30 07.09.2021
6530 Clouds 14 1016 88 10000 1.34 290 20:50 07.09.2021
6531 Clouds 14 1016 87 10000 2.24 266 19:40 07.09.2021
6532 Clouds 15 1014 85 10000 5.14 210 18:37 07.09.2021
6533 Clouds 15 1017 84 10000 4.02 269 17:40 07.09.2021
6534 Clouds 16 1018 80 10000 3.58 261 15:57 07.09.2021
6535 Clouds 16 1016 78 10000 4.63 210 14:54 07.09.2021
6536 Clouds 16 1017 76 10000 4.12 220 13:52 07.09.2021
6537 Clear 15 1019 70 10000 3.13 273 12:23 07.09.2021
6538 Clear 14 1020 70 10000 2.24 274 10:59 07.09.2021
6539 Clear 13 1020 74 10000 2.68 261 10:20 07.09.2021
6540 Clear 8 1018 87 10000 1.03 260 07:51 07.09.2021
6541 Clear 6 1018 89 10000 1.03 240 06:42 07.09.2021
6542 Clear 6 1020 87 10000 0.89 329 02:43 07.09.2021
6543 Clear 6 1020 87 10000 0.89 326 02:23 07.09.2021
6544 Clear 7 1018 86 10000 1.03 0 00:21 07.09.2021
6545 Clouds 9 1018 81 10000 2.81 301 23:31 06.09.2021
6546 Clear 8 1018 87 10000 1.03 270 22:53 06.09.2021
6547 Clear 9 1018 87 10000 1.03 270 22:24 06.09.2021
6548 Clear 11 1018 81 10000 1.03 280 20:37 06.09.2021
6549 Clear 13 1020 69 10000 3.09 300 19:20 06.09.2021
6550 Clear 15 1019 59 10000 2.57 280 18:36 06.09.2021
6551 Clear 16 1020 56 10000 1.34 301 17:54 06.09.2021
6552 Clouds 16 1020 60 10000 2.68 355 16:34 06.09.2021
6553 Clouds 16 1018 67 10000 3.09 250 15:25 06.09.2021
6554 Clouds 15 1021 75 10000 2.57 260 13:44 06.09.2021
6555 Clouds 16 1019 72 10000 2.06 320 12:45 06.09.2021
6556 Clouds 15 1019 79 10000 1.03 0 10:37 06.09.2021
6557 Clouds 10 1020 92 10000 0 0 07:48 06.09.2021
6558 Clear 10 1022 88 10000 0.45 279 04:36 06.09.2021
6559 Clear 9 1022 72 10000 2.06 220 23:23 05.09.2021
6560 Clear 10 1023 71 10000 2.68 257 22:33 05.09.2021
6561 Clear 10 1025 69 10000 2.68 257 21:56 05.09.2021
6562 Clear 10 1023 64 10000 2.68 263 21:21 05.09.2021
6563 Clear 11 1026 63 10000 3.13 307 19:45 05.09.2021
6564 Clear 13 1024 56 10000 2.68 268 17:52 05.09.2021
6565 Clear 13 1024 54 10000 1.79 273 16:33 05.09.2021
6566 Clouds 14 1025 53 10000 3.58 314 15:20 05.09.2021
6567 Clouds 13 1025 56 10000 4.02 293 12:44 05.09.2021
6568 Clouds 12 1026 57 10000 4.92 281 11:35 05.09.2021
6569 Clouds 11 1026 57 10000 2.24 269 10:40 05.09.2021
6570 Clouds 10 1025 60 10000 3.13 287 09:35 05.09.2021
6571 Clear 8 1025 71 10000 1.79 294 08:34 05.09.2021
6572 Clear 3 1024 83 10000 2.24 315 05:47 05.09.2021
6573 Clear 5 1022 77 10000 2.24 298 00:39 05.09.2021
6574 Clear 6 1022 75 10000 1.79 298 23:56 04.09.2021
6575 Clear 6 1022 73 10000 2.24 297 23:24 04.09.2021
6576 Clear 7 1021 70 10000 2.68 286 22:35 04.09.2021
6577 Clear 8 1020 63 10000 1.79 300 20:58 04.09.2021
6578 Clear 10 1019 58 10000 2.24 309 19:33 04.09.2021
6579 Clear 12 1018 48 10000 3.13 326 17:25 04.09.2021
6580 Clear 13 1017 48 10000 4.92 319 14:37 04.09.2021
6581 Clouds 12 1016 58 10000 4.02 299 11:37 04.09.2021
6582 Clouds 11 1016 59 10000 4.02 350 10:38 04.09.2021
6583 Clear 7 1015 79 10000 3.13 297 07:43 04.09.2021
6584 Clear 7 1011 81 10000 3.58 289 00:50 04.09.2021
6585 Clear 7 1011 81 10000 4.02 296 00:19 04.09.2021
6586 Clear 7 1013 82 10000 3.58 293 23:21 03.09.2021
6587 Clouds 8 1012 79 10000 3.13 291 21:43 03.09.2021
6588 Clouds 8 1012 78 10000 3.13 291 20:58 03.09.2021
6589 Clouds 9 1011 76 10000 3.13 286 20:28 03.09.2021
6590 Rain 9 1011 73 10000 4.02 308 19:35 03.09.2021
6591 Clouds 10 1011 71 10000 3.13 292 18:27 03.09.2021
6592 Clouds 12 1010 64 10000 2.68 307 16:50 03.09.2021
6593 Clouds 13 1009 57 10000 3.13 326 15:39 03.09.2021
6594 Clouds 12 1009 58 10000 3.58 327 14:28 03.09.2021
6595 Clouds 12 1009 58 10000 3.58 327 14:28 03.09.2021
6596 Clouds 11 1008 66 10000 4.47 311 11:21 03.09.2021
6597 Clouds 9 1007 74 10000 4.92 325 09:21 03.09.2021
6598 Clouds 9 1006 76 10000 4.92 324 08:18 03.09.2021
6599 Clouds 9 1004 77 10000 4.47 305 06:49 03.09.2021
6600 Clouds 12 1005 79 10000 4.02 282 23:56 02.09.2021
6601 Clouds 12 1005 80 10000 3.13 279 22:21 02.09.2021
6602 Rain 11 1007 81 10000 2.24 251 20:46 02.09.2021
6603 Rain 13 1010 67 10000 4.02 262 18:49 02.09.2021
6604 Clouds 14 1012 58 10000 4.47 282 16:39 02.09.2021
6605 Clouds 14 1013 55 10000 2.24 278 15:30 02.09.2021
6606 Clouds 14 1014 53 10000 3.13 289 13:33 02.09.2021
6607 Clouds 14 1015 60 10000 3.13 275 11:44 02.09.2021
6608 Clouds 14 1015 61 10000 5.81 277 11:18 02.09.2021
6609 Clear 12 1013 66 10000 2.24 293 08:57 02.09.2021
6610 Clear 8 1015 81 10000 3.58 297 07:28 02.09.2021
6611 Clear 7 1015 83 10000 3.13 294 05:32 02.09.2021
6612 Clear 7 1015 80 10000 4.02 289 02:37 02.09.2021
6613 Clear 8 1015 80 10000 3.58 295 01:49 02.09.2021
6614 Clear 9 1014 78 10000 3.13 300 23:41 01.09.2021
6615 Clear 9 1014 78 10000 3.58 300 23:19 01.09.2021
6616 Clear 9 1012 76 10000 3.13 289 22:29 01.09.2021
6617 Clear 10 1012 73 10000 3.13 292 21:32 01.09.2021
6618 Clouds 11 1011 65 10000 3.13 290 19:37 01.09.2021
6619 Clouds 14 1012 57 10000 4.47 290 17:52 01.09.2021
6620 Clouds 14 1012 60 10000 3.13 297 16:59 01.09.2021
6621 Clouds 14 1012 60 10000 2.24 296 16:35 01.09.2021
6622 Clouds 15 1013 58 10000 3.13 18 13:59 01.09.2021
6623 Clouds 15 1013 59 10000 4.92 308 11:47 01.09.2021
6624 Clouds 13 1013 72 10000 4.92 281 09:49 01.09.2021
6625 Clouds 12 1013 80 10000 3.58 291 08:27 01.09.2021
6626 Clear 11 1012 82 10000 3.58 287 06:42 01.09.2021
6627 Clear 11 1012 83 10000 3.58 296 06:42 01.09.2021
6628 Clear 13 1015 78 10000 2.68 299 23:32 31.08.2021
6629 Clouds 14 1013 77 10000 2.68 305 22:21 31.08.2021
6630 Rain 16 1013 73 10000 1.34 267 19:52 31.08.2021
6631 Clear 17 1013 66 10000 0.89 263 19:23 31.08.2021
6632 Clear 18 1014 58 10000 0.45 167 17:44 31.08.2021
6633 Clear 19 1014 58 10000 1.34 198 17:25 31.08.2021
6634 Clear 19 1014 56 10000 0.89 141 16:41 31.08.2021
6635 Clear 20 1015 52 10000 1.79 327 15:26 31.08.2021
6636 Clear 18 1018 58 10000 2.68 35 12:19 31.08.2021
6637 Clear 17 1018 54 10000 2.68 16 11:19 31.08.2021
6638 Clear 17 1019 58 10000 2.68 51 10:43 31.08.2021
6639 Clear 16 1019 64 10000 3.58 35 09:41 31.08.2021
6640 Clear 12 1019 76 10000 2.68 338 07:48 31.08.2021
6641 Clear 9 1020 76 10000 2.68 344 05:57 31.08.2021
6642 Clear 11 1020 81 10000 2.24 343 23:36 30.08.2021
6643 Clear 12 1020 80 10000 2.24 344 22:36 30.08.2021
6644 Clear 14 1021 73 10000 2.24 6 21:35 30.08.2021
6645 Clear 14 1020 79 10000 2.06 20 20:41 30.08.2021
6646 Clear 16 1020 75 10000 2.06 20 19:53 30.08.2021
6647 Clear 18 1020 68 10000 3.09 30 18:58 30.08.2021
6648 Clear 19 1020 54 10000 2.24 48 17:49 30.08.2021
6649 Clear 20 1020 53 10000 2.68 122 16:27 30.08.2021
6650 Clear 20 1020 51 10000 0.89 6 15:45 30.08.2021
6651 Rain 19 1021 52 10000 4.47 114 13:58 30.08.2021
6652 Clouds 19 1021 54 10000 3.13 61 12:58 30.08.2021
6653 Clouds 18 1022 58 10000 4.92 83 10:42 30.08.2021
6654 Clouds 12 1021 82 10000 3.58 335 03:24 30.08.2021
6655 Clouds 15 1021 80 10000 1.34 109 21:35 29.08.2021
6656 Clear 16 1020 74 10000 1.34 111 20:46 29.08.2021
6657 Clear 17 1019 69 10000 1.79 120 19:27 29.08.2021
6658 Clear 19 1018 65 10000 1.79 141 17:58 29.08.2021
6659 Clear 19 1019 64 10000 3.58 17 15:58 29.08.2021
6660 Clear 19